﻿<?xml version="1.0" encoding="UTF-8"?>
<gpx version="v1.1.5" creator="iTravel Tech Inc. - http://www.itravel-tech.com" xmlns:xsi="http://www.w3.org/2001/XMLSchema-instance" xmlns="http://www.topografix.com/GPX/1/1" xsi:schemaLocation="http://www.topografix.com/GPX/1/1 http://www.topografix.com/GPX/1/1/gpx.xsd http://www.topografix.com/GPX/gpx_overlay/0/3 http://www.topografix.com/GPX/gpx_overlay/0/3/gpx_overlay.xsd http://www.topografix.com/GPX/gpx_modified/0/1 http://www.topografix.com/GPX/gpx_modified/0/1/gpx_modified.xsd">
<trk>
<name>Holux2012/05/03_01:48</name>
<trkseg>
<trkpt lat="42.666775" lon="18.975870">
<ele>389.636963</ele>
<time>2012-05-02T22:48:05Z</time>
<desc>lat.=42.666775, lon.=18.975870, Alt.=389.636963m. Speed=69.335999m/h.</desc>
<speed>19.260000</speed>
</trkpt>
<trkpt lat="42.667381" lon="18.974998">
<ele>393.590088</ele>
<time>2012-05-02T22:48:10Z</time>
<desc>lat.=42.667381, lon.=18.974998, Alt.=393.590088m. Speed=69.552002m/h.</desc>
<speed>19.320001</speed>
</trkpt>
<trkpt lat="42.668098" lon="18.974310">
<ele>395.355713</ele>
<time>2012-05-02T22:48:15Z</time>
<desc>lat.=42.668098, lon.=18.974310, Alt.=395.355713m. Speed=70.524002m/h.</desc>
<speed>19.590001</speed>
</trkpt>
<trkpt lat="42.668850" lon="18.973841">
<ele>400.347900</ele>
<time>2012-05-02T22:48:20Z</time>
<desc>lat.=42.668850, lon.=18.973841, Alt.=400.347900m. Speed=65.052002m/h.</desc>
<speed>18.070001</speed>
</trkpt>
<trkpt lat="42.669601" lon="18.973663">
<ele>408.535400</ele>
<time>2012-05-02T22:48:25Z</time>
<desc>lat.=42.669601, lon.=18.973663, Alt.=408.535400m. Speed=63.216000m/h.</desc>
<speed>17.560000</speed>
</trkpt>
<trkpt lat="42.670391" lon="18.973747">
<ele>413.238525</ele>
<time>2012-05-02T22:48:30Z</time>
<desc>lat.=42.670391, lon.=18.973747, Alt.=413.238525m. Speed=65.087997m/h.</desc>
<speed>18.079999</speed>
</trkpt>
<trkpt lat="42.671223" lon="18.974110">
<ele>415.722900</ele>
<time>2012-05-02T22:48:35Z</time>
<desc>lat.=42.671223, lon.=18.974110, Alt.=415.722900m. Speed=66.096001m/h.</desc>
<speed>18.360000</speed>
</trkpt>
<trkpt lat="42.672028" lon="18.974638">
<ele>417.957275</ele>
<time>2012-05-02T22:48:40Z</time>
<desc>lat.=42.672028, lon.=18.974638, Alt.=417.957275m. Speed=68.723999m/h.</desc>
<speed>19.090000</speed>
</trkpt>
<trkpt lat="42.672878" lon="18.975185">
<ele>420.324463</ele>
<time>2012-05-02T22:48:45Z</time>
<desc>lat.=42.672878, lon.=18.975185, Alt.=420.324463m. Speed=71.891998m/h.</desc>
<speed>19.970000</speed>
</trkpt>
<trkpt lat="42.673752" lon="18.975636">
<ele>422.129150</ele>
<time>2012-05-02T22:48:50Z</time>
<desc>lat.=42.673752, lon.=18.975636, Alt.=422.129150m. Speed=72.396004m/h.</desc>
<speed>20.110001</speed>
</trkpt>
<trkpt lat="42.674686" lon="18.975832">
<ele>421.496338</ele>
<time>2012-05-02T22:48:55Z</time>
<desc>lat.=42.674686, lon.=18.975832, Alt.=421.496338m. Speed=68.975998m/h.</desc>
<speed>19.159999</speed>
</trkpt>
<trkpt lat="42.675659" lon="18.975807">
<ele>422.988525</ele>
<time>2012-05-02T22:49:00Z</time>
<desc>lat.=42.675659, lon.=18.975807, Alt.=422.988525m. Speed=77.003998m/h.</desc>
<speed>21.389999</speed>
</trkpt>
<trkpt lat="42.676605" lon="18.975521">
<ele>424.121338</ele>
<time>2012-05-02T22:49:05Z</time>
<desc>lat.=42.676605, lon.=18.975521, Alt.=424.121338m. Speed=77.328003m/h.</desc>
<speed>21.480001</speed>
</trkpt>
<trkpt lat="42.677422" lon="18.975018">
<ele>424.855713</ele>
<time>2012-05-02T22:49:10Z</time>
<desc>lat.=42.677422, lon.=18.975018, Alt.=424.855713m. Speed=68.940002m/h.</desc>
<speed>19.150001</speed>
</trkpt>
<trkpt lat="42.678078" lon="18.974392">
<ele>427.558838</ele>
<time>2012-05-02T22:49:15Z</time>
<desc>lat.=42.678078, lon.=18.974392, Alt.=427.558838m. Speed=62.675999m/h.</desc>
<speed>17.410000</speed>
</trkpt>
<trkpt lat="42.678638" lon="18.973602">
<ele>427.957275</ele>
<time>2012-05-02T22:49:20Z</time>
<desc>lat.=42.678638, lon.=18.973602, Alt.=427.957275m. Speed=67.283997m/h.</desc>
<speed>18.689999</speed>
</trkpt>
<trkpt lat="42.679127" lon="18.972591">
<ele>429.332275</ele>
<time>2012-05-02T22:49:25Z</time>
<desc>lat.=42.679127, lon.=18.972591, Alt.=429.332275m. Speed=74.592003m/h.</desc>
<speed>20.720001</speed>
</trkpt>
<trkpt lat="42.679470" lon="18.971376">
<ele>428.644775</ele>
<time>2012-05-02T22:49:30Z</time>
<desc>lat.=42.679470, lon.=18.971376, Alt.=428.644775m. Speed=79.019997m/h.</desc>
<speed>21.949999</speed>
</trkpt>
<trkpt lat="42.679726" lon="18.970062">
<ele>431.426025</ele>
<time>2012-05-02T22:49:35Z</time>
<desc>lat.=42.679726, lon.=18.970062, Alt.=431.426025m. Speed=81.612000m/h.</desc>
<speed>22.670000</speed>
</trkpt>
<trkpt lat="42.680038" lon="18.968763">
<ele>434.832275</ele>
<time>2012-05-02T22:49:40Z</time>
<desc>lat.=42.680038, lon.=18.968763, Alt.=434.832275m. Speed=80.388000m/h.</desc>
<speed>22.330000</speed>
</trkpt>
<trkpt lat="42.680408" lon="18.967505">
<ele>435.808838</ele>
<time>2012-05-02T22:49:45Z</time>
<desc>lat.=42.680408, lon.=18.967505, Alt.=435.808838m. Speed=79.596001m/h.</desc>
<speed>22.110000</speed>
</trkpt>
<trkpt lat="42.680931" lon="18.966326">
<ele>439.035400</ele>
<time>2012-05-02T22:49:50Z</time>
<desc>lat.=42.680931, lon.=18.966326, Alt.=439.035400m. Speed=79.524002m/h.</desc>
<speed>22.090001</speed>
</trkpt>
<trkpt lat="42.681580" lon="18.965258">
<ele>443.801025</ele>
<time>2012-05-02T22:49:55Z</time>
<desc>lat.=42.681580, lon.=18.965258, Alt.=443.801025m. Speed=80.603996m/h.</desc>
<speed>22.389999</speed>
</trkpt>
<trkpt lat="42.682369" lon="18.964394">
<ele>447.285400</ele>
<time>2012-05-02T22:50:00Z</time>
<desc>lat.=42.682369, lon.=18.964394, Alt.=447.285400m. Speed=82.080002m/h.</desc>
<speed>22.800001</speed>
</trkpt>
<trkpt lat="42.683247" lon="18.963737">
<ele>450.574463</ele>
<time>2012-05-02T22:50:05Z</time>
<desc>lat.=42.683247, lon.=18.963737, Alt.=450.574463m. Speed=80.639999m/h.</desc>
<speed>22.400000</speed>
</trkpt>
<trkpt lat="42.684151" lon="18.963285">
<ele>456.254150</ele>
<time>2012-05-02T22:50:10Z</time>
<desc>lat.=42.684151, lon.=18.963285, Alt.=456.254150m. Speed=82.043999m/h.</desc>
<speed>22.790000</speed>
</trkpt>
<trkpt lat="42.685173" lon="18.963110">
<ele>458.457275</ele>
<time>2012-05-02T22:50:15Z</time>
<desc>lat.=42.685173, lon.=18.963110, Alt.=458.457275m. Speed=82.692001m/h.</desc>
<speed>22.970000</speed>
</trkpt>
<trkpt lat="42.686211" lon="18.962988">
<ele>462.894775</ele>
<time>2012-05-02T22:50:20Z</time>
<desc>lat.=42.686211, lon.=18.962988, Alt.=462.894775m. Speed=82.800003m/h.</desc>
<speed>23.000001</speed>
</trkpt>
<trkpt lat="42.687267" lon="18.962791">
<ele>468.668213</ele>
<time>2012-05-02T22:50:25Z</time>
<desc>lat.=42.687267, lon.=18.962791, Alt.=468.668213m. Speed=78.480003m/h.</desc>
<speed>21.800001</speed>
</trkpt>
<trkpt lat="42.688187" lon="18.962326">
<ele>473.105713</ele>
<time>2012-05-02T22:50:30Z</time>
<desc>lat.=42.688187, lon.=18.962326, Alt.=473.105713m. Speed=79.704002m/h.</desc>
<speed>22.140001</speed>
</trkpt>
<trkpt lat="42.689117" lon="18.961794">
<ele>479.082275</ele>
<time>2012-05-02T22:50:35Z</time>
<desc>lat.=42.689117, lon.=18.961794, Alt.=479.082275m. Speed=82.008003m/h.</desc>
<speed>22.780001</speed>
</trkpt>
<trkpt lat="42.690090" lon="18.961407">
<ele>485.543213</ele>
<time>2012-05-02T22:50:40Z</time>
<desc>lat.=42.690090, lon.=18.961407, Alt.=485.543213m. Speed=80.928001m/h.</desc>
<speed>22.480000</speed>
</trkpt>
<trkpt lat="42.691044" lon="18.961155">
<ele>488.551025</ele>
<time>2012-05-02T22:50:45Z</time>
<desc>lat.=42.691044, lon.=18.961155, Alt.=488.551025m. Speed=77.615997m/h.</desc>
<speed>21.559999</speed>
</trkpt>
<trkpt lat="42.692001" lon="18.961100">
<ele>491.574463</ele>
<time>2012-05-02T22:50:50Z</time>
<desc>lat.=42.692001, lon.=18.961100, Alt.=491.574463m. Speed=77.183998m/h.</desc>
<speed>21.439999</speed>
</trkpt>
<trkpt lat="42.692940" lon="18.961124">
<ele>493.051025</ele>
<time>2012-05-02T22:50:55Z</time>
<desc>lat.=42.692940, lon.=18.961124, Alt.=493.051025m. Speed=78.120003m/h.</desc>
<speed>21.700001</speed>
</trkpt>
<trkpt lat="42.693928" lon="18.961319">
<ele>495.683838</ele>
<time>2012-05-02T22:51:00Z</time>
<desc>lat.=42.693928, lon.=18.961319, Alt.=495.683838m. Speed=79.199997m/h.</desc>
<speed>21.999999</speed>
</trkpt>
<trkpt lat="42.694916" lon="18.961596">
<ele>498.847900</ele>
<time>2012-05-02T22:51:05Z</time>
<desc>lat.=42.694916, lon.=18.961596, Alt.=498.847900m. Speed=82.835999m/h.</desc>
<speed>23.010000</speed>
</trkpt>
<trkpt lat="42.696415" lon="18.961740">
<ele>515.523926</ele>
<time>2012-05-02T22:51:12Z</time>
<desc>lat.=42.696415, lon.=18.961740, Alt.=515.523926m. Speed=79.487999m/h.</desc>
<speed>22.080000</speed>
</trkpt>
<trkpt lat="42.697403" lon="18.961775">
<ele>509.613525</ele>
<time>2012-05-02T22:51:17Z</time>
<desc>lat.=42.697403, lon.=18.961775, Alt.=509.613525m. Speed=81.972000m/h.</desc>
<speed>22.770000</speed>
</trkpt>
<trkpt lat="42.698479" lon="18.961660">
<ele>509.855713</ele>
<time>2012-05-02T22:51:22Z</time>
<desc>lat.=42.698479, lon.=18.961660, Alt.=509.855713m. Speed=84.276001m/h.</desc>
<speed>23.410000</speed>
</trkpt>
<trkpt lat="42.699558" lon="18.961470">
<ele>524.758301</ele>
<time>2012-05-02T22:51:27Z</time>
<desc>lat.=42.699558, lon.=18.961470, Alt.=524.758301m. Speed=84.348000m/h.</desc>
<speed>23.430000</speed>
</trkpt>
<trkpt lat="42.700546" lon="18.961082">
<ele>529.820801</ele>
<time>2012-05-02T22:51:32Z</time>
<desc>lat.=42.700546, lon.=18.961082, Alt.=529.820801m. Speed=81.755997m/h.</desc>
<speed>22.709999</speed>
</trkpt>
<trkpt lat="42.701576" lon="18.960815">
<ele>534.773926</ele>
<time>2012-05-02T22:51:37Z</time>
<desc>lat.=42.701576, lon.=18.960815, Alt.=534.773926m. Speed=83.664001m/h.</desc>
<speed>23.240000</speed>
</trkpt>
<trkpt lat="42.702610" lon="18.960726">
<ele>537.320801</ele>
<time>2012-05-02T22:51:42Z</time>
<desc>lat.=42.702610, lon.=18.960726, Alt.=537.320801m. Speed=83.987999m/h.</desc>
<speed>23.330000</speed>
</trkpt>
<trkpt lat="42.703636" lon="18.960697">
<ele>536.852051</ele>
<time>2012-05-02T22:51:47Z</time>
<desc>lat.=42.703636, lon.=18.960697, Alt.=536.852051m. Speed=85.356003m/h.</desc>
<speed>23.710001</speed>
</trkpt>
<trkpt lat="42.704689" lon="18.960545">
<ele>540.555176</ele>
<time>2012-05-02T22:51:52Z</time>
<desc>lat.=42.704689, lon.=18.960545, Alt.=540.555176m. Speed=84.096001m/h.</desc>
<speed>23.360000</speed>
</trkpt>
<trkpt lat="42.705715" lon="18.960081">
<ele>547.664551</ele>
<time>2012-05-02T22:51:57Z</time>
<desc>lat.=42.705715, lon.=18.960081, Alt.=547.664551m. Speed=88.164001m/h.</desc>
<speed>24.490000</speed>
</trkpt>
<trkpt lat="42.706596" lon="18.959215">
<ele>553.523926</ele>
<time>2012-05-02T22:52:02Z</time>
<desc>lat.=42.706596, lon.=18.959215, Alt.=553.523926m. Speed=87.875999m/h.</desc>
<speed>24.410000</speed>
</trkpt>
<trkpt lat="42.707294" lon="18.958052">
<ele>556.305176</ele>
<time>2012-05-02T22:52:07Z</time>
<desc>lat.=42.707294, lon.=18.958052, Alt.=556.305176m. Speed=89.208000m/h.</desc>
<speed>24.780000</speed>
</trkpt>
<trkpt lat="42.707912" lon="18.956781">
<ele>556.523926</ele>
<time>2012-05-02T22:52:12Z</time>
<desc>lat.=42.707912, lon.=18.956781, Alt.=556.523926m. Speed=89.748001m/h.</desc>
<speed>24.930000</speed>
</trkpt>
<trkpt lat="42.708584" lon="18.955544">
<ele>559.742676</ele>
<time>2012-05-02T22:52:17Z</time>
<desc>lat.=42.708584, lon.=18.955544, Alt.=559.742676m. Speed=89.568001m/h.</desc>
<speed>24.880000</speed>
</trkpt>
<trkpt lat="42.709305" lon="18.954355">
<ele>565.258301</ele>
<time>2012-05-02T22:52:22Z</time>
<desc>lat.=42.709305, lon.=18.954355, Alt.=565.258301m. Speed=90.180000m/h.</desc>
<speed>25.050000</speed>
</trkpt>
<trkpt lat="42.710068" lon="18.953247">
<ele>570.148926</ele>
<time>2012-05-02T22:52:27Z</time>
<desc>lat.=42.710068, lon.=18.953247, Alt.=570.148926m. Speed=87.875999m/h.</desc>
<speed>24.410000</speed>
</trkpt>
<trkpt lat="42.710880" lon="18.952295">
<ele>573.883301</ele>
<time>2012-05-02T22:52:32Z</time>
<desc>lat.=42.710880, lon.=18.952295, Alt.=573.883301m. Speed=86.292000m/h.</desc>
<speed>23.970000</speed>
</trkpt>
<trkpt lat="42.711769" lon="18.951481">
<ele>577.602051</ele>
<time>2012-05-02T22:52:37Z</time>
<desc>lat.=42.711769, lon.=18.951481, Alt.=577.602051m. Speed=85.211998m/h.</desc>
<speed>23.669999</speed>
</trkpt>
<trkpt lat="42.712681" lon="18.950768">
<ele>581.914551</ele>
<time>2012-05-02T22:52:42Z</time>
<desc>lat.=42.712681, lon.=18.950768, Alt.=581.914551m. Speed=86.292000m/h.</desc>
<speed>23.970000</speed>
</trkpt>
<trkpt lat="42.713642" lon="18.950047">
<ele>585.008301</ele>
<time>2012-05-02T22:52:47Z</time>
<desc>lat.=42.713642, lon.=18.950047, Alt.=585.008301m. Speed=89.136002m/h.</desc>
<speed>24.760000</speed>
</trkpt>
<trkpt lat="42.714546" lon="18.949131">
<ele>589.492676</ele>
<time>2012-05-02T22:52:52Z</time>
<desc>lat.=42.714546, lon.=18.949131, Alt.=589.492676m. Speed=90.575996m/h.</desc>
<speed>25.159999</speed>
</trkpt>
<trkpt lat="42.715343" lon="18.948008">
<ele>594.070801</ele>
<time>2012-05-02T22:52:57Z</time>
<desc>lat.=42.715343, lon.=18.948008, Alt.=594.070801m. Speed=91.764000m/h.</desc>
<speed>25.490000</speed>
</trkpt>
<trkpt lat="42.716133" lon="18.946844">
<ele>598.852051</ele>
<time>2012-05-02T22:53:02Z</time>
<desc>lat.=42.716133, lon.=18.946844, Alt.=598.852051m. Speed=93.419998m/h.</desc>
<speed>25.949999</speed>
</trkpt>
<trkpt lat="42.716969" lon="18.945730">
<ele>603.305176</ele>
<time>2012-05-02T22:53:07Z</time>
<desc>lat.=42.716969, lon.=18.945730, Alt.=603.305176m. Speed=93.924004m/h.</desc>
<speed>26.090001</speed>
</trkpt>
<trkpt lat="42.717850" lon="18.944685">
<ele>607.492676</ele>
<time>2012-05-02T22:53:12Z</time>
<desc>lat.=42.717850, lon.=18.944685, Alt.=607.492676m. Speed=93.528000m/h.</desc>
<speed>25.980000</speed>
</trkpt>
<trkpt lat="42.718731" lon="18.943630">
<ele>609.727051</ele>
<time>2012-05-02T22:53:17Z</time>
<desc>lat.=42.718731, lon.=18.943630, Alt.=609.727051m. Speed=92.519997m/h.</desc>
<speed>25.699999</speed>
</trkpt>
<trkpt lat="42.719601" lon="18.942791">
<ele>612.930176</ele>
<time>2012-05-02T22:53:22Z</time>
<desc>lat.=42.719601, lon.=18.942791, Alt.=612.930176m. Speed=87.875999m/h.</desc>
<speed>24.410000</speed>
</trkpt>
<trkpt lat="42.720493" lon="18.941986">
<ele>616.039551</ele>
<time>2012-05-02T22:53:27Z</time>
<desc>lat.=42.720493, lon.=18.941986, Alt.=616.039551m. Speed=86.435997m/h.</desc>
<speed>24.009999</speed>
</trkpt>
<trkpt lat="42.721424" lon="18.941248">
<ele>618.852051</ele>
<time>2012-05-02T22:53:32Z</time>
<desc>lat.=42.721424, lon.=18.941248, Alt.=618.852051m. Speed=85.751999m/h.</desc>
<speed>23.820000</speed>
</trkpt>
<trkpt lat="42.722351" lon="18.940533">
<ele>621.742676</ele>
<time>2012-05-02T22:53:37Z</time>
<desc>lat.=42.722351, lon.=18.940533, Alt.=621.742676m. Speed=85.139999m/h.</desc>
<speed>23.650000</speed>
</trkpt>
<trkpt lat="42.730865" lon="18.936895">
<ele>695.789551</ele>
<time>2012-05-02T22:54:33Z</time>
<desc>lat.=42.730865, lon.=18.936895, Alt.=695.789551m. Speed=64.152000m/h.</desc>
<speed>17.820000</speed>
</trkpt>
<trkpt lat="42.731995" lon="18.937204">
<ele>632.789551</ele>
<time>2012-05-02T22:54:38Z</time>
<desc>lat.=42.731995, lon.=18.937204, Alt.=632.789551m. Speed=75.096001m/h.</desc>
<speed>20.860000</speed>
</trkpt>
<trkpt lat="42.733028" lon="18.937244">
<ele>629.258301</ele>
<time>2012-05-02T22:54:43Z</time>
<desc>lat.=42.733028, lon.=18.937244, Alt.=629.258301m. Speed=80.064003m/h.</desc>
<speed>22.240001</speed>
</trkpt>
<trkpt lat="42.734047" lon="18.937258">
<ele>625.008301</ele>
<time>2012-05-02T22:54:48Z</time>
<desc>lat.=42.734047, lon.=18.937258, Alt.=625.008301m. Speed=82.944000m/h.</desc>
<speed>23.040000</speed>
</trkpt>
<trkpt lat="42.735054" lon="18.937296">
<ele>622.586426</ele>
<time>2012-05-02T22:54:53Z</time>
<desc>lat.=42.735054, lon.=18.937296, Alt.=622.586426m. Speed=78.587997m/h.</desc>
<speed>21.829999</speed>
</trkpt>
<trkpt lat="42.736027" lon="18.937313">
<ele>617.555176</ele>
<time>2012-05-02T22:54:58Z</time>
<desc>lat.=42.736027, lon.=18.937313, Alt.=617.555176m. Speed=79.704002m/h.</desc>
<speed>22.140001</speed>
</trkpt>
<trkpt lat="42.737026" lon="18.937344">
<ele>617.289551</ele>
<time>2012-05-02T22:55:03Z</time>
<desc>lat.=42.737026, lon.=18.937344, Alt.=617.289551m. Speed=80.783997m/h.</desc>
<speed>22.439999</speed>
</trkpt>
<trkpt lat="42.738041" lon="18.937407">
<ele>616.305176</ele>
<time>2012-05-02T22:55:08Z</time>
<desc>lat.=42.738041, lon.=18.937407, Alt.=616.305176m. Speed=81.216003m/h.</desc>
<speed>22.560001</speed>
</trkpt>
<trkpt lat="42.739048" lon="18.937498">
<ele>615.742676</ele>
<time>2012-05-02T22:55:13Z</time>
<desc>lat.=42.739048, lon.=18.937498, Alt.=615.742676m. Speed=80.099998m/h.</desc>
<speed>22.250000</speed>
</trkpt>
<trkpt lat="42.740051" lon="18.937622">
<ele>615.555176</ele>
<time>2012-05-02T22:55:18Z</time>
<desc>lat.=42.740051, lon.=18.937622, Alt.=615.555176m. Speed=79.487999m/h.</desc>
<speed>22.080000</speed>
</trkpt>
<trkpt lat="42.741032" lon="18.937773">
<ele>616.023926</ele>
<time>2012-05-02T22:55:23Z</time>
<desc>lat.=42.741032, lon.=18.937773, Alt.=616.023926m. Speed=76.463997m/h.</desc>
<speed>21.239999</speed>
</trkpt>
<trkpt lat="42.741951" lon="18.937956">
<ele>616.242676</ele>
<time>2012-05-02T22:55:28Z</time>
<desc>lat.=42.741951, lon.=18.937956, Alt.=616.242676m. Speed=72.683998m/h.</desc>
<speed>20.189999</speed>
</trkpt>
<trkpt lat="42.742836" lon="18.938162">
<ele>616.336426</ele>
<time>2012-05-02T22:55:33Z</time>
<desc>lat.=42.742836, lon.=18.938162, Alt.=616.336426m. Speed=70.272003m/h.</desc>
<speed>19.520001</speed>
</trkpt>
<trkpt lat="42.743687" lon="18.938396">
<ele>616.789551</ele>
<time>2012-05-02T22:55:38Z</time>
<desc>lat.=42.743687, lon.=18.938396, Alt.=616.789551m. Speed=68.832001m/h.</desc>
<speed>19.120000</speed>
</trkpt>
<trkpt lat="42.744545" lon="18.938662">
<ele>616.711426</ele>
<time>2012-05-02T22:55:43Z</time>
<desc>lat.=42.744545, lon.=18.938662, Alt.=616.711426m. Speed=68.400002m/h.</desc>
<speed>19.000000</speed>
</trkpt>
<trkpt lat="42.745380" lon="18.938931">
<ele>616.461426</ele>
<time>2012-05-02T22:55:48Z</time>
<desc>lat.=42.745380, lon.=18.938931, Alt.=616.461426m. Speed=66.456001m/h.</desc>
<speed>18.460000</speed>
</trkpt>
<trkpt lat="42.746159" lon="18.939169">
<ele>617.398926</ele>
<time>2012-05-02T22:55:53Z</time>
<desc>lat.=42.746159, lon.=18.939169, Alt.=617.398926m. Speed=61.703999m/h.</desc>
<speed>17.140000</speed>
</trkpt>
<trkpt lat="42.746902" lon="18.939426">
<ele>618.227051</ele>
<time>2012-05-02T22:55:58Z</time>
<desc>lat.=42.746902, lon.=18.939426, Alt.=618.227051m. Speed=57.636002m/h.</desc>
<speed>16.010000</speed>
</trkpt>
<trkpt lat="42.747589" lon="18.939650">
<ele>618.539551</ele>
<time>2012-05-02T22:56:03Z</time>
<desc>lat.=42.747589, lon.=18.939650, Alt.=618.539551m. Speed=54.504002m/h.</desc>
<speed>15.140000</speed>
</trkpt>
<trkpt lat="42.748222" lon="18.939848">
<ele>619.242676</ele>
<time>2012-05-02T22:56:08Z</time>
<desc>lat.=42.748222, lon.=18.939848, Alt.=619.242676m. Speed=51.048000m/h.</desc>
<speed>14.180000</speed>
</trkpt>
<trkpt lat="42.748882" lon="18.940046">
<ele>619.648926</ele>
<time>2012-05-02T22:56:13Z</time>
<desc>lat.=42.748882, lon.=18.940046, Alt.=619.648926m. Speed=60.012001m/h.</desc>
<speed>16.670000</speed>
</trkpt>
<trkpt lat="42.749619" lon="18.940239">
<ele>620.273926</ele>
<time>2012-05-02T22:56:18Z</time>
<desc>lat.=42.749619, lon.=18.940239, Alt.=620.273926m. Speed=64.188004m/h.</desc>
<speed>17.830001</speed>
</trkpt>
<trkpt lat="42.750389" lon="18.940424">
<ele>621.289551</ele>
<time>2012-05-02T22:56:23Z</time>
<desc>lat.=42.750389, lon.=18.940424, Alt.=621.289551m. Speed=61.380001m/h.</desc>
<speed>17.050000</speed>
</trkpt>
<trkpt lat="42.751114" lon="18.940567">
<ele>622.961426</ele>
<time>2012-05-02T22:56:28Z</time>
<desc>lat.=42.751114, lon.=18.940567, Alt.=622.961426m. Speed=59.004002m/h.</desc>
<speed>16.390000</speed>
</trkpt>
<trkpt lat="42.751873" lon="18.940720">
<ele>624.070801</ele>
<time>2012-05-02T22:56:33Z</time>
<desc>lat.=42.751873, lon.=18.940720, Alt.=624.070801m. Speed=58.608002m/h.</desc>
<speed>16.280000</speed>
</trkpt>
<trkpt lat="42.752647" lon="18.940842">
<ele>626.133301</ele>
<time>2012-05-02T22:56:38Z</time>
<desc>lat.=42.752647, lon.=18.940842, Alt.=626.133301m. Speed=60.228001m/h.</desc>
<speed>16.730000</speed>
</trkpt>
<trkpt lat="42.753399" lon="18.940924">
<ele>627.148926</ele>
<time>2012-05-02T22:56:43Z</time>
<desc>lat.=42.753399, lon.=18.940924, Alt.=627.148926m. Speed=58.391998m/h.</desc>
<speed>16.220000</speed>
</trkpt>
<trkpt lat="42.754131" lon="18.940912">
<ele>627.305176</ele>
<time>2012-05-02T22:56:48Z</time>
<desc>lat.=42.754131, lon.=18.940912, Alt.=627.305176m. Speed=59.507999m/h.</desc>
<speed>16.530000</speed>
</trkpt>
<trkpt lat="42.754883" lon="18.940809">
<ele>628.852051</ele>
<time>2012-05-02T22:56:53Z</time>
<desc>lat.=42.754883, lon.=18.940809, Alt.=628.852051m. Speed=62.279999m/h.</desc>
<speed>17.300000</speed>
</trkpt>
<trkpt lat="42.755669" lon="18.940573">
<ele>630.805176</ele>
<time>2012-05-02T22:56:58Z</time>
<desc>lat.=42.755669, lon.=18.940573, Alt.=630.805176m. Speed=67.428001m/h.</desc>
<speed>18.730000</speed>
</trkpt>
<trkpt lat="42.756432" lon="18.940264">
<ele>633.836426</ele>
<time>2012-05-02T22:57:03Z</time>
<desc>lat.=42.756432, lon.=18.940264, Alt.=633.836426m. Speed=60.588001m/h.</desc>
<speed>16.830000</speed>
</trkpt>
<trkpt lat="42.757141" lon="18.939960">
<ele>636.180176</ele>
<time>2012-05-02T22:57:08Z</time>
<desc>lat.=42.757141, lon.=18.939960, Alt.=636.180176m. Speed=59.147999m/h.</desc>
<speed>16.430000</speed>
</trkpt>
<trkpt lat="42.757847" lon="18.939709">
<ele>638.602051</ele>
<time>2012-05-02T22:57:13Z</time>
<desc>lat.=42.757847, lon.=18.939709, Alt.=638.602051m. Speed=58.680000m/h.</desc>
<speed>16.300000</speed>
</trkpt>
<trkpt lat="42.758564" lon="18.939516">
<ele>640.305176</ele>
<time>2012-05-02T22:57:18Z</time>
<desc>lat.=42.758564, lon.=18.939516, Alt.=640.305176m. Speed=58.644001m/h.</desc>
<speed>16.290000</speed>
</trkpt>
<trkpt lat="42.759281" lon="18.939413">
<ele>640.930176</ele>
<time>2012-05-02T22:57:23Z</time>
<desc>lat.=42.759281, lon.=18.939413, Alt.=640.930176m. Speed=57.060001m/h.</desc>
<speed>15.850000</speed>
</trkpt>
<trkpt lat="42.759987" lon="18.939381">
<ele>640.227051</ele>
<time>2012-05-02T22:57:28Z</time>
<desc>lat.=42.759987, lon.=18.939381, Alt.=640.227051m. Speed=57.852001m/h.</desc>
<speed>16.070000</speed>
</trkpt>
<trkpt lat="42.760708" lon="18.939415">
<ele>640.445801</ele>
<time>2012-05-02T22:57:33Z</time>
<desc>lat.=42.760708, lon.=18.939415, Alt.=640.445801m. Speed=58.068001m/h.</desc>
<speed>16.130000</speed>
</trkpt>
<trkpt lat="42.761406" lon="18.939537">
<ele>641.258301</ele>
<time>2012-05-02T22:57:38Z</time>
<desc>lat.=42.761406, lon.=18.939537, Alt.=641.258301m. Speed=55.439999m/h.</desc>
<speed>15.400000</speed>
</trkpt>
<trkpt lat="42.762081" lon="18.939713">
<ele>642.648926</ele>
<time>2012-05-02T22:57:43Z</time>
<desc>lat.=42.762081, lon.=18.939713, Alt.=642.648926m. Speed=55.619999m/h.</desc>
<speed>15.450000</speed>
</trkpt>
<trkpt lat="42.762768" lon="18.939928">
<ele>643.742676</ele>
<time>2012-05-02T22:57:48Z</time>
<desc>lat.=42.762768, lon.=18.939928, Alt.=643.742676m. Speed=56.160000m/h.</desc>
<speed>15.600000</speed>
</trkpt>
<trkpt lat="42.763462" lon="18.940142">
<ele>644.836426</ele>
<time>2012-05-02T22:57:53Z</time>
<desc>lat.=42.763462, lon.=18.940142, Alt.=644.836426m. Speed=57.060001m/h.</desc>
<speed>15.850000</speed>
</trkpt>
<trkpt lat="42.764175" lon="18.940365">
<ele>645.695801</ele>
<time>2012-05-02T22:57:58Z</time>
<desc>lat.=42.764175, lon.=18.940365, Alt.=645.695801m. Speed=59.616001m/h.</desc>
<speed>16.560000</speed>
</trkpt>
<trkpt lat="42.764908" lon="18.940590">
<ele>646.398926</ele>
<time>2012-05-02T22:58:03Z</time>
<desc>lat.=42.764908, lon.=18.940590, Alt.=646.398926m. Speed=60.408001m/h.</desc>
<speed>16.780000</speed>
</trkpt>
<trkpt lat="42.765644" lon="18.940784">
<ele>648.617676</ele>
<time>2012-05-02T22:58:08Z</time>
<desc>lat.=42.765644, lon.=18.940784, Alt.=648.617676m. Speed=59.436001m/h.</desc>
<speed>16.510000</speed>
</trkpt>
<trkpt lat="42.766441" lon="18.940975">
<ele>650.742676</ele>
<time>2012-05-02T22:58:13Z</time>
<desc>lat.=42.766441, lon.=18.940975, Alt.=650.742676m. Speed=66.204002m/h.</desc>
<speed>18.390001</speed>
</trkpt>
<trkpt lat="42.767296" lon="18.941072">
<ele>653.008301</ele>
<time>2012-05-02T22:58:18Z</time>
<desc>lat.=42.767296, lon.=18.941072, Alt.=653.008301m. Speed=67.751999m/h.</desc>
<speed>18.820000</speed>
</trkpt>
<trkpt lat="42.768162" lon="18.941071">
<ele>655.258301</ele>
<time>2012-05-02T22:58:23Z</time>
<desc>lat.=42.768162, lon.=18.941071, Alt.=655.258301m. Speed=69.660004m/h.</desc>
<speed>19.350001</speed>
</trkpt>
<trkpt lat="42.769058" lon="18.940958">
<ele>657.820801</ele>
<time>2012-05-02T22:58:28Z</time>
<desc>lat.=42.769058, lon.=18.940958, Alt.=657.820801m. Speed=73.800003m/h.</desc>
<speed>20.500001</speed>
</trkpt>
<trkpt lat="42.769962" lon="18.940779">
<ele>660.648926</ele>
<time>2012-05-02T22:58:33Z</time>
<desc>lat.=42.769962, lon.=18.940779, Alt.=660.648926m. Speed=73.835999m/h.</desc>
<speed>20.510000</speed>
</trkpt>
<trkpt lat="42.770874" lon="18.940580">
<ele>662.383301</ele>
<time>2012-05-02T22:58:38Z</time>
<desc>lat.=42.770874, lon.=18.940580, Alt.=662.383301m. Speed=73.584000m/h.</desc>
<speed>20.440000</speed>
</trkpt>
<trkpt lat="42.771790" lon="18.940399">
<ele>663.555176</ele>
<time>2012-05-02T22:58:43Z</time>
<desc>lat.=42.771790, lon.=18.940399, Alt.=663.555176m. Speed=69.444000m/h.</desc>
<speed>19.290000</speed>
</trkpt>
<trkpt lat="42.772633" lon="18.940170">
<ele>661.242676</ele>
<time>2012-05-02T22:58:48Z</time>
<desc>lat.=42.772633, lon.=18.940170, Alt.=661.242676m. Speed=70.596001m/h.</desc>
<speed>19.610000</speed>
</trkpt>
<trkpt lat="42.773506" lon="18.939793">
<ele>659.945801</ele>
<time>2012-05-02T22:58:53Z</time>
<desc>lat.=42.773506, lon.=18.939793, Alt.=659.945801m. Speed=75.924004m/h.</desc>
<speed>21.090001</speed>
</trkpt>
<trkpt lat="42.774353" lon="18.939135">
<ele>657.242676</ele>
<time>2012-05-02T22:58:58Z</time>
<desc>lat.=42.774353, lon.=18.939135, Alt.=657.242676m. Speed=81.683998m/h.</desc>
<speed>22.689999</speed>
</trkpt>
<trkpt lat="42.775177" lon="18.938301">
<ele>657.555176</ele>
<time>2012-05-02T22:59:03Z</time>
<desc>lat.=42.775177, lon.=18.938301, Alt.=657.555176m. Speed=81.108002m/h.</desc>
<speed>22.530000</speed>
</trkpt>
<trkpt lat="42.775982" lon="18.937523">
<ele>657.164551</ele>
<time>2012-05-02T22:59:08Z</time>
<desc>lat.=42.775982, lon.=18.937523, Alt.=657.164551m. Speed=78.515999m/h.</desc>
<speed>21.810000</speed>
</trkpt>
<trkpt lat="42.776798" lon="18.936832">
<ele>656.930176</ele>
<time>2012-05-02T22:59:13Z</time>
<desc>lat.=42.776798, lon.=18.936832, Alt.=656.930176m. Speed=77.472000m/h.</desc>
<speed>21.520000</speed>
</trkpt>
<trkpt lat="42.777691" lon="18.936289">
<ele>657.914551</ele>
<time>2012-05-02T22:59:18Z</time>
<desc>lat.=42.777691, lon.=18.936289, Alt.=657.914551m. Speed=78.155998m/h.</desc>
<speed>21.710000</speed>
</trkpt>
<trkpt lat="42.778587" lon="18.935734">
<ele>658.055176</ele>
<time>2012-05-02T22:59:23Z</time>
<desc>lat.=42.778587, lon.=18.935734, Alt.=658.055176m. Speed=78.335999m/h.</desc>
<speed>21.760000</speed>
</trkpt>
<trkpt lat="42.779461" lon="18.935183">
<ele>656.461426</ele>
<time>2012-05-02T22:59:28Z</time>
<desc>lat.=42.779461, lon.=18.935183, Alt.=656.461426m. Speed=76.896004m/h.</desc>
<speed>21.360001</speed>
</trkpt>
<trkpt lat="42.780273" lon="18.934523">
<ele>656.789551</ele>
<time>2012-05-02T22:59:33Z</time>
<desc>lat.=42.780273, lon.=18.934523, Alt.=656.789551m. Speed=76.248001m/h.</desc>
<speed>21.180000</speed>
</trkpt>
<trkpt lat="42.780956" lon="18.933638">
<ele>656.133301</ele>
<time>2012-05-02T22:59:38Z</time>
<desc>lat.=42.780956, lon.=18.933638, Alt.=656.133301m. Speed=75.456001m/h.</desc>
<speed>20.960000</speed>
</trkpt>
<trkpt lat="42.781418" lon="18.932528">
<ele>653.305176</ele>
<time>2012-05-02T22:59:43Z</time>
<desc>lat.=42.781418, lon.=18.932528, Alt.=653.305176m. Speed=74.879997m/h.</desc>
<speed>20.799999</speed>
</trkpt>
<trkpt lat="42.781723" lon="18.931328">
<ele>650.430176</ele>
<time>2012-05-02T22:59:48Z</time>
<desc>lat.=42.781723, lon.=18.931328, Alt.=650.430176m. Speed=74.772003m/h.</desc>
<speed>20.770001</speed>
</trkpt>
<trkpt lat="42.782085" lon="18.930155">
<ele>649.117676</ele>
<time>2012-05-02T22:59:53Z</time>
<desc>lat.=42.782085, lon.=18.930155, Alt.=649.117676m. Speed=72.575996m/h.</desc>
<speed>20.159999</speed>
</trkpt>
<trkpt lat="42.782593" lon="18.929230">
<ele>648.008301</ele>
<time>2012-05-02T22:59:58Z</time>
<desc>lat.=42.782593, lon.=18.929230, Alt.=648.008301m. Speed=62.459999m/h.</desc>
<speed>17.350000</speed>
</trkpt>
<trkpt lat="42.783184" lon="18.928656">
<ele>646.352051</ele>
<time>2012-05-02T23:00:03Z</time>
<desc>lat.=42.783184, lon.=18.928656, Alt.=646.352051m. Speed=57.240002m/h.</desc>
<speed>15.900000</speed>
</trkpt>
<trkpt lat="42.783901" lon="18.928366">
<ele>643.992676</ele>
<time>2012-05-02T23:00:08Z</time>
<desc>lat.=42.783901, lon.=18.928366, Alt.=643.992676m. Speed=61.236000m/h.</desc>
<speed>17.010000</speed>
</trkpt>
<trkpt lat="42.784683" lon="18.928288">
<ele>640.648926</ele>
<time>2012-05-02T23:00:13Z</time>
<desc>lat.=42.784683, lon.=18.928288, Alt.=640.648926m. Speed=64.620003m/h.</desc>
<speed>17.950001</speed>
</trkpt>
<trkpt lat="42.785488" lon="18.928280">
<ele>633.945801</ele>
<time>2012-05-02T23:00:18Z</time>
<desc>lat.=42.785488, lon.=18.928280, Alt.=633.945801m. Speed=65.195999m/h.</desc>
<speed>18.110000</speed>
</trkpt>
<trkpt lat="42.786316" lon="18.928329">
<ele>633.789551</ele>
<time>2012-05-02T23:00:23Z</time>
<desc>lat.=42.786316, lon.=18.928329, Alt.=633.789551m. Speed=64.620003m/h.</desc>
<speed>17.950001</speed>
</trkpt>
<trkpt lat="42.787117" lon="18.928358">
<ele>632.227051</ele>
<time>2012-05-02T23:00:28Z</time>
<desc>lat.=42.787117, lon.=18.928358, Alt.=632.227051m. Speed=63.396000m/h.</desc>
<speed>17.610000</speed>
</trkpt>
<trkpt lat="42.787907" lon="18.928387">
<ele>631.336426</ele>
<time>2012-05-02T23:00:33Z</time>
<desc>lat.=42.787907, lon.=18.928387, Alt.=631.336426m. Speed=62.748001m/h.</desc>
<speed>17.430000</speed>
</trkpt>
<trkpt lat="42.788677" lon="18.928410">
<ele>631.164551</ele>
<time>2012-05-02T23:00:38Z</time>
<desc>lat.=42.788677, lon.=18.928410, Alt.=631.164551m. Speed=60.335999m/h.</desc>
<speed>16.760000</speed>
</trkpt>
<trkpt lat="42.789436" lon="18.928347">
<ele>630.102051</ele>
<time>2012-05-02T23:00:43Z</time>
<desc>lat.=42.789436, lon.=18.928347, Alt.=630.102051m. Speed=62.784000m/h.</desc>
<speed>17.440000</speed>
</trkpt>
<trkpt lat="42.790188" lon="18.928026">
<ele>630.289551</ele>
<time>2012-05-02T23:00:48Z</time>
<desc>lat.=42.790188, lon.=18.928026, Alt.=630.289551m. Speed=64.223999m/h.</desc>
<speed>17.840000</speed>
</trkpt>
<trkpt lat="42.790852" lon="18.927435">
<ele>631.148926</ele>
<time>2012-05-02T23:00:53Z</time>
<desc>lat.=42.790852, lon.=18.927435, Alt.=631.148926m. Speed=65.267998m/h.</desc>
<speed>18.129999</speed>
</trkpt>
<trkpt lat="42.791500" lon="18.926748">
<ele>633.086426</ele>
<time>2012-05-02T23:00:58Z</time>
<desc>lat.=42.791500, lon.=18.926748, Alt.=633.086426m. Speed=64.080002m/h.</desc>
<speed>17.800001</speed>
</trkpt>
<trkpt lat="42.792126" lon="18.926125">
<ele>635.461426</ele>
<time>2012-05-02T23:01:03Z</time>
<desc>lat.=42.792126, lon.=18.926125, Alt.=635.461426m. Speed=60.264000m/h.</desc>
<speed>16.740000</speed>
</trkpt>
<trkpt lat="42.792690" lon="18.925508">
<ele>634.852051</ele>
<time>2012-05-02T23:01:08Z</time>
<desc>lat.=42.792690, lon.=18.925508, Alt.=634.852051m. Speed=56.627998m/h.</desc>
<speed>15.730000</speed>
</trkpt>
<trkpt lat="42.793194" lon="18.925020">
<ele>634.820801</ele>
<time>2012-05-02T23:01:13Z</time>
<desc>lat.=42.793194, lon.=18.925020, Alt.=634.820801m. Speed=43.344002m/h.</desc>
<speed>12.040000</speed>
</trkpt>
<trkpt lat="42.793587" lon="18.924738">
<ele>636.055176</ele>
<time>2012-05-02T23:01:18Z</time>
<desc>lat.=42.793587, lon.=18.924738, Alt.=636.055176m. Speed=32.652000m/h.</desc>
<speed>9.070000</speed>
</trkpt>
<trkpt lat="42.793964" lon="18.924852">
<ele>635.508301</ele>
<time>2012-05-02T23:01:23Z</time>
<desc>lat.=42.793964, lon.=18.924852, Alt.=635.508301m. Speed=34.452000m/h.</desc>
<speed>9.570000</speed>
</trkpt>
<trkpt lat="42.794296" lon="18.925035">
<ele>634.648926</ele>
<time>2012-05-02T23:01:28Z</time>
<desc>lat.=42.794296, lon.=18.925035, Alt.=634.648926m. Speed=20.304001m/h.</desc>
<speed>5.640000</speed>
</trkpt>
<trkpt lat="42.794449" lon="18.925177">
<ele>633.773926</ele>
<time>2012-05-02T23:01:33Z</time>
<desc>lat.=42.794449, lon.=18.925177, Alt.=633.773926m. Speed=20.052000m/h.</desc>
<speed>5.570000</speed>
</trkpt>
<trkpt lat="42.794510" lon="18.925579">
<ele>632.867676</ele>
<time>2012-05-02T23:01:38Z</time>
<desc>lat.=42.794510, lon.=18.925579, Alt.=632.867676m. Speed=30.743999m/h.</desc>
<speed>8.540000</speed>
</trkpt>
<trkpt lat="42.794353" lon="18.926218">
<ele>631.461426</ele>
<time>2012-05-02T23:01:43Z</time>
<desc>lat.=42.794353, lon.=18.926218, Alt.=631.461426m. Speed=41.616001m/h.</desc>
<speed>11.560000</speed>
</trkpt>
<trkpt lat="42.794048" lon="18.926792">
<ele>631.758301</ele>
<time>2012-05-02T23:01:48Z</time>
<desc>lat.=42.794048, lon.=18.926792, Alt.=631.758301m. Speed=42.084000m/h.</desc>
<speed>11.690000</speed>
</trkpt>
<trkpt lat="42.793800" lon="18.927467">
<ele>630.570801</ele>
<time>2012-05-02T23:01:53Z</time>
<desc>lat.=42.793800, lon.=18.927467, Alt.=630.570801m. Speed=45.972000m/h.</desc>
<speed>12.770000</speed>
</trkpt>
<trkpt lat="42.793571" lon="18.928246">
<ele>628.633301</ele>
<time>2012-05-02T23:01:58Z</time>
<desc>lat.=42.793571, lon.=18.928246, Alt.=628.633301m. Speed=49.787998m/h.</desc>
<speed>13.829999</speed>
</trkpt>
<trkpt lat="42.793331" lon="18.929064">
<ele>628.367676</ele>
<time>2012-05-02T23:02:03Z</time>
<desc>lat.=42.793331, lon.=18.929064, Alt.=628.367676m. Speed=51.228001m/h.</desc>
<speed>14.230000</speed>
</trkpt>
<trkpt lat="42.793102" lon="18.929876">
<ele>628.320801</ele>
<time>2012-05-02T23:02:08Z</time>
<desc>lat.=42.793102, lon.=18.929876, Alt.=628.320801m. Speed=48.636002m/h.</desc>
<speed>13.510000</speed>
</trkpt>
<trkpt lat="42.792908" lon="18.930649">
<ele>628.586426</ele>
<time>2012-05-02T23:02:13Z</time>
<desc>lat.=42.792908, lon.=18.930649, Alt.=628.586426m. Speed=47.700001m/h.</desc>
<speed>13.250000</speed>
</trkpt>
<trkpt lat="42.792732" lon="18.931437">
<ele>629.852051</ele>
<time>2012-05-02T23:02:18Z</time>
<desc>lat.=42.792732, lon.=18.931437, Alt.=629.852051m. Speed=47.591999m/h.</desc>
<speed>13.220000</speed>
</trkpt>
<trkpt lat="42.792610" lon="18.932207">
<ele>629.586426</ele>
<time>2012-05-02T23:02:23Z</time>
<desc>lat.=42.792610, lon.=18.932207, Alt.=629.586426m. Speed=44.964001m/h.</desc>
<speed>12.490000</speed>
</trkpt>
<trkpt lat="42.792736" lon="18.932932">
<ele>627.883301</ele>
<time>2012-05-02T23:02:28Z</time>
<desc>lat.=42.792736, lon.=18.932932, Alt.=627.883301m. Speed=48.888000m/h.</desc>
<speed>13.580000</speed>
</trkpt>
<trkpt lat="42.793121" lon="18.933558">
<ele>627.227051</ele>
<time>2012-05-02T23:02:33Z</time>
<desc>lat.=42.793121, lon.=18.933558, Alt.=627.227051m. Speed=48.743999m/h.</desc>
<speed>13.540000</speed>
</trkpt>
<trkpt lat="42.793564" lon="18.934013">
<ele>629.055176</ele>
<time>2012-05-02T23:02:38Z</time>
<desc>lat.=42.793564, lon.=18.934013, Alt.=629.055176m. Speed=36.827999m/h.</desc>
<speed>10.230000</speed>
</trkpt>
<trkpt lat="42.793682" lon="18.934378">
<ele>629.820801</ele>
<time>2012-05-02T23:02:43Z</time>
<desc>lat.=42.793682, lon.=18.934378, Alt.=629.820801m. Speed=16.559999m/h.</desc>
<speed>4.600000</speed>
</trkpt>
<trkpt lat="42.793781" lon="18.934559">
<ele>630.164551</ele>
<time>2012-05-02T23:02:48Z</time>
<desc>lat.=42.793781, lon.=18.934559, Alt.=630.164551m. Speed=19.944000m/h.</desc>
<speed>5.540000</speed>
</trkpt>
<trkpt lat="42.794098" lon="18.934656">
<ele>630.508301</ele>
<time>2012-05-02T23:02:53Z</time>
<desc>lat.=42.794098, lon.=18.934656, Alt.=630.508301m. Speed=25.128000m/h.</desc>
<speed>6.980000</speed>
</trkpt>
<trkpt lat="42.794395" lon="18.935089">
<ele>632.148926</ele>
<time>2012-05-02T23:02:58Z</time>
<desc>lat.=42.794395, lon.=18.935089, Alt.=632.148926m. Speed=41.183998m/h.</desc>
<speed>11.439999</speed>
</trkpt>
<trkpt lat="42.794853" lon="18.935440">
<ele>631.930176</ele>
<time>2012-05-02T23:03:03Z</time>
<desc>lat.=42.794853, lon.=18.935440, Alt.=631.930176m. Speed=45.756001m/h.</desc>
<speed>12.710000</speed>
</trkpt>
<trkpt lat="42.795437" lon="18.935640">
<ele>631.055176</ele>
<time>2012-05-02T23:03:08Z</time>
<desc>lat.=42.795437, lon.=18.935640, Alt.=631.055176m. Speed=52.560001m/h.</desc>
<speed>14.600000</speed>
</trkpt>
<trkpt lat="42.796146" lon="18.935801">
<ele>631.930176</ele>
<time>2012-05-02T23:03:13Z</time>
<desc>lat.=42.796146, lon.=18.935801, Alt.=631.930176m. Speed=58.428001m/h.</desc>
<speed>16.230000</speed>
</trkpt>
<trkpt lat="42.796852" lon="18.935804">
<ele>630.555176</ele>
<time>2012-05-02T23:03:18Z</time>
<desc>lat.=42.796852, lon.=18.935804, Alt.=630.555176m. Speed=57.672001m/h.</desc>
<speed>16.020000</speed>
</trkpt>
<trkpt lat="42.797543" lon="18.935747">
<ele>629.992676</ele>
<time>2012-05-02T23:03:23Z</time>
<desc>lat.=42.797543, lon.=18.935747, Alt.=629.992676m. Speed=54.827999m/h.</desc>
<speed>15.230000</speed>
</trkpt>
<trkpt lat="42.798210" lon="18.935600">
<ele>630.133301</ele>
<time>2012-05-02T23:03:28Z</time>
<desc>lat.=42.798210, lon.=18.935600, Alt.=630.133301m. Speed=54.180000m/h.</desc>
<speed>15.050000</speed>
</trkpt>
<trkpt lat="42.798874" lon="18.935471">
<ele>631.242676</ele>
<time>2012-05-02T23:03:33Z</time>
<desc>lat.=42.798874, lon.=18.935471, Alt.=631.242676m. Speed=53.279999m/h.</desc>
<speed>14.800000</speed>
</trkpt>
<trkpt lat="42.799534" lon="18.935341">
<ele>632.336426</ele>
<time>2012-05-02T23:03:38Z</time>
<desc>lat.=42.799534, lon.=18.935341, Alt.=632.336426m. Speed=54.071999m/h.</desc>
<speed>15.020000</speed>
</trkpt>
<trkpt lat="42.800205" lon="18.935196">
<ele>632.867676</ele>
<time>2012-05-02T23:03:43Z</time>
<desc>lat.=42.800205, lon.=18.935196, Alt.=632.867676m. Speed=53.928001m/h.</desc>
<speed>14.980000</speed>
</trkpt>
<trkpt lat="42.800865" lon="18.935061">
<ele>633.602051</ele>
<time>2012-05-02T23:03:48Z</time>
<desc>lat.=42.800865, lon.=18.935061, Alt.=633.602051m. Speed=53.352001m/h.</desc>
<speed>14.820000</speed>
</trkpt>
<trkpt lat="42.801517" lon="18.934927">
<ele>634.602051</ele>
<time>2012-05-02T23:03:53Z</time>
<desc>lat.=42.801517, lon.=18.934927, Alt.=634.602051m. Speed=53.136002m/h.</desc>
<speed>14.760000</speed>
</trkpt>
<trkpt lat="42.802162" lon="18.934740">
<ele>633.820801</ele>
<time>2012-05-02T23:03:58Z</time>
<desc>lat.=42.802162, lon.=18.934740, Alt.=633.820801m. Speed=52.596001m/h.</desc>
<speed>14.610000</speed>
</trkpt>
<trkpt lat="42.802780" lon="18.934433">
<ele>634.367676</ele>
<time>2012-05-02T23:04:03Z</time>
<desc>lat.=42.802780, lon.=18.934433, Alt.=634.367676m. Speed=52.776001m/h.</desc>
<speed>14.660000</speed>
</trkpt>
<trkpt lat="42.803371" lon="18.934082">
<ele>636.977051</ele>
<time>2012-05-02T23:04:08Z</time>
<desc>lat.=42.803371, lon.=18.934082, Alt.=636.977051m. Speed=50.436001m/h.</desc>
<speed>14.010000</speed>
</trkpt>
<trkpt lat="42.803913" lon="18.933744">
<ele>637.695801</ele>
<time>2012-05-02T23:04:13Z</time>
<desc>lat.=42.803913, lon.=18.933744, Alt.=637.695801m. Speed=46.619999m/h.</desc>
<speed>12.950000</speed>
</trkpt>
<trkpt lat="42.804424" lon="18.933432">
<ele>638.258301</ele>
<time>2012-05-02T23:04:18Z</time>
<desc>lat.=42.804424, lon.=18.933432, Alt.=638.258301m. Speed=43.091999m/h.</desc>
<speed>11.970000</speed>
</trkpt>
<trkpt lat="42.804897" lon="18.933140">
<ele>639.336426</ele>
<time>2012-05-02T23:04:23Z</time>
<desc>lat.=42.804897, lon.=18.933140, Alt.=639.336426m. Speed=41.436001m/h.</desc>
<speed>11.510000</speed>
</trkpt>
<trkpt lat="42.805340" lon="18.932850">
<ele>640.492676</ele>
<time>2012-05-02T23:04:28Z</time>
<desc>lat.=42.805340, lon.=18.932850, Alt.=640.492676m. Speed=40.032001m/h.</desc>
<speed>11.120000</speed>
</trkpt>
<trkpt lat="42.805794" lon="18.932484">
<ele>641.133301</ele>
<time>2012-05-02T23:04:33Z</time>
<desc>lat.=42.805794, lon.=18.932484, Alt.=641.133301m. Speed=45.180000m/h.</desc>
<speed>12.550000</speed>
</trkpt>
<trkpt lat="42.806320" lon="18.932077">
<ele>642.039551</ele>
<time>2012-05-02T23:04:38Z</time>
<desc>lat.=42.806320, lon.=18.932077, Alt.=642.039551m. Speed=51.192001m/h.</desc>
<speed>14.220000</speed>
</trkpt>
<trkpt lat="42.806866" lon="18.931555">
<ele>640.648926</ele>
<time>2012-05-02T23:04:43Z</time>
<desc>lat.=42.806866, lon.=18.931555, Alt.=640.648926m. Speed=56.880001m/h.</desc>
<speed>15.800000</speed>
</trkpt>
<trkpt lat="42.807327" lon="18.930782">
<ele>640.539551</ele>
<time>2012-05-02T23:04:48Z</time>
<desc>lat.=42.807327, lon.=18.930782, Alt.=640.539551m. Speed=57.852001m/h.</desc>
<speed>16.070000</speed>
</trkpt>
<trkpt lat="42.807766" lon="18.929981">
<ele>638.727051</ele>
<time>2012-05-02T23:04:53Z</time>
<desc>lat.=42.807766, lon.=18.929981, Alt.=638.727051m. Speed=58.428001m/h.</desc>
<speed>16.230000</speed>
</trkpt>
<trkpt lat="42.808220" lon="18.929213">
<ele>637.570801</ele>
<time>2012-05-02T23:04:58Z</time>
<desc>lat.=42.808220, lon.=18.929213, Alt.=637.570801m. Speed=57.240002m/h.</desc>
<speed>15.900000</speed>
</trkpt>
<trkpt lat="42.808739" lon="18.928547">
<ele>636.648926</ele>
<time>2012-05-02T23:05:03Z</time>
<desc>lat.=42.808739, lon.=18.928547, Alt.=636.648926m. Speed=58.068001m/h.</desc>
<speed>16.130000</speed>
</trkpt>
<trkpt lat="42.809269" lon="18.927917">
<ele>637.227051</ele>
<time>2012-05-02T23:05:08Z</time>
<desc>lat.=42.809269, lon.=18.927917, Alt.=637.227051m. Speed=53.495998m/h.</desc>
<speed>14.860000</speed>
</trkpt>
<trkpt lat="42.809742" lon="18.927359">
<ele>637.477051</ele>
<time>2012-05-02T23:05:13Z</time>
<desc>lat.=42.809742, lon.=18.927359, Alt.=637.477051m. Speed=48.240002m/h.</desc>
<speed>13.400000</speed>
</trkpt>
<trkpt lat="42.810120" lon="18.926748">
<ele>637.367676</ele>
<time>2012-05-02T23:05:18Z</time>
<desc>lat.=42.810120, lon.=18.926748, Alt.=637.367676m. Speed=45.612000m/h.</desc>
<speed>12.670000</speed>
</trkpt>
<trkpt lat="42.810307" lon="18.926105">
<ele>635.242676</ele>
<time>2012-05-02T23:05:23Z</time>
<desc>lat.=42.810307, lon.=18.926105, Alt.=635.242676m. Speed=34.271999m/h.</desc>
<speed>9.520000</speed>
</trkpt>
<trkpt lat="42.810589" lon="18.925793">
<ele>637.055176</ele>
<time>2012-05-02T23:05:28Z</time>
<desc>lat.=42.810589, lon.=18.925793, Alt.=637.055176m. Speed=29.268000m/h.</desc>
<speed>8.130000</speed>
</trkpt>
<trkpt lat="42.811001" lon="18.925831">
<ele>635.148926</ele>
<time>2012-05-02T23:05:33Z</time>
<desc>lat.=42.811001, lon.=18.925831, Alt.=635.148926m. Speed=34.632000m/h.</desc>
<speed>9.620000</speed>
</trkpt>
<trkpt lat="42.811401" lon="18.925842">
<ele>635.336426</ele>
<time>2012-05-02T23:05:38Z</time>
<desc>lat.=42.811401, lon.=18.925842, Alt.=635.336426m. Speed=33.408001m/h.</desc>
<speed>9.280000</speed>
</trkpt>
<trkpt lat="42.811806" lon="18.925499">
<ele>636.211426</ele>
<time>2012-05-02T23:05:43Z</time>
<desc>lat.=42.811806, lon.=18.925499, Alt.=636.211426m. Speed=44.532001m/h.</desc>
<speed>12.370000</speed>
</trkpt>
<trkpt lat="42.812248" lon="18.924879">
<ele>635.227051</ele>
<time>2012-05-02T23:05:48Z</time>
<desc>lat.=42.812248, lon.=18.924879, Alt.=635.227051m. Speed=59.183998m/h.</desc>
<speed>16.439999</speed>
</trkpt>
<trkpt lat="42.812813" lon="18.924244">
<ele>635.695801</ele>
<time>2012-05-02T23:05:53Z</time>
<desc>lat.=42.812813, lon.=18.924244, Alt.=635.695801m. Speed=62.099998m/h.</desc>
<speed>17.250000</speed>
</trkpt>
<trkpt lat="42.813454" lon="18.923668">
<ele>634.727051</ele>
<time>2012-05-02T23:05:58Z</time>
<desc>lat.=42.813454, lon.=18.923668, Alt.=634.727051m. Speed=60.408001m/h.</desc>
<speed>16.780000</speed>
</trkpt>
<trkpt lat="42.814091" lon="18.923120">
<ele>634.914551</ele>
<time>2012-05-02T23:06:03Z</time>
<desc>lat.=42.814091, lon.=18.923120, Alt.=634.914551m. Speed=63.324001m/h.</desc>
<speed>17.590000</speed>
</trkpt>
<trkpt lat="42.814758" lon="18.922560">
<ele>635.070801</ele>
<time>2012-05-02T23:06:08Z</time>
<desc>lat.=42.814758, lon.=18.922560, Alt.=635.070801m. Speed=63.360001m/h.</desc>
<speed>17.600000</speed>
</trkpt>
<trkpt lat="42.815441" lon="18.921993">
<ele>636.227051</ele>
<time>2012-05-02T23:06:13Z</time>
<desc>lat.=42.815441, lon.=18.921993, Alt.=636.227051m. Speed=64.008003m/h.</desc>
<speed>17.780001</speed>
</trkpt>
<trkpt lat="42.816105" lon="18.921432">
<ele>637.586426</ele>
<time>2012-05-02T23:06:18Z</time>
<desc>lat.=42.816105, lon.=18.921432, Alt.=637.586426m. Speed=61.919998m/h.</desc>
<speed>17.199999</speed>
</trkpt>
<trkpt lat="42.816757" lon="18.920885">
<ele>637.727051</ele>
<time>2012-05-02T23:06:23Z</time>
<desc>lat.=42.816757, lon.=18.920885, Alt.=637.727051m. Speed=61.560001m/h.</desc>
<speed>17.100000</speed>
</trkpt>
<trkpt lat="42.817402" lon="18.920349">
<ele>638.914551</ele>
<time>2012-05-02T23:06:28Z</time>
<desc>lat.=42.817402, lon.=18.920349, Alt.=638.914551m. Speed=59.688000m/h.</desc>
<speed>16.580000</speed>
</trkpt>
<trkpt lat="42.818043" lon="18.919834">
<ele>639.336426</ele>
<time>2012-05-02T23:06:33Z</time>
<desc>lat.=42.818043, lon.=18.919834, Alt.=639.336426m. Speed=59.868000m/h.</desc>
<speed>16.630000</speed>
</trkpt>
<trkpt lat="42.818680" lon="18.919292">
<ele>638.977051</ele>
<time>2012-05-02T23:06:38Z</time>
<desc>lat.=42.818680, lon.=18.919292, Alt.=638.977051m. Speed=60.840000m/h.</desc>
<speed>16.900000</speed>
</trkpt>
<trkpt lat="42.819344" lon="18.918743">
<ele>638.680176</ele>
<time>2012-05-02T23:06:43Z</time>
<desc>lat.=42.819344, lon.=18.918743, Alt.=638.680176m. Speed=62.928001m/h.</desc>
<speed>17.480000</speed>
</trkpt>
<trkpt lat="42.820019" lon="18.918169">
<ele>637.883301</ele>
<time>2012-05-02T23:06:48Z</time>
<desc>lat.=42.820019, lon.=18.918169, Alt.=637.883301m. Speed=66.167999m/h.</desc>
<speed>18.380000</speed>
</trkpt>
<trkpt lat="42.820736" lon="18.917580">
<ele>639.508301</ele>
<time>2012-05-02T23:06:53Z</time>
<desc>lat.=42.820736, lon.=18.917580, Alt.=639.508301m. Speed=65.879997m/h.</desc>
<speed>18.299999</speed>
</trkpt>
<trkpt lat="42.821423" lon="18.917004">
<ele>638.492676</ele>
<time>2012-05-02T23:06:58Z</time>
<desc>lat.=42.821423, lon.=18.917004, Alt.=638.492676m. Speed=63.504002m/h.</desc>
<speed>17.640000</speed>
</trkpt>
<trkpt lat="42.822075" lon="18.916456">
<ele>638.273926</ele>
<time>2012-05-02T23:07:03Z</time>
<desc>lat.=42.822075, lon.=18.916456, Alt.=638.273926m. Speed=58.787998m/h.</desc>
<speed>16.329999</speed>
</trkpt>
<trkpt lat="42.822701" lon="18.915936">
<ele>639.477051</ele>
<time>2012-05-02T23:07:08Z</time>
<desc>lat.=42.822701, lon.=18.915936, Alt.=639.477051m. Speed=57.456001m/h.</desc>
<speed>15.960000</speed>
</trkpt>
<trkpt lat="42.823326" lon="18.915529">
<ele>641.289551</ele>
<time>2012-05-02T23:07:13Z</time>
<desc>lat.=42.823326, lon.=18.915529, Alt.=641.289551m. Speed=54.720001m/h.</desc>
<speed>15.200000</speed>
</trkpt>
<trkpt lat="42.823971" lon="18.915613">
<ele>641.039551</ele>
<time>2012-05-02T23:07:18Z</time>
<desc>lat.=42.823971, lon.=18.915613, Alt.=641.039551m. Speed=52.056000m/h.</desc>
<speed>14.460000</speed>
</trkpt>
<trkpt lat="42.824577" lon="18.916023">
<ele>641.102051</ele>
<time>2012-05-02T23:07:23Z</time>
<desc>lat.=42.824577, lon.=18.916023, Alt.=641.102051m. Speed=55.043999m/h.</desc>
<speed>15.290000</speed>
</trkpt>
<trkpt lat="42.825218" lon="18.916382">
<ele>641.148926</ele>
<time>2012-05-02T23:07:28Z</time>
<desc>lat.=42.825218, lon.=18.916382, Alt.=641.148926m. Speed=55.835999m/h.</desc>
<speed>15.510000</speed>
</trkpt>
<trkpt lat="42.825890" lon="18.916754">
<ele>640.898926</ele>
<time>2012-05-02T23:07:33Z</time>
<desc>lat.=42.825890, lon.=18.916754, Alt.=640.898926m. Speed=58.896000m/h.</desc>
<speed>16.360000</speed>
</trkpt>
<trkpt lat="42.826572" lon="18.917135">
<ele>641.445801</ele>
<time>2012-05-02T23:07:38Z</time>
<desc>lat.=42.826572, lon.=18.917135, Alt.=641.445801m. Speed=57.456001m/h.</desc>
<speed>15.960000</speed>
</trkpt>
<trkpt lat="42.827225" lon="18.917507">
<ele>642.320801</ele>
<time>2012-05-02T23:07:43Z</time>
<desc>lat.=42.827225, lon.=18.917507, Alt.=642.320801m. Speed=56.088001m/h.</desc>
<speed>15.580000</speed>
</trkpt>
<trkpt lat="42.827892" lon="18.917875">
<ele>641.539551</ele>
<time>2012-05-02T23:07:48Z</time>
<desc>lat.=42.827892, lon.=18.917875, Alt.=641.539551m. Speed=56.520000m/h.</desc>
<speed>15.700000</speed>
</trkpt>
<trkpt lat="42.828537" lon="18.918287">
<ele>641.305176</ele>
<time>2012-05-02T23:07:53Z</time>
<desc>lat.=42.828537, lon.=18.918287, Alt.=641.305176m. Speed=56.088001m/h.</desc>
<speed>15.580000</speed>
</trkpt>
<trkpt lat="42.829185" lon="18.918707">
<ele>639.914551</ele>
<time>2012-05-02T23:07:58Z</time>
<desc>lat.=42.829185, lon.=18.918707, Alt.=639.914551m. Speed=57.563999m/h.</desc>
<speed>15.990000</speed>
</trkpt>
<trkpt lat="42.829842" lon="18.919134">
<ele>640.617676</ele>
<time>2012-05-02T23:08:03Z</time>
<desc>lat.=42.829842, lon.=18.919134, Alt.=640.617676m. Speed=54.683998m/h.</desc>
<speed>15.189999</speed>
</trkpt>
<trkpt lat="42.830410" lon="18.919495">
<ele>642.102051</ele>
<time>2012-05-02T23:08:08Z</time>
<desc>lat.=42.830410, lon.=18.919495, Alt.=642.102051m. Speed=47.987999m/h.</desc>
<speed>13.330000</speed>
</trkpt>
<trkpt lat="42.830994" lon="18.919775">
<ele>645.242676</ele>
<time>2012-05-02T23:08:13Z</time>
<desc>lat.=42.830994, lon.=18.919775, Alt.=645.242676m. Speed=49.284000m/h.</desc>
<speed>13.690000</speed>
</trkpt>
<trkpt lat="42.831573" lon="18.920013">
<ele>647.102051</ele>
<time>2012-05-02T23:08:18Z</time>
<desc>lat.=42.831573, lon.=18.920013, Alt.=647.102051m. Speed=49.320000m/h.</desc>
<speed>13.700000</speed>
</trkpt>
<trkpt lat="42.832176" lon="18.920267">
<ele>649.336426</ele>
<time>2012-05-02T23:08:23Z</time>
<desc>lat.=42.832176, lon.=18.920267, Alt.=649.336426m. Speed=50.004002m/h.</desc>
<speed>13.890000</speed>
</trkpt>
<trkpt lat="42.832775" lon="18.920509">
<ele>649.148926</ele>
<time>2012-05-02T23:08:28Z</time>
<desc>lat.=42.832775, lon.=18.920509, Alt.=649.148926m. Speed=49.571999m/h.</desc>
<speed>13.770000</speed>
</trkpt>
<trkpt lat="42.833359" lon="18.920828">
<ele>649.648926</ele>
<time>2012-05-02T23:08:33Z</time>
<desc>lat.=42.833359, lon.=18.920828, Alt.=649.648926m. Speed=50.292000m/h.</desc>
<speed>13.970000</speed>
</trkpt>
<trkpt lat="42.833942" lon="18.921175">
<ele>651.680176</ele>
<time>2012-05-02T23:08:38Z</time>
<desc>lat.=42.833942, lon.=18.921175, Alt.=651.680176m. Speed=53.136002m/h.</desc>
<speed>14.760000</speed>
</trkpt>
<trkpt lat="42.834564" lon="18.921570">
<ele>652.664551</ele>
<time>2012-05-02T23:08:43Z</time>
<desc>lat.=42.834564, lon.=18.921570, Alt.=652.664551m. Speed=55.116001m/h.</desc>
<speed>15.310000</speed>
</trkpt>
<trkpt lat="42.835205" lon="18.921953">
<ele>651.852051</ele>
<time>2012-05-02T23:08:48Z</time>
<desc>lat.=42.835205, lon.=18.921953, Alt.=651.852051m. Speed=54.612000m/h.</desc>
<speed>15.170000</speed>
</trkpt>
<trkpt lat="42.835823" lon="18.922337">
<ele>651.461426</ele>
<time>2012-05-02T23:08:53Z</time>
<desc>lat.=42.835823, lon.=18.922337, Alt.=651.461426m. Speed=54.612000m/h.</desc>
<speed>15.170000</speed>
</trkpt>
<trkpt lat="42.836452" lon="18.922762">
<ele>652.570801</ele>
<time>2012-05-02T23:08:58Z</time>
<desc>lat.=42.836452, lon.=18.922762, Alt.=652.570801m. Speed=56.448002m/h.</desc>
<speed>15.680001</speed>
</trkpt>
<trkpt lat="42.837070" lon="18.923262">
<ele>653.148926</ele>
<time>2012-05-02T23:09:03Z</time>
<desc>lat.=42.837070, lon.=18.923262, Alt.=653.148926m. Speed=59.796001m/h.</desc>
<speed>16.610000</speed>
</trkpt>
<trkpt lat="42.837719" lon="18.923790">
<ele>654.461426</ele>
<time>2012-05-02T23:09:08Z</time>
<desc>lat.=42.837719, lon.=18.923790, Alt.=654.461426m. Speed=60.911999m/h.</desc>
<speed>16.920000</speed>
</trkpt>
<trkpt lat="42.838371" lon="18.924318">
<ele>656.617676</ele>
<time>2012-05-02T23:09:13Z</time>
<desc>lat.=42.838371, lon.=18.924318, Alt.=656.617676m. Speed=59.868000m/h.</desc>
<speed>16.630000</speed>
</trkpt>
<trkpt lat="42.839020" lon="18.924822">
<ele>654.867676</ele>
<time>2012-05-02T23:09:18Z</time>
<desc>lat.=42.839020, lon.=18.924822, Alt.=654.867676m. Speed=59.472000m/h.</desc>
<speed>16.520000</speed>
</trkpt>
<trkpt lat="42.839664" lon="18.925268">
<ele>655.320801</ele>
<time>2012-05-02T23:09:23Z</time>
<desc>lat.=42.839664, lon.=18.925268, Alt.=655.320801m. Speed=56.880001m/h.</desc>
<speed>15.800000</speed>
</trkpt>
<trkpt lat="42.840271" lon="18.925840">
<ele>656.195801</ele>
<time>2012-05-02T23:09:28Z</time>
<desc>lat.=42.840271, lon.=18.925840, Alt.=656.195801m. Speed=60.299999m/h.</desc>
<speed>16.750000</speed>
</trkpt>
<trkpt lat="42.840881" lon="18.926435">
<ele>657.086426</ele>
<time>2012-05-02T23:09:33Z</time>
<desc>lat.=42.840881, lon.=18.926435, Alt.=657.086426m. Speed=59.363998m/h.</desc>
<speed>16.490000</speed>
</trkpt>
<trkpt lat="42.841480" lon="18.927031">
<ele>658.586426</ele>
<time>2012-05-02T23:09:38Z</time>
<desc>lat.=42.841480, lon.=18.927031, Alt.=658.586426m. Speed=59.400002m/h.</desc>
<speed>16.500000</speed>
</trkpt>
<trkpt lat="42.842064" lon="18.927631">
<ele>659.383301</ele>
<time>2012-05-02T23:09:43Z</time>
<desc>lat.=42.842064, lon.=18.927631, Alt.=659.383301m. Speed=57.167999m/h.</desc>
<speed>15.880000</speed>
</trkpt>
<trkpt lat="42.842609" lon="18.928232">
<ele>660.633301</ele>
<time>2012-05-02T23:09:48Z</time>
<desc>lat.=42.842609, lon.=18.928232, Alt.=660.633301m. Speed=56.015999m/h.</desc>
<speed>15.560000</speed>
</trkpt>
<trkpt lat="42.843151" lon="18.928829">
<ele>662.133301</ele>
<time>2012-05-02T23:09:53Z</time>
<desc>lat.=42.843151, lon.=18.928829, Alt.=662.133301m. Speed=56.484001m/h.</desc>
<speed>15.690000</speed>
</trkpt>
<trkpt lat="42.843678" lon="18.929462">
<ele>662.367676</ele>
<time>2012-05-02T23:09:58Z</time>
<desc>lat.=42.843678, lon.=18.929462, Alt.=662.367676m. Speed=58.212002m/h.</desc>
<speed>16.170001</speed>
</trkpt>
<trkpt lat="42.844196" lon="18.930126">
<ele>662.461426</ele>
<time>2012-05-02T23:10:03Z</time>
<desc>lat.=42.844196, lon.=18.930126, Alt.=662.461426m. Speed=57.743999m/h.</desc>
<speed>16.040000</speed>
</trkpt>
<trkpt lat="42.844715" lon="18.930805">
<ele>661.273926</ele>
<time>2012-05-02T23:10:08Z</time>
<desc>lat.=42.844715, lon.=18.930805, Alt.=661.273926m. Speed=57.672001m/h.</desc>
<speed>16.020000</speed>
</trkpt>
<trkpt lat="42.845219" lon="18.931471">
<ele>663.273926</ele>
<time>2012-05-02T23:10:13Z</time>
<desc>lat.=42.845219, lon.=18.931471, Alt.=663.273926m. Speed=56.340000m/h.</desc>
<speed>15.650000</speed>
</trkpt>
<trkpt lat="42.845715" lon="18.932152">
<ele>663.977051</ele>
<time>2012-05-02T23:10:18Z</time>
<desc>lat.=42.845715, lon.=18.932152, Alt.=663.977051m. Speed=57.132000m/h.</desc>
<speed>15.870000</speed>
</trkpt>
<trkpt lat="42.846188" lon="18.932898">
<ele>666.133301</ele>
<time>2012-05-02T23:10:23Z</time>
<desc>lat.=42.846188, lon.=18.932898, Alt.=666.133301m. Speed=58.032001m/h.</desc>
<speed>16.120000</speed>
</trkpt>
<trkpt lat="42.846687" lon="18.933655">
<ele>667.117676</ele>
<time>2012-05-02T23:10:28Z</time>
<desc>lat.=42.846687, lon.=18.933655, Alt.=667.117676m. Speed=61.236000m/h.</desc>
<speed>17.010000</speed>
</trkpt>
<trkpt lat="42.847248" lon="18.934326">
<ele>666.289551</ele>
<time>2012-05-02T23:10:33Z</time>
<desc>lat.=42.847248, lon.=18.934326, Alt.=666.289551m. Speed=59.759998m/h.</desc>
<speed>16.600000</speed>
</trkpt>
<trkpt lat="42.847900" lon="18.934771">
<ele>667.820801</ele>
<time>2012-05-02T23:10:38Z</time>
<desc>lat.=42.847900, lon.=18.934771, Alt.=667.820801m. Speed=59.327999m/h.</desc>
<speed>16.480000</speed>
</trkpt>
<trkpt lat="42.848587" lon="18.935139">
<ele>668.898926</ele>
<time>2012-05-02T23:10:43Z</time>
<desc>lat.=42.848587, lon.=18.935139, Alt.=668.898926m. Speed=58.896000m/h.</desc>
<speed>16.360000</speed>
</trkpt>
<trkpt lat="42.849251" lon="18.935587">
<ele>670.477051</ele>
<time>2012-05-02T23:10:48Z</time>
<desc>lat.=42.849251, lon.=18.935587, Alt.=670.477051m. Speed=59.327999m/h.</desc>
<speed>16.480000</speed>
</trkpt>
<trkpt lat="42.849846" lon="18.936188">
<ele>671.680176</ele>
<time>2012-05-02T23:10:53Z</time>
<desc>lat.=42.849846, lon.=18.936188, Alt.=671.680176m. Speed=59.796001m/h.</desc>
<speed>16.610000</speed>
</trkpt>
<trkpt lat="42.850403" lon="18.936869">
<ele>672.445801</ele>
<time>2012-05-02T23:10:58Z</time>
<desc>lat.=42.850403, lon.=18.936869, Alt.=672.445801m. Speed=59.400002m/h.</desc>
<speed>16.500000</speed>
</trkpt>
<trkpt lat="42.850880" lon="18.937609">
<ele>673.789551</ele>
<time>2012-05-02T23:11:03Z</time>
<desc>lat.=42.850880, lon.=18.937609, Alt.=673.789551m. Speed=55.908001m/h.</desc>
<speed>15.530000</speed>
</trkpt>
<trkpt lat="42.851254" lon="18.938351">
<ele>673.961426</ele>
<time>2012-05-02T23:11:08Z</time>
<desc>lat.=42.851254, lon.=18.938351, Alt.=673.961426m. Speed=48.456001m/h.</desc>
<speed>13.460000</speed>
</trkpt>
<trkpt lat="42.851734" lon="18.938816">
<ele>671.086426</ele>
<time>2012-05-02T23:11:13Z</time>
<desc>lat.=42.851734, lon.=18.938816, Alt.=671.086426m. Speed=49.751999m/h.</desc>
<speed>13.820000</speed>
</trkpt>
<trkpt lat="42.852348" lon="18.939068">
<ele>668.930176</ele>
<time>2012-05-02T23:11:18Z</time>
<desc>lat.=42.852348, lon.=18.939068, Alt.=668.930176m. Speed=51.264000m/h.</desc>
<speed>14.240000</speed>
</trkpt>
<trkpt lat="42.852894" lon="18.939491">
<ele>666.555176</ele>
<time>2012-05-02T23:11:23Z</time>
<desc>lat.=42.852894, lon.=18.939491, Alt.=666.555176m. Speed=49.716000m/h.</desc>
<speed>13.810000</speed>
</trkpt>
<trkpt lat="42.853230" lon="18.939995">
<ele>665.102051</ele>
<time>2012-05-02T23:11:28Z</time>
<desc>lat.=42.853230, lon.=18.939995, Alt.=665.102051m. Speed=36.144001m/h.</desc>
<speed>10.040000</speed>
</trkpt>
<trkpt lat="42.853436" lon="18.940638">
<ele>663.352051</ele>
<time>2012-05-02T23:11:33Z</time>
<desc>lat.=42.853436, lon.=18.940638, Alt.=663.352051m. Speed=44.028000m/h.</desc>
<speed>12.230000</speed>
</trkpt>
<trkpt lat="42.853535" lon="18.941397">
<ele>662.336426</ele>
<time>2012-05-02T23:11:38Z</time>
<desc>lat.=42.853535, lon.=18.941397, Alt.=662.336426m. Speed=46.332001m/h.</desc>
<speed>12.870000</speed>
</trkpt>
<trkpt lat="42.853592" lon="18.942179">
<ele>661.523926</ele>
<time>2012-05-02T23:11:43Z</time>
<desc>lat.=42.853592, lon.=18.942179, Alt.=661.523926m. Speed=44.748001m/h.</desc>
<speed>12.430000</speed>
</trkpt>
<trkpt lat="42.853889" lon="18.942795">
<ele>660.898926</ele>
<time>2012-05-02T23:11:48Z</time>
<desc>lat.=42.853889, lon.=18.942795, Alt.=660.898926m. Speed=44.172001m/h.</desc>
<speed>12.270000</speed>
</trkpt>
<trkpt lat="42.854416" lon="18.943110">
<ele>661.773926</ele>
<time>2012-05-02T23:11:53Z</time>
<desc>lat.=42.854416, lon.=18.943110, Alt.=661.773926m. Speed=48.852001m/h.</desc>
<speed>13.570000</speed>
</trkpt>
<trkpt lat="42.855007" lon="18.943331">
<ele>664.273926</ele>
<time>2012-05-02T23:11:58Z</time>
<desc>lat.=42.855007, lon.=18.943331, Alt.=664.273926m. Speed=49.428001m/h.</desc>
<speed>13.730000</speed>
</trkpt>
<trkpt lat="42.855576" lon="18.943539">
<ele>666.648926</ele>
<time>2012-05-02T23:12:03Z</time>
<desc>lat.=42.855576, lon.=18.943539, Alt.=666.648926m. Speed=43.307999m/h.</desc>
<speed>12.030000</speed>
</trkpt>
<trkpt lat="42.855988" lon="18.943594">
<ele>669.352051</ele>
<time>2012-05-02T23:12:08Z</time>
<desc>lat.=42.855988, lon.=18.943594, Alt.=669.352051m. Speed=27.360001m/h.</desc>
<speed>7.600000</speed>
</trkpt>
<trkpt lat="42.856293" lon="18.943340">
<ele>671.414551</ele>
<time>2012-05-02T23:12:13Z</time>
<desc>lat.=42.856293, lon.=18.943340, Alt.=671.414551m. Speed=34.703999m/h.</desc>
<speed>9.640000</speed>
</trkpt>
<trkpt lat="42.856564" lon="18.942984">
<ele>672.477051</ele>
<time>2012-05-02T23:12:18Z</time>
<desc>lat.=42.856564, lon.=18.942984, Alt.=672.477051m. Speed=30.959999m/h.</desc>
<speed>8.600000</speed>
</trkpt>
<trkpt lat="42.856918" lon="18.942928">
<ele>673.367676</ele>
<time>2012-05-02T23:12:23Z</time>
<desc>lat.=42.856918, lon.=18.942928, Alt.=673.367676m. Speed=34.776001m/h.</desc>
<speed>9.660000</speed>
</trkpt>
<trkpt lat="42.857388" lon="18.943167">
<ele>677.711426</ele>
<time>2012-05-02T23:12:28Z</time>
<desc>lat.=42.857388, lon.=18.943167, Alt.=677.711426m. Speed=40.608002m/h.</desc>
<speed>11.280000</speed>
</trkpt>
<trkpt lat="42.857891" lon="18.943066">
<ele>682.461426</ele>
<time>2012-05-02T23:12:33Z</time>
<desc>lat.=42.857891, lon.=18.943066, Alt.=682.461426m. Speed=44.028000m/h.</desc>
<speed>12.230000</speed>
</trkpt>
<trkpt lat="42.858292" lon="18.942513">
<ele>685.586426</ele>
<time>2012-05-02T23:12:38Z</time>
<desc>lat.=42.858292, lon.=18.942513, Alt.=685.586426m. Speed=48.203999m/h.</desc>
<speed>13.390000</speed>
</trkpt>
<trkpt lat="42.858585" lon="18.941763">
<ele>689.117676</ele>
<time>2012-05-02T23:12:43Z</time>
<desc>lat.=42.858585, lon.=18.941763, Alt.=689.117676m. Speed=50.400002m/h.</desc>
<speed>14.000000</speed>
</trkpt>
<trkpt lat="42.858852" lon="18.940958">
<ele>692.727051</ele>
<time>2012-05-02T23:12:48Z</time>
<desc>lat.=42.858852, lon.=18.940958, Alt.=692.727051m. Speed=53.532001m/h.</desc>
<speed>14.870000</speed>
</trkpt>
<trkpt lat="42.859207" lon="18.940193">
<ele>697.992676</ele>
<time>2012-05-02T23:12:53Z</time>
<desc>lat.=42.859207, lon.=18.940193, Alt.=697.992676m. Speed=52.776001m/h.</desc>
<speed>14.660000</speed>
</trkpt>
<trkpt lat="42.859711" lon="18.939648">
<ele>703.695801</ele>
<time>2012-05-02T23:12:58Z</time>
<desc>lat.=42.859711, lon.=18.939648, Alt.=703.695801m. Speed=49.500000m/h.</desc>
<speed>13.750000</speed>
</trkpt>
<trkpt lat="42.860313" lon="18.939381">
<ele>709.492676</ele>
<time>2012-05-02T23:13:03Z</time>
<desc>lat.=42.860313, lon.=18.939381, Alt.=709.492676m. Speed=52.091999m/h.</desc>
<speed>14.470000</speed>
</trkpt>
<trkpt lat="42.860985" lon="18.939297">
<ele>713.148926</ele>
<time>2012-05-02T23:13:08Z</time>
<desc>lat.=42.860985, lon.=18.939297, Alt.=713.148926m. Speed=55.188000m/h.</desc>
<speed>15.330000</speed>
</trkpt>
<trkpt lat="42.861694" lon="18.939129">
<ele>717.664551</ele>
<time>2012-05-02T23:13:13Z</time>
<desc>lat.=42.861694, lon.=18.939129, Alt.=717.664551m. Speed=59.183998m/h.</desc>
<speed>16.439999</speed>
</trkpt>
<trkpt lat="42.862335" lon="18.938675">
<ele>723.805176</ele>
<time>2012-05-02T23:13:18Z</time>
<desc>lat.=42.862335, lon.=18.938675, Alt.=723.805176m. Speed=59.363998m/h.</desc>
<speed>16.490000</speed>
</trkpt>
<trkpt lat="42.862808" lon="18.937912">
<ele>727.977051</ele>
<time>2012-05-02T23:13:23Z</time>
<desc>lat.=42.862808, lon.=18.937912, Alt.=727.977051m. Speed=58.860001m/h.</desc>
<speed>16.350000</speed>
</trkpt>
<trkpt lat="42.863071" lon="18.936991">
<ele>733.008301</ele>
<time>2012-05-02T23:13:28Z</time>
<desc>lat.=42.863071, lon.=18.936991, Alt.=733.008301m. Speed=58.860001m/h.</desc>
<speed>16.350000</speed>
</trkpt>
<trkpt lat="42.863113" lon="18.935999">
<ele>739.914551</ele>
<time>2012-05-02T23:13:33Z</time>
<desc>lat.=42.863113, lon.=18.935999, Alt.=739.914551m. Speed=62.208000m/h.</desc>
<speed>17.280000</speed>
</trkpt>
<trkpt lat="42.863071" lon="18.935022">
<ele>742.602051</ele>
<time>2012-05-02T23:13:38Z</time>
<desc>lat.=42.863071, lon.=18.935022, Alt.=742.602051m. Speed=50.976002m/h.</desc>
<speed>14.160000</speed>
</trkpt>
<trkpt lat="42.863365" lon="18.934460">
<ele>744.852051</ele>
<time>2012-05-02T23:13:43Z</time>
<desc>lat.=42.863365, lon.=18.934460, Alt.=744.852051m. Speed=39.096001m/h.</desc>
<speed>10.860000</speed>
</trkpt>
<trkpt lat="42.863831" lon="18.934196">
<ele>746.867676</ele>
<time>2012-05-02T23:13:48Z</time>
<desc>lat.=42.863831, lon.=18.934196, Alt.=746.867676m. Speed=46.872002m/h.</desc>
<speed>13.020000</speed>
</trkpt>
<trkpt lat="42.864471" lon="18.933849">
<ele>747.586426</ele>
<time>2012-05-02T23:13:53Z</time>
<desc>lat.=42.864471, lon.=18.933849, Alt.=747.586426m. Speed=57.456001m/h.</desc>
<speed>15.960000</speed>
</trkpt>
<trkpt lat="42.865181" lon="18.933447">
<ele>749.914551</ele>
<time>2012-05-02T23:13:58Z</time>
<desc>lat.=42.865181, lon.=18.933447, Alt.=749.914551m. Speed=67.068001m/h.</desc>
<speed>18.630000</speed>
</trkpt>
<trkpt lat="42.866001" lon="18.933140">
<ele>752.430176</ele>
<time>2012-05-02T23:14:03Z</time>
<desc>lat.=42.866001, lon.=18.933140, Alt.=752.430176m. Speed=64.332001m/h.</desc>
<speed>17.870000</speed>
</trkpt>
<trkpt lat="42.866798" lon="18.933132">
<ele>755.508301</ele>
<time>2012-05-02T23:14:08Z</time>
<desc>lat.=42.866798, lon.=18.933132, Alt.=755.508301m. Speed=65.304001m/h.</desc>
<speed>18.140000</speed>
</trkpt>
<trkpt lat="42.867584" lon="18.933430">
<ele>758.070801</ele>
<time>2012-05-02T23:14:13Z</time>
<desc>lat.=42.867584, lon.=18.933430, Alt.=758.070801m. Speed=65.232002m/h.</desc>
<speed>18.120001</speed>
</trkpt>
<trkpt lat="42.868313" lon="18.933950">
<ele>760.195801</ele>
<time>2012-05-02T23:14:18Z</time>
<desc>lat.=42.868313, lon.=18.933950, Alt.=760.195801m. Speed=68.975998m/h.</desc>
<speed>19.159999</speed>
</trkpt>
<trkpt lat="42.869061" lon="18.934559">
<ele>765.945801</ele>
<time>2012-05-02T23:14:23Z</time>
<desc>lat.=42.869061, lon.=18.934559, Alt.=765.945801m. Speed=71.244003m/h.</desc>
<speed>19.790001</speed>
</trkpt>
<trkpt lat="42.869843" lon="18.935194">
<ele>771.977051</ele>
<time>2012-05-02T23:14:28Z</time>
<desc>lat.=42.869843, lon.=18.935194, Alt.=771.977051m. Speed=73.223999m/h.</desc>
<speed>20.340000</speed>
</trkpt>
<trkpt lat="42.870617" lon="18.935827">
<ele>778.180176</ele>
<time>2012-05-02T23:14:33Z</time>
<desc>lat.=42.870617, lon.=18.935827, Alt.=778.180176m. Speed=71.891998m/h.</desc>
<speed>19.970000</speed>
</trkpt>
<trkpt lat="42.871414" lon="18.936388">
<ele>783.867676</ele>
<time>2012-05-02T23:14:38Z</time>
<desc>lat.=42.871414, lon.=18.936388, Alt.=783.867676m. Speed=72.396004m/h.</desc>
<speed>20.110001</speed>
</trkpt>
<trkpt lat="42.872261" lon="18.936749">
<ele>789.633301</ele>
<time>2012-05-02T23:14:43Z</time>
<desc>lat.=42.872261, lon.=18.936749, Alt.=789.633301m. Speed=67.391998m/h.</desc>
<speed>18.720000</speed>
</trkpt>
<trkpt lat="42.872963" lon="18.937229">
<ele>794.367676</ele>
<time>2012-05-02T23:14:48Z</time>
<desc>lat.=42.872963, lon.=18.937229, Alt.=794.367676m. Speed=63.071999m/h.</desc>
<speed>17.520000</speed>
</trkpt>
<trkpt lat="42.873631" lon="18.937862">
<ele>799.086426</ele>
<time>2012-05-02T23:14:53Z</time>
<desc>lat.=42.873631, lon.=18.937862, Alt.=799.086426m. Speed=64.260002m/h.</desc>
<speed>17.850001</speed>
</trkpt>
<trkpt lat="42.874298" lon="18.938259">
<ele>802.758301</ele>
<time>2012-05-02T23:14:58Z</time>
<desc>lat.=42.874298, lon.=18.938259, Alt.=802.758301m. Speed=56.375999m/h.</desc>
<speed>15.660000</speed>
</trkpt>
<trkpt lat="42.874950" lon="18.938570">
<ele>807.242676</ele>
<time>2012-05-02T23:15:03Z</time>
<desc>lat.=42.874950, lon.=18.938570, Alt.=807.242676m. Speed=54.216000m/h.</desc>
<speed>15.060000</speed>
</trkpt>
<trkpt lat="42.875523" lon="18.938940">
<ele>812.320801</ele>
<time>2012-05-02T23:15:08Z</time>
<desc>lat.=42.875523, lon.=18.938940, Alt.=812.320801m. Speed=54.287998m/h.</desc>
<speed>15.079999</speed>
</trkpt>
<trkpt lat="42.876163" lon="18.939379">
<ele>816.539551</ele>
<time>2012-05-02T23:15:13Z</time>
<desc>lat.=42.876163, lon.=18.939379, Alt.=816.539551m. Speed=56.448002m/h.</desc>
<speed>15.680001</speed>
</trkpt>
<trkpt lat="42.876835" lon="18.939651">
<ele>820.961426</ele>
<time>2012-05-02T23:15:18Z</time>
<desc>lat.=42.876835, lon.=18.939651, Alt.=820.961426m. Speed=56.268002m/h.</desc>
<speed>15.630000</speed>
</trkpt>
<trkpt lat="42.877460" lon="18.939882">
<ele>822.992676</ele>
<time>2012-05-02T23:15:23Z</time>
<desc>lat.=42.877460, lon.=18.939882, Alt.=822.992676m. Speed=51.731998m/h.</desc>
<speed>14.370000</speed>
</trkpt>
<trkpt lat="42.878078" lon="18.940264">
<ele>827.508301</ele>
<time>2012-05-02T23:15:28Z</time>
<desc>lat.=42.878078, lon.=18.940264, Alt.=827.508301m. Speed=55.584000m/h.</desc>
<speed>15.440000</speed>
</trkpt>
<trkpt lat="42.878643" lon="18.940882">
<ele>830.414551</ele>
<time>2012-05-02T23:15:33Z</time>
<desc>lat.=42.878643, lon.=18.940882, Alt.=830.414551m. Speed=58.175999m/h.</desc>
<speed>16.160000</speed>
</trkpt>
<trkpt lat="42.879158" lon="18.941584">
<ele>831.383301</ele>
<time>2012-05-02T23:15:38Z</time>
<desc>lat.=42.879158, lon.=18.941584, Alt.=831.383301m. Speed=58.355999m/h.</desc>
<speed>16.210000</speed>
</trkpt>
<trkpt lat="42.879780" lon="18.942186">
<ele>833.305176</ele>
<time>2012-05-02T23:15:43Z</time>
<desc>lat.=42.879780, lon.=18.942186, Alt.=833.305176m. Speed=60.551998m/h.</desc>
<speed>16.819999</speed>
</trkpt>
<trkpt lat="42.880375" lon="18.942780">
<ele>835.898926</ele>
<time>2012-05-02T23:15:48Z</time>
<desc>lat.=42.880375, lon.=18.942780, Alt.=835.898926m. Speed=58.751999m/h.</desc>
<speed>16.320000</speed>
</trkpt>
<trkpt lat="42.880791" lon="18.943617">
<ele>836.773926</ele>
<time>2012-05-02T23:15:53Z</time>
<desc>lat.=42.880791, lon.=18.943617, Alt.=836.773926m. Speed=61.416000m/h.</desc>
<speed>17.060000</speed>
</trkpt>
<trkpt lat="42.881050" lon="18.944649">
<ele>837.555176</ele>
<time>2012-05-02T23:15:58Z</time>
<desc>lat.=42.881050, lon.=18.944649, Alt.=837.555176m. Speed=65.160004m/h.</desc>
<speed>18.100001</speed>
</trkpt>
<trkpt lat="42.881310" lon="18.945740">
<ele>840.242676</ele>
<time>2012-05-02T23:16:03Z</time>
<desc>lat.=42.881310, lon.=18.945740, Alt.=840.242676m. Speed=66.167999m/h.</desc>
<speed>18.380000</speed>
</trkpt>
<trkpt lat="42.881718" lon="18.946674">
<ele>845.883301</ele>
<time>2012-05-02T23:16:08Z</time>
<desc>lat.=42.881718, lon.=18.946674, Alt.=845.883301m. Speed=63.863998m/h.</desc>
<speed>17.740000</speed>
</trkpt>
<trkpt lat="42.882294" lon="18.947433">
<ele>849.789551</ele>
<time>2012-05-02T23:16:13Z</time>
<desc>lat.=42.882294, lon.=18.947433, Alt.=849.789551m. Speed=63.035999m/h.</desc>
<speed>17.510000</speed>
</trkpt>
<trkpt lat="42.882889" lon="18.948160">
<ele>853.883301</ele>
<time>2012-05-02T23:16:18Z</time>
<desc>lat.=42.882889, lon.=18.948160, Alt.=853.883301m. Speed=64.188004m/h.</desc>
<speed>17.830001</speed>
</trkpt>
<trkpt lat="42.883484" lon="18.948898">
<ele>857.914551</ele>
<time>2012-05-02T23:16:23Z</time>
<desc>lat.=42.883484, lon.=18.948898, Alt.=857.914551m. Speed=66.456001m/h.</desc>
<speed>18.460000</speed>
</trkpt>
<trkpt lat="42.884106" lon="18.949654">
<ele>861.555176</ele>
<time>2012-05-02T23:16:28Z</time>
<desc>lat.=42.884106, lon.=18.949654, Alt.=861.555176m. Speed=67.248001m/h.</desc>
<speed>18.680000</speed>
</trkpt>
<trkpt lat="42.884743" lon="18.950434">
<ele>866.258301</ele>
<time>2012-05-02T23:16:33Z</time>
<desc>lat.=42.884743, lon.=18.950434, Alt.=866.258301m. Speed=69.372002m/h.</desc>
<speed>19.270000</speed>
</trkpt>
<trkpt lat="42.885376" lon="18.951216">
<ele>871.023926</ele>
<time>2012-05-02T23:16:38Z</time>
<desc>lat.=42.885376, lon.=18.951216, Alt.=871.023926m. Speed=67.211998m/h.</desc>
<speed>18.669999</speed>
</trkpt>
<trkpt lat="42.885872" lon="18.952175">
<ele>880.992676</ele>
<time>2012-05-02T23:16:43Z</time>
<desc>lat.=42.885872, lon.=18.952175, Alt.=880.992676m. Speed=66.816002m/h.</desc>
<speed>18.560001</speed>
</trkpt>
<trkpt lat="42.886147" lon="18.953257">
<ele>888.273926</ele>
<time>2012-05-02T23:16:48Z</time>
<desc>lat.=42.886147, lon.=18.953257, Alt.=888.273926m. Speed=67.248001m/h.</desc>
<speed>18.680000</speed>
</trkpt>
<trkpt lat="42.886467" lon="18.954193">
<ele>896.086426</ele>
<time>2012-05-02T23:16:53Z</time>
<desc>lat.=42.886467, lon.=18.954193, Alt.=896.086426m. Speed=56.844002m/h.</desc>
<speed>15.790000</speed>
</trkpt>
<trkpt lat="42.886917" lon="18.954983">
<ele>900.930176</ele>
<time>2012-05-02T23:16:58Z</time>
<desc>lat.=42.886917, lon.=18.954983, Alt.=900.930176m. Speed=62.568001m/h.</desc>
<speed>17.380000</speed>
</trkpt>
<trkpt lat="42.887398" lon="18.955870">
<ele>907.805176</ele>
<time>2012-05-02T23:17:03Z</time>
<desc>lat.=42.887398, lon.=18.955870, Alt.=907.805176m. Speed=65.592003m/h.</desc>
<speed>18.220001</speed>
</trkpt>
<trkpt lat="42.887821" lon="18.956766">
<ele>913.336426</ele>
<time>2012-05-02T23:17:08Z</time>
<desc>lat.=42.887821, lon.=18.956766, Alt.=913.336426m. Speed=61.056000m/h.</desc>
<speed>16.960000</speed>
</trkpt>
<trkpt lat="42.888039" lon="18.957760">
<ele>916.570801</ele>
<time>2012-05-02T23:17:13Z</time>
<desc>lat.=42.888039, lon.=18.957760, Alt.=916.570801m. Speed=62.964001m/h.</desc>
<speed>17.490000</speed>
</trkpt>
<trkpt lat="42.888035" lon="18.958815">
<ele>917.773926</ele>
<time>2012-05-02T23:17:18Z</time>
<desc>lat.=42.888035, lon.=18.958815, Alt.=917.773926m. Speed=59.796001m/h.</desc>
<speed>16.610000</speed>
</trkpt>
<trkpt lat="42.888142" lon="18.959810">
<ele>917.164551</ele>
<time>2012-05-02T23:17:23Z</time>
<desc>lat.=42.888142, lon.=18.959810, Alt.=917.164551m. Speed=59.832001m/h.</desc>
<speed>16.620000</speed>
</trkpt>
<trkpt lat="42.888554" lon="18.960714">
<ele>915.977051</ele>
<time>2012-05-02T23:17:28Z</time>
<desc>lat.=42.888554, lon.=18.960714, Alt.=915.977051m. Speed=67.356003m/h.</desc>
<speed>18.710001</speed>
</trkpt>
<trkpt lat="42.889275" lon="18.961334">
<ele>913.383301</ele>
<time>2012-05-02T23:17:33Z</time>
<desc>lat.=42.889275, lon.=18.961334, Alt.=913.383301m. Speed=69.804001m/h.</desc>
<speed>19.390000</speed>
</trkpt>
<trkpt lat="42.890148" lon="18.961578">
<ele>912.242676</ele>
<time>2012-05-02T23:17:38Z</time>
<desc>lat.=42.890148, lon.=18.961578, Alt.=912.242676m. Speed=73.872002m/h.</desc>
<speed>20.520000</speed>
</trkpt>
<trkpt lat="42.891068" lon="18.961781">
<ele>913.414551</ele>
<time>2012-05-02T23:17:43Z</time>
<desc>lat.=42.891068, lon.=18.961781, Alt.=913.414551m. Speed=75.924004m/h.</desc>
<speed>21.090001</speed>
</trkpt>
<trkpt lat="42.892014" lon="18.962059">
<ele>913.648926</ele>
<time>2012-05-02T23:17:48Z</time>
<desc>lat.=42.892014, lon.=18.962059, Alt.=913.648926m. Speed=76.103996m/h.</desc>
<speed>21.139999</speed>
</trkpt>
<trkpt lat="42.892941" lon="18.962416">
<ele>912.930176</ele>
<time>2012-05-02T23:17:53Z</time>
<desc>lat.=42.892941, lon.=18.962416, Alt.=912.930176m. Speed=77.255997m/h.</desc>
<speed>21.459999</speed>
</trkpt>
<trkpt lat="42.893852" lon="18.962831">
<ele>913.508301</ele>
<time>2012-05-02T23:17:58Z</time>
<desc>lat.=42.893852, lon.=18.962831, Alt.=913.508301m. Speed=76.068001m/h.</desc>
<speed>21.130000</speed>
</trkpt>
<trkpt lat="42.894741" lon="18.963236">
<ele>914.180176</ele>
<time>2012-05-02T23:18:03Z</time>
<desc>lat.=42.894741, lon.=18.963236, Alt.=914.180176m. Speed=75.167999m/h.</desc>
<speed>20.880000</speed>
</trkpt>
<trkpt lat="42.895580" lon="18.963606">
<ele>915.211426</ele>
<time>2012-05-02T23:18:08Z</time>
<desc>lat.=42.895580, lon.=18.963606, Alt.=915.211426m. Speed=68.183998m/h.</desc>
<speed>18.939999</speed>
</trkpt>
<trkpt lat="42.896404" lon="18.963882">
<ele>918.414551</ele>
<time>2012-05-02T23:18:13Z</time>
<desc>lat.=42.896404, lon.=18.963882, Alt.=918.414551m. Speed=69.624001m/h.</desc>
<speed>19.340000</speed>
</trkpt>
<trkpt lat="42.897282" lon="18.963959">
<ele>922.398926</ele>
<time>2012-05-02T23:18:18Z</time>
<desc>lat.=42.897282, lon.=18.963959, Alt.=922.398926m. Speed=69.047997m/h.</desc>
<speed>19.179999</speed>
</trkpt>
<trkpt lat="42.898178" lon="18.963781">
<ele>924.336426</ele>
<time>2012-05-02T23:18:23Z</time>
<desc>lat.=42.898178, lon.=18.963781, Alt.=924.336426m. Speed=73.188004m/h.</desc>
<speed>20.330001</speed>
</trkpt>
<trkpt lat="42.899040" lon="18.963377">
<ele>928.461426</ele>
<time>2012-05-02T23:18:28Z</time>
<desc>lat.=42.899040, lon.=18.963377, Alt.=928.461426m. Speed=72.216003m/h.</desc>
<speed>20.060001</speed>
</trkpt>
<trkpt lat="42.899769" lon="18.962765">
<ele>931.570801</ele>
<time>2012-05-02T23:18:33Z</time>
<desc>lat.=42.899769, lon.=18.962765, Alt.=931.570801m. Speed=67.211998m/h.</desc>
<speed>18.669999</speed>
</trkpt>
<trkpt lat="42.900326" lon="18.962057">
<ele>934.664551</ele>
<time>2012-05-02T23:18:38Z</time>
<desc>lat.=42.900326, lon.=18.962057, Alt.=934.664551m. Speed=57.167999m/h.</desc>
<speed>15.880000</speed>
</trkpt>
<trkpt lat="42.900753" lon="18.961346">
<ele>938.961426</ele>
<time>2012-05-02T23:18:43Z</time>
<desc>lat.=42.900753, lon.=18.961346, Alt.=938.961426m. Speed=55.259998m/h.</desc>
<speed>15.350000</speed>
</trkpt>
<trkpt lat="42.901073" lon="18.960602">
<ele>942.883301</ele>
<time>2012-05-02T23:18:48Z</time>
<desc>lat.=42.901073, lon.=18.960602, Alt.=942.883301m. Speed=43.812000m/h.</desc>
<speed>12.170000</speed>
</trkpt>
<trkpt lat="42.901260" lon="18.960133">
<ele>945.398926</ele>
<time>2012-05-02T23:18:53Z</time>
<desc>lat.=42.901260, lon.=18.960133, Alt.=945.398926m. Speed=19.656000m/h.</desc>
<speed>5.460000</speed>
</trkpt>
<trkpt lat="42.901524" lon="18.960135">
<ele>948.086426</ele>
<time>2012-05-02T23:18:58Z</time>
<desc>lat.=42.901524, lon.=18.960135, Alt.=948.086426m. Speed=31.068001m/h.</desc>
<speed>8.630000</speed>
</trkpt>
<trkpt lat="42.901958" lon="18.960333">
<ele>948.508301</ele>
<time>2012-05-02T23:19:03Z</time>
<desc>lat.=42.901958, lon.=18.960333, Alt.=948.508301m. Speed=41.939999m/h.</desc>
<speed>11.650000</speed>
</trkpt>
<trkpt lat="42.902332" lon="18.960922">
<ele>949.586426</ele>
<time>2012-05-02T23:19:08Z</time>
<desc>lat.=42.902332, lon.=18.960922, Alt.=949.586426m. Speed=50.004002m/h.</desc>
<speed>13.890000</speed>
</trkpt>
<trkpt lat="42.902435" lon="18.961910">
<ele>950.539551</ele>
<time>2012-05-02T23:19:13Z</time>
<desc>lat.=42.902435, lon.=18.961910, Alt.=950.539551m. Speed=63.287998m/h.</desc>
<speed>17.579999</speed>
</trkpt>
<trkpt lat="42.902485" lon="18.963051">
<ele>951.070801</ele>
<time>2012-05-02T23:19:18Z</time>
<desc>lat.=42.902485, lon.=18.963051, Alt.=951.070801m. Speed=69.947998m/h.</desc>
<speed>19.429999</speed>
</trkpt>
<trkpt lat="42.902550" lon="18.964310">
<ele>952.789551</ele>
<time>2012-05-02T23:19:23Z</time>
<desc>lat.=42.902550, lon.=18.964310, Alt.=952.789551m. Speed=72.360001m/h.</desc>
<speed>20.100000</speed>
</trkpt>
<trkpt lat="42.902763" lon="18.965576">
<ele>956.898926</ele>
<time>2012-05-02T23:19:28Z</time>
<desc>lat.=42.902763, lon.=18.965576, Alt.=956.898926m. Speed=76.680000m/h.</desc>
<speed>21.300000</speed>
</trkpt>
<trkpt lat="42.903160" lon="18.966784">
<ele>966.039551</ele>
<time>2012-05-02T23:19:33Z</time>
<desc>lat.=42.903160, lon.=18.966784, Alt.=966.039551m. Speed=76.139999m/h.</desc>
<speed>21.150000</speed>
</trkpt>
<trkpt lat="42.903553" lon="18.967949">
<ele>973.430176</ele>
<time>2012-05-02T23:19:38Z</time>
<desc>lat.=42.903553, lon.=18.967949, Alt.=973.430176m. Speed=69.155998m/h.</desc>
<speed>19.210000</speed>
</trkpt>
<trkpt lat="42.903889" lon="18.968925">
<ele>980.039551</ele>
<time>2012-05-02T23:19:43Z</time>
<desc>lat.=42.903889, lon.=18.968925, Alt.=980.039551m. Speed=58.967999m/h.</desc>
<speed>16.380000</speed>
</trkpt>
<trkpt lat="42.904137" lon="18.969849">
<ele>986.992676</ele>
<time>2012-05-02T23:19:48Z</time>
<desc>lat.=42.904137, lon.=18.969849, Alt.=986.992676m. Speed=57.636002m/h.</desc>
<speed>16.010000</speed>
</trkpt>
<trkpt lat="42.904186" lon="18.970844">
<ele>992.008301</ele>
<time>2012-05-02T23:19:53Z</time>
<desc>lat.=42.904186, lon.=18.970844, Alt.=992.008301m. Speed=60.624001m/h.</desc>
<speed>16.840000</speed>
</trkpt>
<trkpt lat="42.903984" lon="18.971886">
<ele>993.758301</ele>
<time>2012-05-02T23:19:58Z</time>
<desc>lat.=42.903984, lon.=18.971886, Alt.=993.758301m. Speed=62.855999m/h.</desc>
<speed>17.460000</speed>
</trkpt>
<trkpt lat="42.903683" lon="18.972916">
<ele>998.352051</ele>
<time>2012-05-02T23:20:03Z</time>
<desc>lat.=42.903683, lon.=18.972916, Alt.=998.352051m. Speed=63.071999m/h.</desc>
<speed>17.520000</speed>
</trkpt>
<trkpt lat="42.903503" lon="18.973957">
<ele>1002.836426</ele>
<time>2012-05-02T23:20:08Z</time>
<desc>lat.=42.903503, lon.=18.973957, Alt.=1002.836426m. Speed=62.459999m/h.</desc>
<speed>17.350000</speed>
</trkpt>
<trkpt lat="42.903507" lon="18.975014">
<ele>1008.023926</ele>
<time>2012-05-02T23:20:13Z</time>
<desc>lat.=42.903507, lon.=18.975014, Alt.=1008.023926m. Speed=61.271999m/h.</desc>
<speed>17.020000</speed>
</trkpt>
<trkpt lat="42.903519" lon="18.976049">
<ele>1013.336426</ele>
<time>2012-05-02T23:20:18Z</time>
<desc>lat.=42.903519, lon.=18.976049, Alt.=1013.336426m. Speed=61.667999m/h.</desc>
<speed>17.130000</speed>
</trkpt>
<trkpt lat="42.903400" lon="18.977083">
<ele>1018.023926</ele>
<time>2012-05-02T23:20:23Z</time>
<desc>lat.=42.903400, lon.=18.977083, Alt.=1018.023926m. Speed=59.076000m/h.</desc>
<speed>16.410000</speed>
</trkpt>
<trkpt lat="42.903172" lon="18.978064">
<ele>1020.242676</ele>
<time>2012-05-02T23:20:28Z</time>
<desc>lat.=42.903172, lon.=18.978064, Alt.=1020.242676m. Speed=60.228001m/h.</desc>
<speed>16.730000</speed>
</trkpt>
<trkpt lat="42.902924" lon="18.979008">
<ele>1023.508301</ele>
<time>2012-05-02T23:20:33Z</time>
<desc>lat.=42.902924, lon.=18.979008, Alt.=1023.508301m. Speed=57.672001m/h.</desc>
<speed>16.020000</speed>
</trkpt>
<trkpt lat="42.902847" lon="18.979971">
<ele>1027.860352</ele>
<time>2012-05-02T23:20:38Z</time>
<desc>lat.=42.902847, lon.=18.979971, Alt.=1027.860352m. Speed=56.160000m/h.</desc>
<speed>15.600000</speed>
</trkpt>
<trkpt lat="42.902996" lon="18.980888">
<ele>1029.829102</ele>
<time>2012-05-02T23:20:43Z</time>
<desc>lat.=42.902996, lon.=18.980888, Alt.=1029.829102m. Speed=58.571999m/h.</desc>
<speed>16.270000</speed>
</trkpt>
<trkpt lat="42.903145" lon="18.981878">
<ele>1033.954102</ele>
<time>2012-05-02T23:20:48Z</time>
<desc>lat.=42.903145, lon.=18.981878, Alt.=1033.954102m. Speed=60.119999m/h.</desc>
<speed>16.700000</speed>
</trkpt>
<trkpt lat="42.903027" lon="18.982893">
<ele>1038.297852</ele>
<time>2012-05-02T23:20:53Z</time>
<desc>lat.=42.903027, lon.=18.982893, Alt.=1038.297852m. Speed=60.768002m/h.</desc>
<speed>16.880000</speed>
</trkpt>
<trkpt lat="42.902714" lon="18.983816">
<ele>1044.579102</ele>
<time>2012-05-02T23:20:58Z</time>
<desc>lat.=42.902714, lon.=18.983816, Alt.=1044.579102m. Speed=56.807999m/h.</desc>
<speed>15.780000</speed>
</trkpt>
<trkpt lat="42.902542" lon="18.984739">
<ele>1048.547852</ele>
<time>2012-05-02T23:21:03Z</time>
<desc>lat.=42.902542, lon.=18.984739, Alt.=1048.547852m. Speed=57.060001m/h.</desc>
<speed>15.850000</speed>
</trkpt>
<trkpt lat="42.902672" lon="18.985680">
<ele>1051.391602</ele>
<time>2012-05-02T23:21:08Z</time>
<desc>lat.=42.902672, lon.=18.985680, Alt.=1051.391602m. Speed=58.751999m/h.</desc>
<speed>16.320000</speed>
</trkpt>
<trkpt lat="42.902584" lon="18.986643">
<ele>1056.797852</ele>
<time>2012-05-02T23:21:13Z</time>
<desc>lat.=42.902584, lon.=18.986643, Alt.=1056.797852m. Speed=56.015999m/h.</desc>
<speed>15.560000</speed>
</trkpt>
<trkpt lat="42.902115" lon="18.987278">
<ele>1064.516602</ele>
<time>2012-05-02T23:21:18Z</time>
<desc>lat.=42.902115, lon.=18.987278, Alt.=1064.516602m. Speed=54.000000m/h.</desc>
<speed>15.000000</speed>
</trkpt>
<trkpt lat="42.901573" lon="18.987822">
<ele>1069.422852</ele>
<time>2012-05-02T23:21:23Z</time>
<desc>lat.=42.901573, lon.=18.987822, Alt.=1069.422852m. Speed=53.964001m/h.</desc>
<speed>14.990000</speed>
</trkpt>
<trkpt lat="42.901150" lon="18.988556">
<ele>1073.985352</ele>
<time>2012-05-02T23:21:28Z</time>
<desc>lat.=42.901150, lon.=18.988556, Alt.=1073.985352m. Speed=51.948002m/h.</desc>
<speed>14.430001</speed>
</trkpt>
<trkpt lat="42.901161" lon="18.989454">
<ele>1075.360352</ele>
<time>2012-05-02T23:21:33Z</time>
<desc>lat.=42.901161, lon.=18.989454, Alt.=1075.360352m. Speed=57.599998m/h.</desc>
<speed>16.000000</speed>
</trkpt>
<trkpt lat="42.901493" lon="18.990351">
<ele>1086.266602</ele>
<time>2012-05-02T23:21:38Z</time>
<desc>lat.=42.901493, lon.=18.990351, Alt.=1086.266602m. Speed=57.060001m/h.</desc>
<speed>15.850000</speed>
</trkpt>
<trkpt lat="42.901615" lon="18.991293">
<ele>1091.954102</ele>
<time>2012-05-02T23:21:43Z</time>
<desc>lat.=42.901615, lon.=18.991293, Alt.=1091.954102m. Speed=57.528000m/h.</desc>
<speed>15.980000</speed>
</trkpt>
<trkpt lat="42.901306" lon="18.992155">
<ele>1097.454102</ele>
<time>2012-05-02T23:21:48Z</time>
<desc>lat.=42.901306, lon.=18.992155, Alt.=1097.454102m. Speed=58.751999m/h.</desc>
<speed>16.320000</speed>
</trkpt>
<trkpt lat="42.900925" lon="18.993036">
<ele>1103.297852</ele>
<time>2012-05-02T23:21:53Z</time>
<desc>lat.=42.900925, lon.=18.993036, Alt.=1103.297852m. Speed=61.416000m/h.</desc>
<speed>17.060000</speed>
</trkpt>
<trkpt lat="42.900814" lon="18.994074">
<ele>1107.297852</ele>
<time>2012-05-02T23:21:58Z</time>
<desc>lat.=42.900814, lon.=18.994074, Alt.=1107.297852m. Speed=60.408001m/h.</desc>
<speed>16.780000</speed>
</trkpt>
<trkpt lat="42.900574" lon="18.995045">
<ele>1112.547852</ele>
<time>2012-05-02T23:22:03Z</time>
<desc>lat.=42.900574, lon.=18.995045, Alt.=1112.547852m. Speed=58.355999m/h.</desc>
<speed>16.210000</speed>
</trkpt>
<trkpt lat="42.900143" lon="18.995880">
<ele>1117.360352</ele>
<time>2012-05-02T23:22:08Z</time>
<desc>lat.=42.900143, lon.=18.995880, Alt.=1117.360352m. Speed=60.119999m/h.</desc>
<speed>16.700000</speed>
</trkpt>
<trkpt lat="42.899857" lon="18.996843">
<ele>1121.391602</ele>
<time>2012-05-02T23:22:13Z</time>
<desc>lat.=42.899857, lon.=18.996843, Alt.=1121.391602m. Speed=63.900002m/h.</desc>
<speed>17.750000</speed>
</trkpt>
<trkpt lat="42.899677" lon="18.997889">
<ele>1125.079102</ele>
<time>2012-05-02T23:22:18Z</time>
<desc>lat.=42.899677, lon.=18.997889, Alt.=1125.079102m. Speed=62.243999m/h.</desc>
<speed>17.290000</speed>
</trkpt>
<trkpt lat="42.899387" lon="18.998840">
<ele>1133.547852</ele>
<time>2012-05-02T23:22:23Z</time>
<desc>lat.=42.899387, lon.=18.998840, Alt.=1133.547852m. Speed=61.307999m/h.</desc>
<speed>17.030000</speed>
</trkpt>
<trkpt lat="42.899105" lon="18.999828">
<ele>1138.672852</ele>
<time>2012-05-02T23:22:28Z</time>
<desc>lat.=42.899105, lon.=18.999828, Alt.=1138.672852m. Speed=62.459999m/h.</desc>
<speed>17.350000</speed>
</trkpt>
<trkpt lat="42.899101" lon="19.000847">
<ele>1140.516602</ele>
<time>2012-05-02T23:22:33Z</time>
<desc>lat.=42.899101, lon.=19.000847, Alt.=1140.516602m. Speed=61.091999m/h.</desc>
<speed>16.970000</speed>
</trkpt>
<trkpt lat="42.899387" lon="19.001842">
<ele>1146.360352</ele>
<time>2012-05-02T23:22:38Z</time>
<desc>lat.=42.899387, lon.=19.001842, Alt.=1146.360352m. Speed=62.855999m/h.</desc>
<speed>17.460000</speed>
</trkpt>
<trkpt lat="42.899818" lon="19.002735">
<ele>1155.579102</ele>
<time>2012-05-02T23:22:43Z</time>
<desc>lat.=42.899818, lon.=19.002735, Alt.=1155.579102m. Speed=63.360001m/h.</desc>
<speed>17.600000</speed>
</trkpt>
<trkpt lat="42.900135" lon="19.003712">
<ele>1161.766602</ele>
<time>2012-05-02T23:22:48Z</time>
<desc>lat.=42.900135, lon.=19.003712, Alt.=1161.766602m. Speed=64.800003m/h.</desc>
<speed>18.000001</speed>
</trkpt>
<trkpt lat="42.900398" lon="19.004738">
<ele>1168.516602</ele>
<time>2012-05-02T23:22:53Z</time>
<desc>lat.=42.900398, lon.=19.004738, Alt.=1168.516602m. Speed=64.332001m/h.</desc>
<speed>17.870000</speed>
</trkpt>
<trkpt lat="42.900848" lon="19.005638">
<ele>1176.610352</ele>
<time>2012-05-02T23:22:58Z</time>
<desc>lat.=42.900848, lon.=19.005638, Alt.=1176.610352m. Speed=64.260002m/h.</desc>
<speed>17.850001</speed>
</trkpt>
<trkpt lat="42.901440" lon="19.006378">
<ele>1182.610352</ele>
<time>2012-05-02T23:23:03Z</time>
<desc>lat.=42.901440, lon.=19.006378, Alt.=1182.610352m. Speed=63.576000m/h.</desc>
<speed>17.660000</speed>
</trkpt>
<trkpt lat="42.901825" lon="19.007278">
<ele>1188.766602</ele>
<time>2012-05-02T23:23:08Z</time>
<desc>lat.=42.901825, lon.=19.007278, Alt.=1188.766602m. Speed=60.588001m/h.</desc>
<speed>16.830000</speed>
</trkpt>
<trkpt lat="42.901814" lon="19.008327">
<ele>1193.860352</ele>
<time>2012-05-02T23:23:13Z</time>
<desc>lat.=42.901814, lon.=19.008327, Alt.=1193.860352m. Speed=64.223999m/h.</desc>
<speed>17.840000</speed>
</trkpt>
<trkpt lat="42.901756" lon="19.009405">
<ele>1197.141602</ele>
<time>2012-05-02T23:23:18Z</time>
<desc>lat.=42.901756, lon.=19.009405, Alt.=1197.141602m. Speed=60.875999m/h.</desc>
<speed>16.910000</speed>
</trkpt>
<trkpt lat="42.901974" lon="19.010410">
<ele>1199.485352</ele>
<time>2012-05-02T23:23:23Z</time>
<desc>lat.=42.901974, lon.=19.010410, Alt.=1199.485352m. Speed=63.035999m/h.</desc>
<speed>17.510000</speed>
</trkpt>
<trkpt lat="42.902481" lon="19.011223">
<ele>1203.204102</ele>
<time>2012-05-02T23:23:28Z</time>
<desc>lat.=42.902481, lon.=19.011223, Alt.=1203.204102m. Speed=65.952003m/h.</desc>
<speed>18.320001</speed>
</trkpt>
<trkpt lat="42.903107" lon="19.011980">
<ele>1206.797852</ele>
<time>2012-05-02T23:23:33Z</time>
<desc>lat.=42.903107, lon.=19.011980, Alt.=1206.797852m. Speed=64.907997m/h.</desc>
<speed>18.029999</speed>
</trkpt>
<trkpt lat="42.903706" lon="19.012682">
<ele>1209.922852</ele>
<time>2012-05-02T23:23:38Z</time>
<desc>lat.=42.903706, lon.=19.012682, Alt.=1209.922852m. Speed=62.459999m/h.</desc>
<speed>17.350000</speed>
</trkpt>
<trkpt lat="42.904263" lon="19.013437">
<ele>1214.235352</ele>
<time>2012-05-02T23:23:43Z</time>
<desc>lat.=42.904263, lon.=19.013437, Alt.=1214.235352m. Speed=61.812000m/h.</desc>
<speed>17.170000</speed>
</trkpt>
<trkpt lat="42.904587" lon="19.014339">
<ele>1216.329102</ele>
<time>2012-05-02T23:23:48Z</time>
<desc>lat.=42.904587, lon.=19.014339, Alt.=1216.329102m. Speed=59.363998m/h.</desc>
<speed>16.490000</speed>
</trkpt>
<trkpt lat="42.904629" lon="19.015373">
<ele>1219.547852</ele>
<time>2012-05-02T23:23:53Z</time>
<desc>lat.=42.904629, lon.=19.015373, Alt.=1219.547852m. Speed=60.480000m/h.</desc>
<speed>16.800000</speed>
</trkpt>
<trkpt lat="42.904392" lon="19.016329">
<ele>1223.485352</ele>
<time>2012-05-02T23:23:58Z</time>
<desc>lat.=42.904392, lon.=19.016329, Alt.=1223.485352m. Speed=59.652000m/h.</desc>
<speed>16.570000</speed>
</trkpt>
<trkpt lat="42.903915" lon="19.017130">
<ele>1229.297852</ele>
<time>2012-05-02T23:24:03Z</time>
<desc>lat.=42.903915, lon.=19.017130, Alt.=1229.297852m. Speed=59.040001m/h.</desc>
<speed>16.400000</speed>
</trkpt>
<trkpt lat="42.903397" lon="19.017849">
<ele>1235.422852</ele>
<time>2012-05-02T23:24:08Z</time>
<desc>lat.=42.903397, lon.=19.017849, Alt.=1235.422852m. Speed=59.292000m/h.</desc>
<speed>16.470000</speed>
</trkpt>
<trkpt lat="42.902992" lon="19.018715">
<ele>1241.204102</ele>
<time>2012-05-02T23:24:13Z</time>
<desc>lat.=42.902992, lon.=19.018715, Alt.=1241.204102m. Speed=60.731998m/h.</desc>
<speed>16.870000</speed>
</trkpt>
<trkpt lat="42.902626" lon="19.019644">
<ele>1246.766602</ele>
<time>2012-05-02T23:24:18Z</time>
<desc>lat.=42.902626, lon.=19.019644, Alt.=1246.766602m. Speed=61.523998m/h.</desc>
<speed>17.090000</speed>
</trkpt>
<trkpt lat="42.902134" lon="19.020426">
<ele>1252.422852</ele>
<time>2012-05-02T23:24:23Z</time>
<desc>lat.=42.902134, lon.=19.020426, Alt.=1252.422852m. Speed=60.551998m/h.</desc>
<speed>16.819999</speed>
</trkpt>
<trkpt lat="42.901505" lon="19.021048">
<ele>1260.016602</ele>
<time>2012-05-02T23:24:28Z</time>
<desc>lat.=42.901505, lon.=19.021048, Alt.=1260.016602m. Speed=62.604000m/h.</desc>
<speed>17.390000</speed>
</trkpt>
<trkpt lat="42.900852" lon="19.021637">
<ele>1268.079102</ele>
<time>2012-05-02T23:24:33Z</time>
<desc>lat.=42.900852, lon.=19.021637, Alt.=1268.079102m. Speed=62.424000m/h.</desc>
<speed>17.340000</speed>
</trkpt>
<trkpt lat="42.900284" lon="19.022345">
<ele>1274.422852</ele>
<time>2012-05-02T23:24:38Z</time>
<desc>lat.=42.900284, lon.=19.022345, Alt.=1274.422852m. Speed=60.515999m/h.</desc>
<speed>16.810000</speed>
</trkpt>
<trkpt lat="42.899860" lon="19.023233">
<ele>1281.672852</ele>
<time>2012-05-02T23:24:43Z</time>
<desc>lat.=42.899860, lon.=19.023233, Alt.=1281.672852m. Speed=61.919998m/h.</desc>
<speed>17.199999</speed>
</trkpt>
<trkpt lat="42.899612" lon="19.024246">
<ele>1288.985352</ele>
<time>2012-05-02T23:24:48Z</time>
<desc>lat.=42.899612, lon.=19.024246, Alt.=1288.985352m. Speed=61.740002m/h.</desc>
<speed>17.150000</speed>
</trkpt>
<trkpt lat="42.899536" lon="19.025259">
<ele>1294.047852</ele>
<time>2012-05-02T23:24:53Z</time>
<desc>lat.=42.899536, lon.=19.025259, Alt.=1294.047852m. Speed=61.848000m/h.</desc>
<speed>17.180000</speed>
</trkpt>
<trkpt lat="42.899666" lon="19.026333">
<ele>1294.860352</ele>
<time>2012-05-02T23:24:58Z</time>
<desc>lat.=42.899666, lon.=19.026333, Alt.=1294.860352m. Speed=67.463997m/h.</desc>
<speed>18.739999</speed>
</trkpt>
<trkpt lat="42.899906" lon="19.027491">
<ele>1295.891602</ele>
<time>2012-05-02T23:25:03Z</time>
<desc>lat.=42.899906, lon.=19.027491, Alt.=1295.891602m. Speed=73.727997m/h.</desc>
<speed>20.479999</speed>
</trkpt>
<trkpt lat="42.900154" lon="19.028681">
<ele>1298.704102</ele>
<time>2012-05-02T23:25:08Z</time>
<desc>lat.=42.900154, lon.=19.028681, Alt.=1298.704102m. Speed=70.164001m/h.</desc>
<speed>19.490000</speed>
</trkpt>
<trkpt lat="42.900387" lon="19.029814">
<ele>1301.704102</ele>
<time>2012-05-02T23:25:13Z</time>
<desc>lat.=42.900387, lon.=19.029814, Alt.=1301.704102m. Speed=66.419998m/h.</desc>
<speed>18.449999</speed>
</trkpt>
<trkpt lat="42.900528" lon="19.030910">
<ele>1304.391602</ele>
<time>2012-05-02T23:25:18Z</time>
<desc>lat.=42.900528, lon.=19.030910, Alt.=1304.391602m. Speed=64.260002m/h.</desc>
<speed>17.850001</speed>
</trkpt>
<trkpt lat="42.900368" lon="19.031944">
<ele>1306.485352</ele>
<time>2012-05-02T23:25:23Z</time>
<desc>lat.=42.900368, lon.=19.031944, Alt.=1306.485352m. Speed=63.540001m/h.</desc>
<speed>17.650000</speed>
</trkpt>
<trkpt lat="42.899940" lon="19.032917">
<ele>1308.391602</ele>
<time>2012-05-02T23:25:28Z</time>
<desc>lat.=42.899940, lon.=19.032917, Alt.=1308.391602m. Speed=65.267998m/h.</desc>
<speed>18.129999</speed>
</trkpt>
<trkpt lat="42.899719" lon="19.033993">
<ele>1310.141602</ele>
<time>2012-05-02T23:25:33Z</time>
<desc>lat.=42.899719, lon.=19.033993, Alt.=1310.141602m. Speed=66.924004m/h.</desc>
<speed>18.590001</speed>
</trkpt>
<trkpt lat="42.899467" lon="19.035038">
<ele>1313.579102</ele>
<time>2012-05-02T23:25:38Z</time>
<desc>lat.=42.899467, lon.=19.035038, Alt.=1313.579102m. Speed=58.175999m/h.</desc>
<speed>16.160000</speed>
</trkpt>
<trkpt lat="42.898979" lon="19.035742">
<ele>1317.360352</ele>
<time>2012-05-02T23:25:43Z</time>
<desc>lat.=42.898979, lon.=19.035742, Alt.=1317.360352m. Speed=60.768002m/h.</desc>
<speed>16.880000</speed>
</trkpt>
<trkpt lat="42.898277" lon="19.036201">
<ele>1323.985352</ele>
<time>2012-05-02T23:25:48Z</time>
<desc>lat.=42.898277, lon.=19.036201, Alt.=1323.985352m. Speed=64.655998m/h.</desc>
<speed>17.960000</speed>
</trkpt>
<trkpt lat="42.897499" lon="19.036661">
<ele>1328.641602</ele>
<time>2012-05-02T23:25:53Z</time>
<desc>lat.=42.897499, lon.=19.036661, Alt.=1328.641602m. Speed=68.975998m/h.</desc>
<speed>19.159999</speed>
</trkpt>
<trkpt lat="42.896820" lon="19.037354">
<ele>1332.797852</ele>
<time>2012-05-02T23:25:58Z</time>
<desc>lat.=42.896820, lon.=19.037354, Alt.=1332.797852m. Speed=68.580002m/h.</desc>
<speed>19.050001</speed>
</trkpt>
<trkpt lat="42.896381" lon="19.038332">
<ele>1337.047852</ele>
<time>2012-05-02T23:26:03Z</time>
<desc>lat.=42.896381, lon.=19.038332, Alt.=1337.047852m. Speed=67.571999m/h.</desc>
<speed>18.770000</speed>
</trkpt>
<trkpt lat="42.896236" lon="19.039469">
<ele>1342.579102</ele>
<time>2012-05-02T23:26:08Z</time>
<desc>lat.=42.896236, lon.=19.039469, Alt.=1342.579102m. Speed=68.832001m/h.</desc>
<speed>19.120000</speed>
</trkpt>
<trkpt lat="42.896385" lon="19.040508">
<ele>1346.829102</ele>
<time>2012-05-02T23:26:13Z</time>
<desc>lat.=42.896385, lon.=19.040508, Alt.=1346.829102m. Speed=62.099998m/h.</desc>
<speed>17.250000</speed>
</trkpt>
<trkpt lat="42.896793" lon="19.041422">
<ele>1352.922852</ele>
<time>2012-05-02T23:26:18Z</time>
<desc>lat.=42.896793, lon.=19.041422, Alt.=1352.922852m. Speed=64.907997m/h.</desc>
<speed>18.029999</speed>
</trkpt>
<trkpt lat="42.897442" lon="19.042130">
<ele>1361.172852</ele>
<time>2012-05-02T23:26:23Z</time>
<desc>lat.=42.897442, lon.=19.042130, Alt.=1361.172852m. Speed=70.307999m/h.</desc>
<speed>19.530000</speed>
</trkpt>
<trkpt lat="42.898167" lon="19.042768">
<ele>1367.954102</ele>
<time>2012-05-02T23:26:28Z</time>
<desc>lat.=42.898167, lon.=19.042768, Alt.=1367.954102m. Speed=65.160004m/h.</desc>
<speed>18.100001</speed>
</trkpt>
<trkpt lat="42.898762" lon="19.043444">
<ele>1373.704102</ele>
<time>2012-05-02T23:26:33Z</time>
<desc>lat.=42.898762, lon.=19.043444, Alt.=1373.704102m. Speed=63.900002m/h.</desc>
<speed>17.750000</speed>
</trkpt>
<trkpt lat="42.899246" lon="19.044306">
<ele>1376.454102</ele>
<time>2012-05-02T23:26:38Z</time>
<desc>lat.=42.899246, lon.=19.044306, Alt.=1376.454102m. Speed=64.475998m/h.</desc>
<speed>17.909999</speed>
</trkpt>
<trkpt lat="42.899586" lon="19.045359">
<ele>1375.422852</ele>
<time>2012-05-02T23:26:43Z</time>
<desc>lat.=42.899586, lon.=19.045359, Alt.=1375.422852m. Speed=68.148003m/h.</desc>
<speed>18.930001</speed>
</trkpt>
<trkpt lat="42.899887" lon="19.046431">
<ele>1376.172852</ele>
<time>2012-05-02T23:26:48Z</time>
<desc>lat.=42.899887, lon.=19.046431, Alt.=1376.172852m. Speed=70.127998m/h.</desc>
<speed>19.480000</speed>
</trkpt>
<trkpt lat="42.900364" lon="19.047455">
<ele>1378.735352</ele>
<time>2012-05-02T23:26:53Z</time>
<desc>lat.=42.900364, lon.=19.047455, Alt.=1378.735352m. Speed=70.848000m/h.</desc>
<speed>19.680000</speed>
</trkpt>
<trkpt lat="42.900829" lon="19.048414">
<ele>1380.297852</ele>
<time>2012-05-02T23:26:58Z</time>
<desc>lat.=42.900829, lon.=19.048414, Alt.=1380.297852m. Speed=68.075996m/h.</desc>
<speed>18.909999</speed>
</trkpt>
<trkpt lat="42.901070" lon="19.049528">
<ele>1381.266602</ele>
<time>2012-05-02T23:27:03Z</time>
<desc>lat.=42.901070, lon.=19.049528, Alt.=1381.266602m. Speed=69.120003m/h.</desc>
<speed>19.200001</speed>
</trkpt>
<trkpt lat="42.901119" lon="19.050713">
<ele>1381.610352</ele>
<time>2012-05-02T23:27:08Z</time>
<desc>lat.=42.901119, lon.=19.050713, Alt.=1381.610352m. Speed=67.176003m/h.</desc>
<speed>18.660001</speed>
</trkpt>
<trkpt lat="42.901199" lon="19.051815">
<ele>1382.047852</ele>
<time>2012-05-02T23:27:13Z</time>
<desc>lat.=42.901199, lon.=19.051815, Alt.=1382.047852m. Speed=66.384003m/h.</desc>
<speed>18.440001</speed>
</trkpt>
<trkpt lat="42.901493" lon="19.052917">
<ele>1384.954102</ele>
<time>2012-05-02T23:27:18Z</time>
<desc>lat.=42.901493, lon.=19.052917, Alt.=1384.954102m. Speed=71.028000m/h.</desc>
<speed>19.730000</speed>
</trkpt>
<trkpt lat="42.901806" lon="19.054008">
<ele>1388.079102</ele>
<time>2012-05-02T23:27:23Z</time>
<desc>lat.=42.901806, lon.=19.054008, Alt.=1388.079102m. Speed=64.547997m/h.</desc>
<speed>17.929999</speed>
</trkpt>
<trkpt lat="42.901913" lon="19.055117">
<ele>1391.266602</ele>
<time>2012-05-02T23:27:28Z</time>
<desc>lat.=42.901913, lon.=19.055117, Alt.=1391.266602m. Speed=64.152000m/h.</desc>
<speed>17.820000</speed>
</trkpt>
<trkpt lat="42.901894" lon="19.056261">
<ele>1394.110352</ele>
<time>2012-05-02T23:27:33Z</time>
<desc>lat.=42.901894, lon.=19.056261, Alt.=1394.110352m. Speed=67.716003m/h.</desc>
<speed>18.810001</speed>
</trkpt>
<trkpt lat="42.901852" lon="19.057417">
<ele>1397.704102</ele>
<time>2012-05-02T23:27:38Z</time>
<desc>lat.=42.901852, lon.=19.057417, Alt.=1397.704102m. Speed=65.267998m/h.</desc>
<speed>18.129999</speed>
</trkpt>
<trkpt lat="42.901806" lon="19.058554">
<ele>1401.266602</ele>
<time>2012-05-02T23:27:43Z</time>
<desc>lat.=42.901806, lon.=19.058554, Alt.=1401.266602m. Speed=67.608002m/h.</desc>
<speed>18.780000</speed>
</trkpt>
<trkpt lat="42.901760" lon="19.059702">
<ele>1405.016602</ele>
<time>2012-05-02T23:27:48Z</time>
<desc>lat.=42.901760, lon.=19.059702, Alt.=1405.016602m. Speed=67.608002m/h.</desc>
<speed>18.780000</speed>
</trkpt>
<trkpt lat="42.901691" lon="19.060877">
<ele>1410.079102</ele>
<time>2012-05-02T23:27:53Z</time>
<desc>lat.=42.901691, lon.=19.060877, Alt.=1410.079102m. Speed=67.680000m/h.</desc>
<speed>18.800000</speed>
</trkpt>
<trkpt lat="42.901493" lon="19.061947">
<ele>1413.016602</ele>
<time>2012-05-02T23:27:58Z</time>
<desc>lat.=42.901493, lon.=19.061947, Alt.=1413.016602m. Speed=61.560001m/h.</desc>
<speed>17.100000</speed>
</trkpt>
<trkpt lat="42.901039" lon="19.062716">
<ele>1415.391602</ele>
<time>2012-05-02T23:28:03Z</time>
<desc>lat.=42.901039, lon.=19.062716, Alt.=1415.391602m. Speed=55.619999m/h.</desc>
<speed>15.450000</speed>
</trkpt>
<trkpt lat="42.900452" lon="19.063286">
<ele>1417.579102</ele>
<time>2012-05-02T23:28:08Z</time>
<desc>lat.=42.900452, lon.=19.063286, Alt.=1417.579102m. Speed=59.580002m/h.</desc>
<speed>16.550001</speed>
</trkpt>
<trkpt lat="42.899776" lon="19.063797">
<ele>1419.579102</ele>
<time>2012-05-02T23:28:13Z</time>
<desc>lat.=42.899776, lon.=19.063797, Alt.=1419.579102m. Speed=62.243999m/h.</desc>
<speed>17.290000</speed>
</trkpt>
<trkpt lat="42.899036" lon="19.064001">
<ele>1420.266602</ele>
<time>2012-05-02T23:28:18Z</time>
<desc>lat.=42.899036, lon.=19.064001, Alt.=1420.266602m. Speed=63.647999m/h.</desc>
<speed>17.680000</speed>
</trkpt>
<trkpt lat="42.898232" lon="19.063805">
<ele>1418.704102</ele>
<time>2012-05-02T23:28:23Z</time>
<desc>lat.=42.898232, lon.=19.063805, Alt.=1418.704102m. Speed=65.736000m/h.</desc>
<speed>18.260000</speed>
</trkpt>
<trkpt lat="42.897457" lon="19.063951">
<ele>1420.985352</ele>
<time>2012-05-02T23:28:28Z</time>
<desc>lat.=42.897457, lon.=19.063951, Alt.=1420.985352m. Speed=63.827999m/h.</desc>
<speed>17.730000</speed>
</trkpt>
<trkpt lat="42.896809" lon="19.064590">
<ele>1424.485352</ele>
<time>2012-05-02T23:28:33Z</time>
<desc>lat.=42.896809, lon.=19.064590, Alt.=1424.485352m. Speed=64.223999m/h.</desc>
<speed>17.840000</speed>
</trkpt>
<trkpt lat="42.896206" lon="19.065325">
<ele>1426.235352</ele>
<time>2012-05-02T23:28:38Z</time>
<desc>lat.=42.896206, lon.=19.065325, Alt.=1426.235352m. Speed=63.827999m/h.</desc>
<speed>17.730000</speed>
</trkpt>
<trkpt lat="42.895580" lon="19.065966">
<ele>1430.047852</ele>
<time>2012-05-02T23:28:43Z</time>
<desc>lat.=42.895580, lon.=19.065966, Alt.=1430.047852m. Speed=63.756001m/h.</desc>
<speed>17.710000</speed>
</trkpt>
<trkpt lat="42.895084" lon="19.066843">
<ele>1432.704102</ele>
<time>2012-05-02T23:28:48Z</time>
<desc>lat.=42.895084, lon.=19.066843, Alt.=1432.704102m. Speed=65.195999m/h.</desc>
<speed>18.110000</speed>
</trkpt>
<trkpt lat="42.894878" lon="19.067905">
<ele>1434.547852</ele>
<time>2012-05-02T23:28:53Z</time>
<desc>lat.=42.894878, lon.=19.067905, Alt.=1434.547852m. Speed=62.568001m/h.</desc>
<speed>17.380000</speed>
</trkpt>
<trkpt lat="42.894947" lon="19.069000">
<ele>1429.704102</ele>
<time>2012-05-02T23:28:58Z</time>
<desc>lat.=42.894947, lon.=19.069000, Alt.=1429.704102m. Speed=68.832001m/h.</desc>
<speed>19.120000</speed>
</trkpt>
<trkpt lat="42.895035" lon="19.070148">
<ele>1427.422852</ele>
<time>2012-05-02T23:29:03Z</time>
<desc>lat.=42.895035, lon.=19.070148, Alt.=1427.422852m. Speed=69.984001m/h.</desc>
<speed>19.440000</speed>
</trkpt>
<trkpt lat="42.895031" lon="19.071295">
<ele>1429.641602</ele>
<time>2012-05-02T23:29:08Z</time>
<desc>lat.=42.895031, lon.=19.071295, Alt.=1429.641602m. Speed=68.940002m/h.</desc>
<speed>19.150001</speed>
</trkpt>
<trkpt lat="42.894829" lon="19.072420">
<ele>1436.047852</ele>
<time>2012-05-02T23:29:13Z</time>
<desc>lat.=42.894829, lon.=19.072420, Alt.=1436.047852m. Speed=67.031998m/h.</desc>
<speed>18.619999</speed>
</trkpt>
<trkpt lat="42.894444" lon="19.073412">
<ele>1442.266602</ele>
<time>2012-05-02T23:29:18Z</time>
<desc>lat.=42.894444, lon.=19.073412, Alt.=1442.266602m. Speed=65.304001m/h.</desc>
<speed>18.140000</speed>
</trkpt>
<trkpt lat="42.894035" lon="19.074356">
<ele>1447.485352</ele>
<time>2012-05-02T23:29:23Z</time>
<desc>lat.=42.894035, lon.=19.074356, Alt.=1447.485352m. Speed=62.495998m/h.</desc>
<speed>17.360000</speed>
</trkpt>
<trkpt lat="42.893764" lon="19.075377">
<ele>1456.954102</ele>
<time>2012-05-02T23:29:28Z</time>
<desc>lat.=42.893764, lon.=19.075377, Alt.=1456.954102m. Speed=63.180000m/h.</desc>
<speed>17.550000</speed>
</trkpt>
<trkpt lat="42.893707" lon="19.076380">
<ele>1458.360352</ele>
<time>2012-05-02T23:29:33Z</time>
<desc>lat.=42.893707, lon.=19.076380, Alt.=1458.360352m. Speed=56.088001m/h.</desc>
<speed>15.580000</speed>
</trkpt>
<trkpt lat="42.893848" lon="19.077328">
<ele>1456.641602</ele>
<time>2012-05-02T23:29:38Z</time>
<desc>lat.=42.893848, lon.=19.077328, Alt.=1456.641602m. Speed=59.688000m/h.</desc>
<speed>16.580000</speed>
</trkpt>
<trkpt lat="42.894157" lon="19.078239">
<ele>1455.110352</ele>
<time>2012-05-02T23:29:43Z</time>
<desc>lat.=42.894157, lon.=19.078239, Alt.=1455.110352m. Speed=60.228001m/h.</desc>
<speed>16.730000</speed>
</trkpt>
<trkpt lat="42.894642" lon="19.079029">
<ele>1461.579102</ele>
<time>2012-05-02T23:29:48Z</time>
<desc>lat.=42.894642, lon.=19.079029, Alt.=1461.579102m. Speed=60.624001m/h.</desc>
<speed>16.840000</speed>
</trkpt>
<trkpt lat="42.895233" lon="19.079647">
<ele>1464.922852</ele>
<time>2012-05-02T23:29:53Z</time>
<desc>lat.=42.895233, lon.=19.079647, Alt.=1464.922852m. Speed=61.020000m/h.</desc>
<speed>16.950000</speed>
</trkpt>
<trkpt lat="42.895893" lon="19.080076">
<ele>1464.891602</ele>
<time>2012-05-02T23:29:58Z</time>
<desc>lat.=42.895893, lon.=19.080076, Alt.=1464.891602m. Speed=57.456001m/h.</desc>
<speed>15.960000</speed>
</trkpt>
<trkpt lat="42.897442" lon="19.080818">
<ele>1497.016602</ele>
<time>2012-05-02T23:30:09Z</time>
<desc>lat.=42.897442, lon.=19.080818, Alt.=1497.016602m. Speed=53.388000m/h.</desc>
<speed>14.830000</speed>
</trkpt>
<trkpt lat="42.898067" lon="19.081364">
<ele>1476.954102</ele>
<time>2012-05-02T23:30:14Z</time>
<desc>lat.=42.898067, lon.=19.081364, Alt.=1476.954102m. Speed=58.716000m/h.</desc>
<speed>16.310000</speed>
</trkpt>
<trkpt lat="42.898567" lon="19.081999">
<ele>1469.329102</ele>
<time>2012-05-02T23:30:19Z</time>
<desc>lat.=42.898567, lon.=19.081999, Alt.=1469.329102m. Speed=54.324001m/h.</desc>
<speed>15.090000</speed>
</trkpt>
<trkpt lat="42.898994" lon="19.082853">
<ele>1458.829102</ele>
<time>2012-05-02T23:30:24Z</time>
<desc>lat.=42.898994, lon.=19.082853, Alt.=1458.829102m. Speed=57.636002m/h.</desc>
<speed>16.010000</speed>
</trkpt>
<trkpt lat="42.899273" lon="19.083776">
<ele>1448.172852</ele>
<time>2012-05-02T23:30:29Z</time>
<desc>lat.=42.899273, lon.=19.083776, Alt.=1448.172852m. Speed=56.160000m/h.</desc>
<speed>15.600000</speed>
</trkpt>
<trkpt lat="42.899410" lon="19.084702">
<ele>1440.766602</ele>
<time>2012-05-02T23:30:34Z</time>
<desc>lat.=42.899410, lon.=19.084702, Alt.=1440.766602m. Speed=55.259998m/h.</desc>
<speed>15.350000</speed>
</trkpt>
<trkpt lat="42.899422" lon="19.085629">
<ele>1432.485352</ele>
<time>2012-05-02T23:30:39Z</time>
<desc>lat.=42.899422, lon.=19.085629, Alt.=1432.485352m. Speed=55.223999m/h.</desc>
<speed>15.340000</speed>
</trkpt>
<trkpt lat="42.899323" lon="19.086565">
<ele>1427.360352</ele>
<time>2012-05-02T23:30:44Z</time>
<desc>lat.=42.899323, lon.=19.086565, Alt.=1427.360352m. Speed=56.916000m/h.</desc>
<speed>15.810000</speed>
</trkpt>
<trkpt lat="42.899281" lon="19.087517">
<ele>1420.735352</ele>
<time>2012-05-02T23:30:49Z</time>
<desc>lat.=42.899281, lon.=19.087517, Alt.=1420.735352m. Speed=53.820000m/h.</desc>
<speed>14.950000</speed>
</trkpt>
<trkpt lat="42.899372" lon="19.088451">
<ele>1410.391602</ele>
<time>2012-05-02T23:30:54Z</time>
<desc>lat.=42.899372, lon.=19.088451, Alt.=1410.391602m. Speed=55.908001m/h.</desc>
<speed>15.530000</speed>
</trkpt>
<trkpt lat="42.899509" lon="19.089354">
<ele>1405.391602</ele>
<time>2012-05-02T23:30:59Z</time>
<desc>lat.=42.899509, lon.=19.089354, Alt.=1405.391602m. Speed=53.424000m/h.</desc>
<speed>14.840000</speed>
</trkpt>
<trkpt lat="42.899517" lon="19.090275">
<ele>1400.891602</ele>
<time>2012-05-02T23:31:04Z</time>
<desc>lat.=42.899517, lon.=19.090275, Alt.=1400.891602m. Speed=55.007999m/h.</desc>
<speed>15.280000</speed>
</trkpt>
<trkpt lat="42.899422" lon="19.091183">
<ele>1394.891602</ele>
<time>2012-05-02T23:31:09Z</time>
<desc>lat.=42.899422, lon.=19.091183, Alt.=1394.891602m. Speed=51.624001m/h.</desc>
<speed>14.340000</speed>
</trkpt>
<trkpt lat="42.899548" lon="19.091995">
<ele>1389.547852</ele>
<time>2012-05-02T23:31:14Z</time>
<desc>lat.=42.899548, lon.=19.091995, Alt.=1389.547852m. Speed=48.995998m/h.</desc>
<speed>13.610000</speed>
</trkpt>
<trkpt lat="42.899994" lon="19.092537">
<ele>1388.454102</ele>
<time>2012-05-02T23:31:19Z</time>
<desc>lat.=42.899994, lon.=19.092537, Alt.=1388.454102m. Speed=50.256001m/h.</desc>
<speed>13.960000</speed>
</trkpt>
<trkpt lat="42.900421" lon="19.093071">
<ele>1388.391602</ele>
<time>2012-05-02T23:31:24Z</time>
<desc>lat.=42.900421, lon.=19.093071, Alt.=1388.391602m. Speed=47.304001m/h.</desc>
<speed>13.140000</speed>
</trkpt>
<trkpt lat="42.900742" lon="19.093487">
<ele>1389.172852</ele>
<time>2012-05-02T23:31:29Z</time>
<desc>lat.=42.900742, lon.=19.093487, Alt.=1389.172852m. Speed=31.284000m/h.</desc>
<speed>8.690000</speed>
</trkpt>
<trkpt lat="42.901031" lon="19.093311">
<ele>1390.172852</ele>
<time>2012-05-02T23:31:34Z</time>
<desc>lat.=42.901031, lon.=19.093311, Alt.=1390.172852m. Speed=10.008000m/h.</desc>
<speed>2.780000</speed>
</trkpt>
<trkpt lat="42.900932" lon="19.093178">
<ele>1386.391602</ele>
<time>2012-05-02T23:31:39Z</time>
<desc>lat.=42.900932, lon.=19.093178, Alt.=1386.391602m. Speed=17.208000m/h.</desc>
<speed>4.780000</speed>
</trkpt>
<trkpt lat="42.900749" lon="19.092871">
<ele>1382.485352</ele>
<time>2012-05-02T23:31:44Z</time>
<desc>lat.=42.900749, lon.=19.092871, Alt.=1382.485352m. Speed=28.656000m/h.</desc>
<speed>7.960000</speed>
</trkpt>
<trkpt lat="42.900539" lon="19.092449">
<ele>1379.485352</ele>
<time>2012-05-02T23:31:49Z</time>
<desc>lat.=42.900539, lon.=19.092449, Alt.=1379.485352m. Speed=31.788000m/h.</desc>
<speed>8.830000</speed>
</trkpt>
<trkpt lat="42.900188" lon="19.092133">
<ele>1376.454102</ele>
<time>2012-05-02T23:31:54Z</time>
<desc>lat.=42.900188, lon.=19.092133, Alt.=1376.454102m. Speed=35.568001m/h.</desc>
<speed>9.880000</speed>
</trkpt>
<trkpt lat="42.899933" lon="19.091764">
<ele>1374.422852</ele>
<time>2012-05-02T23:31:59Z</time>
<desc>lat.=42.899933, lon.=19.091764, Alt.=1374.422852m. Speed=24.264000m/h.</desc>
<speed>6.740000</speed>
</trkpt>
<trkpt lat="42.899982" lon="19.091311">
<ele>1373.360352</ele>
<time>2012-05-02T23:32:04Z</time>
<desc>lat.=42.899982, lon.=19.091311, Alt.=1373.360352m. Speed=28.728001m/h.</desc>
<speed>7.980000</speed>
</trkpt>
<trkpt lat="42.900112" lon="19.090860">
<ele>1371.766602</ele>
<time>2012-05-02T23:32:09Z</time>
<desc>lat.=42.900112, lon.=19.090860, Alt.=1371.766602m. Speed=29.664000m/h.</desc>
<speed>8.240000</speed>
</trkpt>
<trkpt lat="42.900215" lon="19.090332">
<ele>1370.829102</ele>
<time>2012-05-02T23:32:14Z</time>
<desc>lat.=42.900215, lon.=19.090332, Alt.=1370.829102m. Speed=37.728001m/h.</desc>
<speed>10.480000</speed>
</trkpt>
<trkpt lat="42.900288" lon="19.089655">
<ele>1369.860352</ele>
<time>2012-05-02T23:32:19Z</time>
<desc>lat.=42.900288, lon.=19.089655, Alt.=1369.860352m. Speed=41.472000m/h.</desc>
<speed>11.520000</speed>
</trkpt>
<trkpt lat="42.900417" lon="19.089006">
<ele>1368.891602</ele>
<time>2012-05-02T23:32:24Z</time>
<desc>lat.=42.900417, lon.=19.089006, Alt.=1368.891602m. Speed=34.307999m/h.</desc>
<speed>9.530000</speed>
</trkpt>
<trkpt lat="42.900501" lon="19.088688">
<ele>1368.797852</ele>
<time>2012-05-02T23:32:29Z</time>
<desc>lat.=42.900501, lon.=19.088688, Alt.=1368.797852m. Speed=12.564000m/h.</desc>
<speed>3.490000</speed>
</trkpt>
<trkpt lat="42.900555" lon="19.088881">
<ele>1364.704102</ele>
<time>2012-05-02T23:32:34Z</time>
<desc>lat.=42.900555, lon.=19.088881, Alt.=1364.704102m. Speed=15.516000m/h.</desc>
<speed>4.310000</speed>
</trkpt>
<trkpt lat="42.900509" lon="19.089262">
<ele>1361.672852</ele>
<time>2012-05-02T23:32:39Z</time>
<desc>lat.=42.900509, lon.=19.089262, Alt.=1361.672852m. Speed=26.604000m/h.</desc>
<speed>7.390000</speed>
</trkpt>
<trkpt lat="42.900501" lon="19.089750">
<ele>1358.922852</ele>
<time>2012-05-02T23:32:44Z</time>
<desc>lat.=42.900501, lon.=19.089750, Alt.=1358.922852m. Speed=28.440001m/h.</desc>
<speed>7.900000</speed>
</trkpt>
<trkpt lat="42.900570" lon="19.090219">
<ele>1357.547852</ele>
<time>2012-05-02T23:32:49Z</time>
<desc>lat.=42.900570, lon.=19.090219, Alt.=1357.547852m. Speed=28.620001m/h.</desc>
<speed>7.950000</speed>
</trkpt>
<trkpt lat="42.900726" lon="19.090714">
<ele>1354.454102</ele>
<time>2012-05-02T23:32:54Z</time>
<desc>lat.=42.900726, lon.=19.090714, Alt.=1354.454102m. Speed=36.108002m/h.</desc>
<speed>10.030000</speed>
</trkpt>
<trkpt lat="42.900902" lon="19.091202">
<ele>1351.891602</ele>
<time>2012-05-02T23:32:59Z</time>
<desc>lat.=42.900902, lon.=19.091202, Alt.=1351.891602m. Speed=26.316000m/h.</desc>
<speed>7.310000</speed>
</trkpt>
<trkpt lat="42.901234" lon="19.091269">
<ele>1348.954102</ele>
<time>2012-05-02T23:33:04Z</time>
<desc>lat.=42.901234, lon.=19.091269, Alt.=1348.954102m. Speed=29.988001m/h.</desc>
<speed>8.330000</speed>
</trkpt>
<trkpt lat="42.901592" lon="19.091274">
<ele>1345.860352</ele>
<time>2012-05-02T23:33:09Z</time>
<desc>lat.=42.901592, lon.=19.091274, Alt.=1345.860352m. Speed=30.492001m/h.</desc>
<speed>8.470000</speed>
</trkpt>
<trkpt lat="42.901897" lon="19.091450">
<ele>1342.860352</ele>
<time>2012-05-02T23:33:14Z</time>
<desc>lat.=42.901897, lon.=19.091450, Alt.=1342.860352m. Speed=27.936001m/h.</desc>
<speed>7.760000</speed>
</trkpt>
<trkpt lat="42.902191" lon="19.091255">
<ele>1340.110352</ele>
<time>2012-05-02T23:33:19Z</time>
<desc>lat.=42.902191, lon.=19.091255, Alt.=1340.110352m. Speed=28.224001m/h.</desc>
<speed>7.840000</speed>
</trkpt>
<trkpt lat="42.902523" lon="19.091135">
<ele>1338.829102</ele>
<time>2012-05-02T23:33:24Z</time>
<desc>lat.=42.902523, lon.=19.091135, Alt.=1338.829102m. Speed=26.424000m/h.</desc>
<speed>7.340000</speed>
</trkpt>
<trkpt lat="42.902878" lon="19.091242">
<ele>1337.047852</ele>
<time>2012-05-02T23:33:29Z</time>
<desc>lat.=42.902878, lon.=19.091242, Alt.=1337.047852m. Speed=32.256001m/h.</desc>
<speed>8.960000</speed>
</trkpt>
<trkpt lat="42.903263" lon="19.091127">
<ele>1335.516602</ele>
<time>2012-05-02T23:33:34Z</time>
<desc>lat.=42.903263, lon.=19.091127, Alt.=1335.516602m. Speed=32.076000m/h.</desc>
<speed>8.910000</speed>
</trkpt>
<trkpt lat="42.903427" lon="19.090693">
<ele>1333.797852</ele>
<time>2012-05-02T23:33:39Z</time>
<desc>lat.=42.903427, lon.=19.090693, Alt.=1333.797852m. Speed=29.412001m/h.</desc>
<speed>8.170000</speed>
</trkpt>
<trkpt lat="42.903431" lon="19.090252">
<ele>1333.579102</ele>
<time>2012-05-02T23:33:44Z</time>
<desc>lat.=42.903431, lon.=19.090252, Alt.=1333.579102m. Speed=26.243999m/h.</desc>
<speed>7.290000</speed>
</trkpt>
<trkpt lat="42.903671" lon="19.089918">
<ele>1333.641602</ele>
<time>2012-05-02T23:33:49Z</time>
<desc>lat.=42.903671, lon.=19.089918, Alt.=1333.641602m. Speed=29.412001m/h.</desc>
<speed>8.170000</speed>
</trkpt>
<trkpt lat="42.904018" lon="19.089737">
<ele>1333.735352</ele>
<time>2012-05-02T23:33:54Z</time>
<desc>lat.=42.904018, lon.=19.089737, Alt.=1333.735352m. Speed=30.348000m/h.</desc>
<speed>8.430000</speed>
</trkpt>
<trkpt lat="42.904404" lon="19.089876">
<ele>1332.516602</ele>
<time>2012-05-02T23:33:59Z</time>
<desc>lat.=42.904404, lon.=19.089876, Alt.=1332.516602m. Speed=41.472000m/h.</desc>
<speed>11.520000</speed>
</trkpt>
<trkpt lat="42.904831" lon="19.090189">
<ele>1329.516602</ele>
<time>2012-05-02T23:34:04Z</time>
<desc>lat.=42.904831, lon.=19.090189, Alt.=1329.516602m. Speed=33.911999m/h.</desc>
<speed>9.420000</speed>
</trkpt>
<trkpt lat="42.905037" lon="19.090622">
<ele>1326.360352</ele>
<time>2012-05-02T23:34:09Z</time>
<desc>lat.=42.905037, lon.=19.090622, Alt.=1326.360352m. Speed=31.176001m/h.</desc>
<speed>8.660000</speed>
</trkpt>
<trkpt lat="42.905300" lon="19.091206">
<ele>1323.141602</ele>
<time>2012-05-02T23:34:14Z</time>
<desc>lat.=42.905300, lon.=19.091206, Alt.=1323.141602m. Speed=43.200001m/h.</desc>
<speed>12.000000</speed>
</trkpt>
<trkpt lat="42.905567" lon="19.091734">
<ele>1319.985352</ele>
<time>2012-05-02T23:34:19Z</time>
<desc>lat.=42.905567, lon.=19.091734, Alt.=1319.985352m. Speed=28.007999m/h.</desc>
<speed>7.780000</speed>
</trkpt>
<trkpt lat="42.905880" lon="19.091871">
<ele>1318.797852</ele>
<time>2012-05-02T23:34:24Z</time>
<desc>lat.=42.905880, lon.=19.091871, Alt.=1318.797852m. Speed=25.271999m/h.</desc>
<speed>7.020000</speed>
</trkpt>
<trkpt lat="42.906239" lon="19.091902">
<ele>1318.829102</ele>
<time>2012-05-02T23:34:29Z</time>
<desc>lat.=42.906239, lon.=19.091902, Alt.=1318.829102m. Speed=31.968000m/h.</desc>
<speed>8.880000</speed>
</trkpt>
<trkpt lat="42.906445" lon="19.092197">
<ele>1316.735352</ele>
<time>2012-05-02T23:34:34Z</time>
<desc>lat.=42.906445, lon.=19.092197, Alt.=1316.735352m. Speed=15.912000m/h.</desc>
<speed>4.420000</speed>
</trkpt>
<trkpt lat="42.906597" lon="19.092142">
<ele>1314.204102</ele>
<time>2012-05-02T23:34:39Z</time>
<desc>lat.=42.906597, lon.=19.092142, Alt.=1314.204102m. Speed=18.792000m/h.</desc>
<speed>5.220000</speed>
</trkpt>
<trkpt lat="42.906506" lon="19.091833">
<ele>1313.797852</ele>
<time>2012-05-02T23:34:44Z</time>
<desc>lat.=42.906506, lon.=19.091833, Alt.=1313.797852m. Speed=21.024000m/h.</desc>
<speed>5.840000</speed>
</trkpt>
<trkpt lat="42.906265" lon="19.091614">
<ele>1313.422852</ele>
<time>2012-05-02T23:34:49Z</time>
<desc>lat.=42.906265, lon.=19.091614, Alt.=1313.422852m. Speed=25.704000m/h.</desc>
<speed>7.140000</speed>
</trkpt>
<trkpt lat="42.905972" lon="19.091375">
<ele>1312.610352</ele>
<time>2012-05-02T23:34:54Z</time>
<desc>lat.=42.905972, lon.=19.091375, Alt.=1312.610352m. Speed=28.007999m/h.</desc>
<speed>7.780000</speed>
</trkpt>
<trkpt lat="42.905846" lon="19.090899">
<ele>1312.516602</ele>
<time>2012-05-02T23:34:59Z</time>
<desc>lat.=42.905846, lon.=19.090899, Alt.=1312.516602m. Speed=34.487999m/h.</desc>
<speed>9.580000</speed>
</trkpt>
<trkpt lat="42.905754" lon="19.090324">
<ele>1313.141602</ele>
<time>2012-05-02T23:35:04Z</time>
<desc>lat.=42.905754, lon.=19.090324, Alt.=1313.141602m. Speed=35.964001m/h.</desc>
<speed>9.990000</speed>
</trkpt>
<trkpt lat="42.905830" lon="19.089708">
<ele>1314.516602</ele>
<time>2012-05-02T23:35:09Z</time>
<desc>lat.=42.905830, lon.=19.089708, Alt.=1314.516602m. Speed=37.764000m/h.</desc>
<speed>10.490000</speed>
</trkpt>
<trkpt lat="42.906086" lon="19.089151">
<ele>1310.454102</ele>
<time>2012-05-02T23:35:14Z</time>
<desc>lat.=42.906086, lon.=19.089151, Alt.=1310.454102m. Speed=35.568001m/h.</desc>
<speed>9.880000</speed>
</trkpt>
<trkpt lat="42.906219" lon="19.088743">
<ele>1307.516602</ele>
<time>2012-05-02T23:35:19Z</time>
<desc>lat.=42.906219, lon.=19.088743, Alt.=1307.516602m. Speed=21.816000m/h.</desc>
<speed>6.060000</speed>
</trkpt>
<trkpt lat="42.906021" lon="19.088539">
<ele>1303.985352</ele>
<time>2012-05-02T23:35:24Z</time>
<desc>lat.=42.906021, lon.=19.088539, Alt.=1303.985352m. Speed=22.068001m/h.</desc>
<speed>6.130000</speed>
</trkpt>
<trkpt lat="42.905754" lon="19.088287">
<ele>1302.610352</ele>
<time>2012-05-02T23:35:29Z</time>
<desc>lat.=42.905754, lon.=19.088287, Alt.=1302.610352m. Speed=25.524000m/h.</desc>
<speed>7.090000</speed>
</trkpt>
<trkpt lat="42.905479" lon="19.088306">
<ele>1300.641602</ele>
<time>2012-05-02T23:35:34Z</time>
<desc>lat.=42.905479, lon.=19.088306, Alt.=1300.641602m. Speed=24.480000m/h.</desc>
<speed>6.800000</speed>
</trkpt>
<trkpt lat="42.905239" lon="19.088507">
<ele>1297.985352</ele>
<time>2012-05-02T23:35:39Z</time>
<desc>lat.=42.905239, lon.=19.088507, Alt.=1297.985352m. Speed=21.492001m/h.</desc>
<speed>5.970000</speed>
</trkpt>
<trkpt lat="42.905048" lon="19.088436">
<ele>1296.266602</ele>
<time>2012-05-02T23:35:44Z</time>
<desc>lat.=42.905048, lon.=19.088436, Alt.=1296.266602m. Speed=17.100000m/h.</desc>
<speed>4.750000</speed>
</trkpt>
<trkpt lat="42.905178" lon="19.088318">
<ele>1296.079102</ele>
<time>2012-05-02T23:35:49Z</time>
<desc>lat.=42.905178, lon.=19.088318, Alt.=1296.079102m. Speed=18.323999m/h.</desc>
<speed>5.090000</speed>
</trkpt>
<trkpt lat="42.905407" lon="19.088137">
<ele>1295.704102</ele>
<time>2012-05-02T23:35:54Z</time>
<desc>lat.=42.905407, lon.=19.088137, Alt.=1295.704102m. Speed=24.552000m/h.</desc>
<speed>6.820000</speed>
</trkpt>
<trkpt lat="42.905647" lon="19.087866">
<ele>1292.954102</ele>
<time>2012-05-02T23:35:59Z</time>
<desc>lat.=42.905647, lon.=19.087866, Alt.=1292.954102m. Speed=24.552000m/h.</desc>
<speed>6.820000</speed>
</trkpt>
<trkpt lat="42.905933" lon="19.087984">
<ele>1291.672852</ele>
<time>2012-05-02T23:36:04Z</time>
<desc>lat.=42.905933, lon.=19.087984, Alt.=1291.672852m. Speed=26.208000m/h.</desc>
<speed>7.280000</speed>
</trkpt>
<trkpt lat="42.906235" lon="19.088125">
<ele>1290.266602</ele>
<time>2012-05-02T23:36:09Z</time>
<desc>lat.=42.906235, lon.=19.088125, Alt.=1290.266602m. Speed=24.191999m/h.</desc>
<speed>6.720000</speed>
</trkpt>
<trkpt lat="42.906586" lon="19.088018">
<ele>1290.047852</ele>
<time>2012-05-02T23:36:14Z</time>
<desc>lat.=42.906586, lon.=19.088018, Alt.=1290.047852m. Speed=30.455999m/h.</desc>
<speed>8.460000</speed>
</trkpt>
<trkpt lat="42.906975" lon="19.088104">
<ele>1289.422852</ele>
<time>2012-05-02T23:36:19Z</time>
<desc>lat.=42.906975, lon.=19.088104, Alt.=1289.422852m. Speed=31.968000m/h.</desc>
<speed>8.880000</speed>
</trkpt>
<trkpt lat="42.907112" lon="19.088509">
<ele>1289.672852</ele>
<time>2012-05-02T23:36:24Z</time>
<desc>lat.=42.907112, lon.=19.088509, Alt.=1289.672852m. Speed=26.172001m/h.</desc>
<speed>7.270000</speed>
</trkpt>
<trkpt lat="42.907055" lon="19.088896">
<ele>1290.172852</ele>
<time>2012-05-02T23:36:29Z</time>
<desc>lat.=42.907055, lon.=19.088896, Alt.=1290.172852m. Speed=21.024000m/h.</desc>
<speed>5.840000</speed>
</trkpt>
<trkpt lat="42.907104" lon="19.089304">
<ele>1287.704102</ele>
<time>2012-05-02T23:36:34Z</time>
<desc>lat.=42.907104, lon.=19.089304, Alt.=1287.704102m. Speed=27.900000m/h.</desc>
<speed>7.750000</speed>
</trkpt>
<trkpt lat="42.907516" lon="19.089466">
<ele>1288.266602</ele>
<time>2012-05-02T23:36:39Z</time>
<desc>lat.=42.907516, lon.=19.089466, Alt.=1288.266602m. Speed=41.076000m/h.</desc>
<speed>11.410000</speed>
</trkpt>
<trkpt lat="42.908035" lon="19.089447">
<ele>1289.391602</ele>
<time>2012-05-02T23:36:44Z</time>
<desc>lat.=42.908035, lon.=19.089447, Alt.=1289.391602m. Speed=42.515999m/h.</desc>
<speed>11.810000</speed>
</trkpt>
<trkpt lat="42.908524" lon="19.089458">
<ele>1289.329102</ele>
<time>2012-05-02T23:36:49Z</time>
<desc>lat.=42.908524, lon.=19.089458, Alt.=1289.329102m. Speed=37.223999m/h.</desc>
<speed>10.340000</speed>
</trkpt>
<trkpt lat="42.908871" lon="19.089842">
<ele>1274.860352</ele>
<time>2012-05-02T23:36:54Z</time>
<desc>lat.=42.908871, lon.=19.089842, Alt.=1274.860352m. Speed=39.276001m/h.</desc>
<speed>10.910000</speed>
</trkpt>
<trkpt lat="42.909267" lon="19.090204">
<ele>1270.516602</ele>
<time>2012-05-02T23:36:59Z</time>
<desc>lat.=42.909267, lon.=19.090204, Alt.=1270.516602m. Speed=39.456001m/h.</desc>
<speed>10.960000</speed>
</trkpt>
<trkpt lat="42.909760" lon="19.090256">
<ele>1267.922852</ele>
<time>2012-05-02T23:37:04Z</time>
<desc>lat.=42.909760, lon.=19.090256, Alt.=1267.922852m. Speed=38.015999m/h.</desc>
<speed>10.560000</speed>
</trkpt>
<trkpt lat="42.910202" lon="19.090034">
<ele>1263.579102</ele>
<time>2012-05-02T23:37:09Z</time>
<desc>lat.=42.910202, lon.=19.090034, Alt.=1263.579102m. Speed=36.396000m/h.</desc>
<speed>10.110000</speed>
</trkpt>
<trkpt lat="42.910553" lon="19.090002">
<ele>1259.141602</ele>
<time>2012-05-02T23:37:14Z</time>
<desc>lat.=42.910553, lon.=19.090002, Alt.=1259.141602m. Speed=23.256001m/h.</desc>
<speed>6.460000</speed>
</trkpt>
<trkpt lat="42.910686" lon="19.090340">
<ele>1254.672852</ele>
<time>2012-05-02T23:37:19Z</time>
<desc>lat.=42.910686, lon.=19.090340, Alt.=1254.672852m. Speed=26.172001m/h.</desc>
<speed>7.270000</speed>
</trkpt>
<trkpt lat="42.910828" lon="19.090807">
<ele>1247.516602</ele>
<time>2012-05-02T23:37:24Z</time>
<desc>lat.=42.910828, lon.=19.090807, Alt.=1247.516602m. Speed=29.591999m/h.</desc>
<speed>8.220000</speed>
</trkpt>
<trkpt lat="42.911274" lon="19.090906">
<ele>1236.204102</ele>
<time>2012-05-02T23:37:29Z</time>
<desc>lat.=42.911274, lon.=19.090906, Alt.=1236.204102m. Speed=40.464001m/h.</desc>
<speed>11.240000</speed>
</trkpt>
<trkpt lat="42.911770" lon="19.090689">
<ele>1229.766602</ele>
<time>2012-05-02T23:37:34Z</time>
<desc>lat.=42.911770, lon.=19.090689, Alt.=1229.766602m. Speed=38.771999m/h.</desc>
<speed>10.770000</speed>
</trkpt>
<trkpt lat="42.912251" lon="19.090473">
<ele>1224.735352</ele>
<time>2012-05-02T23:37:39Z</time>
<desc>lat.=42.912251, lon.=19.090473, Alt.=1224.735352m. Speed=40.104000m/h.</desc>
<speed>11.140000</speed>
</trkpt>
<trkpt lat="42.912754" lon="19.090302">
<ele>1218.516602</ele>
<time>2012-05-02T23:37:44Z</time>
<desc>lat.=42.912754, lon.=19.090302, Alt.=1218.516602m. Speed=41.363998m/h.</desc>
<speed>11.490000</speed>
</trkpt>
<trkpt lat="42.913265" lon="19.090214">
<ele>1215.860352</ele>
<time>2012-05-02T23:37:49Z</time>
<desc>lat.=42.913265, lon.=19.090214, Alt.=1215.860352m. Speed=41.040001m/h.</desc>
<speed>11.400000</speed>
</trkpt>
<trkpt lat="42.913830" lon="19.090300">
<ele>1213.079102</ele>
<time>2012-05-02T23:37:54Z</time>
<desc>lat.=42.913830, lon.=19.090300, Alt.=1213.079102m. Speed=48.636002m/h.</desc>
<speed>13.510000</speed>
</trkpt>
<trkpt lat="42.914459" lon="19.090456">
<ele>1210.110352</ele>
<time>2012-05-02T23:37:59Z</time>
<desc>lat.=42.914459, lon.=19.090456, Alt.=1210.110352m. Speed=51.515999m/h.</desc>
<speed>14.310000</speed>
</trkpt>
<trkpt lat="42.915085" lon="19.090614">
<ele>1206.860352</ele>
<time>2012-05-02T23:38:04Z</time>
<desc>lat.=42.915085, lon.=19.090614, Alt.=1206.860352m. Speed=48.743999m/h.</desc>
<speed>13.540000</speed>
</trkpt>
<trkpt lat="42.915684" lon="19.090769">
<ele>1203.829102</ele>
<time>2012-05-02T23:38:09Z</time>
<desc>lat.=42.915684, lon.=19.090769, Alt.=1203.829102m. Speed=46.799999m/h.</desc>
<speed>13.000000</speed>
</trkpt>
<trkpt lat="42.916203" lon="19.090841">
<ele>1201.766602</ele>
<time>2012-05-02T23:38:14Z</time>
<desc>lat.=42.916203, lon.=19.090841, Alt.=1201.766602m. Speed=37.619999m/h.</desc>
<speed>10.450000</speed>
</trkpt>
<trkpt lat="42.916466" lon="19.090420">
<ele>1198.422852</ele>
<time>2012-05-02T23:38:19Z</time>
<desc>lat.=42.916466, lon.=19.090420, Alt.=1198.422852m. Speed=33.768002m/h.</desc>
<speed>9.380000</speed>
</trkpt>
<trkpt lat="42.916576" lon="19.089882">
<ele>1196.172852</ele>
<time>2012-05-02T23:38:24Z</time>
<desc>lat.=42.916576, lon.=19.089882, Alt.=1196.172852m. Speed=32.292000m/h.</desc>
<speed>8.970000</speed>
</trkpt>
<trkpt lat="42.916897" lon="19.089584">
<ele>1193.079102</ele>
<time>2012-05-02T23:38:29Z</time>
<desc>lat.=42.916897, lon.=19.089584, Alt.=1193.079102m. Speed=35.495998m/h.</desc>
<speed>9.860000</speed>
</trkpt>
<trkpt lat="42.917328" lon="19.089302">
<ele>1190.391602</ele>
<time>2012-05-02T23:38:34Z</time>
<desc>lat.=42.917328, lon.=19.089302, Alt.=1190.391602m. Speed=40.284000m/h.</desc>
<speed>11.190000</speed>
</trkpt>
<trkpt lat="42.917656" lon="19.088793">
<ele>1188.235352</ele>
<time>2012-05-02T23:38:39Z</time>
<desc>lat.=42.917656, lon.=19.088793, Alt.=1188.235352m. Speed=39.852001m/h.</desc>
<speed>11.070000</speed>
</trkpt>
<trkpt lat="42.917812" lon="19.088167">
<ele>1186.266602</ele>
<time>2012-05-02T23:38:44Z</time>
<desc>lat.=42.917812, lon.=19.088167, Alt.=1186.266602m. Speed=38.880001m/h.</desc>
<speed>10.800000</speed>
</trkpt>
<trkpt lat="42.918159" lon="19.087698">
<ele>1182.766602</ele>
<time>2012-05-02T23:38:49Z</time>
<desc>lat.=42.918159, lon.=19.087698, Alt.=1182.766602m. Speed=40.104000m/h.</desc>
<speed>11.140000</speed>
</trkpt>
<trkpt lat="42.918407" lon="19.087238">
<ele>1179.485352</ele>
<time>2012-05-02T23:38:54Z</time>
<desc>lat.=42.918407, lon.=19.087238, Alt.=1179.485352m. Speed=30.096001m/h.</desc>
<speed>8.360000</speed>
</trkpt>
<trkpt lat="42.918438" lon="19.086721">
<ele>1177.860352</ele>
<time>2012-05-02T23:38:59Z</time>
<desc>lat.=42.918438, lon.=19.086721, Alt.=1177.860352m. Speed=31.068001m/h.</desc>
<speed>8.630000</speed>
</trkpt>
<trkpt lat="42.918686" lon="19.086166">
<ele>1174.797852</ele>
<time>2012-05-02T23:39:04Z</time>
<desc>lat.=42.918686, lon.=19.086166, Alt.=1174.797852m. Speed=45.431999m/h.</desc>
<speed>12.620000</speed>
</trkpt>
<trkpt lat="42.919018" lon="19.085466">
<ele>1171.235352</ele>
<time>2012-05-02T23:39:09Z</time>
<desc>lat.=42.919018, lon.=19.085466, Alt.=1171.235352m. Speed=49.860001m/h.</desc>
<speed>13.850000</speed>
</trkpt>
<trkpt lat="42.919430" lon="19.084808">
<ele>1167.610352</ele>
<time>2012-05-02T23:39:14Z</time>
<desc>lat.=42.919430, lon.=19.084808, Alt.=1167.610352m. Speed=50.400002m/h.</desc>
<speed>14.000000</speed>
</trkpt>
<trkpt lat="42.919689" lon="19.084044">
<ele>1162.672852</ele>
<time>2012-05-02T23:39:19Z</time>
<desc>lat.=42.919689, lon.=19.084044, Alt.=1162.672852m. Speed=49.104000m/h.</desc>
<speed>13.640000</speed>
</trkpt>
<trkpt lat="42.919914" lon="19.083273">
<ele>1159.141602</ele>
<time>2012-05-02T23:39:24Z</time>
<desc>lat.=42.919914, lon.=19.083273, Alt.=1159.141602m. Speed=43.344002m/h.</desc>
<speed>12.040000</speed>
</trkpt>
<trkpt lat="42.920235" lon="19.082806">
<ele>1156.766602</ele>
<time>2012-05-02T23:39:29Z</time>
<desc>lat.=42.920235, lon.=19.082806, Alt.=1156.766602m. Speed=34.703999m/h.</desc>
<speed>9.640000</speed>
</trkpt>
<trkpt lat="42.920628" lon="19.082573">
<ele>1153.579102</ele>
<time>2012-05-02T23:39:34Z</time>
<desc>lat.=42.920628, lon.=19.082573, Alt.=1153.579102m. Speed=35.136002m/h.</desc>
<speed>9.760000</speed>
</trkpt>
<trkpt lat="42.920982" lon="19.082195">
<ele>1151.360352</ele>
<time>2012-05-02T23:39:39Z</time>
<desc>lat.=42.920982, lon.=19.082195, Alt.=1151.360352m. Speed=37.259998m/h.</desc>
<speed>10.350000</speed>
</trkpt>
<trkpt lat="42.921410" lon="19.081945">
<ele>1150.016602</ele>
<time>2012-05-02T23:39:44Z</time>
<desc>lat.=42.921410, lon.=19.081945, Alt.=1150.016602m. Speed=37.584000m/h.</desc>
<speed>10.440000</speed>
</trkpt>
<trkpt lat="42.921883" lon="19.081835">
<ele>1149.610352</ele>
<time>2012-05-02T23:39:49Z</time>
<desc>lat.=42.921883, lon.=19.081835, Alt.=1149.610352m. Speed=39.240002m/h.</desc>
<speed>10.900000</speed>
</trkpt>
<trkpt lat="42.922382" lon="19.081783">
<ele>1145.641602</ele>
<time>2012-05-02T23:39:54Z</time>
<desc>lat.=42.922382, lon.=19.081783, Alt.=1145.641602m. Speed=41.112000m/h.</desc>
<speed>11.420000</speed>
</trkpt>
<trkpt lat="42.922852" lon="19.081480">
<ele>1142.454102</ele>
<time>2012-05-02T23:39:59Z</time>
<desc>lat.=42.922852, lon.=19.081480, Alt.=1142.454102m. Speed=41.688000m/h.</desc>
<speed>11.580000</speed>
</trkpt>
<trkpt lat="42.923225" lon="19.081022">
<ele>1138.829102</ele>
<time>2012-05-02T23:40:04Z</time>
<desc>lat.=42.923225, lon.=19.081022, Alt.=1138.829102m. Speed=39.888000m/h.</desc>
<speed>11.080000</speed>
</trkpt>
<trkpt lat="42.923615" lon="19.080563">
<ele>1137.891602</ele>
<time>2012-05-02T23:40:09Z</time>
<desc>lat.=42.923615, lon.=19.080563, Alt.=1137.891602m. Speed=41.472000m/h.</desc>
<speed>11.520000</speed>
</trkpt>
<trkpt lat="42.923824" lon="19.080015">
<ele>1135.641602</ele>
<time>2012-05-02T23:40:14Z</time>
<desc>lat.=42.923824, lon.=19.080015, Alt.=1135.641602m. Speed=35.928001m/h.</desc>
<speed>9.980000</speed>
</trkpt>
<trkpt lat="42.924004" lon="19.079479">
<ele>1133.297852</ele>
<time>2012-05-02T23:40:19Z</time>
<desc>lat.=42.924004, lon.=19.079479, Alt.=1133.297852m. Speed=35.388000m/h.</desc>
<speed>9.830000</speed>
</trkpt>
<trkpt lat="42.924187" lon="19.078899">
<ele>1130.610352</ele>
<time>2012-05-02T23:40:24Z</time>
<desc>lat.=42.924187, lon.=19.078899, Alt.=1130.610352m. Speed=38.520000m/h.</desc>
<speed>10.700000</speed>
</trkpt>
<trkpt lat="42.924313" lon="19.078262">
<ele>1128.360352</ele>
<time>2012-05-02T23:40:29Z</time>
<desc>lat.=42.924313, lon.=19.078262, Alt.=1128.360352m. Speed=39.636002m/h.</desc>
<speed>11.010000</speed>
</trkpt>
<trkpt lat="42.924351" lon="19.077591">
<ele>1123.266602</ele>
<time>2012-05-02T23:40:34Z</time>
<desc>lat.=42.924351, lon.=19.077591, Alt.=1123.266602m. Speed=38.195999m/h.</desc>
<speed>10.610000</speed>
</trkpt>
<trkpt lat="42.924255" lon="19.076923">
<ele>1119.985352</ele>
<time>2012-05-02T23:40:39Z</time>
<desc>lat.=42.924255, lon.=19.076923, Alt.=1119.985352m. Speed=39.924000m/h.</desc>
<speed>11.090000</speed>
</trkpt>
<trkpt lat="42.924431" lon="19.076271">
<ele>1116.954102</ele>
<time>2012-05-02T23:40:44Z</time>
<desc>lat.=42.924431, lon.=19.076271, Alt.=1116.954102m. Speed=40.751999m/h.</desc>
<speed>11.320000</speed>
</trkpt>
<trkpt lat="42.924744" lon="19.075710">
<ele>1114.454102</ele>
<time>2012-05-02T23:40:49Z</time>
<desc>lat.=42.924744, lon.=19.075710, Alt.=1114.454102m. Speed=41.183998m/h.</desc>
<speed>11.439999</speed>
</trkpt>
<trkpt lat="42.925030" lon="19.075113">
<ele>1110.266602</ele>
<time>2012-05-02T23:40:54Z</time>
<desc>lat.=42.925030, lon.=19.075113, Alt.=1110.266602m. Speed=42.551998m/h.</desc>
<speed>11.819999</speed>
</trkpt>
<trkpt lat="42.925236" lon="19.074446">
<ele>1106.860352</ele>
<time>2012-05-02T23:40:59Z</time>
<desc>lat.=42.925236, lon.=19.074446, Alt.=1106.860352m. Speed=42.875999m/h.</desc>
<speed>11.910000</speed>
</trkpt>
<trkpt lat="42.925411" lon="19.073757">
<ele>1103.079102</ele>
<time>2012-05-02T23:41:04Z</time>
<desc>lat.=42.925411, lon.=19.073757, Alt.=1103.079102m. Speed=39.203999m/h.</desc>
<speed>10.890000</speed>
</trkpt>
<trkpt lat="42.925762" lon="19.073395">
<ele>1101.672852</ele>
<time>2012-05-02T23:41:09Z</time>
<desc>lat.=42.925762, lon.=19.073395, Alt.=1101.672852m. Speed=33.911999m/h.</desc>
<speed>9.420000</speed>
</trkpt>
<trkpt lat="42.926212" lon="19.073204">
<ele>1099.516602</ele>
<time>2012-05-02T23:41:14Z</time>
<desc>lat.=42.926212, lon.=19.073204, Alt.=1099.516602m. Speed=39.203999m/h.</desc>
<speed>10.890000</speed>
</trkpt>
<trkpt lat="42.926510" lon="19.072687">
<ele>1098.797852</ele>
<time>2012-05-02T23:41:19Z</time>
<desc>lat.=42.926510, lon.=19.072687, Alt.=1098.797852m. Speed=39.312000m/h.</desc>
<speed>10.920000</speed>
</trkpt>
<trkpt lat="42.926609" lon="19.072083">
<ele>1098.516602</ele>
<time>2012-05-02T23:41:24Z</time>
<desc>lat.=42.926609, lon.=19.072083, Alt.=1098.516602m. Speed=34.271999m/h.</desc>
<speed>9.520000</speed>
</trkpt>
<trkpt lat="42.926849" lon="19.071581">
<ele>1095.079102</ele>
<time>2012-05-02T23:41:29Z</time>
<desc>lat.=42.926849, lon.=19.071581, Alt.=1095.079102m. Speed=35.891998m/h.</desc>
<speed>9.970000</speed>
</trkpt>
<trkpt lat="42.927147" lon="19.071249">
<ele>1093.047852</ele>
<time>2012-05-02T23:41:34Z</time>
<desc>lat.=42.927147, lon.=19.071249, Alt.=1093.047852m. Speed=32.616001m/h.</desc>
<speed>9.060000</speed>
</trkpt>
<trkpt lat="42.927620" lon="19.071150">
<ele>1091.297852</ele>
<time>2012-05-02T23:41:39Z</time>
<desc>lat.=42.927620, lon.=19.071150, Alt.=1091.297852m. Speed=41.652000m/h.</desc>
<speed>11.570000</speed>
</trkpt>
<trkpt lat="42.928150" lon="19.070982">
<ele>1087.047852</ele>
<time>2012-05-02T23:41:44Z</time>
<desc>lat.=42.928150, lon.=19.070982, Alt.=1087.047852m. Speed=43.164001m/h.</desc>
<speed>11.990000</speed>
</trkpt>
<trkpt lat="42.928661" lon="19.070717">
<ele>1083.266602</ele>
<time>2012-05-02T23:41:49Z</time>
<desc>lat.=42.928661, lon.=19.070717, Alt.=1083.266602m. Speed=44.639999m/h.</desc>
<speed>12.400000</speed>
</trkpt>
<trkpt lat="42.929180" lon="19.070362">
<ele>1079.360352</ele>
<time>2012-05-02T23:41:54Z</time>
<desc>lat.=42.929180, lon.=19.070362, Alt.=1079.360352m. Speed=48.419998m/h.</desc>
<speed>13.449999</speed>
</trkpt>
<trkpt lat="42.929668" lon="19.069901">
<ele>1075.672852</ele>
<time>2012-05-02T23:41:59Z</time>
<desc>lat.=42.929668, lon.=19.069901, Alt.=1075.672852m. Speed=47.340000m/h.</desc>
<speed>13.150000</speed>
</trkpt>
<trkpt lat="42.930061" lon="19.069611">
<ele>1072.204102</ele>
<time>2012-05-02T23:42:04Z</time>
<desc>lat.=42.930061, lon.=19.069611, Alt.=1072.204102m. Speed=27.216000m/h.</desc>
<speed>7.560000</speed>
</trkpt>
<trkpt lat="42.930347" lon="19.069767">
<ele>1070.391602</ele>
<time>2012-05-02T23:42:09Z</time>
<desc>lat.=42.930347, lon.=19.069767, Alt.=1070.391602m. Speed=26.459999m/h.</desc>
<speed>7.350000</speed>
</trkpt>
<trkpt lat="42.930595" lon="19.070093">
<ele>1068.141602</ele>
<time>2012-05-02T23:42:14Z</time>
<desc>lat.=42.930595, lon.=19.070093, Alt.=1068.141602m. Speed=27.431999m/h.</desc>
<speed>7.620000</speed>
</trkpt>
<trkpt lat="42.930969" lon="19.070152">
<ele>1065.985352</ele>
<time>2012-05-02T23:42:19Z</time>
<desc>lat.=42.930969, lon.=19.070152, Alt.=1065.985352m. Speed=33.804001m/h.</desc>
<speed>9.390000</speed>
</trkpt>
<trkpt lat="42.931393" lon="19.070314">
<ele>1062.829102</ele>
<time>2012-05-02T23:42:24Z</time>
<desc>lat.=42.931393, lon.=19.070314, Alt.=1062.829102m. Speed=34.776001m/h.</desc>
<speed>9.660000</speed>
</trkpt>
<trkpt lat="42.931828" lon="19.070320">
<ele>1059.079102</ele>
<time>2012-05-02T23:42:29Z</time>
<desc>lat.=42.931828, lon.=19.070320, Alt.=1059.079102m. Speed=37.476002m/h.</desc>
<speed>10.410000</speed>
</trkpt>
<trkpt lat="42.932285" lon="19.070148">
<ele>1055.579102</ele>
<time>2012-05-02T23:42:34Z</time>
<desc>lat.=42.932285, lon.=19.070148, Alt.=1055.579102m. Speed=31.643999m/h.</desc>
<speed>8.790000</speed>
</trkpt>
<trkpt lat="42.932781" lon="19.070213">
<ele>1054.610352</ele>
<time>2012-05-02T23:42:39Z</time>
<desc>lat.=42.932781, lon.=19.070213, Alt.=1054.610352m. Speed=39.096001m/h.</desc>
<speed>10.860000</speed>
</trkpt>
<trkpt lat="42.933250" lon="19.070230">
<ele>1052.391602</ele>
<time>2012-05-02T23:42:44Z</time>
<desc>lat.=42.933250, lon.=19.070230, Alt.=1052.391602m. Speed=37.584000m/h.</desc>
<speed>10.440000</speed>
</trkpt>
<trkpt lat="42.933697" lon="19.070063">
<ele>1050.360352</ele>
<time>2012-05-02T23:42:49Z</time>
<desc>lat.=42.933697, lon.=19.070063, Alt.=1050.360352m. Speed=37.619999m/h.</desc>
<speed>10.450000</speed>
</trkpt>
<trkpt lat="42.934155" lon="19.069872">
<ele>1048.860352</ele>
<time>2012-05-02T23:42:54Z</time>
<desc>lat.=42.934155, lon.=19.069872, Alt.=1048.860352m. Speed=38.627998m/h.</desc>
<speed>10.730000</speed>
</trkpt>
<trkpt lat="42.934643" lon="19.070005">
<ele>1046.547852</ele>
<time>2012-05-02T23:42:59Z</time>
<desc>lat.=42.934643, lon.=19.070005, Alt.=1046.547852m. Speed=42.155998m/h.</desc>
<speed>11.710000</speed>
</trkpt>
<trkpt lat="42.935169" lon="19.070347">
<ele>1043.672852</ele>
<time>2012-05-02T23:43:04Z</time>
<desc>lat.=42.935169, lon.=19.070347, Alt.=1043.672852m. Speed=48.959999m/h.</desc>
<speed>13.600000</speed>
</trkpt>
<trkpt lat="42.935776" lon="19.070593">
<ele>1042.172852</ele>
<time>2012-05-02T23:43:09Z</time>
<desc>lat.=42.935776, lon.=19.070593, Alt.=1042.172852m. Speed=51.840000m/h.</desc>
<speed>14.400000</speed>
</trkpt>
<trkpt lat="42.936359" lon="19.070917">
<ele>1040.329102</ele>
<time>2012-05-02T23:43:14Z</time>
<desc>lat.=42.936359, lon.=19.070917, Alt.=1040.329102m. Speed=50.868000m/h.</desc>
<speed>14.130000</speed>
</trkpt>
<trkpt lat="42.937004" lon="19.071249">
<ele>1039.266602</ele>
<time>2012-05-02T23:43:19Z</time>
<desc>lat.=42.937004, lon.=19.071249, Alt.=1039.266602m. Speed=56.556000m/h.</desc>
<speed>15.710000</speed>
</trkpt>
<trkpt lat="42.937691" lon="19.071564">
<ele>1039.985352</ele>
<time>2012-05-02T23:43:24Z</time>
<desc>lat.=42.937691, lon.=19.071564, Alt.=1039.985352m. Speed=59.112000m/h.</desc>
<speed>16.420000</speed>
</trkpt>
<trkpt lat="42.938362" lon="19.071842">
<ele>1043.860352</ele>
<time>2012-05-02T23:43:29Z</time>
<desc>lat.=42.938362, lon.=19.071842, Alt.=1043.860352m. Speed=56.880001m/h.</desc>
<speed>15.800000</speed>
</trkpt>
<trkpt lat="42.939068" lon="19.071926">
<ele>1043.797852</ele>
<time>2012-05-02T23:43:34Z</time>
<desc>lat.=42.939068, lon.=19.071926, Alt.=1043.797852m. Speed=56.088001m/h.</desc>
<speed>15.580000</speed>
</trkpt>
<trkpt lat="42.939800" lon="19.071865">
<ele>1039.954102</ele>
<time>2012-05-02T23:43:39Z</time>
<desc>lat.=42.939800, lon.=19.071865, Alt.=1039.954102m. Speed=62.532001m/h.</desc>
<speed>17.370000</speed>
</trkpt>
<trkpt lat="42.940598" lon="19.071787">
<ele>1038.891602</ele>
<time>2012-05-02T23:43:44Z</time>
<desc>lat.=42.940598, lon.=19.071787, Alt.=1038.891602m. Speed=63.360001m/h.</desc>
<speed>17.600000</speed>
</trkpt>
<trkpt lat="42.941349" lon="19.071711">
<ele>1039.047852</ele>
<time>2012-05-02T23:43:49Z</time>
<desc>lat.=42.941349, lon.=19.071711, Alt.=1039.047852m. Speed=56.952000m/h.</desc>
<speed>15.820000</speed>
</trkpt>
<trkpt lat="42.942013" lon="19.071787">
<ele>1040.516602</ele>
<time>2012-05-02T23:43:54Z</time>
<desc>lat.=42.942013, lon.=19.071787, Alt.=1040.516602m. Speed=51.588001m/h.</desc>
<speed>14.330000</speed>
</trkpt>
<trkpt lat="42.942558" lon="19.072208">
<ele>1042.079102</ele>
<time>2012-05-02T23:43:59Z</time>
<desc>lat.=42.942558, lon.=19.072208, Alt.=1042.079102m. Speed=50.507999m/h.</desc>
<speed>14.030000</speed>
</trkpt>
<trkpt lat="42.942982" lon="19.072868">
<ele>1045.266602</ele>
<time>2012-05-02T23:44:04Z</time>
<desc>lat.=42.942982, lon.=19.072868, Alt.=1045.266602m. Speed=50.939999m/h.</desc>
<speed>14.150000</speed>
</trkpt>
<trkpt lat="42.943428" lon="19.073483">
<ele>1049.266602</ele>
<time>2012-05-02T23:44:09Z</time>
<desc>lat.=42.943428, lon.=19.073483, Alt.=1049.266602m. Speed=48.852001m/h.</desc>
<speed>13.570000</speed>
</trkpt>
<trkpt lat="42.943901" lon="19.073513">
<ele>1053.110352</ele>
<time>2012-05-02T23:44:14Z</time>
<desc>lat.=42.943901, lon.=19.073513, Alt.=1053.110352m. Speed=33.480000m/h.</desc>
<speed>9.300000</speed>
</trkpt>
<trkpt lat="42.944210" lon="19.073191">
<ele>1056.391602</ele>
<time>2012-05-02T23:44:19Z</time>
<desc>lat.=42.944210, lon.=19.073191, Alt.=1056.391602m. Speed=30.455999m/h.</desc>
<speed>8.460000</speed>
</trkpt>
<trkpt lat="42.944588" lon="19.073221">
<ele>1057.360352</ele>
<time>2012-05-02T23:44:24Z</time>
<desc>lat.=42.944588, lon.=19.073221, Alt.=1057.360352m. Speed=36.612000m/h.</desc>
<speed>10.170000</speed>
</trkpt>
<trkpt lat="42.945065" lon="19.073462">
<ele>1060.454102</ele>
<time>2012-05-02T23:44:29Z</time>
<desc>lat.=42.945065, lon.=19.073462, Alt.=1060.454102m. Speed=43.487999m/h.</desc>
<speed>12.080000</speed>
</trkpt>
<trkpt lat="42.945538" lon="19.073658">
<ele>1062.485352</ele>
<time>2012-05-02T23:44:34Z</time>
<desc>lat.=42.945538, lon.=19.073658, Alt.=1062.485352m. Speed=36.144001m/h.</desc>
<speed>10.040000</speed>
</trkpt>
<trkpt lat="42.945786" lon="19.074156">
<ele>1064.735352</ele>
<time>2012-05-02T23:44:39Z</time>
<desc>lat.=42.945786, lon.=19.074156, Alt.=1064.735352m. Speed=38.771999m/h.</desc>
<speed>10.770000</speed>
</trkpt>
<trkpt lat="42.945816" lon="19.074797">
<ele>1067.266602</ele>
<time>2012-05-02T23:44:44Z</time>
<desc>lat.=42.945816, lon.=19.074797, Alt.=1067.266602m. Speed=41.220001m/h.</desc>
<speed>11.450000</speed>
</trkpt>
<trkpt lat="42.945705" lon="19.075457">
<ele>1069.547852</ele>
<time>2012-05-02T23:44:49Z</time>
<desc>lat.=42.945705, lon.=19.075457, Alt.=1069.547852m. Speed=38.987999m/h.</desc>
<speed>10.830000</speed>
</trkpt>
<trkpt lat="42.945534" lon="19.076097">
<ele>1070.610352</ele>
<time>2012-05-02T23:44:54Z</time>
<desc>lat.=42.945534, lon.=19.076097, Alt.=1070.610352m. Speed=41.327999m/h.</desc>
<speed>11.480000</speed>
</trkpt>
<trkpt lat="42.945511" lon="19.076796">
<ele>1071.391602</ele>
<time>2012-05-02T23:44:59Z</time>
<desc>lat.=42.945511, lon.=19.076796, Alt.=1071.391602m. Speed=36.576000m/h.</desc>
<speed>10.160000</speed>
</trkpt>
<trkpt lat="42.945789" lon="19.077213">
<ele>1072.204102</ele>
<time>2012-05-02T23:45:04Z</time>
<desc>lat.=42.945789, lon.=19.077213, Alt.=1072.204102m. Speed=35.820000m/h.</desc>
<speed>9.950000</speed>
</trkpt>
<trkpt lat="42.946198" lon="19.077108">
<ele>1072.954102</ele>
<time>2012-05-02T23:45:09Z</time>
<desc>lat.=42.946198, lon.=19.077108, Alt.=1072.954102m. Speed=31.572001m/h.</desc>
<speed>8.770000</speed>
</trkpt>
<trkpt lat="42.946522" lon="19.077314">
<ele>1073.672852</ele>
<time>2012-05-02T23:45:14Z</time>
<desc>lat.=42.946522, lon.=19.077314, Alt.=1073.672852m. Speed=33.624001m/h.</desc>
<speed>9.340000</speed>
</trkpt>
<trkpt lat="42.946644" lon="19.077896">
<ele>1075.266602</ele>
<time>2012-05-02T23:45:19Z</time>
<desc>lat.=42.946644, lon.=19.077896, Alt.=1075.266602m. Speed=34.776001m/h.</desc>
<speed>9.660000</speed>
</trkpt>
<trkpt lat="42.946743" lon="19.078472">
<ele>1077.454102</ele>
<time>2012-05-02T23:45:24Z</time>
<desc>lat.=42.946743, lon.=19.078472, Alt.=1077.454102m. Speed=36.035999m/h.</desc>
<speed>10.010000</speed>
</trkpt>
<trkpt lat="42.947155" lon="19.078718">
<ele>1080.516602</ele>
<time>2012-05-02T23:45:29Z</time>
<desc>lat.=42.947155, lon.=19.078718, Alt.=1080.516602m. Speed=36.863998m/h.</desc>
<speed>10.240000</speed>
</trkpt>
<trkpt lat="42.947453" lon="19.079056">
<ele>1082.016602</ele>
<time>2012-05-02T23:45:34Z</time>
<desc>lat.=42.947453, lon.=19.079056, Alt.=1082.016602m. Speed=29.771999m/h.</desc>
<speed>8.270000</speed>
</trkpt>
<trkpt lat="42.947628" lon="19.079638">
<ele>1080.266602</ele>
<time>2012-05-02T23:45:39Z</time>
<desc>lat.=42.947628, lon.=19.079638, Alt.=1080.266602m. Speed=45.360001m/h.</desc>
<speed>12.600000</speed>
</trkpt>
<trkpt lat="42.947933" lon="19.080196">
<ele>1078.860352</ele>
<time>2012-05-02T23:45:44Z</time>
<desc>lat.=42.947933, lon.=19.080196, Alt.=1078.860352m. Speed=41.472000m/h.</desc>
<speed>11.520000</speed>
</trkpt>
<trkpt lat="42.948215" lon="19.080853">
<ele>1077.641602</ele>
<time>2012-05-02T23:45:49Z</time>
<desc>lat.=42.948215, lon.=19.080853, Alt.=1077.641602m. Speed=48.276001m/h.</desc>
<speed>13.410000</speed>
</trkpt>
<trkpt lat="42.948643" lon="19.081455">
<ele>1077.704102</ele>
<time>2012-05-02T23:45:54Z</time>
<desc>lat.=42.948643, lon.=19.081455, Alt.=1077.704102m. Speed=48.924000m/h.</desc>
<speed>13.590000</speed>
</trkpt>
<trkpt lat="42.949074" lon="19.081968">
<ele>1077.641602</ele>
<time>2012-05-02T23:45:59Z</time>
<desc>lat.=42.949074, lon.=19.081968, Alt.=1077.641602m. Speed=36.360001m/h.</desc>
<speed>10.100000</speed>
</trkpt>
<trkpt lat="42.949162" lon="19.082466">
<ele>1078.735352</ele>
<time>2012-05-02T23:46:04Z</time>
<desc>lat.=42.949162, lon.=19.082466, Alt.=1078.735352m. Speed=36.000000m/h.</desc>
<speed>10.000000</speed>
</trkpt>
<trkpt lat="42.949150" lon="19.083193">
<ele>1079.047852</ele>
<time>2012-05-02T23:46:09Z</time>
<desc>lat.=42.949150, lon.=19.083193, Alt.=1079.047852m. Speed=46.043999m/h.</desc>
<speed>12.790000</speed>
</trkpt>
<trkpt lat="42.949249" lon="19.084040">
<ele>1080.516602</ele>
<time>2012-05-02T23:46:14Z</time>
<desc>lat.=42.949249, lon.=19.084040, Alt.=1080.516602m. Speed=49.428001m/h.</desc>
<speed>13.730000</speed>
</trkpt>
<trkpt lat="42.949379" lon="19.084829">
<ele>1081.454102</ele>
<time>2012-05-02T23:46:19Z</time>
<desc>lat.=42.949379, lon.=19.084829, Alt.=1081.454102m. Speed=48.132000m/h.</desc>
<speed>13.370000</speed>
</trkpt>
<trkpt lat="42.949394" lon="19.085573">
<ele>1082.985352</ele>
<time>2012-05-02T23:46:24Z</time>
<desc>lat.=42.949394, lon.=19.085573, Alt.=1082.985352m. Speed=35.820000m/h.</desc>
<speed>9.950000</speed>
</trkpt>
<trkpt lat="42.949661" lon="19.085962">
<ele>1083.016602</ele>
<time>2012-05-02T23:46:29Z</time>
<desc>lat.=42.949661, lon.=19.085962, Alt.=1083.016602m. Speed=35.964001m/h.</desc>
<speed>9.990000</speed>
</trkpt>
<trkpt lat="42.949978" lon="19.086266">
<ele>1083.204102</ele>
<time>2012-05-02T23:46:34Z</time>
<desc>lat.=42.949978, lon.=19.086266, Alt.=1083.204102m. Speed=31.680000m/h.</desc>
<speed>8.800000</speed>
</trkpt>
<trkpt lat="42.950089" lon="19.086891">
<ele>1084.235352</ele>
<time>2012-05-02T23:46:39Z</time>
<desc>lat.=42.950089, lon.=19.086891, Alt.=1084.235352m. Speed=39.995998m/h.</desc>
<speed>11.110000</speed>
</trkpt>
<trkpt lat="42.950245" lon="19.087568">
<ele>1083.266602</ele>
<time>2012-05-02T23:46:44Z</time>
<desc>lat.=42.950245, lon.=19.087568, Alt.=1083.266602m. Speed=43.056000m/h.</desc>
<speed>11.960000</speed>
</trkpt>
<trkpt lat="42.950436" lon="19.088234">
<ele>1081.985352</ele>
<time>2012-05-02T23:46:49Z</time>
<desc>lat.=42.950436, lon.=19.088234, Alt.=1081.985352m. Speed=41.580002m/h.</desc>
<speed>11.550001</speed>
</trkpt>
<trkpt lat="42.950596" lon="19.088840">
<ele>1080.797852</ele>
<time>2012-05-02T23:46:54Z</time>
<desc>lat.=42.950596, lon.=19.088840, Alt.=1080.797852m. Speed=33.048000m/h.</desc>
<speed>9.180000</speed>
</trkpt>
<trkpt lat="42.950424" lon="19.089319">
<ele>1078.766602</ele>
<time>2012-05-02T23:46:59Z</time>
<desc>lat.=42.950424, lon.=19.089319, Alt.=1078.766602m. Speed=32.976002m/h.</desc>
<speed>9.160000</speed>
</trkpt>
<trkpt lat="42.949997" lon="19.089409">
<ele>1079.860352</ele>
<time>2012-05-02T23:47:04Z</time>
<desc>lat.=42.949997, lon.=19.089409, Alt.=1079.860352m. Speed=36.000000m/h.</desc>
<speed>10.000000</speed>
</trkpt>
<trkpt lat="42.949558" lon="19.089371">
<ele>1080.797852</ele>
<time>2012-05-02T23:47:09Z</time>
<desc>lat.=42.949558, lon.=19.089371, Alt.=1080.797852m. Speed=36.900002m/h.</desc>
<speed>10.250000</speed>
</trkpt>
<trkpt lat="42.949112" lon="19.089291">
<ele>1082.141602</ele>
<time>2012-05-02T23:47:14Z</time>
<desc>lat.=42.949112, lon.=19.089291, Alt.=1082.141602m. Speed=32.723999m/h.</desc>
<speed>9.090000</speed>
</trkpt>
<trkpt lat="42.948784" lon="19.089598">
<ele>1082.360352</ele>
<time>2012-05-02T23:47:19Z</time>
<desc>lat.=42.948784, lon.=19.089598, Alt.=1082.360352m. Speed=33.875999m/h.</desc>
<speed>9.410000</speed>
</trkpt>
<trkpt lat="42.948616" lon="19.090115">
<ele>1082.172852</ele>
<time>2012-05-02T23:47:24Z</time>
<desc>lat.=42.948616, lon.=19.090115, Alt.=1082.172852m. Speed=30.672001m/h.</desc>
<speed>8.520000</speed>
</trkpt>
<trkpt lat="42.948223" lon="19.090324">
<ele>1082.079102</ele>
<time>2012-05-02T23:47:29Z</time>
<desc>lat.=42.948223, lon.=19.090324, Alt.=1082.079102m. Speed=37.872002m/h.</desc>
<speed>10.520000</speed>
</trkpt>
<trkpt lat="42.947819" lon="19.090658">
<ele>1076.454102</ele>
<time>2012-05-02T23:47:34Z</time>
<desc>lat.=42.947819, lon.=19.090658, Alt.=1076.454102m. Speed=39.348000m/h.</desc>
<speed>10.930000</speed>
</trkpt>
<trkpt lat="42.947529" lon="19.091209">
<ele>1072.797852</ele>
<time>2012-05-02T23:47:39Z</time>
<desc>lat.=42.947529, lon.=19.091209, Alt.=1072.797852m. Speed=40.931999m/h.</desc>
<speed>11.370000</speed>
</trkpt>
<trkpt lat="42.947262" lon="19.091747">
<ele>1069.329102</ele>
<time>2012-05-02T23:47:44Z</time>
<desc>lat.=42.947262, lon.=19.091747, Alt.=1069.329102m. Speed=37.655998m/h.</desc>
<speed>10.460000</speed>
</trkpt>
<trkpt lat="42.946938" lon="19.092201">
<ele>1066.829102</ele>
<time>2012-05-02T23:47:49Z</time>
<desc>lat.=42.946938, lon.=19.092201, Alt.=1066.829102m. Speed=34.632000m/h.</desc>
<speed>9.620000</speed>
</trkpt>
<trkpt lat="42.946518" lon="19.092392">
<ele>1063.641602</ele>
<time>2012-05-02T23:47:54Z</time>
<desc>lat.=42.946518, lon.=19.092392, Alt.=1063.641602m. Speed=40.355999m/h.</desc>
<speed>11.210000</speed>
</trkpt>
<trkpt lat="42.946117" lon="19.092546">
<ele>1061.016602</ele>
<time>2012-05-02T23:47:59Z</time>
<desc>lat.=42.946117, lon.=19.092546, Alt.=1061.016602m. Speed=31.860001m/h.</desc>
<speed>8.850000</speed>
</trkpt>
<trkpt lat="42.945919" lon="19.093021">
<ele>1057.391602</ele>
<time>2012-05-02T23:48:04Z</time>
<desc>lat.=42.945919, lon.=19.093021, Alt.=1057.391602m. Speed=27.612000m/h.</desc>
<speed>7.670000</speed>
</trkpt>
<trkpt lat="42.945919" lon="19.093359">
<ele>1054.172852</ele>
<time>2012-05-02T23:48:09Z</time>
<desc>lat.=42.945919, lon.=19.093359, Alt.=1054.172852m. Speed=21.167999m/h.</desc>
<speed>5.880000</speed>
</trkpt>
<trkpt lat="42.946091" lon="19.093081">
<ele>1049.735352</ele>
<time>2012-05-02T23:48:14Z</time>
<desc>lat.=42.946091, lon.=19.093081, Alt.=1049.735352m. Speed=22.643999m/h.</desc>
<speed>6.290000</speed>
</trkpt>
<trkpt lat="42.946308" lon="19.092899">
<ele>1049.454102</ele>
<time>2012-05-02T23:48:19Z</time>
<desc>lat.=42.946308, lon.=19.092899, Alt.=1049.454102m. Speed=18.576000m/h.</desc>
<speed>5.160000</speed>
</trkpt>
<trkpt lat="42.946625" lon="19.092909">
<ele>1047.704102</ele>
<time>2012-05-02T23:48:24Z</time>
<desc>lat.=42.946625, lon.=19.092909, Alt.=1047.704102m. Speed=29.268000m/h.</desc>
<speed>8.130000</speed>
</trkpt>
<trkpt lat="42.947014" lon="19.092834">
<ele>1047.204102</ele>
<time>2012-05-02T23:48:29Z</time>
<desc>lat.=42.947014, lon.=19.092834, Alt.=1047.204102m. Speed=35.172001m/h.</desc>
<speed>9.770000</speed>
</trkpt>
<trkpt lat="42.947472" lon="19.092684">
<ele>1044.235352</ele>
<time>2012-05-02T23:48:34Z</time>
<desc>lat.=42.947472, lon.=19.092684, Alt.=1044.235352m. Speed=38.484001m/h.</desc>
<speed>10.690000</speed>
</trkpt>
<trkpt lat="42.947891" lon="19.092339">
<ele>1040.235352</ele>
<time>2012-05-02T23:48:39Z</time>
<desc>lat.=42.947891, lon.=19.092339, Alt.=1040.235352m. Speed=41.004002m/h.</desc>
<speed>11.390000</speed>
</trkpt>
<trkpt lat="42.948238" lon="19.091896">
<ele>1036.672852</ele>
<time>2012-05-02T23:48:44Z</time>
<desc>lat.=42.948238, lon.=19.091896, Alt.=1036.672852m. Speed=34.416000m/h.</desc>
<speed>9.560000</speed>
</trkpt>
<trkpt lat="42.948597" lon="19.091591">
<ele>1036.079102</ele>
<time>2012-05-02T23:48:49Z</time>
<desc>lat.=42.948597, lon.=19.091591, Alt.=1036.079102m. Speed=31.139999m/h.</desc>
<speed>8.650000</speed>
</trkpt>
<trkpt lat="42.948818" lon="19.091652">
<ele>1035.047852</ele>
<time>2012-05-02T23:48:54Z</time>
<desc>lat.=42.948818, lon.=19.091652, Alt.=1035.047852m. Speed=17.351999m/h.</desc>
<speed>4.820000</speed>
</trkpt>
<trkpt lat="42.948650" lon="19.091824">
<ele>1035.204102</ele>
<time>2012-05-02T23:48:59Z</time>
<desc>lat.=42.948650, lon.=19.091824, Alt.=1035.204102m. Speed=22.176001m/h.</desc>
<speed>6.160000</speed>
</trkpt>
<trkpt lat="42.948433" lon="19.092066">
<ele>1032.641602</ele>
<time>2012-05-02T23:49:04Z</time>
<desc>lat.=42.948433, lon.=19.092066, Alt.=1032.641602m. Speed=26.028000m/h.</desc>
<speed>7.230000</speed>
</trkpt>
<trkpt lat="42.948254" lon="19.092516">
<ele>1030.516602</ele>
<time>2012-05-02T23:49:09Z</time>
<desc>lat.=42.948254, lon.=19.092516, Alt.=1030.516602m. Speed=32.652000m/h.</desc>
<speed>9.070000</speed>
</trkpt>
<trkpt lat="42.948009" lon="19.093000">
<ele>1028.391602</ele>
<time>2012-05-02T23:49:14Z</time>
<desc>lat.=42.948009, lon.=19.093000, Alt.=1028.391602m. Speed=34.883999m/h.</desc>
<speed>9.690000</speed>
</trkpt>
<trkpt lat="42.947662" lon="19.093462">
<ele>1025.204102</ele>
<time>2012-05-02T23:49:19Z</time>
<desc>lat.=42.947662, lon.=19.093462, Alt.=1025.204102m. Speed=37.799999m/h.</desc>
<speed>10.500000</speed>
</trkpt>
<trkpt lat="42.947262" lon="19.093861">
<ele>1023.070801</ele>
<time>2012-05-02T23:49:24Z</time>
<desc>lat.=42.947262, lon.=19.093861, Alt.=1023.070801m. Speed=39.383999m/h.</desc>
<speed>10.940000</speed>
</trkpt>
<trkpt lat="42.946976" lon="19.094368">
<ele>1018.602051</ele>
<time>2012-05-02T23:49:29Z</time>
<desc>lat.=42.946976, lon.=19.094368, Alt.=1018.602051m. Speed=30.132000m/h.</desc>
<speed>8.370000</speed>
</trkpt>
<trkpt lat="42.946815" lon="19.094734">
<ele>1017.227051</ele>
<time>2012-05-02T23:49:34Z</time>
<desc>lat.=42.946815, lon.=19.094734, Alt.=1017.227051m. Speed=21.996000m/h.</desc>
<speed>6.110000</speed>
</trkpt>
<trkpt lat="42.946968" lon="19.094809">
<ele>1013.773926</ele>
<time>2012-05-02T23:49:39Z</time>
<desc>lat.=42.946968, lon.=19.094809, Alt.=1013.773926m. Speed=17.568001m/h.</desc>
<speed>4.880000</speed>
</trkpt>
<trkpt lat="42.947098" lon="19.094542">
<ele>1010.586426</ele>
<time>2012-05-02T23:49:44Z</time>
<desc>lat.=42.947098, lon.=19.094542, Alt.=1010.586426m. Speed=20.124001m/h.</desc>
<speed>5.590000</speed>
</trkpt>
<trkpt lat="42.947365" lon="19.094437">
<ele>1008.383301</ele>
<time>2012-05-02T23:49:49Z</time>
<desc>lat.=42.947365, lon.=19.094437, Alt.=1008.383301m. Speed=25.200001m/h.</desc>
<speed>7.000000</speed>
</trkpt>
<trkpt lat="42.947708" lon="19.094240">
<ele>1006.914551</ele>
<time>2012-05-02T23:49:54Z</time>
<desc>lat.=42.947708, lon.=19.094240, Alt.=1006.914551m. Speed=34.380001m/h.</desc>
<speed>9.550000</speed>
</trkpt>
<trkpt lat="42.948074" lon="19.093849">
<ele>1004.383301</ele>
<time>2012-05-02T23:49:59Z</time>
<desc>lat.=42.948074, lon.=19.093849, Alt.=1004.383301m. Speed=37.007999m/h.</desc>
<speed>10.280000</speed>
</trkpt>
<trkpt lat="42.948509" lon="19.093655">
<ele>1001.789551</ele>
<time>2012-05-02T23:50:04Z</time>
<desc>lat.=42.948509, lon.=19.093655, Alt.=1001.789551m. Speed=37.007999m/h.</desc>
<speed>10.280000</speed>
</trkpt>
<trkpt lat="42.948929" lon="19.093372">
<ele>1000.352051</ele>
<time>2012-05-02T23:50:09Z</time>
<desc>lat.=42.948929, lon.=19.093372, Alt.=1000.352051m. Speed=37.080002m/h.</desc>
<speed>10.300001</speed>
</trkpt>
<trkpt lat="42.949245" lon="19.093037">
<ele>999.664551</ele>
<time>2012-05-02T23:50:14Z</time>
<desc>lat.=42.949245, lon.=19.093037, Alt.=999.664551m. Speed=26.100000m/h.</desc>
<speed>7.250000</speed>
</trkpt>
<trkpt lat="42.949505" lon="19.092962">
<ele>998.867676</ele>
<time>2012-05-02T23:50:19Z</time>
<desc>lat.=42.949505, lon.=19.092962, Alt.=998.867676m. Speed=17.784000m/h.</desc>
<speed>4.940000</speed>
</trkpt>
<trkpt lat="42.949421" lon="19.093161">
<ele>997.883301</ele>
<time>2012-05-02T23:50:24Z</time>
<desc>lat.=42.949421, lon.=19.093161, Alt.=997.883301m. Speed=19.548000m/h.</desc>
<speed>5.430000</speed>
</trkpt>
<trkpt lat="42.949184" lon="19.093359">
<ele>996.961426</ele>
<time>2012-05-02T23:50:29Z</time>
<desc>lat.=42.949184, lon.=19.093359, Alt.=996.961426m. Speed=25.632000m/h.</desc>
<speed>7.120000</speed>
</trkpt>
<trkpt lat="42.949055" lon="19.093697">
<ele>993.320801</ele>
<time>2012-05-02T23:50:34Z</time>
<desc>lat.=42.949055, lon.=19.093697, Alt.=993.320801m. Speed=25.775999m/h.</desc>
<speed>7.160000</speed>
</trkpt>
<trkpt lat="42.948814" lon="19.094078">
<ele>992.055176</ele>
<time>2012-05-02T23:50:39Z</time>
<desc>lat.=42.948814, lon.=19.094078, Alt.=992.055176m. Speed=30.851999m/h.</desc>
<speed>8.570000</speed>
</trkpt>
<trkpt lat="42.948444" lon="19.094397">
<ele>990.680176</ele>
<time>2012-05-02T23:50:44Z</time>
<desc>lat.=42.948444, lon.=19.094397, Alt.=990.680176m. Speed=36.863998m/h.</desc>
<speed>10.240000</speed>
</trkpt>
<trkpt lat="42.948109" lon="19.094864">
<ele>987.742676</ele>
<time>2012-05-02T23:50:49Z</time>
<desc>lat.=42.948109, lon.=19.094864, Alt.=987.742676m. Speed=36.936001m/h.</desc>
<speed>10.260000</speed>
</trkpt>
<trkpt lat="42.947777" lon="19.095257">
<ele>985.461426</ele>
<time>2012-05-02T23:50:54Z</time>
<desc>lat.=42.947777, lon.=19.095257, Alt.=985.461426m. Speed=25.452000m/h.</desc>
<speed>7.070000</speed>
</trkpt>
<trkpt lat="42.947678" lon="19.095539">
<ele>983.023926</ele>
<time>2012-05-02T23:50:59Z</time>
<desc>lat.=42.947678, lon.=19.095539, Alt.=983.023926m. Speed=17.712000m/h.</desc>
<speed>4.920000</speed>
</trkpt>
<trkpt lat="42.947865" lon="19.095451">
<ele>978.883301</ele>
<time>2012-05-02T23:51:04Z</time>
<desc>lat.=42.947865, lon.=19.095451, Alt.=978.883301m. Speed=21.312000m/h.</desc>
<speed>5.920000</speed>
</trkpt>
<trkpt lat="42.948059" lon="19.095198">
<ele>976.867676</ele>
<time>2012-05-02T23:51:09Z</time>
<desc>lat.=42.948059, lon.=19.095198, Alt.=976.867676m. Speed=23.832001m/h.</desc>
<speed>6.620000</speed>
</trkpt>
<trkpt lat="42.948357" lon="19.095024">
<ele>976.539551</ele>
<time>2012-05-02T23:51:14Z</time>
<desc>lat.=42.948357, lon.=19.095024, Alt.=976.539551m. Speed=28.044001m/h.</desc>
<speed>7.790000</speed>
</trkpt>
<trkpt lat="42.948692" lon="19.094866">
<ele>974.148926</ele>
<time>2012-05-02T23:51:19Z</time>
<desc>lat.=42.948692, lon.=19.094866, Alt.=974.148926m. Speed=29.340000m/h.</desc>
<speed>8.150000</speed>
</trkpt>
<trkpt lat="42.949055" lon="19.095060">
<ele>969.773926</ele>
<time>2012-05-02T23:51:24Z</time>
<desc>lat.=42.949055, lon.=19.095060, Alt.=969.773926m. Speed=30.851999m/h.</desc>
<speed>8.570000</speed>
</trkpt>
<trkpt lat="42.949345" lon="19.094986">
<ele>967.539551</ele>
<time>2012-05-02T23:51:29Z</time>
<desc>lat.=42.949345, lon.=19.094986, Alt.=967.539551m. Speed=19.224001m/h.</desc>
<speed>5.340000</speed>
</trkpt>
<trkpt lat="42.949497" lon="19.095041">
<ele>967.117676</ele>
<time>2012-05-02T23:51:34Z</time>
<desc>lat.=42.949497, lon.=19.095041, Alt.=967.117676m. Speed=19.548000m/h.</desc>
<speed>5.430000</speed>
</trkpt>
<trkpt lat="42.949326" lon="19.095251">
<ele>965.539551</ele>
<time>2012-05-02T23:51:39Z</time>
<desc>lat.=42.949326, lon.=19.095251, Alt.=965.539551m. Speed=23.400000m/h.</desc>
<speed>6.500000</speed>
</trkpt>
<trkpt lat="42.949039" lon="19.095343">
<ele>963.867676</ele>
<time>2012-05-02T23:51:44Z</time>
<desc>lat.=42.949039, lon.=19.095343, Alt.=963.867676m. Speed=24.372000m/h.</desc>
<speed>6.770000</speed>
</trkpt>
<trkpt lat="42.948734" lon="19.095350">
<ele>962.227051</ele>
<time>2012-05-02T23:51:49Z</time>
<desc>lat.=42.948734, lon.=19.095350, Alt.=962.227051m. Speed=24.624001m/h.</desc>
<speed>6.840000</speed>
</trkpt>
<trkpt lat="42.948467" lon="19.095598">
<ele>960.336426</ele>
<time>2012-05-02T23:51:54Z</time>
<desc>lat.=42.948467, lon.=19.095598, Alt.=960.336426m. Speed=29.520000m/h.</desc>
<speed>8.200000</speed>
</trkpt>
<trkpt lat="42.948193" lon="19.096003">
<ele>957.398926</ele>
<time>2012-05-02T23:51:59Z</time>
<desc>lat.=42.948193, lon.=19.096003, Alt.=957.398926m. Speed=35.063999m/h.</desc>
<speed>9.740000</speed>
</trkpt>
<trkpt lat="42.947941" lon="19.096493">
<ele>955.680176</ele>
<time>2012-05-02T23:52:04Z</time>
<desc>lat.=42.947941, lon.=19.096493, Alt.=955.680176m. Speed=36.467999m/h.</desc>
<speed>10.130000</speed>
</trkpt>
<trkpt lat="42.947693" lon="19.097048">
<ele>953.898926</ele>
<time>2012-05-02T23:52:09Z</time>
<desc>lat.=42.947693, lon.=19.097048, Alt.=953.898926m. Speed=39.959999m/h.</desc>
<speed>11.100000</speed>
</trkpt>
<trkpt lat="42.947475" lon="19.097496">
<ele>951.445801</ele>
<time>2012-05-02T23:52:14Z</time>
<desc>lat.=42.947475, lon.=19.097496, Alt.=951.445801m. Speed=30.275999m/h.</desc>
<speed>8.410000</speed>
</trkpt>
<trkpt lat="42.947414" lon="19.098127">
<ele>946.648926</ele>
<time>2012-05-02T23:52:19Z</time>
<desc>lat.=42.947414, lon.=19.098127, Alt.=946.648926m. Speed=33.695999m/h.</desc>
<speed>9.360000</speed>
</trkpt>
<trkpt lat="42.947281" lon="19.098700">
<ele>943.789551</ele>
<time>2012-05-02T23:52:24Z</time>
<desc>lat.=42.947281, lon.=19.098700, Alt.=943.789551m. Speed=33.551998m/h.</desc>
<speed>9.319999</speed>
</trkpt>
<trkpt lat="42.947277" lon="19.099360">
<ele>938.305176</ele>
<time>2012-05-02T23:52:29Z</time>
<desc>lat.=42.947277, lon.=19.099360, Alt.=938.305176m. Speed=31.139999m/h.</desc>
<speed>8.650000</speed>
</trkpt>
<trkpt lat="42.947250" lon="19.099810">
<ele>936.570801</ele>
<time>2012-05-02T23:52:34Z</time>
<desc>lat.=42.947250, lon.=19.099810, Alt.=936.570801m. Speed=18.468000m/h.</desc>
<speed>5.130000</speed>
</trkpt>
<trkpt lat="42.947372" lon="19.099936">
<ele>934.289551</ele>
<time>2012-05-02T23:52:39Z</time>
<desc>lat.=42.947372, lon.=19.099936, Alt.=934.289551m. Speed=17.604000m/h.</desc>
<speed>4.890000</speed>
</trkpt>
<trkpt lat="42.947403" lon="19.099663">
<ele>931.430176</ele>
<time>2012-05-02T23:52:44Z</time>
<desc>lat.=42.947403, lon.=19.099663, Alt.=931.430176m. Speed=20.844000m/h.</desc>
<speed>5.790000</speed>
</trkpt>
<trkpt lat="42.947430" lon="19.099308">
<ele>928.820801</ele>
<time>2012-05-02T23:52:49Z</time>
<desc>lat.=42.947430, lon.=19.099308, Alt.=928.820801m. Speed=22.032000m/h.</desc>
<speed>6.120000</speed>
</trkpt>
<trkpt lat="42.947628" lon="19.099010">
<ele>928.883301</ele>
<time>2012-05-02T23:52:54Z</time>
<desc>lat.=42.947628, lon.=19.099010, Alt.=928.883301m. Speed=25.992001m/h.</desc>
<speed>7.220000</speed>
</trkpt>
<trkpt lat="42.947918" lon="19.098671">
<ele>926.555176</ele>
<time>2012-05-02T23:52:59Z</time>
<desc>lat.=42.947918, lon.=19.098671, Alt.=926.555176m. Speed=33.408001m/h.</desc>
<speed>9.280000</speed>
</trkpt>
<trkpt lat="42.948208" lon="19.098251">
<ele>924.727051</ele>
<time>2012-05-02T23:53:04Z</time>
<desc>lat.=42.948208, lon.=19.098251, Alt.=924.727051m. Speed=33.911999m/h.</desc>
<speed>9.420000</speed>
</trkpt>
<trkpt lat="42.948322" lon="19.097719">
<ele>922.008301</ele>
<time>2012-05-02T23:53:09Z</time>
<desc>lat.=42.948322, lon.=19.097719, Alt.=922.008301m. Speed=30.024000m/h.</desc>
<speed>8.340000</speed>
</trkpt>
<trkpt lat="42.948597" lon="19.097342">
<ele>919.711426</ele>
<time>2012-05-02T23:53:14Z</time>
<desc>lat.=42.948597, lon.=19.097342, Alt.=919.711426m. Speed=33.048000m/h.</desc>
<speed>9.180000</speed>
</trkpt>
<trkpt lat="42.949017" lon="19.097168">
<ele>918.523926</ele>
<time>2012-05-02T23:53:19Z</time>
<desc>lat.=42.949017, lon.=19.097168, Alt.=918.523926m. Speed=36.647999m/h.</desc>
<speed>10.180000</speed>
</trkpt>
<trkpt lat="42.949478" lon="19.097185">
<ele>917.133301</ele>
<time>2012-05-02T23:53:24Z</time>
<desc>lat.=42.949478, lon.=19.097185, Alt.=917.133301m. Speed=38.268002m/h.</desc>
<speed>10.630000</speed>
</trkpt>
<trkpt lat="42.949936" lon="19.097124">
<ele>916.555176</ele>
<time>2012-05-02T23:53:29Z</time>
<desc>lat.=42.949936, lon.=19.097124, Alt.=916.555176m. Speed=31.247999m/h.</desc>
<speed>8.680000</speed>
</trkpt>
<trkpt lat="42.950283" lon="19.096947">
<ele>921.242676</ele>
<time>2012-05-02T23:53:34Z</time>
<desc>lat.=42.950283, lon.=19.096947, Alt.=921.242676m. Speed=27.360001m/h.</desc>
<speed>7.600000</speed>
</trkpt>
<trkpt lat="42.950737" lon="19.096802">
<ele>923.242676</ele>
<time>2012-05-02T23:53:39Z</time>
<desc>lat.=42.950737, lon.=19.096802, Alt.=923.242676m. Speed=28.476000m/h.</desc>
<speed>7.910000</speed>
</trkpt>
<trkpt lat="42.950932" lon="19.096384">
<ele>909.414551</ele>
<time>2012-05-02T23:53:44Z</time>
<desc>lat.=42.950932, lon.=19.096384, Alt.=909.414551m. Speed=28.080000m/h.</desc>
<speed>7.800000</speed>
</trkpt>
<trkpt lat="42.951134" lon="19.096020">
<ele>905.133301</ele>
<time>2012-05-02T23:53:49Z</time>
<desc>lat.=42.951134, lon.=19.096020, Alt.=905.133301m. Speed=25.848000m/h.</desc>
<speed>7.180000</speed>
</trkpt>
<trkpt lat="42.951412" lon="19.095913">
<ele>905.117676</ele>
<time>2012-05-02T23:53:54Z</time>
<desc>lat.=42.951412, lon.=19.095913, Alt.=905.117676m. Speed=21.492001m/h.</desc>
<speed>5.970000</speed>
</trkpt>
<trkpt lat="42.951721" lon="19.095659">
<ele>904.445801</ele>
<time>2012-05-02T23:53:59Z</time>
<desc>lat.=42.951721, lon.=19.095659, Alt.=904.445801m. Speed=32.363998m/h.</desc>
<speed>8.990000</speed>
</trkpt>
<trkpt lat="42.952015" lon="19.095236">
<ele>902.305176</ele>
<time>2012-05-02T23:54:04Z</time>
<desc>lat.=42.952015, lon.=19.095236, Alt.=902.305176m. Speed=36.035999m/h.</desc>
<speed>10.010000</speed>
</trkpt>
<trkpt lat="42.952003" lon="19.094658">
<ele>899.227051</ele>
<time>2012-05-02T23:54:09Z</time>
<desc>lat.=42.952003, lon.=19.094658, Alt.=899.227051m. Speed=28.440001m/h.</desc>
<speed>7.900000</speed>
</trkpt>
<trkpt lat="42.952000" lon="19.094290">
<ele>897.492676</ele>
<time>2012-05-02T23:54:14Z</time>
<desc>lat.=42.952000, lon.=19.094290, Alt.=897.492676m. Speed=20.016001m/h.</desc>
<speed>5.560000</speed>
</trkpt>
<trkpt lat="42.952175" lon="19.094362">
<ele>895.180176</ele>
<time>2012-05-02T23:54:19Z</time>
<desc>lat.=42.952175, lon.=19.094362, Alt.=895.180176m. Speed=19.224001m/h.</desc>
<speed>5.340000</speed>
</trkpt>
<trkpt lat="42.952232" lon="19.094763">
<ele>892.836426</ele>
<time>2012-05-02T23:54:24Z</time>
<desc>lat.=42.952232, lon.=19.094763, Alt.=892.836426m. Speed=27.540001m/h.</desc>
<speed>7.650000</speed>
</trkpt>
<trkpt lat="42.952385" lon="19.095230">
<ele>890.164551</ele>
<time>2012-05-02T23:54:29Z</time>
<desc>lat.=42.952385, lon.=19.095230, Alt.=890.164551m. Speed=32.220001m/h.</desc>
<speed>8.950000</speed>
</trkpt>
<trkpt lat="42.952412" lon="19.095734">
<ele>887.883301</ele>
<time>2012-05-02T23:54:34Z</time>
<desc>lat.=42.952412, lon.=19.095734, Alt.=887.883301m. Speed=27.972000m/h.</desc>
<speed>7.770000</speed>
</trkpt>
<trkpt lat="42.952175" lon="19.096157">
<ele>884.508301</ele>
<time>2012-05-02T23:54:39Z</time>
<desc>lat.=42.952175, lon.=19.096157, Alt.=884.508301m. Speed=32.580002m/h.</desc>
<speed>9.050001</speed>
</trkpt>
<trkpt lat="42.951912" lon="19.096611">
<ele>882.648926</ele>
<time>2012-05-02T23:54:44Z</time>
<desc>lat.=42.951912, lon.=19.096611, Alt.=882.648926m. Speed=35.063999m/h.</desc>
<speed>9.740000</speed>
</trkpt>
<trkpt lat="42.951721" lon="19.097168">
<ele>879.711426</ele>
<time>2012-05-02T23:54:49Z</time>
<desc>lat.=42.951721, lon.=19.097168, Alt.=879.711426m. Speed=37.152000m/h.</desc>
<speed>10.320000</speed>
</trkpt>
<trkpt lat="42.951630" lon="19.097809">
<ele>876.852051</ele>
<time>2012-05-02T23:54:54Z</time>
<desc>lat.=42.951630, lon.=19.097809, Alt.=876.852051m. Speed=37.619999m/h.</desc>
<speed>10.450000</speed>
</trkpt>
<trkpt lat="42.951366" lon="19.098230">
<ele>874.180176</ele>
<time>2012-05-02T23:54:59Z</time>
<desc>lat.=42.951366, lon.=19.098230, Alt.=874.180176m. Speed=30.959999m/h.</desc>
<speed>8.600000</speed>
</trkpt>
<trkpt lat="42.951042" lon="19.098488">
<ele>870.680176</ele>
<time>2012-05-02T23:55:04Z</time>
<desc>lat.=42.951042, lon.=19.098488, Alt.=870.680176m. Speed=29.879999m/h.</desc>
<speed>8.300000</speed>
</trkpt>
<trkpt lat="42.950809" lon="19.098871">
<ele>868.133301</ele>
<time>2012-05-02T23:55:09Z</time>
<desc>lat.=42.950809, lon.=19.098871, Alt.=868.133301m. Speed=28.260000m/h.</desc>
<speed>7.850000</speed>
</trkpt>
<trkpt lat="42.950527" lon="19.099146">
<ele>865.648926</ele>
<time>2012-05-02T23:55:14Z</time>
<desc>lat.=42.950527, lon.=19.099146, Alt.=865.648926m. Speed=26.964001m/h.</desc>
<speed>7.490000</speed>
</trkpt>
<trkpt lat="42.950191" lon="19.099190">
<ele>863.008301</ele>
<time>2012-05-02T23:55:19Z</time>
<desc>lat.=42.950191, lon.=19.099190, Alt.=863.008301m. Speed=26.568001m/h.</desc>
<speed>7.380000</speed>
</trkpt>
<trkpt lat="42.949913" lon="19.099363">
<ele>860.789551</ele>
<time>2012-05-02T23:55:24Z</time>
<desc>lat.=42.949913, lon.=19.099363, Alt.=860.789551m. Speed=23.436001m/h.</desc>
<speed>6.510000</speed>
</trkpt>
<trkpt lat="42.949917" lon="19.099733">
<ele>858.961426</ele>
<time>2012-05-02T23:55:29Z</time>
<desc>lat.=42.949917, lon.=19.099733, Alt.=858.961426m. Speed=26.927999m/h.</desc>
<speed>7.480000</speed>
</trkpt>
<trkpt lat="42.950245" lon="19.099964">
<ele>858.242676</ele>
<time>2012-05-02T23:55:34Z</time>
<desc>lat.=42.950245, lon.=19.099964, Alt.=858.242676m. Speed=36.216000m/h.</desc>
<speed>10.060000</speed>
</trkpt>
<trkpt lat="42.950672" lon="19.099890">
<ele>857.008301</ele>
<time>2012-05-02T23:55:39Z</time>
<desc>lat.=42.950672, lon.=19.099890, Alt.=857.008301m. Speed=38.304001m/h.</desc>
<speed>10.640000</speed>
</trkpt>
<trkpt lat="42.951145" lon="19.099546">
<ele>856.633301</ele>
<time>2012-05-02T23:55:44Z</time>
<desc>lat.=42.951145, lon.=19.099546, Alt.=856.633301m. Speed=42.660000m/h.</desc>
<speed>11.850000</speed>
</trkpt>
<trkpt lat="42.951679" lon="19.099247">
<ele>857.555176</ele>
<time>2012-05-02T23:55:49Z</time>
<desc>lat.=42.951679, lon.=19.099247, Alt.=857.555176m. Speed=47.591999m/h.</desc>
<speed>13.220000</speed>
</trkpt>
<trkpt lat="42.952183" lon="19.098925">
<ele>860.148926</ele>
<time>2012-05-02T23:55:54Z</time>
<desc>lat.=42.952183, lon.=19.098925, Alt.=860.148926m. Speed=41.292000m/h.</desc>
<speed>11.470000</speed>
</trkpt>
<trkpt lat="42.952557" lon="19.098497">
<ele>858.711426</ele>
<time>2012-05-02T23:55:59Z</time>
<desc>lat.=42.952557, lon.=19.098497, Alt.=858.711426m. Speed=36.576000m/h.</desc>
<speed>10.160000</speed>
</trkpt>
<trkpt lat="42.952965" lon="19.098217">
<ele>857.305176</ele>
<time>2012-05-02T23:56:04Z</time>
<desc>lat.=42.952965, lon.=19.098217, Alt.=857.305176m. Speed=37.043999m/h.</desc>
<speed>10.290000</speed>
</trkpt>
<trkpt lat="42.953354" lon="19.097954">
<ele>857.805176</ele>
<time>2012-05-02T23:56:09Z</time>
<desc>lat.=42.953354, lon.=19.097954, Alt.=857.805176m. Speed=33.515999m/h.</desc>
<speed>9.310000</speed>
</trkpt>
<trkpt lat="42.953781" lon="19.098061">
<ele>855.148926</ele>
<time>2012-05-02T23:56:14Z</time>
<desc>lat.=42.953781, lon.=19.098061, Alt.=855.148926m. Speed=36.396000m/h.</desc>
<speed>10.110000</speed>
</trkpt>
<trkpt lat="42.954243" lon="19.097973">
<ele>852.164551</ele>
<time>2012-05-02T23:56:19Z</time>
<desc>lat.=42.954243, lon.=19.097973, Alt.=852.164551m. Speed=37.368000m/h.</desc>
<speed>10.380000</speed>
</trkpt>
<trkpt lat="42.954685" lon="19.097769">
<ele>850.289551</ele>
<time>2012-05-02T23:56:24Z</time>
<desc>lat.=42.954685, lon.=19.097769, Alt.=850.289551m. Speed=36.936001m/h.</desc>
<speed>10.260000</speed>
</trkpt>
<trkpt lat="42.955090" lon="19.097488">
<ele>849.258301</ele>
<time>2012-05-02T23:56:29Z</time>
<desc>lat.=42.955090, lon.=19.097488, Alt.=849.258301m. Speed=35.208000m/h.</desc>
<speed>9.780000</speed>
</trkpt>
<trkpt lat="42.955482" lon="19.097239">
<ele>850.336426</ele>
<time>2012-05-02T23:56:34Z</time>
<desc>lat.=42.955482, lon.=19.097239, Alt.=850.336426m. Speed=34.812000m/h.</desc>
<speed>9.670000</speed>
</trkpt>
<trkpt lat="42.955856" lon="19.096905">
<ele>848.633301</ele>
<time>2012-05-02T23:56:39Z</time>
<desc>lat.=42.955856, lon.=19.096905, Alt.=848.633301m. Speed=36.396000m/h.</desc>
<speed>10.110000</speed>
</trkpt>
<trkpt lat="42.956234" lon="19.096531">
<ele>848.648926</ele>
<time>2012-05-02T23:56:44Z</time>
<desc>lat.=42.956234, lon.=19.096531, Alt.=848.648926m. Speed=37.116001m/h.</desc>
<speed>10.310000</speed>
</trkpt>
<trkpt lat="42.956619" lon="19.096163">
<ele>848.977051</ele>
<time>2012-05-02T23:56:49Z</time>
<desc>lat.=42.956619, lon.=19.096163, Alt.=848.977051m. Speed=35.604000m/h.</desc>
<speed>9.890000</speed>
</trkpt>
<trkpt lat="42.957008" lon="19.096121">
<ele>849.820801</ele>
<time>2012-05-02T23:56:54Z</time>
<desc>lat.=42.957008, lon.=19.096121, Alt.=849.820801m. Speed=31.752001m/h.</desc>
<speed>8.820000</speed>
</trkpt>
<trkpt lat="42.957256" lon="19.096460">
<ele>849.727051</ele>
<time>2012-05-02T23:56:59Z</time>
<desc>lat.=42.957256, lon.=19.096460, Alt.=849.727051m. Speed=23.724001m/h.</desc>
<speed>6.590000</speed>
</trkpt>
<trkpt lat="42.957466" lon="19.096603">
<ele>849.711426</ele>
<time>2012-05-02T23:57:04Z</time>
<desc>lat.=42.957466, lon.=19.096603, Alt.=849.711426m. Speed=23.076000m/h.</desc>
<speed>6.410000</speed>
</trkpt>
<trkpt lat="42.957710" lon="19.096378">
<ele>850.195801</ele>
<time>2012-05-02T23:57:09Z</time>
<desc>lat.=42.957710, lon.=19.096378, Alt.=850.195801m. Speed=23.652000m/h.</desc>
<speed>6.570000</speed>
</trkpt>
<trkpt lat="42.957695" lon="19.095863">
<ele>850.055176</ele>
<time>2012-05-02T23:57:14Z</time>
<desc>lat.=42.957695, lon.=19.095863, Alt.=850.055176m. Speed=34.127998m/h.</desc>
<speed>9.480000</speed>
</trkpt>
<trkpt lat="42.957687" lon="19.095341">
<ele>850.680176</ele>
<time>2012-05-02T23:57:19Z</time>
<desc>lat.=42.957687, lon.=19.095341, Alt.=850.680176m. Speed=26.351999m/h.</desc>
<speed>7.320000</speed>
</trkpt>
<trkpt lat="42.957802" lon="19.094988">
<ele>850.570801</ele>
<time>2012-05-02T23:57:24Z</time>
<desc>lat.=42.957802, lon.=19.094988, Alt.=850.570801m. Speed=25.955999m/h.</desc>
<speed>7.210000</speed>
</trkpt>
<trkpt lat="42.958176" lon="19.094749">
<ele>852.336426</ele>
<time>2012-05-02T23:57:29Z</time>
<desc>lat.=42.958176, lon.=19.094749, Alt.=852.336426m. Speed=37.223999m/h.</desc>
<speed>10.340000</speed>
</trkpt>
<trkpt lat="42.958588" lon="19.094479">
<ele>854.680176</ele>
<time>2012-05-02T23:57:34Z</time>
<desc>lat.=42.958588, lon.=19.094479, Alt.=854.680176m. Speed=35.928001m/h.</desc>
<speed>9.980000</speed>
</trkpt>
<trkpt lat="42.958961" lon="19.094185">
<ele>857.758301</ele>
<time>2012-05-02T23:57:39Z</time>
<desc>lat.=42.958961, lon.=19.094185, Alt.=857.758301m. Speed=35.099998m/h.</desc>
<speed>9.750000</speed>
</trkpt>
<trkpt lat="42.959370" lon="19.093847">
<ele>859.539551</ele>
<time>2012-05-02T23:57:44Z</time>
<desc>lat.=42.959370, lon.=19.093847, Alt.=859.539551m. Speed=39.888000m/h.</desc>
<speed>11.080000</speed>
</trkpt>
<trkpt lat="42.959827" lon="19.093515">
<ele>860.461426</ele>
<time>2012-05-02T23:57:49Z</time>
<desc>lat.=42.959827, lon.=19.093515, Alt.=860.461426m. Speed=45.216000m/h.</desc>
<speed>12.560000</speed>
</trkpt>
<trkpt lat="42.960411" lon="19.093332">
<ele>861.945801</ele>
<time>2012-05-02T23:57:54Z</time>
<desc>lat.=42.960411, lon.=19.093332, Alt.=861.945801m. Speed=51.084000m/h.</desc>
<speed>14.190000</speed>
</trkpt>
<trkpt lat="42.961063" lon="19.093254">
<ele>864.133301</ele>
<time>2012-05-02T23:57:59Z</time>
<desc>lat.=42.961063, lon.=19.093254, Alt.=864.133301m. Speed=52.703999m/h.</desc>
<speed>14.640000</speed>
</trkpt>
<trkpt lat="42.961697" lon="19.092957">
<ele>865.523926</ele>
<time>2012-05-02T23:58:04Z</time>
<desc>lat.=42.961697, lon.=19.092957, Alt.=865.523926m. Speed=52.380001m/h.</desc>
<speed>14.550000</speed>
</trkpt>
<trkpt lat="42.962193" lon="19.092337">
<ele>867.117676</ele>
<time>2012-05-02T23:58:09Z</time>
<desc>lat.=42.962193, lon.=19.092337, Alt.=867.117676m. Speed=55.188000m/h.</desc>
<speed>15.330000</speed>
</trkpt>
<trkpt lat="42.962708" lon="19.091730">
<ele>871.430176</ele>
<time>2012-05-02T23:58:14Z</time>
<desc>lat.=42.962708, lon.=19.091730, Alt.=871.430176m. Speed=53.063999m/h.</desc>
<speed>14.740000</speed>
</trkpt>
<trkpt lat="42.963352" lon="19.091404">
<ele>875.148926</ele>
<time>2012-05-02T23:58:19Z</time>
<desc>lat.=42.963352, lon.=19.091404, Alt.=875.148926m. Speed=55.259998m/h.</desc>
<speed>15.350000</speed>
</trkpt>
<trkpt lat="42.963982" lon="19.091059">
<ele>880.164551</ele>
<time>2012-05-02T23:58:24Z</time>
<desc>lat.=42.963982, lon.=19.091059, Alt.=880.164551m. Speed=56.448002m/h.</desc>
<speed>15.680001</speed>
</trkpt>
<trkpt lat="42.964573" lon="19.090450">
<ele>884.836426</ele>
<time>2012-05-02T23:58:29Z</time>
<desc>lat.=42.964573, lon.=19.090450, Alt.=884.836426m. Speed=61.883999m/h.</desc>
<speed>17.190000</speed>
</trkpt>
<trkpt lat="42.965202" lon="19.089867">
<ele>888.445801</ele>
<time>2012-05-02T23:58:34Z</time>
<desc>lat.=42.965202, lon.=19.089867, Alt.=888.445801m. Speed=60.624001m/h.</desc>
<speed>16.840000</speed>
</trkpt>
<trkpt lat="42.965965" lon="19.089621">
<ele>893.148926</ele>
<time>2012-05-02T23:58:39Z</time>
<desc>lat.=42.965965, lon.=19.089621, Alt.=893.148926m. Speed=65.267998m/h.</desc>
<speed>18.129999</speed>
</trkpt>
<trkpt lat="42.966774" lon="19.089523">
<ele>895.992676</ele>
<time>2012-05-02T23:58:44Z</time>
<desc>lat.=42.966774, lon.=19.089523, Alt.=895.992676m. Speed=65.015999m/h.</desc>
<speed>18.060000</speed>
</trkpt>
<trkpt lat="42.967567" lon="19.089205">
<ele>901.648926</ele>
<time>2012-05-02T23:58:49Z</time>
<desc>lat.=42.967567, lon.=19.089205, Alt.=901.648926m. Speed=66.491997m/h.</desc>
<speed>18.469999</speed>
</trkpt>
<trkpt lat="42.968300" lon="19.088610">
<ele>905.945801</ele>
<time>2012-05-02T23:58:54Z</time>
<desc>lat.=42.968300, lon.=19.088610, Alt.=905.945801m. Speed=66.816002m/h.</desc>
<speed>18.560001</speed>
</trkpt>
<trkpt lat="42.968941" lon="19.087942">
<ele>910.148926</ele>
<time>2012-05-02T23:58:59Z</time>
<desc>lat.=42.968941, lon.=19.087942, Alt.=910.148926m. Speed=64.475998m/h.</desc>
<speed>17.909999</speed>
</trkpt>
<trkpt lat="42.969570" lon="19.087261">
<ele>913.727051</ele>
<time>2012-05-02T23:59:04Z</time>
<desc>lat.=42.969570, lon.=19.087261, Alt.=913.727051m. Speed=65.267998m/h.</desc>
<speed>18.129999</speed>
</trkpt>
<trkpt lat="42.970203" lon="19.086580">
<ele>918.461426</ele>
<time>2012-05-02T23:59:09Z</time>
<desc>lat.=42.970203, lon.=19.086580, Alt.=918.461426m. Speed=62.063999m/h.</desc>
<speed>17.240000</speed>
</trkpt>
<trkpt lat="42.970894" lon="19.086077">
<ele>923.570801</ele>
<time>2012-05-02T23:59:14Z</time>
<desc>lat.=42.970894, lon.=19.086077, Alt.=923.570801m. Speed=62.459999m/h.</desc>
<speed>17.350000</speed>
</trkpt>
<trkpt lat="42.971672" lon="19.085833">
<ele>928.352051</ele>
<time>2012-05-02T23:59:19Z</time>
<desc>lat.=42.971672, lon.=19.085833, Alt.=928.352051m. Speed=64.188004m/h.</desc>
<speed>17.830001</speed>
</trkpt>
<trkpt lat="42.972450" lon="19.085590">
<ele>933.617676</ele>
<time>2012-05-02T23:59:24Z</time>
<desc>lat.=42.972450, lon.=19.085590, Alt.=933.617676m. Speed=59.976002m/h.</desc>
<speed>16.660000</speed>
</trkpt>
<trkpt lat="42.973076" lon="19.085196">
<ele>938.133301</ele>
<time>2012-05-02T23:59:29Z</time>
<desc>lat.=42.973076, lon.=19.085196, Alt.=938.133301m. Speed=54.180000m/h.</desc>
<speed>15.050000</speed>
</trkpt>
<trkpt lat="42.973709" lon="19.084688">
<ele>942.680176</ele>
<time>2012-05-02T23:59:34Z</time>
<desc>lat.=42.973709, lon.=19.084688, Alt.=942.680176m. Speed=61.740002m/h.</desc>
<speed>17.150000</speed>
</trkpt>
<trkpt lat="42.974457" lon="19.084232">
<ele>949.523926</ele>
<time>2012-05-02T23:59:39Z</time>
<desc>lat.=42.974457, lon.=19.084232, Alt.=949.523926m. Speed=65.339996m/h.</desc>
<speed>18.149999</speed>
</trkpt>
<trkpt lat="42.975174" lon="19.083891">
<ele>955.086426</ele>
<time>2012-05-02T23:59:44Z</time>
<desc>lat.=42.975174, lon.=19.083891, Alt.=955.086426m. Speed=56.916000m/h.</desc>
<speed>15.810000</speed>
</trkpt>
<trkpt lat="42.975834" lon="19.083836">
<ele>959.070801</ele>
<time>2012-05-02T23:59:49Z</time>
<desc>lat.=42.975834, lon.=19.083836, Alt.=959.070801m. Speed=52.667999m/h.</desc>
<speed>14.630000</speed>
</trkpt>
<trkpt lat="42.976475" lon="19.083864">
<ele>962.523926</ele>
<time>2012-05-02T23:59:54Z</time>
<desc>lat.=42.976475, lon.=19.083864, Alt.=962.523926m. Speed=48.132000m/h.</desc>
<speed>13.370000</speed>
</trkpt>
<trkpt lat="42.977062" lon="19.083729">
<ele>966.008301</ele>
<time>2012-05-02T23:59:59Z</time>
<desc>lat.=42.977062, lon.=19.083729, Alt.=966.008301m. Speed=52.236000m/h.</desc>
<speed>14.510000</speed>
</trkpt>
<trkpt lat="42.977722" lon="19.083458">
<ele>971.070801</ele>
<time>2012-05-03T00:00:04Z</time>
<desc>lat.=42.977722, lon.=19.083458, Alt.=971.070801m. Speed=57.528000m/h.</desc>
<speed>15.980000</speed>
</trkpt>
<trkpt lat="42.978416" lon="19.083166">
<ele>976.930176</ele>
<time>2012-05-03T00:00:09Z</time>
<desc>lat.=42.978416, lon.=19.083166, Alt.=976.930176m. Speed=58.860001m/h.</desc>
<speed>16.350000</speed>
</trkpt>
<trkpt lat="42.979115" lon="19.082844">
<ele>982.117676</ele>
<time>2012-05-03T00:00:14Z</time>
<desc>lat.=42.979115, lon.=19.082844, Alt.=982.117676m. Speed=55.944000m/h.</desc>
<speed>15.540000</speed>
</trkpt>
<trkpt lat="42.979656" lon="19.082384">
<ele>986.695801</ele>
<time>2012-05-03T00:00:19Z</time>
<desc>lat.=42.979656, lon.=19.082384, Alt.=986.695801m. Speed=50.507999m/h.</desc>
<speed>14.030000</speed>
</trkpt>
<trkpt lat="42.980049" lon="19.081696">
<ele>992.695801</ele>
<time>2012-05-03T00:00:24Z</time>
<desc>lat.=42.980049, lon.=19.081696, Alt.=992.695801m. Speed=53.820000m/h.</desc>
<speed>14.950000</speed>
</trkpt>
<trkpt lat="42.980247" lon="19.080807">
<ele>997.195801</ele>
<time>2012-05-03T00:00:29Z</time>
<desc>lat.=42.980247, lon.=19.080807, Alt.=997.195801m. Speed=55.439999m/h.</desc>
<speed>15.400000</speed>
</trkpt>
<trkpt lat="42.980202" lon="19.079844">
<ele>1000.492676</ele>
<time>2012-05-03T00:00:34Z</time>
<desc>lat.=42.980202, lon.=19.079844, Alt.=1000.492676m. Speed=57.419998m/h.</desc>
<speed>15.949999</speed>
</trkpt>
<trkpt lat="42.980068" lon="19.078901">
<ele>1003.695801</ele>
<time>2012-05-03T00:00:39Z</time>
<desc>lat.=42.980068, lon.=19.078901, Alt.=1003.695801m. Speed=56.340000m/h.</desc>
<speed>15.650000</speed>
</trkpt>
<trkpt lat="42.979958" lon="19.077929">
<ele>1006.273926</ele>
<time>2012-05-03T00:00:44Z</time>
<desc>lat.=42.979958, lon.=19.077929, Alt.=1006.273926m. Speed=56.015999m/h.</desc>
<speed>15.560000</speed>
</trkpt>
<trkpt lat="42.980038" lon="19.076958">
<ele>1010.055176</ele>
<time>2012-05-03T00:00:49Z</time>
<desc>lat.=42.980038, lon.=19.076958, Alt.=1010.055176m. Speed=60.840000m/h.</desc>
<speed>16.900000</speed>
</trkpt>
<trkpt lat="42.980385" lon="19.076067">
<ele>1014.914551</ele>
<time>2012-05-03T00:00:54Z</time>
<desc>lat.=42.980385, lon.=19.076067, Alt.=1014.914551m. Speed=58.644001m/h.</desc>
<speed>16.290000</speed>
</trkpt>
<trkpt lat="42.980938" lon="19.075420">
<ele>1020.695801</ele>
<time>2012-05-03T00:00:59Z</time>
<desc>lat.=42.980938, lon.=19.075420, Alt.=1020.695801m. Speed=59.436001m/h.</desc>
<speed>16.510000</speed>
</trkpt>
<trkpt lat="42.981609" lon="19.074932">
<ele>1026.329102</ele>
<time>2012-05-03T00:01:04Z</time>
<desc>lat.=42.981609, lon.=19.074932, Alt.=1026.329102m. Speed=61.776001m/h.</desc>
<speed>17.160000</speed>
</trkpt>
<trkpt lat="42.982304" lon="19.074450">
<ele>1030.422852</ele>
<time>2012-05-03T00:01:09Z</time>
<desc>lat.=42.982304, lon.=19.074450, Alt.=1030.422852m. Speed=61.992001m/h.</desc>
<speed>17.220000</speed>
</trkpt>
<trkpt lat="42.982990" lon="19.073969">
<ele>1035.266602</ele>
<time>2012-05-03T00:01:14Z</time>
<desc>lat.=42.982990, lon.=19.073969, Alt.=1035.266602m. Speed=61.344002m/h.</desc>
<speed>17.040000</speed>
</trkpt>
<trkpt lat="42.983688" lon="19.073515">
<ele>1039.735352</ele>
<time>2012-05-03T00:01:19Z</time>
<desc>lat.=42.983688, lon.=19.073515, Alt.=1039.735352m. Speed=61.020000m/h.</desc>
<speed>16.950000</speed>
</trkpt>
<trkpt lat="42.984398" lon="19.073141">
<ele>1043.922852</ele>
<time>2012-05-03T00:01:24Z</time>
<desc>lat.=42.984398, lon.=19.073141, Alt.=1043.922852m. Speed=56.916000m/h.</desc>
<speed>15.810000</speed>
</trkpt>
<trkpt lat="42.985008" lon="19.072792">
<ele>1047.985352</ele>
<time>2012-05-03T00:01:29Z</time>
<desc>lat.=42.985008, lon.=19.072792, Alt.=1047.985352m. Speed=50.796001m/h.</desc>
<speed>14.110000</speed>
</trkpt>
<trkpt lat="42.985558" lon="19.072254">
<ele>1051.360352</ele>
<time>2012-05-03T00:01:34Z</time>
<desc>lat.=42.985558, lon.=19.072254, Alt.=1051.360352m. Speed=56.375999m/h.</desc>
<speed>15.660000</speed>
</trkpt>
<trkpt lat="42.986053" lon="19.071621">
<ele>1055.485352</ele>
<time>2012-05-03T00:01:39Z</time>
<desc>lat.=42.986053, lon.=19.071621, Alt.=1055.485352m. Speed=52.596001m/h.</desc>
<speed>14.610000</speed>
</trkpt>
<trkpt lat="42.986603" lon="19.071159">
<ele>1059.610352</ele>
<time>2012-05-03T00:01:44Z</time>
<desc>lat.=42.986603, lon.=19.071159, Alt.=1059.610352m. Speed=52.344002m/h.</desc>
<speed>14.540000</speed>
</trkpt>
<trkpt lat="42.987278" lon="19.071182">
<ele>1064.891602</ele>
<time>2012-05-03T00:01:49Z</time>
<desc>lat.=42.987278, lon.=19.071182, Alt.=1064.891602m. Speed=57.492001m/h.</desc>
<speed>15.970000</speed>
</trkpt>
<trkpt lat="42.987957" lon="19.071503">
<ele>1068.422852</ele>
<time>2012-05-03T00:01:54Z</time>
<desc>lat.=42.987957, lon.=19.071503, Alt.=1068.422852m. Speed=56.340000m/h.</desc>
<speed>15.650000</speed>
</trkpt>
<trkpt lat="42.988552" lon="19.072058">
<ele>1075.454102</ele>
<time>2012-05-03T00:01:59Z</time>
<desc>lat.=42.988552, lon.=19.072058, Alt.=1075.454102m. Speed=59.327999m/h.</desc>
<speed>16.480000</speed>
</trkpt>
<trkpt lat="42.989029" lon="19.072849">
<ele>1081.797852</ele>
<time>2012-05-03T00:02:04Z</time>
<desc>lat.=42.989029, lon.=19.072849, Alt.=1081.797852m. Speed=59.868000m/h.</desc>
<speed>16.630000</speed>
</trkpt>
<trkpt lat="42.989563" lon="19.073565">
<ele>1085.704102</ele>
<time>2012-05-03T00:02:09Z</time>
<desc>lat.=42.989563, lon.=19.073565, Alt.=1085.704102m. Speed=59.903999m/h.</desc>
<speed>16.640000</speed>
</trkpt>
<trkpt lat="42.990292" lon="19.073839">
<ele>1090.579102</ele>
<time>2012-05-03T00:02:14Z</time>
<desc>lat.=42.990292, lon.=19.073839, Alt.=1090.579102m. Speed=63.071999m/h.</desc>
<speed>17.520000</speed>
</trkpt>
<trkpt lat="42.991108" lon="19.073820">
<ele>1093.797852</ele>
<time>2012-05-03T00:02:19Z</time>
<desc>lat.=42.991108, lon.=19.073820, Alt.=1093.797852m. Speed=66.599998m/h.</desc>
<speed>18.500000</speed>
</trkpt>
<trkpt lat="42.991962" lon="19.073780">
<ele>1097.516602</ele>
<time>2012-05-03T00:02:24Z</time>
<desc>lat.=42.991962, lon.=19.073780, Alt.=1097.516602m. Speed=68.472000m/h.</desc>
<speed>19.020000</speed>
</trkpt>
<trkpt lat="42.992802" lon="19.073841">
<ele>1100.766602</ele>
<time>2012-05-03T00:02:29Z</time>
<desc>lat.=42.992802, lon.=19.073841, Alt.=1100.766602m. Speed=66.132004m/h.</desc>
<speed>18.370001</speed>
</trkpt>
<trkpt lat="42.993546" lon="19.074306">
<ele>1108.454102</ele>
<time>2012-05-03T00:02:34Z</time>
<desc>lat.=42.993546, lon.=19.074306, Alt.=1108.454102m. Speed=67.139999m/h.</desc>
<speed>18.650000</speed>
</trkpt>
<trkpt lat="42.994259" lon="19.074886">
<ele>1117.235352</ele>
<time>2012-05-03T00:02:39Z</time>
<desc>lat.=42.994259, lon.=19.074886, Alt.=1117.235352m. Speed=63.972000m/h.</desc>
<speed>17.770000</speed>
</trkpt>
<trkpt lat="42.995018" lon="19.075195">
<ele>1124.235352</ele>
<time>2012-05-03T00:02:44Z</time>
<desc>lat.=42.995018, lon.=19.075195, Alt.=1124.235352m. Speed=62.604000m/h.</desc>
<speed>17.390000</speed>
</trkpt>
<trkpt lat="42.995785" lon="19.075388">
<ele>1130.922852</ele>
<time>2012-05-03T00:02:49Z</time>
<desc>lat.=42.995785, lon.=19.075388, Alt.=1130.922852m. Speed=62.243999m/h.</desc>
<speed>17.290000</speed>
</trkpt>
<trkpt lat="42.996532" lon="19.075689">
<ele>1136.391602</ele>
<time>2012-05-03T00:02:54Z</time>
<desc>lat.=42.996532, lon.=19.075689, Alt.=1136.391602m. Speed=63.000000m/h.</desc>
<speed>17.500000</speed>
</trkpt>
<trkpt lat="42.997284" lon="19.076057">
<ele>1142.766602</ele>
<time>2012-05-03T00:02:59Z</time>
<desc>lat.=42.997284, lon.=19.076057, Alt.=1142.766602m. Speed=64.440002m/h.</desc>
<speed>17.900001</speed>
</trkpt>
<trkpt lat="42.998055" lon="19.076326">
<ele>1148.547852</ele>
<time>2012-05-03T00:03:04Z</time>
<desc>lat.=42.998055, lon.=19.076326, Alt.=1148.547852m. Speed=63.612000m/h.</desc>
<speed>17.670000</speed>
</trkpt>
<trkpt lat="42.998856" lon="19.076426">
<ele>1153.454102</ele>
<time>2012-05-03T00:03:09Z</time>
<desc>lat.=42.998856, lon.=19.076426, Alt.=1153.454102m. Speed=64.367996m/h.</desc>
<speed>17.879999</speed>
</trkpt>
<trkpt lat="42.999645" lon="19.076473">
<ele>1157.266602</ele>
<time>2012-05-03T00:03:14Z</time>
<desc>lat.=42.999645, lon.=19.076473, Alt.=1157.266602m. Speed=60.299999m/h.</desc>
<speed>16.750000</speed>
</trkpt>
<trkpt lat="43.000420" lon="19.076582">
<ele>1161.047852</ele>
<time>2012-05-03T00:03:19Z</time>
<desc>lat.=43.000420, lon.=19.076582, Alt.=1161.047852m. Speed=62.316002m/h.</desc>
<speed>17.310001</speed>
</trkpt>
<trkpt lat="43.001202" lon="19.076834">
<ele>1165.141602</ele>
<time>2012-05-03T00:03:24Z</time>
<desc>lat.=43.001202, lon.=19.076834, Alt.=1165.141602m. Speed=66.959999m/h.</desc>
<speed>18.600000</speed>
</trkpt>
<trkpt lat="43.002014" lon="19.077148">
<ele>1171.172852</ele>
<time>2012-05-03T00:03:29Z</time>
<desc>lat.=43.002014, lon.=19.077148, Alt.=1171.172852m. Speed=69.444000m/h.</desc>
<speed>19.290000</speed>
</trkpt>
<trkpt lat="43.002853" lon="19.077488">
<ele>1176.422852</ele>
<time>2012-05-03T00:03:34Z</time>
<desc>lat.=43.002853, lon.=19.077488, Alt.=1176.422852m. Speed=70.704002m/h.</desc>
<speed>19.640001</speed>
</trkpt>
<trkpt lat="43.003693" lon="19.077824">
<ele>1181.329102</ele>
<time>2012-05-03T00:03:39Z</time>
<desc>lat.=43.003693, lon.=19.077824, Alt.=1181.329102m. Speed=69.587997m/h.</desc>
<speed>19.329999</speed>
</trkpt>
<trkpt lat="43.004547" lon="19.078075">
<ele>1186.204102</ele>
<time>2012-05-03T00:03:44Z</time>
<desc>lat.=43.004547, lon.=19.078075, Alt.=1186.204102m. Speed=70.379997m/h.</desc>
<speed>19.549999</speed>
</trkpt>
<trkpt lat="43.005421" lon="19.078138">
<ele>1190.797852</ele>
<time>2012-05-03T00:03:49Z</time>
<desc>lat.=43.005421, lon.=19.078138, Alt.=1190.797852m. Speed=69.120003m/h.</desc>
<speed>19.200001</speed>
</trkpt>
<trkpt lat="43.006313" lon="19.078047">
<ele>1195.922852</ele>
<time>2012-05-03T00:03:54Z</time>
<desc>lat.=43.006313, lon.=19.078047, Alt.=1195.922852m. Speed=73.152000m/h.</desc>
<speed>20.320000</speed>
</trkpt>
<trkpt lat="43.007248" lon="19.077936">
<ele>1201.547852</ele>
<time>2012-05-03T00:03:59Z</time>
<desc>lat.=43.007248, lon.=19.077936, Alt.=1201.547852m. Speed=75.348000m/h.</desc>
<speed>20.930000</speed>
</trkpt>
<trkpt lat="43.008186" lon="19.077831">
<ele>1209.204102</ele>
<time>2012-05-03T00:04:04Z</time>
<desc>lat.=43.008186, lon.=19.077831, Alt.=1209.204102m. Speed=74.987999m/h.</desc>
<speed>20.830000</speed>
</trkpt>
<trkpt lat="43.009113" lon="19.077671">
<ele>1215.454102</ele>
<time>2012-05-03T00:04:09Z</time>
<desc>lat.=43.009113, lon.=19.077671, Alt.=1215.454102m. Speed=74.447998m/h.</desc>
<speed>20.679999</speed>
</trkpt>
<trkpt lat="43.009926" lon="19.077240">
<ele>1224.110352</ele>
<time>2012-05-03T00:04:14Z</time>
<desc>lat.=43.009926, lon.=19.077240, Alt.=1224.110352m. Speed=68.400002m/h.</desc>
<speed>19.000000</speed>
</trkpt>
<trkpt lat="43.010586" lon="19.076603">
<ele>1230.485352</ele>
<time>2012-05-03T00:04:19Z</time>
<desc>lat.=43.010586, lon.=19.076603, Alt.=1230.485352m. Speed=60.551998m/h.</desc>
<speed>16.819999</speed>
</trkpt>
<trkpt lat="43.011204" lon="19.076199">
<ele>1235.360352</ele>
<time>2012-05-03T00:04:24Z</time>
<desc>lat.=43.011204, lon.=19.076199, Alt.=1235.360352m. Speed=50.292000m/h.</desc>
<speed>13.970000</speed>
</trkpt>
<trkpt lat="43.011845" lon="19.076231">
<ele>1237.360352</ele>
<time>2012-05-03T00:04:29Z</time>
<desc>lat.=43.011845, lon.=19.076231, Alt.=1237.360352m. Speed=54.756001m/h.</desc>
<speed>15.210000</speed>
</trkpt>
<trkpt lat="43.012444" lon="19.076773">
<ele>1240.829102</ele>
<time>2012-05-03T00:04:34Z</time>
<desc>lat.=43.012444, lon.=19.076773, Alt.=1240.829102m. Speed=64.188004m/h.</desc>
<speed>17.830001</speed>
</trkpt>
<trkpt lat="43.012856" lon="19.077793">
<ele>1244.860352</ele>
<time>2012-05-03T00:04:39Z</time>
<desc>lat.=43.012856, lon.=19.077793, Alt.=1244.860352m. Speed=69.120003m/h.</desc>
<speed>19.200001</speed>
</trkpt>
<trkpt lat="43.013165" lon="19.078897">
<ele>1247.485352</ele>
<time>2012-05-03T00:04:44Z</time>
<desc>lat.=43.013165, lon.=19.078897, Alt.=1247.485352m. Speed=69.444000m/h.</desc>
<speed>19.290000</speed>
</trkpt>
<trkpt lat="43.013302" lon="19.080111">
<ele>1253.891602</ele>
<time>2012-05-03T00:04:49Z</time>
<desc>lat.=43.013302, lon.=19.080111, Alt.=1253.891602m. Speed=73.835999m/h.</desc>
<speed>20.510000</speed>
</trkpt>
<trkpt lat="43.013355" lon="19.081388">
<ele>1258.266602</ele>
<time>2012-05-03T00:04:54Z</time>
<desc>lat.=43.013355, lon.=19.081388, Alt.=1258.266602m. Speed=71.891998m/h.</desc>
<speed>19.970000</speed>
</trkpt>
<trkpt lat="43.013485" lon="19.082493">
<ele>1261.641602</ele>
<time>2012-05-03T00:04:59Z</time>
<desc>lat.=43.013485, lon.=19.082493, Alt.=1261.641602m. Speed=60.875999m/h.</desc>
<speed>16.910000</speed>
</trkpt>
<trkpt lat="43.013966" lon="19.083298">
<ele>1263.454102</ele>
<time>2012-05-03T00:05:04Z</time>
<desc>lat.=43.013966, lon.=19.083298, Alt.=1263.454102m. Speed=65.484001m/h.</desc>
<speed>18.190000</speed>
</trkpt>
<trkpt lat="43.014767" lon="19.083614">
<ele>1264.891602</ele>
<time>2012-05-03T00:05:09Z</time>
<desc>lat.=43.014767, lon.=19.083614, Alt.=1264.891602m. Speed=69.947998m/h.</desc>
<speed>19.429999</speed>
</trkpt>
<trkpt lat="43.015648" lon="19.083538">
<ele>1268.422852</ele>
<time>2012-05-03T00:05:14Z</time>
<desc>lat.=43.015648, lon.=19.083538, Alt.=1268.422852m. Speed=68.940002m/h.</desc>
<speed>19.150001</speed>
</trkpt>
<trkpt lat="43.016468" lon="19.083630">
<ele>1271.579102</ele>
<time>2012-05-03T00:05:19Z</time>
<desc>lat.=43.016468, lon.=19.083630, Alt.=1271.579102m. Speed=64.223999m/h.</desc>
<speed>17.840000</speed>
</trkpt>
<trkpt lat="43.017227" lon="19.083925">
<ele>1274.985352</ele>
<time>2012-05-03T00:05:24Z</time>
<desc>lat.=43.017227, lon.=19.083925, Alt.=1274.985352m. Speed=60.984001m/h.</desc>
<speed>16.940000</speed>
</trkpt>
<trkpt lat="43.018070" lon="19.084574">
<ele>1279.079102</ele>
<time>2012-05-03T00:05:30Z</time>
<desc>lat.=43.018070, lon.=19.084574, Alt.=1279.079102m. Speed=66.744003m/h.</desc>
<speed>18.540001</speed>
</trkpt>
<trkpt lat="43.018738" lon="19.085365">
<ele>1282.141602</ele>
<time>2012-05-03T00:05:35Z</time>
<desc>lat.=43.018738, lon.=19.085365, Alt.=1282.141602m. Speed=69.839996m/h.</desc>
<speed>19.399999</speed>
</trkpt>
<trkpt lat="43.019562" lon="19.085854">
<ele>1285.860352</ele>
<time>2012-05-03T00:05:40Z</time>
<desc>lat.=43.019562, lon.=19.085854, Alt.=1285.860352m. Speed=72.216003m/h.</desc>
<speed>20.060001</speed>
</trkpt>
<trkpt lat="43.020424" lon="19.086365">
<ele>1290.047852</ele>
<time>2012-05-03T00:05:45Z</time>
<desc>lat.=43.020424, lon.=19.086365, Alt.=1290.047852m. Speed=78.155998m/h.</desc>
<speed>21.710000</speed>
</trkpt>
<trkpt lat="43.021355" lon="19.086901">
<ele>1295.516602</ele>
<time>2012-05-03T00:05:50Z</time>
<desc>lat.=43.021355, lon.=19.086901, Alt.=1295.516602m. Speed=82.692001m/h.</desc>
<speed>22.970000</speed>
</trkpt>
<trkpt lat="43.022335" lon="19.087461">
<ele>1301.547852</ele>
<time>2012-05-03T00:05:55Z</time>
<desc>lat.=43.022335, lon.=19.087461, Alt.=1301.547852m. Speed=86.112000m/h.</desc>
<speed>23.920000</speed>
</trkpt>
<trkpt lat="43.023335" lon="19.088032">
<ele>1307.110352</ele>
<time>2012-05-03T00:06:00Z</time>
<desc>lat.=43.023335, lon.=19.088032, Alt.=1307.110352m. Speed=87.335999m/h.</desc>
<speed>24.260000</speed>
</trkpt>
<trkpt lat="43.024342" lon="19.088604">
<ele>1312.297852</ele>
<time>2012-05-03T00:06:05Z</time>
<desc>lat.=43.024342, lon.=19.088604, Alt.=1312.297852m. Speed=84.779999m/h.</desc>
<speed>23.550000</speed>
</trkpt>
<trkpt lat="43.025276" lon="19.089142">
<ele>1316.141602</ele>
<time>2012-05-03T00:06:10Z</time>
<desc>lat.=43.025276, lon.=19.089142, Alt.=1316.141602m. Speed=79.848000m/h.</desc>
<speed>22.180000</speed>
</trkpt>
<trkpt lat="43.026199" lon="19.089663">
<ele>1318.735352</ele>
<time>2012-05-03T00:06:15Z</time>
<desc>lat.=43.026199, lon.=19.089663, Alt.=1318.735352m. Speed=78.335999m/h.</desc>
<speed>21.760000</speed>
</trkpt>
<trkpt lat="43.027138" lon="19.090036">
<ele>1321.016602</ele>
<time>2012-05-03T00:06:20Z</time>
<desc>lat.=43.027138, lon.=19.090036, Alt.=1321.016602m. Speed=79.199997m/h.</desc>
<speed>21.999999</speed>
</trkpt>
<trkpt lat="43.028111" lon="19.090048">
<ele>1324.485352</ele>
<time>2012-05-03T00:06:25Z</time>
<desc>lat.=43.028111, lon.=19.090048, Alt.=1324.485352m. Speed=78.047997m/h.</desc>
<speed>21.679999</speed>
</trkpt>
<trkpt lat="43.029003" lon="19.089748">
<ele>1327.672852</ele>
<time>2012-05-03T00:06:30Z</time>
<desc>lat.=43.029003, lon.=19.089748, Alt.=1327.672852m. Speed=70.739998m/h.</desc>
<speed>19.649999</speed>
</trkpt>
<trkpt lat="43.029785" lon="19.089119">
<ele>1331.297852</ele>
<time>2012-05-03T00:06:35Z</time>
<desc>lat.=43.029785, lon.=19.089119, Alt.=1331.297852m. Speed=73.008003m/h.</desc>
<speed>20.280001</speed>
</trkpt>
<trkpt lat="43.030430" lon="19.088253">
<ele>1335.766602</ele>
<time>2012-05-03T00:06:40Z</time>
<desc>lat.=43.030430, lon.=19.088253, Alt.=1335.766602m. Speed=72.540001m/h.</desc>
<speed>20.150000</speed>
</trkpt>
<trkpt lat="43.030968" lon="19.087278">
<ele>1341.329102</ele>
<time>2012-05-03T00:06:45Z</time>
<desc>lat.=43.030968, lon.=19.087278, Alt.=1341.329102m. Speed=71.568001m/h.</desc>
<speed>19.880000</speed>
</trkpt>
<trkpt lat="43.031490" lon="19.086309">
<ele>1347.641602</ele>
<time>2012-05-03T00:06:50Z</time>
<desc>lat.=43.031490, lon.=19.086309, Alt.=1347.641602m. Speed=70.704002m/h.</desc>
<speed>19.640001</speed>
</trkpt>
<trkpt lat="43.032070" lon="19.085430">
<ele>1353.766602</ele>
<time>2012-05-03T00:06:55Z</time>
<desc>lat.=43.032070, lon.=19.085430, Alt.=1353.766602m. Speed=70.056000m/h.</desc>
<speed>19.460000</speed>
</trkpt>
<trkpt lat="43.032749" lon="19.084669">
<ele>1359.485352</ele>
<time>2012-05-03T00:07:00Z</time>
<desc>lat.=43.032749, lon.=19.084669, Alt.=1359.485352m. Speed=69.480003m/h.</desc>
<speed>19.300001</speed>
</trkpt>
<trkpt lat="43.033451" lon="19.083971">
<ele>1364.204102</ele>
<time>2012-05-03T00:07:05Z</time>
<desc>lat.=43.033451, lon.=19.083971, Alt.=1364.204102m. Speed=68.615997m/h.</desc>
<speed>19.059999</speed>
</trkpt>
<trkpt lat="43.034138" lon="19.083307">
<ele>1367.829102</ele>
<time>2012-05-03T00:07:10Z</time>
<desc>lat.=43.034138, lon.=19.083307, Alt.=1367.829102m. Speed=66.996002m/h.</desc>
<speed>18.610001</speed>
</trkpt>
<trkpt lat="43.034843" lon="19.082676">
<ele>1373.110352</ele>
<time>2012-05-03T00:07:15Z</time>
<desc>lat.=43.034843, lon.=19.082676, Alt.=1373.110352m. Speed=68.328003m/h.</desc>
<speed>18.980001</speed>
</trkpt>
<trkpt lat="43.035618" lon="19.082129">
<ele>1378.735352</ele>
<time>2012-05-03T00:07:20Z</time>
<desc>lat.=43.035618, lon.=19.082129, Alt.=1378.735352m. Speed=71.099998m/h.</desc>
<speed>19.750000</speed>
</trkpt>
<trkpt lat="43.036472" lon="19.081688">
<ele>1385.172852</ele>
<time>2012-05-03T00:07:25Z</time>
<desc>lat.=43.036472, lon.=19.081688, Alt.=1385.172852m. Speed=73.727997m/h.</desc>
<speed>20.479999</speed>
</trkpt>
<trkpt lat="43.037376" lon="19.081354">
<ele>1392.672852</ele>
<time>2012-05-03T00:07:30Z</time>
<desc>lat.=43.037376, lon.=19.081354, Alt.=1392.672852m. Speed=74.484001m/h.</desc>
<speed>20.690000</speed>
</trkpt>
<trkpt lat="43.038288" lon="19.081030">
<ele>1401.016602</ele>
<time>2012-05-03T00:07:35Z</time>
<desc>lat.=43.038288, lon.=19.081030, Alt.=1401.016602m. Speed=75.348000m/h.</desc>
<speed>20.930000</speed>
</trkpt>
<trkpt lat="43.039188" lon="19.080711">
<ele>1409.391602</ele>
<time>2012-05-03T00:07:40Z</time>
<desc>lat.=43.039188, lon.=19.080711, Alt.=1409.391602m. Speed=73.512001m/h.</desc>
<speed>20.420000</speed>
</trkpt>
<trkpt lat="43.040066" lon="19.080301">
<ele>1412.922852</ele>
<time>2012-05-03T00:07:45Z</time>
<desc>lat.=43.040066, lon.=19.080301, Alt.=1412.922852m. Speed=73.115997m/h.</desc>
<speed>20.309999</speed>
</trkpt>
<trkpt lat="43.040897" lon="19.079861">
<ele>1417.547852</ele>
<time>2012-05-03T00:07:50Z</time>
<desc>lat.=43.040897, lon.=19.079861, Alt.=1417.547852m. Speed=70.884003m/h.</desc>
<speed>19.690001</speed>
</trkpt>
<trkpt lat="43.041740" lon="19.079515">
<ele>1422.735352</ele>
<time>2012-05-03T00:07:55Z</time>
<desc>lat.=43.041740, lon.=19.079515, Alt.=1422.735352m. Speed=70.272003m/h.</desc>
<speed>19.520001</speed>
</trkpt>
<trkpt lat="43.042561" lon="19.079359">
<ele>1428.422852</ele>
<time>2012-05-03T00:08:00Z</time>
<desc>lat.=43.042561, lon.=19.079359, Alt.=1428.422852m. Speed=61.271999m/h.</desc>
<speed>17.020000</speed>
</trkpt>
<trkpt lat="43.043304" lon="19.079393">
<ele>1431.704102</ele>
<time>2012-05-03T00:08:05Z</time>
<desc>lat.=43.043304, lon.=19.079393, Alt.=1431.704102m. Speed=62.388000m/h.</desc>
<speed>17.330000</speed>
</trkpt>
<trkpt lat="43.044079" lon="19.079657">
<ele>1431.922852</ele>
<time>2012-05-03T00:08:10Z</time>
<desc>lat.=43.044079, lon.=19.079657, Alt.=1431.922852m. Speed=67.248001m/h.</desc>
<speed>18.680000</speed>
</trkpt>
<trkpt lat="43.044907" lon="19.079939">
<ele>1431.735352</ele>
<time>2012-05-03T00:08:15Z</time>
<desc>lat.=43.044907, lon.=19.079939, Alt.=1431.735352m. Speed=67.788002m/h.</desc>
<speed>18.830001</speed>
</trkpt>
<trkpt lat="43.055450" lon="19.101355">
<ele>1443.297852</ele>
<time>2012-05-03T00:09:45Z</time>
<desc>lat.=43.055450, lon.=19.101355, Alt.=1443.297852m. Speed=68.760002m/h.</desc>
<speed>19.100001</speed>
</trkpt>
<trkpt lat="43.056091" lon="19.102453">
<ele>1461.391602</ele>
<time>2012-05-03T00:09:50Z</time>
<desc>lat.=43.056091, lon.=19.102453, Alt.=1461.391602m. Speed=68.940002m/h.</desc>
<speed>19.150001</speed>
</trkpt>
<trkpt lat="43.056889" lon="19.103041">
<ele>1461.422852</ele>
<time>2012-05-03T00:09:55Z</time>
<desc>lat.=43.056889, lon.=19.103041, Alt.=1461.422852m. Speed=73.512001m/h.</desc>
<speed>20.420000</speed>
</trkpt>
<trkpt lat="43.057758" lon="19.103504">
<ele>1457.704102</ele>
<time>2012-05-03T00:10:00Z</time>
<desc>lat.=43.057758, lon.=19.103504, Alt.=1457.704102m. Speed=73.115997m/h.</desc>
<speed>20.309999</speed>
</trkpt>
<trkpt lat="43.058514" lon="19.104118">
<ele>1453.891602</ele>
<time>2012-05-03T00:10:05Z</time>
<desc>lat.=43.058514, lon.=19.104118, Alt.=1453.891602m. Speed=71.783997m/h.</desc>
<speed>19.939999</speed>
</trkpt>
<trkpt lat="43.059040" lon="19.105230">
<ele>1452.547852</ele>
<time>2012-05-03T00:10:10Z</time>
<desc>lat.=43.059040, lon.=19.105230, Alt.=1452.547852m. Speed=78.372002m/h.</desc>
<speed>21.770000</speed>
</trkpt>
<trkpt lat="43.059608" lon="19.106304">
<ele>1449.641602</ele>
<time>2012-05-03T00:10:15Z</time>
<desc>lat.=43.059608, lon.=19.106304, Alt.=1449.641602m. Speed=76.428001m/h.</desc>
<speed>21.230000</speed>
</trkpt>
<trkpt lat="43.060410" lon="19.107010">
<ele>1447.329102</ele>
<time>2012-05-03T00:10:20Z</time>
<desc>lat.=43.060410, lon.=19.107010, Alt.=1447.329102m. Speed=76.211998m/h.</desc>
<speed>21.169999</speed>
</trkpt>
<trkpt lat="43.061329" lon="19.107239">
<ele>1444.422852</ele>
<time>2012-05-03T00:10:25Z</time>
<desc>lat.=43.061329, lon.=19.107239, Alt.=1444.422852m. Speed=73.944000m/h.</desc>
<speed>20.540000</speed>
</trkpt>
<trkpt lat="43.062229" lon="19.107355">
<ele>1443.110352</ele>
<time>2012-05-03T00:10:30Z</time>
<desc>lat.=43.062229, lon.=19.107355, Alt.=1443.110352m. Speed=70.416000m/h.</desc>
<speed>19.560000</speed>
</trkpt>
<trkpt lat="43.063061" lon="19.107702">
<ele>1442.485352</ele>
<time>2012-05-03T00:10:35Z</time>
<desc>lat.=43.063061, lon.=19.107702, Alt.=1442.485352m. Speed=71.099998m/h.</desc>
<speed>19.750000</speed>
</trkpt>
<trkpt lat="43.063877" lon="19.108139">
<ele>1441.641602</ele>
<time>2012-05-03T00:10:40Z</time>
<desc>lat.=43.063877, lon.=19.108139, Alt.=1441.641602m. Speed=67.788002m/h.</desc>
<speed>18.830001</speed>
</trkpt>
<trkpt lat="43.064686" lon="19.108221">
<ele>1439.141602</ele>
<time>2012-05-03T00:10:45Z</time>
<desc>lat.=43.064686, lon.=19.108221, Alt.=1439.141602m. Speed=64.152000m/h.</desc>
<speed>17.820000</speed>
</trkpt>
<trkpt lat="43.065506" lon="19.107853">
<ele>1439.079102</ele>
<time>2012-05-03T00:10:50Z</time>
<desc>lat.=43.065506, lon.=19.107853, Alt.=1439.079102m. Speed=75.888000m/h.</desc>
<speed>21.080000</speed>
</trkpt>
<trkpt lat="43.066372" lon="19.107336">
<ele>1439.266602</ele>
<time>2012-05-03T00:10:55Z</time>
<desc>lat.=43.066372, lon.=19.107336, Alt.=1439.266602m. Speed=74.052002m/h.</desc>
<speed>20.570001</speed>
</trkpt>
<trkpt lat="43.067234" lon="19.106810">
<ele>1440.610352</ele>
<time>2012-05-03T00:11:00Z</time>
<desc>lat.=43.067234, lon.=19.106810, Alt.=1440.610352m. Speed=74.916000m/h.</desc>
<speed>20.810000</speed>
</trkpt>
<trkpt lat="43.068024" lon="19.106310">
<ele>1441.110352</ele>
<time>2012-05-03T00:11:05Z</time>
<desc>lat.=43.068024, lon.=19.106310, Alt.=1441.110352m. Speed=63.035999m/h.</desc>
<speed>17.510000</speed>
</trkpt>
<trkpt lat="43.068615" lon="19.105631">
<ele>1441.641602</ele>
<time>2012-05-03T00:11:10Z</time>
<desc>lat.=43.068615, lon.=19.105631, Alt.=1441.641602m. Speed=63.900002m/h.</desc>
<speed>17.750000</speed>
</trkpt>
<trkpt lat="43.069111" lon="19.104731">
<ele>1442.547852</ele>
<time>2012-05-03T00:11:15Z</time>
<desc>lat.=43.069111, lon.=19.104731, Alt.=1442.547852m. Speed=66.528000m/h.</desc>
<speed>18.480000</speed>
</trkpt>
<trkpt lat="43.069725" lon="19.103937">
<ele>1445.422852</ele>
<time>2012-05-03T00:11:20Z</time>
<desc>lat.=43.069725, lon.=19.103937, Alt.=1445.422852m. Speed=68.148003m/h.</desc>
<speed>18.930001</speed>
</trkpt>
<trkpt lat="43.070503" lon="19.103430">
<ele>1449.954102</ele>
<time>2012-05-03T00:11:25Z</time>
<desc>lat.=43.070503, lon.=19.103430, Alt.=1449.954102m. Speed=69.587997m/h.</desc>
<speed>19.329999</speed>
</trkpt>
<trkpt lat="43.071331" lon="19.103031">
<ele>1456.610352</ele>
<time>2012-05-03T00:11:30Z</time>
<desc>lat.=43.071331, lon.=19.103031, Alt.=1456.610352m. Speed=69.444000m/h.</desc>
<speed>19.290000</speed>
</trkpt>
<trkpt lat="43.072151" lon="19.102644">
<ele>1463.204102</ele>
<time>2012-05-03T00:11:35Z</time>
<desc>lat.=43.072151, lon.=19.102644, Alt.=1463.204102m. Speed=68.292000m/h.</desc>
<speed>18.970000</speed>
</trkpt>
<trkpt lat="43.072971" lon="19.102238">
<ele>1469.516602</ele>
<time>2012-05-03T00:11:40Z</time>
<desc>lat.=43.072971, lon.=19.102238, Alt.=1469.516602m. Speed=69.227997m/h.</desc>
<speed>19.229999</speed>
</trkpt>
<trkpt lat="43.073708" lon="19.101654">
<ele>1475.297852</ele>
<time>2012-05-03T00:11:45Z</time>
<desc>lat.=43.073708, lon.=19.101654, Alt.=1475.297852m. Speed=69.515999m/h.</desc>
<speed>19.310000</speed>
</trkpt>
<trkpt lat="43.074394" lon="19.100950">
<ele>1481.641602</ele>
<time>2012-05-03T00:11:50Z</time>
<desc>lat.=43.074394, lon.=19.100950, Alt.=1481.641602m. Speed=68.075996m/h.</desc>
<speed>18.909999</speed>
</trkpt>
<trkpt lat="43.075142" lon="19.100418">
<ele>1487.329102</ele>
<time>2012-05-03T00:11:55Z</time>
<desc>lat.=43.075142, lon.=19.100418, Alt.=1487.329102m. Speed=68.472000m/h.</desc>
<speed>19.020000</speed>
</trkpt>
<trkpt lat="43.075996" lon="19.100437">
<ele>1494.110352</ele>
<time>2012-05-03T00:12:00Z</time>
<desc>lat.=43.075996, lon.=19.100437, Alt.=1494.110352m. Speed=69.120003m/h.</desc>
<speed>19.200001</speed>
</trkpt>
<trkpt lat="43.076729" lon="19.101082">
<ele>1500.860352</ele>
<time>2012-05-03T00:12:05Z</time>
<desc>lat.=43.076729, lon.=19.101082, Alt.=1500.860352m. Speed=70.884003m/h.</desc>
<speed>19.690001</speed>
</trkpt>
<trkpt lat="43.077206" lon="19.102148">
<ele>1506.079102</ele>
<time>2012-05-03T00:12:10Z</time>
<desc>lat.=43.077206, lon.=19.102148, Alt.=1506.079102m. Speed=72.792000m/h.</desc>
<speed>20.220000</speed>
</trkpt>
<trkpt lat="43.077621" lon="19.103281">
<ele>1512.954102</ele>
<time>2012-05-03T00:12:15Z</time>
<desc>lat.=43.077621, lon.=19.103281, Alt.=1512.954102m. Speed=71.496002m/h.</desc>
<speed>19.860001</speed>
</trkpt>
<trkpt lat="43.078056" lon="19.104296">
<ele>1519.704102</ele>
<time>2012-05-03T00:12:20Z</time>
<desc>lat.=43.078056, lon.=19.104296, Alt.=1519.704102m. Speed=67.680000m/h.</desc>
<speed>18.800000</speed>
</trkpt>
<trkpt lat="43.078732" lon="19.104933">
<ele>1522.391602</ele>
<time>2012-05-03T00:12:25Z</time>
<desc>lat.=43.078732, lon.=19.104933, Alt.=1522.391602m. Speed=66.059998m/h.</desc>
<speed>18.349999</speed>
</trkpt>
<trkpt lat="43.079556" lon="19.105001">
<ele>1520.547852</ele>
<time>2012-05-03T00:12:30Z</time>
<desc>lat.=43.079556, lon.=19.105001, Alt.=1520.547852m. Speed=68.472000m/h.</desc>
<speed>19.020000</speed>
</trkpt>
<trkpt lat="43.080345" lon="19.104507">
<ele>1519.485352</ele>
<time>2012-05-03T00:12:35Z</time>
<desc>lat.=43.080345, lon.=19.104507, Alt.=1519.485352m. Speed=72.108002m/h.</desc>
<speed>20.030000</speed>
</trkpt>
<trkpt lat="43.081059" lon="19.103762">
<ele>1517.391602</ele>
<time>2012-05-03T00:12:40Z</time>
<desc>lat.=43.081059, lon.=19.103762, Alt.=1517.391602m. Speed=69.047997m/h.</desc>
<speed>19.179999</speed>
</trkpt>
<trkpt lat="43.081757" lon="19.103186">
<ele>1515.860352</ele>
<time>2012-05-03T00:12:45Z</time>
<desc>lat.=43.081757, lon.=19.103186, Alt.=1515.860352m. Speed=62.748001m/h.</desc>
<speed>17.430000</speed>
</trkpt>
<trkpt lat="43.082481" lon="19.102942">
<ele>1515.797852</ele>
<time>2012-05-03T00:12:50Z</time>
<desc>lat.=43.082481, lon.=19.102942, Alt.=1515.797852m. Speed=57.383999m/h.</desc>
<speed>15.940000</speed>
</trkpt>
<trkpt lat="43.083221" lon="19.103058">
<ele>1514.422852</ele>
<time>2012-05-03T00:12:55Z</time>
<desc>lat.=43.083221, lon.=19.103058, Alt.=1514.422852m. Speed=61.740002m/h.</desc>
<speed>17.150000</speed>
</trkpt>
<trkpt lat="43.083981" lon="19.103470">
<ele>1513.954102</ele>
<time>2012-05-03T00:13:00Z</time>
<desc>lat.=43.083981, lon.=19.103470, Alt.=1513.954102m. Speed=67.463997m/h.</desc>
<speed>18.739999</speed>
</trkpt>
<trkpt lat="43.084782" lon="19.103857">
<ele>1514.735352</ele>
<time>2012-05-03T00:13:05Z</time>
<desc>lat.=43.084782, lon.=19.103857, Alt.=1514.735352m. Speed=66.599998m/h.</desc>
<speed>18.500000</speed>
</trkpt>
<trkpt lat="43.085625" lon="19.103941">
<ele>1515.954102</ele>
<time>2012-05-03T00:13:10Z</time>
<desc>lat.=43.085625, lon.=19.103941, Alt.=1515.954102m. Speed=68.832001m/h.</desc>
<speed>19.120000</speed>
</trkpt>
<trkpt lat="43.086475" lon="19.104017">
<ele>1516.735352</ele>
<time>2012-05-03T00:13:15Z</time>
<desc>lat.=43.086475, lon.=19.104017, Alt.=1516.735352m. Speed=67.463997m/h.</desc>
<speed>18.739999</speed>
</trkpt>
<trkpt lat="43.087261" lon="19.104385">
<ele>1518.204102</ele>
<time>2012-05-03T00:13:20Z</time>
<desc>lat.=43.087261, lon.=19.104385, Alt.=1518.204102m. Speed=68.940002m/h.</desc>
<speed>19.150001</speed>
</trkpt>
<trkpt lat="43.088005" lon="19.104994">
<ele>1519.391602</ele>
<time>2012-05-03T00:13:25Z</time>
<desc>lat.=43.088005, lon.=19.104994, Alt.=1519.391602m. Speed=66.708000m/h.</desc>
<speed>18.530000</speed>
</trkpt>
<trkpt lat="43.088818" lon="19.105204">
<ele>1519.860352</ele>
<time>2012-05-03T00:13:30Z</time>
<desc>lat.=43.088818, lon.=19.105204, Alt.=1519.860352m. Speed=68.255997m/h.</desc>
<speed>18.959999</speed>
</trkpt>
<trkpt lat="43.089718" lon="19.105099">
<ele>1518.985352</ele>
<time>2012-05-03T00:13:35Z</time>
<desc>lat.=43.089718, lon.=19.105099, Alt.=1518.985352m. Speed=72.792000m/h.</desc>
<speed>20.220000</speed>
</trkpt>
<trkpt lat="43.090603" lon="19.105026">
<ele>1518.672852</ele>
<time>2012-05-03T00:13:40Z</time>
<desc>lat.=43.090603, lon.=19.105026, Alt.=1518.672852m. Speed=69.155998m/h.</desc>
<speed>19.210000</speed>
</trkpt>
<trkpt lat="43.091442" lon="19.105207">
<ele>1518.235352</ele>
<time>2012-05-03T00:13:45Z</time>
<desc>lat.=43.091442, lon.=19.105207, Alt.=1518.235352m. Speed=67.176003m/h.</desc>
<speed>18.660001</speed>
</trkpt>
<trkpt lat="43.092186" lon="19.105770">
<ele>1518.266602</ele>
<time>2012-05-03T00:13:50Z</time>
<desc>lat.=43.092186, lon.=19.105770, Alt.=1518.266602m. Speed=68.543999m/h.</desc>
<speed>19.040000</speed>
</trkpt>
<trkpt lat="43.092770" lon="19.106659">
<ele>1518.485352</ele>
<time>2012-05-03T00:13:55Z</time>
<desc>lat.=43.092770, lon.=19.106659, Alt.=1518.485352m. Speed=73.008003m/h.</desc>
<speed>20.280001</speed>
</trkpt>
<trkpt lat="43.093254" lon="19.107754">
<ele>1520.922852</ele>
<time>2012-05-03T00:14:00Z</time>
<desc>lat.=43.093254, lon.=19.107754, Alt.=1520.922852m. Speed=73.800003m/h.</desc>
<speed>20.500001</speed>
</trkpt>
<trkpt lat="43.093765" lon="19.108803">
<ele>1523.985352</ele>
<time>2012-05-03T00:14:05Z</time>
<desc>lat.=43.093765, lon.=19.108803, Alt.=1523.985352m. Speed=72.863998m/h.</desc>
<speed>20.240000</speed>
</trkpt>
<trkpt lat="43.094440" lon="19.109623">
<ele>1526.954102</ele>
<time>2012-05-03T00:14:10Z</time>
<desc>lat.=43.094440, lon.=19.109623, Alt.=1526.954102m. Speed=73.367996m/h.</desc>
<speed>20.379999</speed>
</trkpt>
<trkpt lat="43.095287" lon="19.110119">
<ele>1529.360352</ele>
<time>2012-05-03T00:14:15Z</time>
<desc>lat.=43.095287, lon.=19.110119, Alt.=1529.360352m. Speed=72.648003m/h.</desc>
<speed>20.180001</speed>
</trkpt>
<trkpt lat="43.096237" lon="19.110308">
<ele>1531.704102</ele>
<time>2012-05-03T00:14:20Z</time>
<desc>lat.=43.096237, lon.=19.110308, Alt.=1531.704102m. Speed=79.019997m/h.</desc>
<speed>21.949999</speed>
</trkpt>
<trkpt lat="43.097218" lon="19.110388">
<ele>1533.860352</ele>
<time>2012-05-03T00:14:25Z</time>
<desc>lat.=43.097218, lon.=19.110388, Alt.=1533.860352m. Speed=75.491997m/h.</desc>
<speed>20.969999</speed>
</trkpt>
<trkpt lat="43.098114" lon="19.110468">
<ele>1533.860352</ele>
<time>2012-05-03T00:14:30Z</time>
<desc>lat.=43.098114, lon.=19.110468, Alt.=1533.860352m. Speed=68.867996m/h.</desc>
<speed>19.129999</speed>
</trkpt>
<trkpt lat="43.098949" lon="19.110630">
<ele>1532.172852</ele>
<time>2012-05-03T00:14:35Z</time>
<desc>lat.=43.098949, lon.=19.110630, Alt.=1532.172852m. Speed=68.075996m/h.</desc>
<speed>18.909999</speed>
</trkpt>
<trkpt lat="43.099712" lon="19.111189">
<ele>1529.829102</ele>
<time>2012-05-03T00:14:40Z</time>
<desc>lat.=43.099712, lon.=19.111189, Alt.=1529.829102m. Speed=72.431999m/h.</desc>
<speed>20.120000</speed>
</trkpt>
<trkpt lat="43.100315" lon="19.112141">
<ele>1526.704102</ele>
<time>2012-05-03T00:14:45Z</time>
<desc>lat.=43.100315, lon.=19.112141, Alt.=1526.704102m. Speed=75.599998m/h.</desc>
<speed>21.000000</speed>
</trkpt>
<trkpt lat="43.100887" lon="19.113192">
<ele>1523.829102</ele>
<time>2012-05-03T00:14:50Z</time>
<desc>lat.=43.100887, lon.=19.113192, Alt.=1523.829102m. Speed=76.248001m/h.</desc>
<speed>21.180000</speed>
</trkpt>
<trkpt lat="43.101460" lon="19.114260">
<ele>1520.954102</ele>
<time>2012-05-03T00:14:55Z</time>
<desc>lat.=43.101460, lon.=19.114260, Alt.=1520.954102m. Speed=77.975998m/h.</desc>
<speed>21.659999</speed>
</trkpt>
<trkpt lat="43.102043" lon="19.115351">
<ele>1516.516602</ele>
<time>2012-05-03T00:15:00Z</time>
<desc>lat.=43.102043, lon.=19.115351, Alt.=1516.516602m. Speed=80.099998m/h.</desc>
<speed>22.250000</speed>
</trkpt>
<trkpt lat="43.102654" lon="19.116440">
<ele>1511.047852</ele>
<time>2012-05-03T00:15:05Z</time>
<desc>lat.=43.102654, lon.=19.116440, Alt.=1511.047852m. Speed=80.783997m/h.</desc>
<speed>22.439999</speed>
</trkpt>
<trkpt lat="43.103394" lon="19.117373">
<ele>1506.110352</ele>
<time>2012-05-03T00:15:10Z</time>
<desc>lat.=43.103394, lon.=19.117373, Alt.=1506.110352m. Speed=80.351997m/h.</desc>
<speed>22.319999</speed>
</trkpt>
<trkpt lat="43.104259" lon="19.118019">
<ele>1504.079102</ele>
<time>2012-05-03T00:15:15Z</time>
<desc>lat.=43.104259, lon.=19.118019, Alt.=1504.079102m. Speed=77.040001m/h.</desc>
<speed>21.400000</speed>
</trkpt>
<trkpt lat="43.105152" lon="19.118559">
<ele>1502.985352</ele>
<time>2012-05-03T00:15:20Z</time>
<desc>lat.=43.105152, lon.=19.118559, Alt.=1502.985352m. Speed=78.984001m/h.</desc>
<speed>21.940000</speed>
</trkpt>
<trkpt lat="43.106060" lon="19.119118">
<ele>1502.016602</ele>
<time>2012-05-03T00:15:25Z</time>
<desc>lat.=43.106060, lon.=19.119118, Alt.=1502.016602m. Speed=78.587997m/h.</desc>
<speed>21.829999</speed>
</trkpt>
<trkpt lat="43.106964" lon="19.119671">
<ele>1499.204102</ele>
<time>2012-05-03T00:15:30Z</time>
<desc>lat.=43.106964, lon.=19.119671, Alt.=1499.204102m. Speed=79.884003m/h.</desc>
<speed>22.190001</speed>
</trkpt>
<trkpt lat="43.107895" lon="19.120232">
<ele>1494.079102</ele>
<time>2012-05-03T00:15:35Z</time>
<desc>lat.=43.107895, lon.=19.120232, Alt.=1494.079102m. Speed=83.267998m/h.</desc>
<speed>23.129999</speed>
</trkpt>
<trkpt lat="43.108849" lon="19.120827">
<ele>1488.579102</ele>
<time>2012-05-03T00:15:40Z</time>
<desc>lat.=43.108849, lon.=19.120827, Alt.=1488.579102m. Speed=84.239998m/h.</desc>
<speed>23.399999</speed>
</trkpt>
<trkpt lat="43.109806" lon="19.121410">
<ele>1485.235352</ele>
<time>2012-05-03T00:15:45Z</time>
<desc>lat.=43.109806, lon.=19.121410, Alt.=1485.235352m. Speed=82.692001m/h.</desc>
<speed>22.970000</speed>
</trkpt>
<trkpt lat="43.110756" lon="19.121902">
<ele>1483.454102</ele>
<time>2012-05-03T00:15:50Z</time>
<desc>lat.=43.110756, lon.=19.121902, Alt.=1483.454102m. Speed=81.935997m/h.</desc>
<speed>22.759999</speed>
</trkpt>
<trkpt lat="43.111771" lon="19.122164">
<ele>1481.579102</ele>
<time>2012-05-03T00:15:55Z</time>
<desc>lat.=43.111771, lon.=19.122164, Alt.=1481.579102m. Speed=82.800003m/h.</desc>
<speed>23.000001</speed>
</trkpt>
<trkpt lat="43.112835" lon="19.122200">
<ele>1477.829102</ele>
<time>2012-05-03T00:16:00Z</time>
<desc>lat.=43.112835, lon.=19.122200, Alt.=1477.829102m. Speed=85.823997m/h.</desc>
<speed>23.839999</speed>
</trkpt>
<trkpt lat="43.113911" lon="19.122183">
<ele>1473.954102</ele>
<time>2012-05-03T00:16:05Z</time>
<desc>lat.=43.113911, lon.=19.122183, Alt.=1473.954102m. Speed=86.580002m/h.</desc>
<speed>24.050001</speed>
</trkpt>
<trkpt lat="43.114983" lon="19.122152">
<ele>1472.297852</ele>
<time>2012-05-03T00:16:10Z</time>
<desc>lat.=43.114983, lon.=19.122152, Alt.=1472.297852m. Speed=83.736000m/h.</desc>
<speed>23.260000</speed>
</trkpt>
<trkpt lat="43.116016" lon="19.122141">
<ele>1471.422852</ele>
<time>2012-05-03T00:16:15Z</time>
<desc>lat.=43.116016, lon.=19.122141, Alt.=1471.422852m. Speed=82.872002m/h.</desc>
<speed>23.020000</speed>
</trkpt>
<trkpt lat="43.117062" lon="19.122120">
<ele>1471.016602</ele>
<time>2012-05-03T00:16:20Z</time>
<desc>lat.=43.117062, lon.=19.122120, Alt.=1471.016602m. Speed=82.800003m/h.</desc>
<speed>23.000001</speed>
</trkpt>
<trkpt lat="43.118076" lon="19.122246">
<ele>1469.641602</ele>
<time>2012-05-03T00:16:25Z</time>
<desc>lat.=43.118076, lon.=19.122246, Alt.=1469.641602m. Speed=80.424004m/h.</desc>
<speed>22.340001</speed>
</trkpt>
<trkpt lat="43.119026" lon="19.122715">
<ele>1467.172852</ele>
<time>2012-05-03T00:16:30Z</time>
<desc>lat.=43.119026, lon.=19.122715, Alt.=1467.172852m. Speed=83.412003m/h.</desc>
<speed>23.170001</speed>
</trkpt>
<trkpt lat="43.119907" lon="19.123552">
<ele>1465.797852</ele>
<time>2012-05-03T00:16:35Z</time>
<desc>lat.=43.119907, lon.=19.123552, Alt.=1465.797852m. Speed=87.372002m/h.</desc>
<speed>24.270000</speed>
</trkpt>
<trkpt lat="43.120766" lon="19.124405">
<ele>1465.172852</ele>
<time>2012-05-03T00:16:40Z</time>
<desc>lat.=43.120766, lon.=19.124405, Alt.=1465.172852m. Speed=82.367996m/h.</desc>
<speed>22.879999</speed>
</trkpt>
<trkpt lat="43.121723" lon="19.124844">
<ele>1464.766602</ele>
<time>2012-05-03T00:16:45Z</time>
<desc>lat.=43.121723, lon.=19.124844, Alt.=1464.766602m. Speed=80.820000m/h.</desc>
<speed>22.450000</speed>
</trkpt>
<trkpt lat="43.122746" lon="19.124813">
<ele>1464.579102</ele>
<time>2012-05-03T00:16:50Z</time>
<desc>lat.=43.122746, lon.=19.124813, Alt.=1464.579102m. Speed=82.835999m/h.</desc>
<speed>23.010000</speed>
</trkpt>
<trkpt lat="43.123798" lon="19.124645">
<ele>1464.516602</ele>
<time>2012-05-03T00:16:55Z</time>
<desc>lat.=43.123798, lon.=19.124645, Alt.=1464.516602m. Speed=84.816002m/h.</desc>
<speed>23.560001</speed>
</trkpt>
<trkpt lat="43.124825" lon="19.124550">
<ele>1463.141602</ele>
<time>2012-05-03T00:17:00Z</time>
<desc>lat.=43.124825, lon.=19.124550, Alt.=1463.141602m. Speed=79.379997m/h.</desc>
<speed>22.049999</speed>
</trkpt>
<trkpt lat="43.125786" lon="19.124834">
<ele>1462.735352</ele>
<time>2012-05-03T00:17:05Z</time>
<desc>lat.=43.125786, lon.=19.124834, Alt.=1462.735352m. Speed=82.260002m/h.</desc>
<speed>22.850001</speed>
</trkpt>
<trkpt lat="43.126789" lon="19.125263">
<ele>1461.797852</ele>
<time>2012-05-03T00:17:10Z</time>
<desc>lat.=43.126789, lon.=19.125263, Alt.=1461.797852m. Speed=84.167999m/h.</desc>
<speed>23.380000</speed>
</trkpt>
<trkpt lat="43.127766" lon="19.125668">
<ele>1460.454102</ele>
<time>2012-05-03T00:17:15Z</time>
<desc>lat.=43.127766, lon.=19.125668, Alt.=1460.454102m. Speed=79.416000m/h.</desc>
<speed>22.060000</speed>
</trkpt>
<trkpt lat="43.128723" lon="19.125805">
<ele>1457.766602</ele>
<time>2012-05-03T00:17:20Z</time>
<desc>lat.=43.128723, lon.=19.125805, Alt.=1457.766602m. Speed=75.671997m/h.</desc>
<speed>21.019999</speed>
</trkpt>
<trkpt lat="43.129616" lon="19.125523">
<ele>1455.641602</ele>
<time>2012-05-03T00:17:25Z</time>
<desc>lat.=43.129616, lon.=19.125523, Alt.=1455.641602m. Speed=71.424004m/h.</desc>
<speed>19.840001</speed>
</trkpt>
<trkpt lat="43.130386" lon="19.124975">
<ele>1456.297852</ele>
<time>2012-05-03T00:17:30Z</time>
<desc>lat.=43.130386, lon.=19.124975, Alt.=1456.297852m. Speed=70.164001m/h.</desc>
<speed>19.490000</speed>
</trkpt>
<trkpt lat="43.131134" lon="19.124407">
<ele>1458.204102</ele>
<time>2012-05-03T00:17:35Z</time>
<desc>lat.=43.131134, lon.=19.124407, Alt.=1458.204102m. Speed=66.167999m/h.</desc>
<speed>18.380000</speed>
</trkpt>
<trkpt lat="43.131897" lon="19.123997">
<ele>1461.516602</ele>
<time>2012-05-03T00:17:40Z</time>
<desc>lat.=43.131897, lon.=19.123997, Alt.=1461.516602m. Speed=65.592003m/h.</desc>
<speed>18.220001</speed>
</trkpt>
<trkpt lat="43.132713" lon="19.123692">
<ele>1463.610352</ele>
<time>2012-05-03T00:17:45Z</time>
<desc>lat.=43.132713, lon.=19.123692, Alt.=1463.610352m. Speed=68.867996m/h.</desc>
<speed>19.129999</speed>
</trkpt>
<trkpt lat="43.133568" lon="19.123379">
<ele>1464.360352</ele>
<time>2012-05-03T00:17:50Z</time>
<desc>lat.=43.133568, lon.=19.123379, Alt.=1464.360352m. Speed=73.043999m/h.</desc>
<speed>20.290000</speed>
</trkpt>
<trkpt lat="43.134491" lon="19.123035">
<ele>1465.391602</ele>
<time>2012-05-03T00:17:55Z</time>
<desc>lat.=43.134491, lon.=19.123035, Alt.=1465.391602m. Speed=79.487999m/h.</desc>
<speed>22.080000</speed>
</trkpt>
<trkpt lat="43.135475" lon="19.122671">
<ele>1467.266602</ele>
<time>2012-05-03T00:18:00Z</time>
<desc>lat.=43.135475, lon.=19.122671, Alt.=1467.266602m. Speed=81.828003m/h.</desc>
<speed>22.730001</speed>
</trkpt>
<trkpt lat="43.136475" lon="19.122293">
<ele>1470.891602</ele>
<time>2012-05-03T00:18:05Z</time>
<desc>lat.=43.136475, lon.=19.122293, Alt.=1470.891602m. Speed=83.375999m/h.</desc>
<speed>23.160000</speed>
</trkpt>
<trkpt lat="43.137493" lon="19.121914">
<ele>1475.204102</ele>
<time>2012-05-03T00:18:10Z</time>
<desc>lat.=43.137493, lon.=19.121914, Alt.=1475.204102m. Speed=83.556000m/h.</desc>
<speed>23.210000</speed>
</trkpt>
<trkpt lat="43.138515" lon="19.121634">
<ele>1478.891602</ele>
<time>2012-05-03T00:18:15Z</time>
<desc>lat.=43.138515, lon.=19.121634, Alt.=1478.891602m. Speed=83.664001m/h.</desc>
<speed>23.240000</speed>
</trkpt>
<trkpt lat="43.139545" lon="19.121445">
<ele>1483.547852</ele>
<time>2012-05-03T00:18:20Z</time>
<desc>lat.=43.139545, lon.=19.121445, Alt.=1483.547852m. Speed=81.288002m/h.</desc>
<speed>22.580001</speed>
</trkpt>
<trkpt lat="43.140545" lon="19.121267">
<ele>1489.704102</ele>
<time>2012-05-03T00:18:25Z</time>
<desc>lat.=43.140545, lon.=19.121267, Alt.=1489.704102m. Speed=78.120003m/h.</desc>
<speed>21.700001</speed>
</trkpt>
<trkpt lat="43.141438" lon="19.121155">
<ele>1492.891602</ele>
<time>2012-05-03T00:18:30Z</time>
<desc>lat.=43.141438, lon.=19.121155, Alt.=1492.891602m. Speed=65.484001m/h.</desc>
<speed>18.190000</speed>
</trkpt>
<trkpt lat="43.142216" lon="19.121180">
<ele>1490.735352</ele>
<time>2012-05-03T00:18:35Z</time>
<desc>lat.=43.142216, lon.=19.121180, Alt.=1490.735352m. Speed=61.992001m/h.</desc>
<speed>17.220000</speed>
</trkpt>
<trkpt lat="43.143005" lon="19.121307">
<ele>1487.547852</ele>
<time>2012-05-03T00:18:40Z</time>
<desc>lat.=43.143005, lon.=19.121307, Alt.=1487.547852m. Speed=64.655998m/h.</desc>
<speed>17.960000</speed>
</trkpt>
<trkpt lat="43.143810" lon="19.121546">
<ele>1484.266602</ele>
<time>2012-05-03T00:18:45Z</time>
<desc>lat.=43.143810, lon.=19.121546, Alt.=1484.266602m. Speed=68.040001m/h.</desc>
<speed>18.900000</speed>
</trkpt>
<trkpt lat="43.144642" lon="19.121817">
<ele>1481.860352</ele>
<time>2012-05-03T00:18:50Z</time>
<desc>lat.=43.144642, lon.=19.121817, Alt.=1481.860352m. Speed=68.615997m/h.</desc>
<speed>19.059999</speed>
</trkpt>
<trkpt lat="43.145485" lon="19.122091">
<ele>1479.297852</ele>
<time>2012-05-03T00:18:55Z</time>
<desc>lat.=43.145485, lon.=19.122091, Alt.=1479.297852m. Speed=69.624001m/h.</desc>
<speed>19.340000</speed>
</trkpt>
<trkpt lat="43.146336" lon="19.122353">
<ele>1478.047852</ele>
<time>2012-05-03T00:19:00Z</time>
<desc>lat.=43.146336, lon.=19.122353, Alt.=1478.047852m. Speed=70.344002m/h.</desc>
<speed>19.540000</speed>
</trkpt>
<trkpt lat="43.147106" lon="19.122757">
<ele>1477.985352</ele>
<time>2012-05-03T00:19:05Z</time>
<desc>lat.=43.147106, lon.=19.122757, Alt.=1477.985352m. Speed=63.863998m/h.</desc>
<speed>17.740000</speed>
</trkpt>
<trkpt lat="43.147736" lon="19.123381">
<ele>1477.266602</ele>
<time>2012-05-03T00:19:10Z</time>
<desc>lat.=43.147736, lon.=19.123381, Alt.=1477.266602m. Speed=60.515999m/h.</desc>
<speed>16.810000</speed>
</trkpt>
<trkpt lat="43.148335" lon="19.124025">
<ele>1474.141602</ele>
<time>2012-05-03T00:19:15Z</time>
<desc>lat.=43.148335, lon.=19.124025, Alt.=1474.141602m. Speed=61.307999m/h.</desc>
<speed>17.030000</speed>
</trkpt>
<trkpt lat="43.148941" lon="19.124708">
<ele>1470.047852</ele>
<time>2012-05-03T00:19:20Z</time>
<desc>lat.=43.148941, lon.=19.124708, Alt.=1470.047852m. Speed=62.639999m/h.</desc>
<speed>17.400000</speed>
</trkpt>
<trkpt lat="43.149597" lon="19.125298">
<ele>1467.860352</ele>
<time>2012-05-03T00:19:25Z</time>
<desc>lat.=43.149597, lon.=19.125298, Alt.=1467.860352m. Speed=62.388000m/h.</desc>
<speed>17.330000</speed>
</trkpt>
<trkpt lat="43.150150" lon="19.125961">
<ele>1462.360352</ele>
<time>2012-05-03T00:19:30Z</time>
<desc>lat.=43.150150, lon.=19.125961, Alt.=1462.360352m. Speed=51.911999m/h.</desc>
<speed>14.420000</speed>
</trkpt>
<trkpt lat="43.150520" lon="19.126501">
<ele>1460.360352</ele>
<time>2012-05-03T00:19:35Z</time>
<desc>lat.=43.150520, lon.=19.126501, Alt.=1460.360352m. Speed=39.456001m/h.</desc>
<speed>10.960000</speed>
</trkpt>
<trkpt lat="43.150780" lon="19.126986">
<ele>1458.204102</ele>
<time>2012-05-03T00:19:40Z</time>
<desc>lat.=43.150780, lon.=19.126986, Alt.=1458.204102m. Speed=34.452000m/h.</desc>
<speed>9.570000</speed>
</trkpt>
<trkpt lat="43.151031" lon="19.127579">
<ele>1455.141602</ele>
<time>2012-05-03T00:19:45Z</time>
<desc>lat.=43.151031, lon.=19.127579, Alt.=1455.141602m. Speed=45.504002m/h.</desc>
<speed>12.640000</speed>
</trkpt>
<trkpt lat="43.151352" lon="19.128319">
<ele>1451.235352</ele>
<time>2012-05-03T00:19:50Z</time>
<desc>lat.=43.151352, lon.=19.128319, Alt.=1451.235352m. Speed=53.784000m/h.</desc>
<speed>14.940000</speed>
</trkpt>
<trkpt lat="43.151711" lon="19.129122">
<ele>1447.860352</ele>
<time>2012-05-03T00:19:55Z</time>
<desc>lat.=43.151711, lon.=19.129122, Alt.=1447.860352m. Speed=49.896000m/h.</desc>
<speed>13.860000</speed>
</trkpt>
<trkpt lat="43.152016" lon="19.129780">
<ele>1446.110352</ele>
<time>2012-05-03T00:20:00Z</time>
<desc>lat.=43.152016, lon.=19.129780, Alt.=1446.110352m. Speed=42.768002m/h.</desc>
<speed>11.880000</speed>
</trkpt>
<trkpt lat="43.152298" lon="19.130306">
<ele>1445.422852</ele>
<time>2012-05-03T00:20:05Z</time>
<desc>lat.=43.152298, lon.=19.130306, Alt.=1445.422852m. Speed=37.080002m/h.</desc>
<speed>10.300001</speed>
</trkpt>
<trkpt lat="43.152691" lon="19.130768">
<ele>1445.079102</ele>
<time>2012-05-03T00:20:10Z</time>
<desc>lat.=43.152691, lon.=19.130768, Alt.=1445.079102m. Speed=43.056000m/h.</desc>
<speed>11.960000</speed>
</trkpt>
<trkpt lat="43.153206" lon="19.131092">
<ele>1444.797852</ele>
<time>2012-05-03T00:20:15Z</time>
<desc>lat.=43.153206, lon.=19.131092, Alt.=1444.797852m. Speed=49.500000m/h.</desc>
<speed>13.750000</speed>
</trkpt>
<trkpt lat="43.153828" lon="19.131237">
<ele>1444.047852</ele>
<time>2012-05-03T00:20:20Z</time>
<desc>lat.=43.153828, lon.=19.131237, Alt.=1444.047852m. Speed=50.759998m/h.</desc>
<speed>14.100000</speed>
</trkpt>
<trkpt lat="43.154476" lon="19.131248">
<ele>1441.172852</ele>
<time>2012-05-03T00:20:25Z</time>
<desc>lat.=43.154476, lon.=19.131248, Alt.=1441.172852m. Speed=52.487999m/h.</desc>
<speed>14.580000</speed>
</trkpt>
<trkpt lat="43.155128" lon="19.131327">
<ele>1438.766602</ele>
<time>2012-05-03T00:20:30Z</time>
<desc>lat.=43.155128, lon.=19.131327, Alt.=1438.766602m. Speed=52.523998m/h.</desc>
<speed>14.590000</speed>
</trkpt>
<trkpt lat="43.155708" lon="19.131744">
<ele>1435.985352</ele>
<time>2012-05-03T00:20:35Z</time>
<desc>lat.=43.155708, lon.=19.131744, Alt.=1435.985352m. Speed=52.848000m/h.</desc>
<speed>14.680000</speed>
</trkpt>
<trkpt lat="43.156216" lon="19.132345">
<ele>1432.704102</ele>
<time>2012-05-03T00:20:40Z</time>
<desc>lat.=43.156216, lon.=19.132345, Alt.=1432.704102m. Speed=54.827999m/h.</desc>
<speed>15.230000</speed>
</trkpt>
<trkpt lat="43.156746" lon="19.132963">
<ele>1429.735352</ele>
<time>2012-05-03T00:20:45Z</time>
<desc>lat.=43.156746, lon.=19.132963, Alt.=1429.735352m. Speed=55.764000m/h.</desc>
<speed>15.490000</speed>
</trkpt>
<trkpt lat="43.157272" lon="19.133572">
<ele>1427.579102</ele>
<time>2012-05-03T00:20:50Z</time>
<desc>lat.=43.157272, lon.=19.133572, Alt.=1427.579102m. Speed=54.000000m/h.</desc>
<speed>15.000000</speed>
</trkpt>
<trkpt lat="43.157776" lon="19.134169">
<ele>1426.172852</ele>
<time>2012-05-03T00:20:55Z</time>
<desc>lat.=43.157776, lon.=19.134169, Alt.=1426.172852m. Speed=52.271999m/h.</desc>
<speed>14.520000</speed>
</trkpt>
<trkpt lat="43.158325" lon="19.134638">
<ele>1424.297852</ele>
<time>2012-05-03T00:21:00Z</time>
<desc>lat.=43.158325, lon.=19.134638, Alt.=1424.297852m. Speed=51.551998m/h.</desc>
<speed>14.319999</speed>
</trkpt>
<trkpt lat="43.158920" lon="19.135027">
<ele>1422.610352</ele>
<time>2012-05-03T00:21:05Z</time>
<desc>lat.=43.158920, lon.=19.135027, Alt.=1422.610352m. Speed=52.883999m/h.</desc>
<speed>14.690000</speed>
</trkpt>
<trkpt lat="43.159515" lon="19.135399">
<ele>1421.110352</ele>
<time>2012-05-03T00:21:10Z</time>
<desc>lat.=43.159515, lon.=19.135399, Alt.=1421.110352m. Speed=51.408001m/h.</desc>
<speed>14.280000</speed>
</trkpt>
<trkpt lat="43.160107" lon="19.135675">
<ele>1418.829102</ele>
<time>2012-05-03T00:21:15Z</time>
<desc>lat.=43.160107, lon.=19.135675, Alt.=1418.829102m. Speed=45.792000m/h.</desc>
<speed>12.720000</speed>
</trkpt>
<trkpt lat="43.160568" lon="19.135702">
<ele>1417.797852</ele>
<time>2012-05-03T00:21:20Z</time>
<desc>lat.=43.160568, lon.=19.135702, Alt.=1417.797852m. Speed=25.452000m/h.</desc>
<speed>7.070000</speed>
</trkpt>
<trkpt lat="43.160778" lon="19.135775">
<ele>1418.047852</ele>
<time>2012-05-03T00:21:25Z</time>
<desc>lat.=43.160778, lon.=19.135775, Alt.=1418.047852m. Speed=23.436001m/h.</desc>
<speed>6.510000</speed>
</trkpt>
<trkpt lat="43.160980" lon="19.136229">
<ele>1417.641602</ele>
<time>2012-05-03T00:21:30Z</time>
<desc>lat.=43.160980, lon.=19.136229, Alt.=1417.641602m. Speed=41.688000m/h.</desc>
<speed>11.580000</speed>
</trkpt>
<trkpt lat="43.161335" lon="19.136778">
<ele>1417.172852</ele>
<time>2012-05-03T00:21:35Z</time>
<desc>lat.=43.161335, lon.=19.136778, Alt.=1417.172852m. Speed=43.164001m/h.</desc>
<speed>11.990000</speed>
</trkpt>
<trkpt lat="43.161762" lon="19.137228">
<ele>1417.204102</ele>
<time>2012-05-03T00:21:40Z</time>
<desc>lat.=43.161762, lon.=19.137228, Alt.=1417.204102m. Speed=42.948002m/h.</desc>
<speed>11.930001</speed>
</trkpt>
<trkpt lat="43.162174" lon="19.137711">
<ele>1416.547852</ele>
<time>2012-05-03T00:21:45Z</time>
<desc>lat.=43.162174, lon.=19.137711, Alt.=1416.547852m. Speed=43.487999m/h.</desc>
<speed>12.080000</speed>
</trkpt>
<trkpt lat="43.162540" lon="19.138300">
<ele>1414.860352</ele>
<time>2012-05-03T00:21:50Z</time>
<desc>lat.=43.162540, lon.=19.138300, Alt.=1414.860352m. Speed=46.584000m/h.</desc>
<speed>12.940000</speed>
</trkpt>
<trkpt lat="43.162846" lon="19.139015">
<ele>1412.579102</ele>
<time>2012-05-03T00:21:55Z</time>
<desc>lat.=43.162846, lon.=19.139015, Alt.=1412.579102m. Speed=49.571999m/h.</desc>
<speed>13.770000</speed>
</trkpt>
<trkpt lat="43.163052" lon="19.139851">
<ele>1408.954102</ele>
<time>2012-05-03T00:22:00Z</time>
<desc>lat.=43.163052, lon.=19.139851, Alt.=1408.954102m. Speed=52.487999m/h.</desc>
<speed>14.580000</speed>
</trkpt>
<trkpt lat="43.163124" lon="19.140751">
<ele>1404.266602</ele>
<time>2012-05-03T00:22:05Z</time>
<desc>lat.=43.163124, lon.=19.140751, Alt.=1404.266602m. Speed=54.827999m/h.</desc>
<speed>15.230000</speed>
</trkpt>
<trkpt lat="43.163090" lon="19.141729">
<ele>1399.454102</ele>
<time>2012-05-03T00:22:10Z</time>
<desc>lat.=43.163090, lon.=19.141729, Alt.=1399.454102m. Speed=58.896000m/h.</desc>
<speed>16.360000</speed>
</trkpt>
<trkpt lat="43.163071" lon="19.142759">
<ele>1394.266602</ele>
<time>2012-05-03T00:22:15Z</time>
<desc>lat.=43.163071, lon.=19.142759, Alt.=1394.266602m. Speed=61.632000m/h.</desc>
<speed>17.120000</speed>
</trkpt>
<trkpt lat="43.163136" lon="19.143835">
<ele>1389.485352</ele>
<time>2012-05-03T00:22:20Z</time>
<desc>lat.=43.163136, lon.=19.143835, Alt.=1389.485352m. Speed=64.080002m/h.</desc>
<speed>17.800001</speed>
</trkpt>
<trkpt lat="43.163284" lon="19.144928">
<ele>1385.297852</ele>
<time>2012-05-03T00:22:25Z</time>
<desc>lat.=43.163284, lon.=19.144928, Alt.=1385.297852m. Speed=64.260002m/h.</desc>
<speed>17.850001</speed>
</trkpt>
<trkpt lat="43.163467" lon="19.145994">
<ele>1382.297852</ele>
<time>2012-05-03T00:22:30Z</time>
<desc>lat.=43.163467, lon.=19.145994, Alt.=1382.297852m. Speed=63.216000m/h.</desc>
<speed>17.560000</speed>
</trkpt>
<trkpt lat="43.163643" lon="19.147053">
<ele>1378.422852</ele>
<time>2012-05-03T00:22:35Z</time>
<desc>lat.=43.163643, lon.=19.147053, Alt.=1378.422852m. Speed=63.287998m/h.</desc>
<speed>17.579999</speed>
</trkpt>
<trkpt lat="43.163822" lon="19.148113">
<ele>1375.422852</ele>
<time>2012-05-03T00:22:40Z</time>
<desc>lat.=43.163822, lon.=19.148113, Alt.=1375.422852m. Speed=62.712002m/h.</desc>
<speed>17.420001</speed>
</trkpt>
<trkpt lat="43.163960" lon="19.149168">
<ele>1373.610352</ele>
<time>2012-05-03T00:22:45Z</time>
<desc>lat.=43.163960, lon.=19.149168, Alt.=1373.610352m. Speed=64.188004m/h.</desc>
<speed>17.830001</speed>
</trkpt>
<trkpt lat="43.164032" lon="19.150269">
<ele>1371.079102</ele>
<time>2012-05-03T00:22:50Z</time>
<desc>lat.=43.164032, lon.=19.150269, Alt.=1371.079102m. Speed=63.827999m/h.</desc>
<speed>17.730000</speed>
</trkpt>
<trkpt lat="43.163986" lon="19.151335">
<ele>1367.797852</ele>
<time>2012-05-03T00:22:55Z</time>
<desc>lat.=43.163986, lon.=19.151335, Alt.=1367.797852m. Speed=63.000000m/h.</desc>
<speed>17.500000</speed>
</trkpt>
<trkpt lat="43.163925" lon="19.152411">
<ele>1364.235352</ele>
<time>2012-05-03T00:23:00Z</time>
<desc>lat.=43.163925, lon.=19.152411, Alt.=1364.235352m. Speed=63.431999m/h.</desc>
<speed>17.620000</speed>
</trkpt>
<trkpt lat="43.163860" lon="19.153463">
<ele>1362.016602</ele>
<time>2012-05-03T00:23:05Z</time>
<desc>lat.=43.163860, lon.=19.153463, Alt.=1362.016602m. Speed=61.056000m/h.</desc>
<speed>16.960000</speed>
</trkpt>
<trkpt lat="43.163807" lon="19.154480">
<ele>1360.266602</ele>
<time>2012-05-03T00:23:10Z</time>
<desc>lat.=43.163807, lon.=19.154480, Alt.=1360.266602m. Speed=58.355999m/h.</desc>
<speed>16.210000</speed>
</trkpt>
<trkpt lat="43.163799" lon="19.155451">
<ele>1358.516602</ele>
<time>2012-05-03T00:23:15Z</time>
<desc>lat.=43.163799, lon.=19.155451, Alt.=1358.516602m. Speed=55.799999m/h.</desc>
<speed>15.500000</speed>
</trkpt>
<trkpt lat="43.163933" lon="19.156418">
<ele>1356.079102</ele>
<time>2012-05-03T00:23:20Z</time>
<desc>lat.=43.163933, lon.=19.156418, Alt.=1356.079102m. Speed=59.543999m/h.</desc>
<speed>16.540000</speed>
</trkpt>
<trkpt lat="43.164135" lon="19.157475">
<ele>1354.110352</ele>
<time>2012-05-03T00:23:25Z</time>
<desc>lat.=43.164135, lon.=19.157475, Alt.=1354.110352m. Speed=66.924004m/h.</desc>
<speed>18.590001</speed>
</trkpt>
<trkpt lat="43.164349" lon="19.158598">
<ele>1352.735352</ele>
<time>2012-05-03T00:23:30Z</time>
<desc>lat.=43.164349, lon.=19.158598, Alt.=1352.735352m. Speed=67.823997m/h.</desc>
<speed>18.839999</speed>
</trkpt>
<trkpt lat="43.164516" lon="19.159754">
<ele>1351.579102</ele>
<time>2012-05-03T00:23:35Z</time>
<desc>lat.=43.164516, lon.=19.159754, Alt.=1351.579102m. Speed=68.940002m/h.</desc>
<speed>19.150001</speed>
</trkpt>
<trkpt lat="43.164600" lon="19.160915">
<ele>1350.329102</ele>
<time>2012-05-03T00:23:40Z</time>
<desc>lat.=43.164600, lon.=19.160915, Alt.=1350.329102m. Speed=67.068001m/h.</desc>
<speed>18.630000</speed>
</trkpt>
<trkpt lat="43.164669" lon="19.162029">
<ele>1349.204102</ele>
<time>2012-05-03T00:23:45Z</time>
<desc>lat.=43.164669, lon.=19.162029, Alt.=1349.204102m. Speed=64.115997m/h.</desc>
<speed>17.809999</speed>
</trkpt>
<trkpt lat="43.164730" lon="19.163116">
<ele>1347.454102</ele>
<time>2012-05-03T00:23:50Z</time>
<desc>lat.=43.164730, lon.=19.163116, Alt.=1347.454102m. Speed=64.080002m/h.</desc>
<speed>17.800001</speed>
</trkpt>
<trkpt lat="43.164822" lon="19.164223">
<ele>1345.891602</ele>
<time>2012-05-03T00:23:55Z</time>
<desc>lat.=43.164822, lon.=19.164223, Alt.=1345.891602m. Speed=65.484001m/h.</desc>
<speed>18.190000</speed>
</trkpt>
<trkpt lat="43.164955" lon="19.165329">
<ele>1344.954102</ele>
<time>2012-05-03T00:24:00Z</time>
<desc>lat.=43.164955, lon.=19.165329, Alt.=1344.954102m. Speed=64.727997m/h.</desc>
<speed>17.979999</speed>
</trkpt>
<trkpt lat="43.165096" lon="19.166399">
<ele>1343.547852</ele>
<time>2012-05-03T00:24:05Z</time>
<desc>lat.=43.165096, lon.=19.166399, Alt.=1343.547852m. Speed=62.568001m/h.</desc>
<speed>17.380000</speed>
</trkpt>
<trkpt lat="43.165199" lon="19.167431">
<ele>1340.485352</ele>
<time>2012-05-03T00:24:10Z</time>
<desc>lat.=43.165199, lon.=19.167431, Alt.=1340.485352m. Speed=60.911999m/h.</desc>
<speed>16.920000</speed>
</trkpt>
<trkpt lat="43.165165" lon="19.168457">
<ele>1337.579102</ele>
<time>2012-05-03T00:24:15Z</time>
<desc>lat.=43.165165, lon.=19.168457, Alt.=1337.579102m. Speed=61.307999m/h.</desc>
<speed>17.030000</speed>
</trkpt>
<trkpt lat="43.165092" lon="19.169466">
<ele>1335.735352</ele>
<time>2012-05-03T00:24:20Z</time>
<desc>lat.=43.165092, lon.=19.169466, Alt.=1335.735352m. Speed=58.139999m/h.</desc>
<speed>16.150000</speed>
</trkpt>
<trkpt lat="43.165024" lon="19.170444">
<ele>1335.110352</ele>
<time>2012-05-03T00:24:25Z</time>
<desc>lat.=43.165024, lon.=19.170444, Alt.=1335.110352m. Speed=57.456001m/h.</desc>
<speed>15.960000</speed>
</trkpt>
<trkpt lat="43.164940" lon="19.171425">
<ele>1331.860352</ele>
<time>2012-05-03T00:24:30Z</time>
<desc>lat.=43.164940, lon.=19.171425, Alt.=1331.860352m. Speed=58.751999m/h.</desc>
<speed>16.320000</speed>
</trkpt>
<trkpt lat="43.164837" lon="19.172419">
<ele>1328.172852</ele>
<time>2012-05-03T00:24:35Z</time>
<desc>lat.=43.164837, lon.=19.172419, Alt.=1328.172852m. Speed=58.824001m/h.</desc>
<speed>16.340000</speed>
</trkpt>
<trkpt lat="43.164726" lon="19.173420">
<ele>1325.954102</ele>
<time>2012-05-03T00:24:40Z</time>
<desc>lat.=43.164726, lon.=19.173420, Alt.=1325.954102m. Speed=61.848000m/h.</desc>
<speed>17.180000</speed>
</trkpt>
<trkpt lat="43.164642" lon="19.174473">
<ele>1328.235352</ele>
<time>2012-05-03T00:24:45Z</time>
<desc>lat.=43.164642, lon.=19.174473, Alt.=1328.235352m. Speed=59.903999m/h.</desc>
<speed>16.640000</speed>
</trkpt>
<trkpt lat="43.164646" lon="19.175476">
<ele>1329.172852</ele>
<time>2012-05-03T00:24:50Z</time>
<desc>lat.=43.164646, lon.=19.175476, Alt.=1329.172852m. Speed=57.563999m/h.</desc>
<speed>15.990000</speed>
</trkpt>
<trkpt lat="43.164753" lon="19.176462">
<ele>1326.454102</ele>
<time>2012-05-03T00:24:55Z</time>
<desc>lat.=43.164753, lon.=19.176462, Alt.=1326.454102m. Speed=58.931999m/h.</desc>
<speed>16.370000</speed>
</trkpt>
<trkpt lat="43.164898" lon="19.177469">
<ele>1323.329102</ele>
<time>2012-05-03T00:25:00Z</time>
<desc>lat.=43.164898, lon.=19.177469, Alt.=1323.329102m. Speed=60.335999m/h.</desc>
<speed>16.760000</speed>
</trkpt>
<trkpt lat="43.165051" lon="19.178495">
<ele>1320.704102</ele>
<time>2012-05-03T00:25:05Z</time>
<desc>lat.=43.165051, lon.=19.178495, Alt.=1320.704102m. Speed=61.307999m/h.</desc>
<speed>17.030000</speed>
</trkpt>
<trkpt lat="43.165203" lon="19.179525">
<ele>1318.485352</ele>
<time>2012-05-03T00:25:10Z</time>
<desc>lat.=43.165203, lon.=19.179525, Alt.=1318.485352m. Speed=61.452000m/h.</desc>
<speed>17.070000</speed>
</trkpt>
<trkpt lat="43.165352" lon="19.180550">
<ele>1317.141602</ele>
<time>2012-05-03T00:25:15Z</time>
<desc>lat.=43.165352, lon.=19.180550, Alt.=1317.141602m. Speed=60.515999m/h.</desc>
<speed>16.810000</speed>
</trkpt>
<trkpt lat="43.165508" lon="19.181549">
<ele>1316.204102</ele>
<time>2012-05-03T00:25:20Z</time>
<desc>lat.=43.165508, lon.=19.181549, Alt.=1316.204102m. Speed=58.716000m/h.</desc>
<speed>16.310000</speed>
</trkpt>
<trkpt lat="43.165623" lon="19.182508">
<ele>1314.985352</ele>
<time>2012-05-03T00:25:25Z</time>
<desc>lat.=43.165623, lon.=19.182508, Alt.=1314.985352m. Speed=54.792000m/h.</desc>
<speed>15.220000</speed>
</trkpt>
<trkpt lat="43.165474" lon="19.183407">
<ele>1315.579102</ele>
<time>2012-05-03T00:25:30Z</time>
<desc>lat.=43.165474, lon.=19.183407, Alt.=1315.579102m. Speed=54.540001m/h.</desc>
<speed>15.150000</speed>
</trkpt>
<trkpt lat="43.165150" lon="19.184198">
<ele>1317.360352</ele>
<time>2012-05-03T00:25:35Z</time>
<desc>lat.=43.165150, lon.=19.184198, Alt.=1317.360352m. Speed=52.740002m/h.</desc>
<speed>14.650000</speed>
</trkpt>
<trkpt lat="43.164955" lon="19.185072">
<ele>1319.266602</ele>
<time>2012-05-03T00:25:40Z</time>
<desc>lat.=43.164955, lon.=19.185072, Alt.=1319.266602m. Speed=55.512001m/h.</desc>
<speed>15.420000</speed>
</trkpt>
<trkpt lat="43.164810" lon="19.185989">
<ele>1319.297852</ele>
<time>2012-05-03T00:25:45Z</time>
<desc>lat.=43.164810, lon.=19.185989, Alt.=1319.297852m. Speed=55.548000m/h.</desc>
<speed>15.430000</speed>
</trkpt>
<trkpt lat="43.164619" lon="19.186958">
<ele>1319.485352</ele>
<time>2012-05-03T00:25:50Z</time>
<desc>lat.=43.164619, lon.=19.186958, Alt.=1319.485352m. Speed=57.743999m/h.</desc>
<speed>16.040000</speed>
</trkpt>
<trkpt lat="43.164310" lon="19.187786">
<ele>1320.860352</ele>
<time>2012-05-03T00:25:55Z</time>
<desc>lat.=43.164310, lon.=19.187786, Alt.=1320.860352m. Speed=49.608002m/h.</desc>
<speed>13.780000</speed>
</trkpt>
<trkpt lat="43.164150" lon="19.188618">
<ele>1320.797852</ele>
<time>2012-05-03T00:26:00Z</time>
<desc>lat.=43.164150, lon.=19.188618, Alt.=1320.797852m. Speed=53.352001m/h.</desc>
<speed>14.820000</speed>
</trkpt>
<trkpt lat="43.164158" lon="19.189564">
<ele>1317.704102</ele>
<time>2012-05-03T00:26:05Z</time>
<desc>lat.=43.164158, lon.=19.189564, Alt.=1317.704102m. Speed=56.195999m/h.</desc>
<speed>15.610000</speed>
</trkpt>
<trkpt lat="43.163948" lon="19.190495">
<ele>1315.047852</ele>
<time>2012-05-03T00:26:10Z</time>
<desc>lat.=43.163948, lon.=19.190495, Alt.=1315.047852m. Speed=61.344002m/h.</desc>
<speed>17.040000</speed>
</trkpt>
<trkpt lat="43.163704" lon="19.191446">
<ele>1312.860352</ele>
<time>2012-05-03T00:26:15Z</time>
<desc>lat.=43.163704, lon.=19.191446, Alt.=1312.860352m. Speed=59.543999m/h.</desc>
<speed>16.540000</speed>
</trkpt>
<trkpt lat="43.163540" lon="19.192450">
<ele>1310.829102</ele>
<time>2012-05-03T00:26:20Z</time>
<desc>lat.=43.163540, lon.=19.192450, Alt.=1310.829102m. Speed=60.264000m/h.</desc>
<speed>16.740000</speed>
</trkpt>
<trkpt lat="43.163387" lon="19.193476">
<ele>1308.704102</ele>
<time>2012-05-03T00:26:25Z</time>
<desc>lat.=43.163387, lon.=19.193476, Alt.=1308.704102m. Speed=63.827999m/h.</desc>
<speed>17.730000</speed>
</trkpt>
<trkpt lat="43.163216" lon="19.194588">
<ele>1306.797852</ele>
<time>2012-05-03T00:26:30Z</time>
<desc>lat.=43.163216, lon.=19.194588, Alt.=1306.797852m. Speed=65.844002m/h.</desc>
<speed>18.290000</speed>
</trkpt>
<trkpt lat="43.163052" lon="19.195684">
<ele>1304.797852</ele>
<time>2012-05-03T00:26:35Z</time>
<desc>lat.=43.163052, lon.=19.195684, Alt.=1304.797852m. Speed=65.699997m/h.</desc>
<speed>18.249999</speed>
</trkpt>
<trkpt lat="43.162888" lon="19.196730">
<ele>1304.204102</ele>
<time>2012-05-03T00:26:40Z</time>
<desc>lat.=43.162888, lon.=19.196730, Alt.=1304.204102m. Speed=60.444000m/h.</desc>
<speed>16.790000</speed>
</trkpt>
<trkpt lat="43.162735" lon="19.197699">
<ele>1304.704102</ele>
<time>2012-05-03T00:26:45Z</time>
<desc>lat.=43.162735, lon.=19.197699, Alt.=1304.704102m. Speed=57.348000m/h.</desc>
<speed>15.930000</speed>
</trkpt>
<trkpt lat="43.162579" lon="19.198650">
<ele>1304.641602</ele>
<time>2012-05-03T00:26:50Z</time>
<desc>lat.=43.162579, lon.=19.198650, Alt.=1304.641602m. Speed=58.284000m/h.</desc>
<speed>16.190000</speed>
</trkpt>
<trkpt lat="43.162373" lon="19.199614">
<ele>1303.047852</ele>
<time>2012-05-03T00:26:55Z</time>
<desc>lat.=43.162373, lon.=19.199614, Alt.=1303.047852m. Speed=59.076000m/h.</desc>
<speed>16.410000</speed>
</trkpt>
<trkpt lat="43.162121" lon="19.200602">
<ele>1302.391602</ele>
<time>2012-05-03T00:27:00Z</time>
<desc>lat.=43.162121, lon.=19.200602, Alt.=1302.391602m. Speed=61.380001m/h.</desc>
<speed>17.050000</speed>
</trkpt>
<trkpt lat="43.161861" lon="19.201607">
<ele>1301.329102</ele>
<time>2012-05-03T00:27:05Z</time>
<desc>lat.=43.161861, lon.=19.201607, Alt.=1301.329102m. Speed=64.512001m/h.</desc>
<speed>17.920000</speed>
</trkpt>
<trkpt lat="43.161579" lon="19.202650">
<ele>1302.172852</ele>
<time>2012-05-03T00:27:10Z</time>
<desc>lat.=43.161579, lon.=19.202650, Alt.=1302.172852m. Speed=65.916000m/h.</desc>
<speed>18.310000</speed>
</trkpt>
<trkpt lat="43.161175" lon="19.203640">
<ele>1302.797852</ele>
<time>2012-05-03T00:27:15Z</time>
<desc>lat.=43.161175, lon.=19.203640, Alt.=1302.797852m. Speed=66.888000m/h.</desc>
<speed>18.580000</speed>
</trkpt>
<trkpt lat="43.160759" lon="19.204641">
<ele>1303.391602</ele>
<time>2012-05-03T00:27:20Z</time>
<desc>lat.=43.160759, lon.=19.204641, Alt.=1303.391602m. Speed=67.391998m/h.</desc>
<speed>18.720000</speed>
</trkpt>
<trkpt lat="43.160408" lon="19.205620">
<ele>1303.329102</ele>
<time>2012-05-03T00:27:25Z</time>
<desc>lat.=43.160408, lon.=19.205620, Alt.=1303.329102m. Speed=62.568001m/h.</desc>
<speed>17.380000</speed>
</trkpt>
<trkpt lat="43.160057" lon="19.206530">
<ele>1303.766602</ele>
<time>2012-05-03T00:27:30Z</time>
<desc>lat.=43.160057, lon.=19.206530, Alt.=1303.766602m. Speed=59.832001m/h.</desc>
<speed>16.620000</speed>
</trkpt>
<trkpt lat="43.159622" lon="19.207409">
<ele>1303.266602</ele>
<time>2012-05-03T00:27:35Z</time>
<desc>lat.=43.159622, lon.=19.207409, Alt.=1303.266602m. Speed=61.091999m/h.</desc>
<speed>16.970000</speed>
</trkpt>
<trkpt lat="43.159275" lon="19.208355">
<ele>1302.891602</ele>
<time>2012-05-03T00:27:40Z</time>
<desc>lat.=43.159275, lon.=19.208355, Alt.=1302.891602m. Speed=63.324001m/h.</desc>
<speed>17.590000</speed>
</trkpt>
<trkpt lat="43.159073" lon="19.209360">
<ele>1302.610352</ele>
<time>2012-05-03T00:27:45Z</time>
<desc>lat.=43.159073, lon.=19.209360, Alt.=1302.610352m. Speed=58.716000m/h.</desc>
<speed>16.310000</speed>
</trkpt>
<trkpt lat="43.158688" lon="19.210194">
<ele>1300.922852</ele>
<time>2012-05-03T00:27:50Z</time>
<desc>lat.=43.158688, lon.=19.210194, Alt.=1300.922852m. Speed=59.363998m/h.</desc>
<speed>16.490000</speed>
</trkpt>
<trkpt lat="43.158157" lon="19.210970">
<ele>1300.985352</ele>
<time>2012-05-03T00:27:55Z</time>
<desc>lat.=43.158157, lon.=19.210970, Alt.=1300.985352m. Speed=60.948002m/h.</desc>
<speed>16.930001</speed>
</trkpt>
<trkpt lat="43.157661" lon="19.211641">
<ele>1302.829102</ele>
<time>2012-05-03T00:28:00Z</time>
<desc>lat.=43.157661, lon.=19.211641, Alt.=1302.829102m. Speed=50.580002m/h.</desc>
<speed>14.050001</speed>
</trkpt>
<trkpt lat="43.157063" lon="19.211868">
<ele>1305.766602</ele>
<time>2012-05-03T00:28:05Z</time>
<desc>lat.=43.157063, lon.=19.211868, Alt.=1305.766602m. Speed=52.919998m/h.</desc>
<speed>14.699999</speed>
</trkpt>
<trkpt lat="43.156429" lon="19.212063">
<ele>1310.204102</ele>
<time>2012-05-03T00:28:10Z</time>
<desc>lat.=43.156429, lon.=19.212063, Alt.=1310.204102m. Speed=48.203999m/h.</desc>
<speed>13.390000</speed>
</trkpt>
<trkpt lat="43.155899" lon="19.212444">
<ele>1314.422852</ele>
<time>2012-05-03T00:28:15Z</time>
<desc>lat.=43.155899, lon.=19.212444, Alt.=1314.422852m. Speed=46.728001m/h.</desc>
<speed>12.980000</speed>
</trkpt>
<trkpt lat="43.155315" lon="19.212757">
<ele>1320.329102</ele>
<time>2012-05-03T00:28:20Z</time>
<desc>lat.=43.155315, lon.=19.212757, Alt.=1320.329102m. Speed=51.119999m/h.</desc>
<speed>14.200000</speed>
</trkpt>
<trkpt lat="43.154682" lon="19.212887">
<ele>1323.454102</ele>
<time>2012-05-03T00:28:25Z</time>
<desc>lat.=43.154682, lon.=19.212887, Alt.=1323.454102m. Speed=53.388000m/h.</desc>
<speed>14.830000</speed>
</trkpt>
<trkpt lat="43.154026" lon="19.213219">
<ele>1324.704102</ele>
<time>2012-05-03T00:28:30Z</time>
<desc>lat.=43.154026, lon.=19.213219, Alt.=1324.704102m. Speed=59.903999m/h.</desc>
<speed>16.640000</speed>
</trkpt>
<trkpt lat="43.153587" lon="19.213953">
<ele>1323.204102</ele>
<time>2012-05-03T00:28:35Z</time>
<desc>lat.=43.153587, lon.=19.213953, Alt.=1323.204102m. Speed=55.152000m/h.</desc>
<speed>15.320000</speed>
</trkpt>
<trkpt lat="43.153191" lon="19.214727">
<ele>1320.360352</ele>
<time>2012-05-03T00:28:40Z</time>
<desc>lat.=43.153191, lon.=19.214727, Alt.=1320.360352m. Speed=56.556000m/h.</desc>
<speed>15.710000</speed>
</trkpt>
<trkpt lat="43.152718" lon="19.215450">
<ele>1317.797852</ele>
<time>2012-05-03T00:28:45Z</time>
<desc>lat.=43.152718, lon.=19.215450, Alt.=1317.797852m. Speed=55.584000m/h.</desc>
<speed>15.440000</speed>
</trkpt>
<trkpt lat="43.152119" lon="19.215952">
<ele>1315.954102</ele>
<time>2012-05-03T00:28:50Z</time>
<desc>lat.=43.152119, lon.=19.215952, Alt.=1315.954102m. Speed=57.672001m/h.</desc>
<speed>16.020000</speed>
</trkpt>
<trkpt lat="43.151470" lon="19.216381">
<ele>1314.329102</ele>
<time>2012-05-03T00:28:55Z</time>
<desc>lat.=43.151470, lon.=19.216381, Alt.=1314.329102m. Speed=56.591999m/h.</desc>
<speed>15.720000</speed>
</trkpt>
<trkpt lat="43.150852" lon="19.216801">
<ele>1312.766602</ele>
<time>2012-05-03T00:29:00Z</time>
<desc>lat.=43.150852, lon.=19.216801, Alt.=1312.766602m. Speed=53.495998m/h.</desc>
<speed>14.860000</speed>
</trkpt>
<trkpt lat="43.150345" lon="19.217398">
<ele>1311.610352</ele>
<time>2012-05-03T00:29:05Z</time>
<desc>lat.=43.150345, lon.=19.217398, Alt.=1311.610352m. Speed=53.784000m/h.</desc>
<speed>14.940000</speed>
</trkpt>
<trkpt lat="43.149918" lon="19.218159">
<ele>1308.641602</ele>
<time>2012-05-03T00:29:10Z</time>
<desc>lat.=43.149918, lon.=19.218159, Alt.=1308.641602m. Speed=58.751999m/h.</desc>
<speed>16.320000</speed>
</trkpt>
<trkpt lat="43.149487" lon="19.218952">
<ele>1307.704102</ele>
<time>2012-05-03T00:29:15Z</time>
<desc>lat.=43.149487, lon.=19.218952, Alt.=1307.704102m. Speed=57.023998m/h.</desc>
<speed>15.840000</speed>
</trkpt>
<trkpt lat="43.148949" lon="19.219612">
<ele>1310.235352</ele>
<time>2012-05-03T00:29:20Z</time>
<desc>lat.=43.148949, lon.=19.219612, Alt.=1310.235352m. Speed=57.096001m/h.</desc>
<speed>15.860000</speed>
</trkpt>
<trkpt lat="43.148296" lon="19.220024">
<ele>1312.547852</ele>
<time>2012-05-03T00:29:25Z</time>
<desc>lat.=43.148296, lon.=19.220024, Alt.=1312.547852m. Speed=57.167999m/h.</desc>
<speed>15.880000</speed>
</trkpt>
<trkpt lat="43.147675" lon="19.220459">
<ele>1313.047852</ele>
<time>2012-05-03T00:29:30Z</time>
<desc>lat.=43.147675, lon.=19.220459, Alt.=1313.047852m. Speed=54.756001m/h.</desc>
<speed>15.210000</speed>
</trkpt>
<trkpt lat="43.147243" lon="19.221167">
<ele>1313.422852</ele>
<time>2012-05-03T00:29:35Z</time>
<desc>lat.=43.147243, lon.=19.221167, Alt.=1313.422852m. Speed=56.051998m/h.</desc>
<speed>15.569999</speed>
</trkpt>
<trkpt lat="43.146938" lon="19.222048">
<ele>1314.141602</ele>
<time>2012-05-03T00:29:40Z</time>
<desc>lat.=43.146938, lon.=19.222048, Alt.=1314.141602m. Speed=54.683998m/h.</desc>
<speed>15.189999</speed>
</trkpt>
<trkpt lat="43.146507" lon="19.222738">
<ele>1316.235352</ele>
<time>2012-05-03T00:29:45Z</time>
<desc>lat.=43.146507, lon.=19.222738, Alt.=1316.235352m. Speed=52.091999m/h.</desc>
<speed>14.470000</speed>
</trkpt>
<trkpt lat="43.145916" lon="19.223196">
<ele>1319.329102</ele>
<time>2012-05-03T00:29:50Z</time>
<desc>lat.=43.145916, lon.=19.223196, Alt.=1319.329102m. Speed=53.424000m/h.</desc>
<speed>14.840000</speed>
</trkpt>
<trkpt lat="43.145329" lon="19.223671">
<ele>1320.235352</ele>
<time>2012-05-03T00:29:55Z</time>
<desc>lat.=43.145329, lon.=19.223671, Alt.=1320.235352m. Speed=56.952000m/h.</desc>
<speed>15.820000</speed>
</trkpt>
<trkpt lat="43.144753" lon="19.224321">
<ele>1318.172852</ele>
<time>2012-05-03T00:30:00Z</time>
<desc>lat.=43.144753, lon.=19.224321, Alt.=1318.172852m. Speed=62.964001m/h.</desc>
<speed>17.490000</speed>
</trkpt>
<trkpt lat="43.144165" lon="19.225042">
<ele>1315.422852</ele>
<time>2012-05-03T00:30:05Z</time>
<desc>lat.=43.144165, lon.=19.225042, Alt.=1315.422852m. Speed=64.295998m/h.</desc>
<speed>17.859999</speed>
</trkpt>
<trkpt lat="43.143631" lon="19.225828">
<ele>1313.422852</ele>
<time>2012-05-03T00:30:10Z</time>
<desc>lat.=43.143631, lon.=19.225828, Alt.=1313.422852m. Speed=61.307999m/h.</desc>
<speed>17.030000</speed>
</trkpt>
<trkpt lat="43.143307" lon="19.226782">
<ele>1313.610352</ele>
<time>2012-05-03T00:30:15Z</time>
<desc>lat.=43.143307, lon.=19.226782, Alt.=1313.610352m. Speed=62.352001m/h.</desc>
<speed>17.320000</speed>
</trkpt>
<trkpt lat="43.143227" lon="19.227867">
<ele>1312.204102</ele>
<time>2012-05-03T00:30:20Z</time>
<desc>lat.=43.143227, lon.=19.227867, Alt.=1312.204102m. Speed=64.620003m/h.</desc>
<speed>17.950001</speed>
</trkpt>
<trkpt lat="43.143429" lon="19.228962">
<ele>1311.422852</ele>
<time>2012-05-03T00:30:25Z</time>
<desc>lat.=43.143429, lon.=19.228962, Alt.=1311.422852m. Speed=68.220001m/h.</desc>
<speed>18.950000</speed>
</trkpt>
<trkpt lat="43.143723" lon="19.230062">
<ele>1311.985352</ele>
<time>2012-05-03T00:30:30Z</time>
<desc>lat.=43.143723, lon.=19.230062, Alt.=1311.985352m. Speed=67.896004m/h.</desc>
<speed>18.860001</speed>
</trkpt>
<trkpt lat="43.144012" lon="19.231142">
<ele>1312.610352</ele>
<time>2012-05-03T00:30:35Z</time>
<desc>lat.=43.144012, lon.=19.231142, Alt.=1312.610352m. Speed=64.692001m/h.</desc>
<speed>17.970000</speed>
</trkpt>
<trkpt lat="43.144268" lon="19.232119">
<ele>1313.610352</ele>
<time>2012-05-03T00:30:40Z</time>
<desc>lat.=43.144268, lon.=19.232119, Alt.=1313.610352m. Speed=57.383999m/h.</desc>
<speed>15.940000</speed>
</trkpt>
<trkpt lat="43.144516" lon="19.232983">
<ele>1315.735352</ele>
<time>2012-05-03T00:30:45Z</time>
<desc>lat.=43.144516, lon.=19.232983, Alt.=1315.735352m. Speed=54.071999m/h.</desc>
<speed>15.020000</speed>
</trkpt>
<trkpt lat="43.144897" lon="19.233725">
<ele>1318.297852</ele>
<time>2012-05-03T00:30:50Z</time>
<desc>lat.=43.144897, lon.=19.233725, Alt.=1318.297852m. Speed=53.208000m/h.</desc>
<speed>14.780000</speed>
</trkpt>
<trkpt lat="43.145458" lon="19.234240">
<ele>1322.829102</ele>
<time>2012-05-03T00:30:55Z</time>
<desc>lat.=43.145458, lon.=19.234240, Alt.=1322.829102m. Speed=55.188000m/h.</desc>
<speed>15.330000</speed>
</trkpt>
<trkpt lat="43.146126" lon="19.234600">
<ele>1326.766602</ele>
<time>2012-05-03T00:31:00Z</time>
<desc>lat.=43.146126, lon.=19.234600, Alt.=1326.766602m. Speed=58.571999m/h.</desc>
<speed>16.270000</speed>
</trkpt>
<trkpt lat="43.146797" lon="19.234949">
<ele>1331.110352</ele>
<time>2012-05-03T00:31:05Z</time>
<desc>lat.=43.146797, lon.=19.234949, Alt.=1331.110352m. Speed=54.071999m/h.</desc>
<speed>15.020000</speed>
</trkpt>
<trkpt lat="43.147438" lon="19.235281">
<ele>1335.454102</ele>
<time>2012-05-03T00:31:10Z</time>
<desc>lat.=43.147438, lon.=19.235281, Alt.=1335.454102m. Speed=53.748001m/h.</desc>
<speed>14.930000</speed>
</trkpt>
<trkpt lat="43.147995" lon="19.235725">
<ele>1338.766602</ele>
<time>2012-05-03T00:31:15Z</time>
<desc>lat.=43.147995, lon.=19.235725, Alt.=1338.766602m. Speed=52.344002m/h.</desc>
<speed>14.540000</speed>
</trkpt>
<trkpt lat="43.148357" lon="19.236452">
<ele>1341.016602</ele>
<time>2012-05-03T00:31:20Z</time>
<desc>lat.=43.148357, lon.=19.236452, Alt.=1341.016602m. Speed=50.400002m/h.</desc>
<speed>14.000000</speed>
</trkpt>
<trkpt lat="43.148422" lon="19.237303">
<ele>1342.079102</ele>
<time>2012-05-03T00:31:25Z</time>
<desc>lat.=43.148422, lon.=19.237303, Alt.=1342.079102m. Speed=50.868000m/h.</desc>
<speed>14.130000</speed>
</trkpt>
<trkpt lat="43.148251" lon="19.238180">
<ele>1342.422852</ele>
<time>2012-05-03T00:31:30Z</time>
<desc>lat.=43.148251, lon.=19.238180, Alt.=1342.422852m. Speed=56.231998m/h.</desc>
<speed>15.620000</speed>
</trkpt>
<trkpt lat="43.148033" lon="19.239050">
<ele>1343.391602</ele>
<time>2012-05-03T00:31:35Z</time>
<desc>lat.=43.148033, lon.=19.239050, Alt.=1343.391602m. Speed=52.596001m/h.</desc>
<speed>14.610000</speed>
</trkpt>
<trkpt lat="43.148003" lon="19.239954">
<ele>1343.797852</ele>
<time>2012-05-03T00:31:40Z</time>
<desc>lat.=43.148003, lon.=19.239954, Alt.=1343.797852m. Speed=54.936001m/h.</desc>
<speed>15.260000</speed>
</trkpt>
<trkpt lat="43.148197" lon="19.240822">
<ele>1344.016602</ele>
<time>2012-05-03T00:31:45Z</time>
<desc>lat.=43.148197, lon.=19.240822, Alt.=1344.016602m. Speed=52.919998m/h.</desc>
<speed>14.699999</speed>
</trkpt>
<trkpt lat="43.148300" lon="19.241768">
<ele>1344.547852</ele>
<time>2012-05-03T00:31:50Z</time>
<desc>lat.=43.148300, lon.=19.241768, Alt.=1344.547852m. Speed=57.383999m/h.</desc>
<speed>15.940000</speed>
</trkpt>
<trkpt lat="43.148331" lon="19.242773">
<ele>1344.110352</ele>
<time>2012-05-03T00:31:55Z</time>
<desc>lat.=43.148331, lon.=19.242773, Alt.=1344.110352m. Speed=57.599998m/h.</desc>
<speed>16.000000</speed>
</trkpt>
<trkpt lat="43.148300" lon="19.243700">
<ele>1343.329102</ele>
<time>2012-05-03T00:32:00Z</time>
<desc>lat.=43.148300, lon.=19.243700, Alt.=1343.329102m. Speed=52.344002m/h.</desc>
<speed>14.540000</speed>
</trkpt>
<trkpt lat="43.148075" lon="19.244476">
<ele>1343.672852</ele>
<time>2012-05-03T00:32:05Z</time>
<desc>lat.=43.148075, lon.=19.244476, Alt.=1343.672852m. Speed=45.431999m/h.</desc>
<speed>12.620000</speed>
</trkpt>
<trkpt lat="43.147770" lon="19.245253">
<ele>1344.204102</ele>
<time>2012-05-03T00:32:10Z</time>
<desc>lat.=43.147770, lon.=19.245253, Alt.=1344.204102m. Speed=51.731998m/h.</desc>
<speed>14.370000</speed>
</trkpt>
<trkpt lat="43.147625" lon="19.246078">
<ele>1345.110352</ele>
<time>2012-05-03T00:32:15Z</time>
<desc>lat.=43.147625, lon.=19.246078, Alt.=1345.110352m. Speed=50.112000m/h.</desc>
<speed>13.920000</speed>
</trkpt>
<trkpt lat="43.147652" lon="19.246941">
<ele>1344.516602</ele>
<time>2012-05-03T00:32:20Z</time>
<desc>lat.=43.147652, lon.=19.246941, Alt.=1344.516602m. Speed=48.852001m/h.</desc>
<speed>13.570000</speed>
</trkpt>
<trkpt lat="43.147892" lon="19.247747">
<ele>1344.172852</ele>
<time>2012-05-03T00:32:25Z</time>
<desc>lat.=43.147892, lon.=19.247747, Alt.=1344.172852m. Speed=52.200001m/h.</desc>
<speed>14.500000</speed>
</trkpt>
<trkpt lat="43.148315" lon="19.248417">
<ele>1345.172852</ele>
<time>2012-05-03T00:32:30Z</time>
<desc>lat.=43.148315, lon.=19.248417, Alt.=1345.172852m. Speed=54.180000m/h.</desc>
<speed>15.050000</speed>
</trkpt>
<trkpt lat="43.148914" lon="19.248926">
<ele>1345.922852</ele>
<time>2012-05-03T00:32:35Z</time>
<desc>lat.=43.148914, lon.=19.248926, Alt.=1345.922852m. Speed=57.312000m/h.</desc>
<speed>15.920000</speed>
</trkpt>
<trkpt lat="43.149544" lon="19.249363">
<ele>1346.579102</ele>
<time>2012-05-03T00:32:40Z</time>
<desc>lat.=43.149544, lon.=19.249363, Alt.=1346.579102m. Speed=56.160000m/h.</desc>
<speed>15.600000</speed>
</trkpt>
<trkpt lat="43.150089" lon="19.249937">
<ele>1347.454102</ele>
<time>2012-05-03T00:32:45Z</time>
<desc>lat.=43.150089, lon.=19.249937, Alt.=1347.454102m. Speed=53.639999m/h.</desc>
<speed>14.900000</speed>
</trkpt>
<trkpt lat="43.150356" lon="19.250771">
<ele>1348.360352</ele>
<time>2012-05-03T00:32:50Z</time>
<desc>lat.=43.150356, lon.=19.250771, Alt.=1348.360352m. Speed=53.352001m/h.</desc>
<speed>14.820000</speed>
</trkpt>
<trkpt lat="43.150299" lon="19.251665">
<ele>1349.797852</ele>
<time>2012-05-03T00:32:55Z</time>
<desc>lat.=43.150299, lon.=19.251665, Alt.=1349.797852m. Speed=52.127998m/h.</desc>
<speed>14.480000</speed>
</trkpt>
<trkpt lat="43.150154" lon="19.252480">
<ele>1348.704102</ele>
<time>2012-05-03T00:33:00Z</time>
<desc>lat.=43.150154, lon.=19.252480, Alt.=1348.704102m. Speed=45.324001m/h.</desc>
<speed>12.590000</speed>
</trkpt>
<trkpt lat="43.150238" lon="19.253214">
<ele>1345.579102</ele>
<time>2012-05-03T00:33:05Z</time>
<desc>lat.=43.150238, lon.=19.253214, Alt.=1345.579102m. Speed=43.667999m/h.</desc>
<speed>12.130000</speed>
</trkpt>
<trkpt lat="43.150604" lon="19.253805">
<ele>1341.235352</ele>
<time>2012-05-03T00:33:10Z</time>
<desc>lat.=43.150604, lon.=19.253805, Alt.=1341.235352m. Speed=46.872002m/h.</desc>
<speed>13.020000</speed>
</trkpt>
<trkpt lat="43.150845" lon="19.254440">
<ele>1337.360352</ele>
<time>2012-05-03T00:33:15Z</time>
<desc>lat.=43.150845, lon.=19.254440, Alt.=1337.360352m. Speed=39.203999m/h.</desc>
<speed>10.890000</speed>
</trkpt>
<trkpt lat="43.150826" lon="19.255077">
<ele>1334.641602</ele>
<time>2012-05-03T00:33:20Z</time>
<desc>lat.=43.150826, lon.=19.255077, Alt.=1334.641602m. Speed=37.116001m/h.</desc>
<speed>10.310000</speed>
</trkpt>
<trkpt lat="43.150829" lon="19.255693">
<ele>1331.422852</ele>
<time>2012-05-03T00:33:25Z</time>
<desc>lat.=43.150829, lon.=19.255693, Alt.=1331.422852m. Speed=36.180000m/h.</desc>
<speed>10.050000</speed>
</trkpt>
<trkpt lat="43.151058" lon="19.256203">
<ele>1327.391602</ele>
<time>2012-05-03T00:33:30Z</time>
<desc>lat.=43.151058, lon.=19.256203, Alt.=1327.391602m. Speed=35.208000m/h.</desc>
<speed>9.780000</speed>
</trkpt>
<trkpt lat="43.151432" lon="19.256506">
<ele>1323.516602</ele>
<time>2012-05-03T00:33:35Z</time>
<desc>lat.=43.151432, lon.=19.256506, Alt.=1323.516602m. Speed=35.063999m/h.</desc>
<speed>9.740000</speed>
</trkpt>
<trkpt lat="43.151791" lon="19.256840">
<ele>1319.985352</ele>
<time>2012-05-03T00:33:40Z</time>
<desc>lat.=43.151791, lon.=19.256840, Alt.=1319.985352m. Speed=34.776001m/h.</desc>
<speed>9.660000</speed>
</trkpt>
<trkpt lat="43.152035" lon="19.257318">
<ele>1315.579102</ele>
<time>2012-05-03T00:33:45Z</time>
<desc>lat.=43.152035, lon.=19.257318, Alt.=1315.579102m. Speed=34.271999m/h.</desc>
<speed>9.520000</speed>
</trkpt>
<trkpt lat="43.152191" lon="19.257874">
<ele>1312.172852</ele>
<time>2012-05-03T00:33:50Z</time>
<desc>lat.=43.152191, lon.=19.257874, Alt.=1312.172852m. Speed=34.271999m/h.</desc>
<speed>9.520000</speed>
</trkpt>
<trkpt lat="43.152447" lon="19.258318">
<ele>1309.735352</ele>
<time>2012-05-03T00:33:55Z</time>
<desc>lat.=43.152447, lon.=19.258318, Alt.=1309.735352m. Speed=34.307999m/h.</desc>
<speed>9.530000</speed>
</trkpt>
<trkpt lat="43.152782" lon="19.258530">
<ele>1306.704102</ele>
<time>2012-05-03T00:34:00Z</time>
<desc>lat.=43.152782, lon.=19.258530, Alt.=1306.704102m. Speed=22.104000m/h.</desc>
<speed>6.140000</speed>
</trkpt>
<trkpt lat="43.152847" lon="19.258820">
<ele>1304.141602</ele>
<time>2012-05-03T00:34:05Z</time>
<desc>lat.=43.152847, lon.=19.258820, Alt.=1304.141602m. Speed=19.944000m/h.</desc>
<speed>5.540000</speed>
</trkpt>
<trkpt lat="43.152599" lon="19.258846">
<ele>1301.297852</ele>
<time>2012-05-03T00:34:10Z</time>
<desc>lat.=43.152599, lon.=19.258846, Alt.=1301.297852m. Speed=24.336000m/h.</desc>
<speed>6.760000</speed>
</trkpt>
<trkpt lat="43.152256" lon="19.258684">
<ele>1299.172852</ele>
<time>2012-05-03T00:34:15Z</time>
<desc>lat.=43.152256, lon.=19.258684, Alt.=1299.172852m. Speed=31.608000m/h.</desc>
<speed>8.780000</speed>
</trkpt>
<trkpt lat="43.151955" lon="19.258307">
<ele>1296.079102</ele>
<time>2012-05-03T00:34:20Z</time>
<desc>lat.=43.151955, lon.=19.258307, Alt.=1296.079102m. Speed=33.731998m/h.</desc>
<speed>9.370000</speed>
</trkpt>
<trkpt lat="43.151596" lon="19.257860">
<ele>1292.110352</ele>
<time>2012-05-03T00:34:25Z</time>
<desc>lat.=43.151596, lon.=19.257860, Alt.=1292.110352m. Speed=42.444000m/h.</desc>
<speed>11.790000</speed>
</trkpt>
<trkpt lat="43.151073" lon="19.257486">
<ele>1288.141602</ele>
<time>2012-05-03T00:34:30Z</time>
<desc>lat.=43.151073, lon.=19.257486, Alt.=1288.141602m. Speed=47.448002m/h.</desc>
<speed>13.180001</speed>
</trkpt>
<trkpt lat="43.150547" lon="19.257076">
<ele>1285.204102</ele>
<time>2012-05-03T00:34:35Z</time>
<desc>lat.=43.150547, lon.=19.257076, Alt.=1285.204102m. Speed=46.332001m/h.</desc>
<speed>12.870000</speed>
</trkpt>
<trkpt lat="43.150150" lon="19.256693">
<ele>1282.797852</ele>
<time>2012-05-03T00:34:40Z</time>
<desc>lat.=43.150150, lon.=19.256693, Alt.=1282.797852m. Speed=30.455999m/h.</desc>
<speed>8.460000</speed>
</trkpt>
<trkpt lat="43.149929" lon="19.256769">
<ele>1279.954102</ele>
<time>2012-05-03T00:34:45Z</time>
<desc>lat.=43.149929, lon.=19.256769, Alt.=1279.954102m. Speed=21.420000m/h.</desc>
<speed>5.950000</speed>
</trkpt>
<trkpt lat="43.150150" lon="19.257059">
<ele>1277.079102</ele>
<time>2012-05-03T00:34:50Z</time>
<desc>lat.=43.150150, lon.=19.257059, Alt.=1277.079102m. Speed=27.035999m/h.</desc>
<speed>7.510000</speed>
</trkpt>
<trkpt lat="43.150524" lon="19.257479">
<ele>1274.547852</ele>
<time>2012-05-03T00:34:55Z</time>
<desc>lat.=43.150524, lon.=19.257479, Alt.=1274.547852m. Speed=43.523998m/h.</desc>
<speed>12.090000</speed>
</trkpt>
<trkpt lat="43.150921" lon="19.258051">
<ele>1270.579102</ele>
<time>2012-05-03T00:35:00Z</time>
<desc>lat.=43.150921, lon.=19.258051, Alt.=1270.579102m. Speed=45.863998m/h.</desc>
<speed>12.740000</speed>
</trkpt>
<trkpt lat="43.151291" lon="19.258671">
<ele>1267.016602</ele>
<time>2012-05-03T00:35:05Z</time>
<desc>lat.=43.151291, lon.=19.258671, Alt.=1267.016602m. Speed=46.872002m/h.</desc>
<speed>13.020000</speed>
</trkpt>
<trkpt lat="43.151554" lon="19.259386">
<ele>1264.329102</ele>
<time>2012-05-03T00:35:10Z</time>
<desc>lat.=43.151554, lon.=19.259386, Alt.=1264.329102m. Speed=45.612000m/h.</desc>
<speed>12.670000</speed>
</trkpt>
<trkpt lat="43.151821" lon="19.260105">
<ele>1260.735352</ele>
<time>2012-05-03T00:35:15Z</time>
<desc>lat.=43.151821, lon.=19.260105, Alt.=1260.735352m. Speed=48.636002m/h.</desc>
<speed>13.510000</speed>
</trkpt>
<trkpt lat="43.152267" lon="19.260685">
<ele>1255.829102</ele>
<time>2012-05-03T00:35:20Z</time>
<desc>lat.=43.152267, lon.=19.260685, Alt.=1255.829102m. Speed=49.931999m/h.</desc>
<speed>13.870000</speed>
</trkpt>
<trkpt lat="43.152782" lon="19.261185">
<ele>1251.797852</ele>
<time>2012-05-03T00:35:25Z</time>
<desc>lat.=43.152782, lon.=19.261185, Alt.=1251.797852m. Speed=50.652000m/h.</desc>
<speed>14.070000</speed>
</trkpt>
<trkpt lat="43.153305" lon="19.261568">
<ele>1248.922852</ele>
<time>2012-05-03T00:35:30Z</time>
<desc>lat.=43.153305, lon.=19.261568, Alt.=1248.922852m. Speed=40.032001m/h.</desc>
<speed>11.120000</speed>
</trkpt>
<trkpt lat="43.153599" lon="19.262016">
<ele>1246.141602</ele>
<time>2012-05-03T00:35:35Z</time>
<desc>lat.=43.153599, lon.=19.262016, Alt.=1246.141602m. Speed=32.292000m/h.</desc>
<speed>8.970000</speed>
</trkpt>
<trkpt lat="43.153526" lon="19.262548">
<ele>1243.954102</ele>
<time>2012-05-03T00:35:40Z</time>
<desc>lat.=43.153526, lon.=19.262548, Alt.=1243.954102m. Speed=33.444000m/h.</desc>
<speed>9.290000</speed>
</trkpt>
<trkpt lat="43.153168" lon="19.262894">
<ele>1241.141602</ele>
<time>2012-05-03T00:35:45Z</time>
<desc>lat.=43.153168, lon.=19.262894, Alt.=1241.141602m. Speed=32.723999m/h.</desc>
<speed>9.090000</speed>
</trkpt>
<trkpt lat="43.152699" lon="19.262871">
<ele>1237.766602</ele>
<time>2012-05-03T00:35:50Z</time>
<desc>lat.=43.152699, lon.=19.262871, Alt.=1237.766602m. Speed=40.355999m/h.</desc>
<speed>11.210000</speed>
</trkpt>
<trkpt lat="43.152248" lon="19.262510">
<ele>1234.579102</ele>
<time>2012-05-03T00:35:55Z</time>
<desc>lat.=43.152248, lon.=19.262510, Alt.=1234.579102m. Speed=38.771999m/h.</desc>
<speed>10.770000</speed>
</trkpt>
<trkpt lat="43.151901" lon="19.262009">
<ele>1230.797852</ele>
<time>2012-05-03T00:36:00Z</time>
<desc>lat.=43.151901, lon.=19.262009, Alt.=1230.797852m. Speed=42.155998m/h.</desc>
<speed>11.710000</speed>
</trkpt>
<trkpt lat="43.151436" lon="19.261562">
<ele>1227.547852</ele>
<time>2012-05-03T00:36:05Z</time>
<desc>lat.=43.151436, lon.=19.261562, Alt.=1227.547852m. Speed=44.208000m/h.</desc>
<speed>12.280000</speed>
</trkpt>
<trkpt lat="43.150894" lon="19.261379">
<ele>1224.110352</ele>
<time>2012-05-03T00:36:10Z</time>
<desc>lat.=43.150894, lon.=19.261379, Alt.=1224.110352m. Speed=45.576000m/h.</desc>
<speed>12.660000</speed>
</trkpt>
<trkpt lat="43.150433" lon="19.261786">
<ele>1220.297852</ele>
<time>2012-05-03T00:36:15Z</time>
<desc>lat.=43.150433, lon.=19.261786, Alt.=1220.297852m. Speed=46.007999m/h.</desc>
<speed>12.780000</speed>
</trkpt>
<trkpt lat="43.150471" lon="19.262568">
<ele>1215.610352</ele>
<time>2012-05-03T00:36:20Z</time>
<desc>lat.=43.150471, lon.=19.262568, Alt.=1215.610352m. Speed=47.124001m/h.</desc>
<speed>13.090000</speed>
</trkpt>
<trkpt lat="43.150669" lon="19.263365">
<ele>1211.454102</ele>
<time>2012-05-03T00:36:25Z</time>
<desc>lat.=43.150669, lon.=19.263365, Alt.=1211.454102m. Speed=49.391998m/h.</desc>
<speed>13.720000</speed>
</trkpt>
<trkpt lat="43.150635" lon="19.264214">
<ele>1208.047852</ele>
<time>2012-05-03T00:36:30Z</time>
<desc>lat.=43.150635, lon.=19.264214, Alt.=1208.047852m. Speed=50.832001m/h.</desc>
<speed>14.120000</speed>
</trkpt>
<trkpt lat="43.150391" lon="19.265017">
<ele>1204.641602</ele>
<time>2012-05-03T00:36:35Z</time>
<desc>lat.=43.150391, lon.=19.265017, Alt.=1204.641602m. Speed=50.723999m/h.</desc>
<speed>14.090000</speed>
</trkpt>
<trkpt lat="43.150154" lon="19.265835">
<ele>1201.485352</ele>
<time>2012-05-03T00:36:40Z</time>
<desc>lat.=43.150154, lon.=19.265835, Alt.=1201.485352m. Speed=52.236000m/h.</desc>
<speed>14.510000</speed>
</trkpt>
<trkpt lat="43.150024" lon="19.266708">
<ele>1197.797852</ele>
<time>2012-05-03T00:36:45Z</time>
<desc>lat.=43.150024, lon.=19.266708, Alt.=1197.797852m. Speed=51.948002m/h.</desc>
<speed>14.430001</speed>
</trkpt>
<trkpt lat="43.149849" lon="19.267529">
<ele>1196.610352</ele>
<time>2012-05-03T00:36:50Z</time>
<desc>lat.=43.149849, lon.=19.267529, Alt.=1196.610352m. Speed=46.692001m/h.</desc>
<speed>12.970000</speed>
</trkpt>
<trkpt lat="43.149467" lon="19.268160">
<ele>1194.016602</ele>
<time>2012-05-03T00:36:55Z</time>
<desc>lat.=43.149467, lon.=19.268160, Alt.=1194.016602m. Speed=49.248001m/h.</desc>
<speed>13.680000</speed>
</trkpt>
<trkpt lat="43.149006" lon="19.268667">
<ele>1189.579102</ele>
<time>2012-05-03T00:37:00Z</time>
<desc>lat.=43.149006, lon.=19.268667, Alt.=1189.579102m. Speed=43.919998m/h.</desc>
<speed>12.199999</speed>
</trkpt>
<trkpt lat="43.148495" lon="19.268661">
<ele>1184.891602</ele>
<time>2012-05-03T00:37:05Z</time>
<desc>lat.=43.148495, lon.=19.268661, Alt.=1184.891602m. Speed=45.216000m/h.</desc>
<speed>12.560000</speed>
</trkpt>
<trkpt lat="43.148163" lon="19.268124">
<ele>1181.829102</ele>
<time>2012-05-03T00:37:10Z</time>
<desc>lat.=43.148163, lon.=19.268124, Alt.=1181.829102m. Speed=37.152000m/h.</desc>
<speed>10.320000</speed>
</trkpt>
<trkpt lat="43.147888" lon="19.268000">
<ele>1177.954102</ele>
<time>2012-05-03T00:37:15Z</time>
<desc>lat.=43.147888, lon.=19.268000, Alt.=1177.954102m. Speed=24.299999m/h.</desc>
<speed>6.750000</speed>
</trkpt>
<trkpt lat="43.147930" lon="19.268324">
<ele>1174.141602</ele>
<time>2012-05-03T00:37:20Z</time>
<desc>lat.=43.147930, lon.=19.268324, Alt.=1174.141602m. Speed=23.436001m/h.</desc>
<speed>6.510000</speed>
</trkpt>
<trkpt lat="43.148220" lon="19.268696">
<ele>1172.016602</ele>
<time>2012-05-03T00:37:25Z</time>
<desc>lat.=43.148220, lon.=19.268696, Alt.=1172.016602m. Speed=35.028000m/h.</desc>
<speed>9.730000</speed>
</trkpt>
<trkpt lat="43.148590" lon="19.269129">
<ele>1169.016602</ele>
<time>2012-05-03T00:37:30Z</time>
<desc>lat.=43.148590, lon.=19.269129, Alt.=1169.016602m. Speed=40.751999m/h.</desc>
<speed>11.320000</speed>
</trkpt>
<trkpt lat="43.149082" lon="19.269255">
<ele>1165.704102</ele>
<time>2012-05-03T00:37:35Z</time>
<desc>lat.=43.149082, lon.=19.269255, Alt.=1165.704102m. Speed=41.832001m/h.</desc>
<speed>11.620000</speed>
</trkpt>
<trkpt lat="43.149582" lon="19.269005">
<ele>1161.547852</ele>
<time>2012-05-03T00:37:40Z</time>
<desc>lat.=43.149582, lon.=19.269005, Alt.=1161.547852m. Speed=43.632000m/h.</desc>
<speed>12.120000</speed>
</trkpt>
<trkpt lat="43.150021" lon="19.268553">
<ele>1156.829102</ele>
<time>2012-05-03T00:37:45Z</time>
<desc>lat.=43.150021, lon.=19.268553, Alt.=1156.829102m. Speed=44.928001m/h.</desc>
<speed>12.480000</speed>
</trkpt>
<trkpt lat="43.150345" lon="19.267906">
<ele>1152.610352</ele>
<time>2012-05-03T00:37:50Z</time>
<desc>lat.=43.150345, lon.=19.267906, Alt.=1152.610352m. Speed=46.080002m/h.</desc>
<speed>12.800001</speed>
</trkpt>
<trkpt lat="43.150642" lon="19.267235">
<ele>1149.891602</ele>
<time>2012-05-03T00:37:55Z</time>
<desc>lat.=43.150642, lon.=19.267235, Alt.=1149.891602m. Speed=45.360001m/h.</desc>
<speed>12.600000</speed>
</trkpt>
<trkpt lat="43.151039" lon="19.266647">
<ele>1147.422852</ele>
<time>2012-05-03T00:38:00Z</time>
<desc>lat.=43.151039, lon.=19.266647, Alt.=1147.422852m. Speed=46.223999m/h.</desc>
<speed>12.840000</speed>
</trkpt>
<trkpt lat="43.151524" lon="19.266220">
<ele>1144.297852</ele>
<time>2012-05-03T00:38:05Z</time>
<desc>lat.=43.151524, lon.=19.266220, Alt.=1144.297852m. Speed=42.911999m/h.</desc>
<speed>11.920000</speed>
</trkpt>
<trkpt lat="43.151993" lon="19.266134">
<ele>1141.547852</ele>
<time>2012-05-03T00:38:10Z</time>
<desc>lat.=43.151993, lon.=19.266134, Alt.=1141.547852m. Speed=37.403999m/h.</desc>
<speed>10.390000</speed>
</trkpt>
<trkpt lat="43.152542" lon="19.266216">
<ele>1138.016602</ele>
<time>2012-05-03T00:38:15Z</time>
<desc>lat.=43.152542, lon.=19.266216, Alt.=1138.016602m. Speed=46.403999m/h.</desc>
<speed>12.890000</speed>
</trkpt>
<trkpt lat="43.153137" lon="19.266361">
<ele>1134.641602</ele>
<time>2012-05-03T00:38:20Z</time>
<desc>lat.=43.153137, lon.=19.266361, Alt.=1134.641602m. Speed=47.195999m/h.</desc>
<speed>13.110000</speed>
</trkpt>
<trkpt lat="43.153717" lon="19.266197">
<ele>1129.579102</ele>
<time>2012-05-03T00:38:25Z</time>
<desc>lat.=43.153717, lon.=19.266197, Alt.=1129.579102m. Speed=49.212002m/h.</desc>
<speed>13.670001</speed>
</trkpt>
<trkpt lat="43.154274" lon="19.265802">
<ele>1128.422852</ele>
<time>2012-05-03T00:38:30Z</time>
<desc>lat.=43.154274, lon.=19.265802, Alt.=1128.422852m. Speed=51.408001m/h.</desc>
<speed>14.280000</speed>
</trkpt>
<trkpt lat="43.154888" lon="19.265480">
<ele>1124.172852</ele>
<time>2012-05-03T00:38:35Z</time>
<desc>lat.=43.154888, lon.=19.265480, Alt.=1124.172852m. Speed=51.768002m/h.</desc>
<speed>14.380000</speed>
</trkpt>
<trkpt lat="43.155384" lon="19.264938">
<ele>1119.329102</ele>
<time>2012-05-03T00:38:40Z</time>
<desc>lat.=43.155384, lon.=19.264938, Alt.=1119.329102m. Speed=48.132000m/h.</desc>
<speed>13.370000</speed>
</trkpt>
<trkpt lat="43.155880" lon="19.264387">
<ele>1115.735352</ele>
<time>2012-05-03T00:38:45Z</time>
<desc>lat.=43.155880, lon.=19.264387, Alt.=1115.735352m. Speed=54.360001m/h.</desc>
<speed>15.100000</speed>
</trkpt>
<trkpt lat="43.156487" lon="19.264019">
<ele>1112.672852</ele>
<time>2012-05-03T00:38:50Z</time>
<desc>lat.=43.156487, lon.=19.264019, Alt.=1112.672852m. Speed=45.251999m/h.</desc>
<speed>12.570000</speed>
</trkpt>
<trkpt lat="43.156849" lon="19.263441">
<ele>1110.829102</ele>
<time>2012-05-03T00:38:55Z</time>
<desc>lat.=43.156849, lon.=19.263441, Alt.=1110.829102m. Speed=43.487999m/h.</desc>
<speed>12.080000</speed>
</trkpt>
<trkpt lat="43.157310" lon="19.263109">
<ele>1108.485352</ele>
<time>2012-05-03T00:39:00Z</time>
<desc>lat.=43.157310, lon.=19.263109, Alt.=1108.485352m. Speed=43.667999m/h.</desc>
<speed>12.130000</speed>
</trkpt>
<trkpt lat="43.157818" lon="19.262774">
<ele>1103.297852</ele>
<time>2012-05-03T00:39:05Z</time>
<desc>lat.=43.157818, lon.=19.262774, Alt.=1103.297852m. Speed=43.271999m/h.</desc>
<speed>12.020000</speed>
</trkpt>
<trkpt lat="43.158298" lon="19.262375">
<ele>1099.985352</ele>
<time>2012-05-03T00:39:10Z</time>
<desc>lat.=43.158298, lon.=19.262375, Alt.=1099.985352m. Speed=44.784000m/h.</desc>
<speed>12.440000</speed>
</trkpt>
<trkpt lat="43.158821" lon="19.262108">
<ele>1097.266602</ele>
<time>2012-05-03T00:39:15Z</time>
<desc>lat.=43.158821, lon.=19.262108, Alt.=1097.266602m. Speed=44.748001m/h.</desc>
<speed>12.430000</speed>
</trkpt>
<trkpt lat="43.159386" lon="19.262053">
<ele>1093.422852</ele>
<time>2012-05-03T00:39:20Z</time>
<desc>lat.=43.159386, lon.=19.262053, Alt.=1093.422852m. Speed=44.568001m/h.</desc>
<speed>12.380000</speed>
</trkpt>
<trkpt lat="43.159920" lon="19.262026">
<ele>1088.922852</ele>
<time>2012-05-03T00:39:25Z</time>
<desc>lat.=43.159920, lon.=19.262026, Alt.=1088.922852m. Speed=38.448002m/h.</desc>
<speed>10.680001</speed>
</trkpt>
<trkpt lat="43.160347" lon="19.261801">
<ele>1085.610352</ele>
<time>2012-05-03T00:39:30Z</time>
<desc>lat.=43.160347, lon.=19.261801, Alt.=1085.610352m. Speed=36.287998m/h.</desc>
<speed>10.079999</speed>
</trkpt>
<trkpt lat="43.160629" lon="19.261597">
<ele>1081.579102</ele>
<time>2012-05-03T00:39:35Z</time>
<desc>lat.=43.160629, lon.=19.261597, Alt.=1081.579102m. Speed=18.143999m/h.</desc>
<speed>5.040000</speed>
</trkpt>
<trkpt lat="43.160591" lon="19.261892">
<ele>1078.579102</ele>
<time>2012-05-03T00:39:40Z</time>
<desc>lat.=43.160591, lon.=19.261892, Alt.=1078.579102m. Speed=21.636000m/h.</desc>
<speed>6.010000</speed>
</trkpt>
<trkpt lat="43.160229" lon="19.262148">
<ele>1075.672852</ele>
<time>2012-05-03T00:39:45Z</time>
<desc>lat.=43.160229, lon.=19.262148, Alt.=1075.672852m. Speed=37.835999m/h.</desc>
<speed>10.510000</speed>
</trkpt>
<trkpt lat="43.159695" lon="19.262518">
<ele>1072.172852</ele>
<time>2012-05-03T00:39:50Z</time>
<desc>lat.=43.159695, lon.=19.262518, Alt.=1072.172852m. Speed=49.248001m/h.</desc>
<speed>13.680000</speed>
</trkpt>
<trkpt lat="43.159134" lon="19.262949">
<ele>1068.047852</ele>
<time>2012-05-03T00:39:55Z</time>
<desc>lat.=43.159134, lon.=19.262949, Alt.=1068.047852m. Speed=52.236000m/h.</desc>
<speed>14.510000</speed>
</trkpt>
<trkpt lat="43.158779" lon="19.263660">
<ele>1063.641602</ele>
<time>2012-05-03T00:40:00Z</time>
<desc>lat.=43.158779, lon.=19.263660, Alt.=1063.641602m. Speed=50.652000m/h.</desc>
<speed>14.070000</speed>
</trkpt>
<trkpt lat="43.158409" lon="19.264376">
<ele>1059.610352</ele>
<time>2012-05-03T00:40:05Z</time>
<desc>lat.=43.158409, lon.=19.264376, Alt.=1059.610352m. Speed=44.172001m/h.</desc>
<speed>12.270000</speed>
</trkpt>
<trkpt lat="43.158379" lon="19.265163">
<ele>1056.829102</ele>
<time>2012-05-03T00:40:10Z</time>
<desc>lat.=43.158379, lon.=19.265163, Alt.=1056.829102m. Speed=47.700001m/h.</desc>
<speed>13.250000</speed>
</trkpt>
<trkpt lat="43.158516" lon="19.265976">
<ele>1053.735352</ele>
<time>2012-05-03T00:40:15Z</time>
<desc>lat.=43.158516, lon.=19.265976, Alt.=1053.735352m. Speed=49.139999m/h.</desc>
<speed>13.650000</speed>
</trkpt>
<trkpt lat="43.158344" lon="19.266800">
<ele>1048.141602</ele>
<time>2012-05-03T00:40:20Z</time>
<desc>lat.=43.158344, lon.=19.266800, Alt.=1048.141602m. Speed=45.360001m/h.</desc>
<speed>12.600000</speed>
</trkpt>
<trkpt lat="43.158047" lon="19.267527">
<ele>1043.891602</ele>
<time>2012-05-03T00:40:25Z</time>
<desc>lat.=43.158047, lon.=19.267527, Alt.=1043.891602m. Speed=48.959999m/h.</desc>
<speed>13.600000</speed>
</trkpt>
<trkpt lat="43.157764" lon="19.268221">
<ele>1039.891602</ele>
<time>2012-05-03T00:40:30Z</time>
<desc>lat.=43.157764, lon.=19.268221, Alt.=1039.891602m. Speed=43.992001m/h.</desc>
<speed>12.220000</speed>
</trkpt>
<trkpt lat="43.157284" lon="19.268681">
<ele>1037.516602</ele>
<time>2012-05-03T00:40:35Z</time>
<desc>lat.=43.157284, lon.=19.268681, Alt.=1037.516602m. Speed=49.104000m/h.</desc>
<speed>13.640000</speed>
</trkpt>
<trkpt lat="43.156811" lon="19.269247">
<ele>1031.922852</ele>
<time>2012-05-03T00:40:40Z</time>
<desc>lat.=43.156811, lon.=19.269247, Alt.=1031.922852m. Speed=54.936001m/h.</desc>
<speed>15.260000</speed>
</trkpt>
<trkpt lat="43.156265" lon="19.269802">
<ele>1028.047852</ele>
<time>2012-05-03T00:40:45Z</time>
<desc>lat.=43.156265, lon.=19.269802, Alt.=1028.047852m. Speed=55.655998m/h.</desc>
<speed>15.460000</speed>
</trkpt>
<trkpt lat="43.155704" lon="19.270426">
<ele>1023.414551</ele>
<time>2012-05-03T00:40:50Z</time>
<desc>lat.=43.155704, lon.=19.270426, Alt.=1023.414551m. Speed=58.716000m/h.</desc>
<speed>16.310000</speed>
</trkpt>
<trkpt lat="43.155186" lon="19.271097">
<ele>1017.461426</ele>
<time>2012-05-03T00:40:55Z</time>
<desc>lat.=43.155186, lon.=19.271097, Alt.=1017.461426m. Speed=57.816002m/h.</desc>
<speed>16.060001</speed>
</trkpt>
<trkpt lat="43.154514" lon="19.271664">
<ele>1011.164551</ele>
<time>2012-05-03T00:41:00Z</time>
<desc>lat.=43.154514, lon.=19.271664, Alt.=1011.164551m. Speed=60.119999m/h.</desc>
<speed>16.700000</speed>
</trkpt>
<trkpt lat="43.153885" lon="19.272104">
<ele>1005.352051</ele>
<time>2012-05-03T00:41:05Z</time>
<desc>lat.=43.153885, lon.=19.272104, Alt.=1005.352051m. Speed=51.299999m/h.</desc>
<speed>14.250000</speed>
</trkpt>
<trkpt lat="43.153286" lon="19.272320">
<ele>1000.867676</ele>
<time>2012-05-03T00:41:10Z</time>
<desc>lat.=43.153286, lon.=19.272320, Alt.=1000.867676m. Speed=48.995998m/h.</desc>
<speed>13.610000</speed>
</trkpt>
<trkpt lat="43.152676" lon="19.272352">
<ele>996.414551</ele>
<time>2012-05-03T00:41:15Z</time>
<desc>lat.=43.152676, lon.=19.272352, Alt.=996.414551m. Speed=43.127998m/h.</desc>
<speed>11.980000</speed>
</trkpt>
<trkpt lat="43.152237" lon="19.272610">
<ele>992.945801</ele>
<time>2012-05-03T00:41:20Z</time>
<desc>lat.=43.152237, lon.=19.272610, Alt.=992.945801m. Speed=39.240002m/h.</desc>
<speed>10.900000</speed>
</trkpt>
<trkpt lat="43.151848" lon="19.273104">
<ele>989.258301</ele>
<time>2012-05-03T00:41:25Z</time>
<desc>lat.=43.151848, lon.=19.273104, Alt.=989.258301m. Speed=51.444000m/h.</desc>
<speed>14.290000</speed>
</trkpt>
<trkpt lat="43.151459" lon="19.273796">
<ele>984.727051</ele>
<time>2012-05-03T00:41:30Z</time>
<desc>lat.=43.151459, lon.=19.273796, Alt.=984.727051m. Speed=51.804001m/h.</desc>
<speed>14.390000</speed>
</trkpt>
<trkpt lat="43.151188" lon="19.274582">
<ele>981.023926</ele>
<time>2012-05-03T00:41:35Z</time>
<desc>lat.=43.151188, lon.=19.274582, Alt.=981.023926m. Speed=48.599998m/h.</desc>
<speed>13.500000</speed>
</trkpt>
<trkpt lat="43.150917" lon="19.275152">
<ele>977.117676</ele>
<time>2012-05-03T00:41:40Z</time>
<desc>lat.=43.150917, lon.=19.275152, Alt.=977.117676m. Speed=38.916000m/h.</desc>
<speed>10.810000</speed>
</trkpt>
<trkpt lat="43.150524" lon="19.275646">
<ele>973.914551</ele>
<time>2012-05-03T00:41:45Z</time>
<desc>lat.=43.150524, lon.=19.275646, Alt.=973.914551m. Speed=44.063999m/h.</desc>
<speed>12.240000</speed>
</trkpt>
<trkpt lat="43.150291" lon="19.276363">
<ele>971.789551</ele>
<time>2012-05-03T00:41:50Z</time>
<desc>lat.=43.150291, lon.=19.276363, Alt.=971.789551m. Speed=45.792000m/h.</desc>
<speed>12.720000</speed>
</trkpt>
<trkpt lat="43.150108" lon="19.277136">
<ele>968.664551</ele>
<time>2012-05-03T00:41:55Z</time>
<desc>lat.=43.150108, lon.=19.277136, Alt.=968.664551m. Speed=47.880001m/h.</desc>
<speed>13.300000</speed>
</trkpt>
<trkpt lat="43.149994" lon="19.277956">
<ele>964.023926</ele>
<time>2012-05-03T00:42:00Z</time>
<desc>lat.=43.149994, lon.=19.277956, Alt.=964.023926m. Speed=49.428001m/h.</desc>
<speed>13.730000</speed>
</trkpt>
<trkpt lat="43.150085" lon="19.278788">
<ele>959.445801</ele>
<time>2012-05-03T00:42:05Z</time>
<desc>lat.=43.150085, lon.=19.278788, Alt.=959.445801m. Speed=50.076000m/h.</desc>
<speed>13.910000</speed>
</trkpt>
<trkpt lat="43.150078" lon="19.279615">
<ele>955.148926</ele>
<time>2012-05-03T00:42:10Z</time>
<desc>lat.=43.150078, lon.=19.279615, Alt.=955.148926m. Speed=45.360001m/h.</desc>
<speed>12.600000</speed>
</trkpt>
<trkpt lat="43.150234" lon="19.280371">
<ele>950.930176</ele>
<time>2012-05-03T00:42:15Z</time>
<desc>lat.=43.150234, lon.=19.280371, Alt.=950.930176m. Speed=46.692001m/h.</desc>
<speed>12.970000</speed>
</trkpt>
<trkpt lat="43.150444" lon="19.281147">
<ele>944.508301</ele>
<time>2012-05-03T00:42:20Z</time>
<desc>lat.=43.150444, lon.=19.281147, Alt.=944.508301m. Speed=48.563999m/h.</desc>
<speed>13.490000</speed>
</trkpt>
<trkpt lat="43.150528" lon="19.281973">
<ele>940.383301</ele>
<time>2012-05-03T00:42:25Z</time>
<desc>lat.=43.150528, lon.=19.281973, Alt.=940.383301m. Speed=49.139999m/h.</desc>
<speed>13.650000</speed>
</trkpt>
<trkpt lat="43.150452" lon="19.282837">
<ele>936.195801</ele>
<time>2012-05-03T00:42:30Z</time>
<desc>lat.=43.150452, lon.=19.282837, Alt.=936.195801m. Speed=52.236000m/h.</desc>
<speed>14.510000</speed>
</trkpt>
<trkpt lat="43.150238" lon="19.283697">
<ele>932.383301</ele>
<time>2012-05-03T00:42:35Z</time>
<desc>lat.=43.150238, lon.=19.283697, Alt.=932.383301m. Speed=48.959999m/h.</desc>
<speed>13.600000</speed>
</trkpt>
<trkpt lat="43.150188" lon="19.284534">
<ele>928.367676</ele>
<time>2012-05-03T00:42:40Z</time>
<desc>lat.=43.150188, lon.=19.284534, Alt.=928.367676m. Speed=50.363998m/h.</desc>
<speed>13.990000</speed>
</trkpt>
<trkpt lat="43.150276" lon="19.285387">
<ele>921.930176</ele>
<time>2012-05-03T00:42:45Z</time>
<desc>lat.=43.150276, lon.=19.285387, Alt.=921.930176m. Speed=52.091999m/h.</desc>
<speed>14.470000</speed>
</trkpt>
<trkpt lat="43.150360" lon="19.286245">
<ele>917.164551</ele>
<time>2012-05-03T00:42:50Z</time>
<desc>lat.=43.150360, lon.=19.286245, Alt.=917.164551m. Speed=50.400002m/h.</desc>
<speed>14.000000</speed>
</trkpt>
<trkpt lat="43.150497" lon="19.287003">
<ele>912.242676</ele>
<time>2012-05-03T00:42:55Z</time>
<desc>lat.=43.150497, lon.=19.287003, Alt.=912.242676m. Speed=41.400002m/h.</desc>
<speed>11.500000</speed>
</trkpt>
<trkpt lat="43.150604" lon="19.287434">
<ele>906.398926</ele>
<time>2012-05-03T00:43:00Z</time>
<desc>lat.=43.150604, lon.=19.287434, Alt.=906.398926m. Speed=25.344000m/h.</desc>
<speed>7.040000</speed>
</trkpt>
<trkpt lat="43.150730" lon="19.287146">
<ele>904.023926</ele>
<time>2012-05-03T00:43:05Z</time>
<desc>lat.=43.150730, lon.=19.287146, Alt.=904.023926m. Speed=26.280001m/h.</desc>
<speed>7.300000</speed>
</trkpt>
<trkpt lat="43.150585" lon="19.286695">
<ele>901.555176</ele>
<time>2012-05-03T00:43:10Z</time>
<desc>lat.=43.150585, lon.=19.286695, Alt.=901.555176m. Speed=31.643999m/h.</desc>
<speed>8.790000</speed>
</trkpt>
<trkpt lat="43.150513" lon="19.286091">
<ele>899.898926</ele>
<time>2012-05-03T00:43:15Z</time>
<desc>lat.=43.150513, lon.=19.286091, Alt.=899.898926m. Speed=36.936001m/h.</desc>
<speed>10.260000</speed>
</trkpt>
<trkpt lat="43.150482" lon="19.285435">
<ele>897.398926</ele>
<time>2012-05-03T00:43:20Z</time>
<desc>lat.=43.150482, lon.=19.285435, Alt.=897.398926m. Speed=39.636002m/h.</desc>
<speed>11.010000</speed>
</trkpt>
<trkpt lat="43.150524" lon="19.284756">
<ele>892.539551</ele>
<time>2012-05-03T00:43:25Z</time>
<desc>lat.=43.150524, lon.=19.284756, Alt.=892.539551m. Speed=41.976002m/h.</desc>
<speed>11.660000</speed>
</trkpt>
<trkpt lat="43.150635" lon="19.284033">
<ele>890.570801</ele>
<time>2012-05-03T00:43:30Z</time>
<desc>lat.=43.150635, lon.=19.284033, Alt.=890.570801m. Speed=44.172001m/h.</desc>
<speed>12.270000</speed>
</trkpt>
<trkpt lat="43.150852" lon="19.283318">
<ele>887.508301</ele>
<time>2012-05-03T00:43:35Z</time>
<desc>lat.=43.150852, lon.=19.283318, Alt.=887.508301m. Speed=44.352001m/h.</desc>
<speed>12.320000</speed>
</trkpt>
<trkpt lat="43.151154" lon="19.282696">
<ele>884.977051</ele>
<time>2012-05-03T00:43:40Z</time>
<desc>lat.=43.151154, lon.=19.282696, Alt.=884.977051m. Speed=40.860001m/h.</desc>
<speed>11.350000</speed>
</trkpt>
<trkpt lat="43.151260" lon="19.282009">
<ele>881.773926</ele>
<time>2012-05-03T00:43:45Z</time>
<desc>lat.=43.151260, lon.=19.282009, Alt.=881.773926m. Speed=43.127998m/h.</desc>
<speed>11.980000</speed>
</trkpt>
<trkpt lat="43.151211" lon="19.281273">
<ele>877.555176</ele>
<time>2012-05-03T00:43:50Z</time>
<desc>lat.=43.151211, lon.=19.281273, Alt.=877.555176m. Speed=44.424000m/h.</desc>
<speed>12.340000</speed>
</trkpt>
<trkpt lat="43.151211" lon="19.280499">
<ele>875.133301</ele>
<time>2012-05-03T00:43:55Z</time>
<desc>lat.=43.151211, lon.=19.280499, Alt.=875.133301m. Speed=46.476002m/h.</desc>
<speed>12.910000</speed>
</trkpt>
<trkpt lat="43.151314" lon="19.279699">
<ele>872.992676</ele>
<time>2012-05-03T00:44:00Z</time>
<desc>lat.=43.151314, lon.=19.279699, Alt.=872.992676m. Speed=48.276001m/h.</desc>
<speed>13.410000</speed>
</trkpt>
<trkpt lat="43.151455" lon="19.278887">
<ele>870.211426</ele>
<time>2012-05-03T00:44:05Z</time>
<desc>lat.=43.151455, lon.=19.278887, Alt.=870.211426m. Speed=48.672001m/h.</desc>
<speed>13.520000</speed>
</trkpt>
<trkpt lat="43.151566" lon="19.278114">
<ele>867.055176</ele>
<time>2012-05-03T00:44:10Z</time>
<desc>lat.=43.151566, lon.=19.278114, Alt.=867.055176m. Speed=38.448002m/h.</desc>
<speed>10.680001</speed>
</trkpt>
<trkpt lat="43.151775" lon="19.277605">
<ele>865.055176</ele>
<time>2012-05-03T00:44:15Z</time>
<desc>lat.=43.151775, lon.=19.277605, Alt.=865.055176m. Speed=37.080002m/h.</desc>
<speed>10.300001</speed>
</trkpt>
<trkpt lat="43.152031" lon="19.277241">
<ele>863.164551</ele>
<time>2012-05-03T00:44:20Z</time>
<desc>lat.=43.152031, lon.=19.277241, Alt.=863.164551m. Speed=23.076000m/h.</desc>
<speed>6.410000</speed>
</trkpt>
<trkpt lat="43.152191" lon="19.277365">
<ele>858.492676</ele>
<time>2012-05-03T00:44:25Z</time>
<desc>lat.=43.152191, lon.=19.277365, Alt.=858.492676m. Speed=21.959999m/h.</desc>
<speed>6.100000</speed>
</trkpt>
<trkpt lat="43.151951" lon="19.277601">
<ele>854.352051</ele>
<time>2012-05-03T00:44:30Z</time>
<desc>lat.=43.151951, lon.=19.277601, Alt.=854.352051m. Speed=27.972000m/h.</desc>
<speed>7.770000</speed>
</trkpt>
<trkpt lat="43.151695" lon="19.278030">
<ele>852.758301</ele>
<time>2012-05-03T00:44:35Z</time>
<desc>lat.=43.151695, lon.=19.278030, Alt.=852.758301m. Speed=38.700001m/h.</desc>
<speed>10.750000</speed>
</trkpt>
<trkpt lat="43.151569" lon="19.278767">
<ele>849.805176</ele>
<time>2012-05-03T00:44:40Z</time>
<desc>lat.=43.151569, lon.=19.278767, Alt.=849.805176m. Speed=42.048000m/h.</desc>
<speed>11.680000</speed>
</trkpt>
<trkpt lat="43.151546" lon="19.279531">
<ele>847.383301</ele>
<time>2012-05-03T00:44:45Z</time>
<desc>lat.=43.151546, lon.=19.279531, Alt.=847.383301m. Speed=45.863998m/h.</desc>
<speed>12.740000</speed>
</trkpt>
<trkpt lat="43.151485" lon="19.280264">
<ele>844.945801</ele>
<time>2012-05-03T00:44:50Z</time>
<desc>lat.=43.151485, lon.=19.280264, Alt.=844.945801m. Speed=41.543999m/h.</desc>
<speed>11.540000</speed>
</trkpt>
<trkpt lat="43.151474" lon="19.281012">
<ele>843.211426</ele>
<time>2012-05-03T00:44:55Z</time>
<desc>lat.=43.151474, lon.=19.281012, Alt.=843.211426m. Speed=45.071999m/h.</desc>
<speed>12.520000</speed>
</trkpt>
<trkpt lat="43.151676" lon="19.281782">
<ele>840.195801</ele>
<time>2012-05-03T00:45:00Z</time>
<desc>lat.=43.151676, lon.=19.281782, Alt.=840.195801m. Speed=47.195999m/h.</desc>
<speed>13.110000</speed>
</trkpt>
<trkpt lat="43.151760" lon="19.282534">
<ele>836.461426</ele>
<time>2012-05-03T00:45:05Z</time>
<desc>lat.=43.151760, lon.=19.282534, Alt.=836.461426m. Speed=41.652000m/h.</desc>
<speed>11.570000</speed>
</trkpt>
<trkpt lat="43.151604" lon="19.283173">
<ele>834.211426</ele>
<time>2012-05-03T00:45:10Z</time>
<desc>lat.=43.151604, lon.=19.283173, Alt.=834.211426m. Speed=38.880001m/h.</desc>
<speed>10.800000</speed>
</trkpt>
<trkpt lat="43.151592" lon="19.283833">
<ele>830.602051</ele>
<time>2012-05-03T00:45:15Z</time>
<desc>lat.=43.151592, lon.=19.283833, Alt.=830.602051m. Speed=40.248001m/h.</desc>
<speed>11.180000</speed>
</trkpt>
<trkpt lat="43.151600" lon="19.284533">
<ele>830.633301</ele>
<time>2012-05-03T00:45:20Z</time>
<desc>lat.=43.151600, lon.=19.284533, Alt.=830.633301m. Speed=41.363998m/h.</desc>
<speed>11.490000</speed>
</trkpt>
<trkpt lat="43.151409" lon="19.285225">
<ele>826.977051</ele>
<time>2012-05-03T00:45:25Z</time>
<desc>lat.=43.151409, lon.=19.285225, Alt.=826.977051m. Speed=43.848000m/h.</desc>
<speed>12.180000</speed>
</trkpt>
<trkpt lat="43.151485" lon="19.285950">
<ele>823.633301</ele>
<time>2012-05-03T00:45:30Z</time>
<desc>lat.=43.151485, lon.=19.285950, Alt.=823.633301m. Speed=44.495998m/h.</desc>
<speed>12.360000</speed>
</trkpt>
<trkpt lat="43.151691" lon="19.286669">
<ele>819.977051</ele>
<time>2012-05-03T00:45:35Z</time>
<desc>lat.=43.151691, lon.=19.286669, Alt.=819.977051m. Speed=45.396000m/h.</desc>
<speed>12.610000</speed>
</trkpt>
<trkpt lat="43.151955" lon="19.287319">
<ele>816.445801</ele>
<time>2012-05-03T00:45:40Z</time>
<desc>lat.=43.151955, lon.=19.287319, Alt.=816.445801m. Speed=42.840000m/h.</desc>
<speed>11.900000</speed>
</trkpt>
<trkpt lat="43.151958" lon="19.287985">
<ele>812.227051</ele>
<time>2012-05-03T00:45:45Z</time>
<desc>lat.=43.151958, lon.=19.287985, Alt.=812.227051m. Speed=37.188000m/h.</desc>
<speed>10.330000</speed>
</trkpt>
<trkpt lat="43.151642" lon="19.288542">
<ele>809.648926</ele>
<time>2012-05-03T00:45:50Z</time>
<desc>lat.=43.151642, lon.=19.288542, Alt.=809.648926m. Speed=43.560001m/h.</desc>
<speed>12.100000</speed>
</trkpt>
<trkpt lat="43.151310" lon="19.289139">
<ele>805.242676</ele>
<time>2012-05-03T00:45:55Z</time>
<desc>lat.=43.151310, lon.=19.289139, Alt.=805.242676m. Speed=44.243999m/h.</desc>
<speed>12.290000</speed>
</trkpt>
<trkpt lat="43.150871" lon="19.289564">
<ele>802.586426</ele>
<time>2012-05-03T00:46:00Z</time>
<desc>lat.=43.150871, lon.=19.289564, Alt.=802.586426m. Speed=44.099998m/h.</desc>
<speed>12.250000</speed>
</trkpt>
<trkpt lat="43.150303" lon="19.289614">
<ele>799.352051</ele>
<time>2012-05-03T00:46:05Z</time>
<desc>lat.=43.150303, lon.=19.289614, Alt.=799.352051m. Speed=45.324001m/h.</desc>
<speed>12.590000</speed>
</trkpt>
<trkpt lat="43.149761" lon="19.289486">
<ele>797.508301</ele>
<time>2012-05-03T00:46:10Z</time>
<desc>lat.=43.149761, lon.=19.289486, Alt.=797.508301m. Speed=42.192001m/h.</desc>
<speed>11.720000</speed>
</trkpt>
<trkpt lat="43.149246" lon="19.289474">
<ele>794.648926</ele>
<time>2012-05-03T00:46:15Z</time>
<desc>lat.=43.149246, lon.=19.289474, Alt.=794.648926m. Speed=41.543999m/h.</desc>
<speed>11.540000</speed>
</trkpt>
<trkpt lat="43.148907" lon="19.289921">
<ele>791.430176</ele>
<time>2012-05-03T00:46:20Z</time>
<desc>lat.=43.148907, lon.=19.289921, Alt.=791.430176m. Speed=41.436001m/h.</desc>
<speed>11.510000</speed>
</trkpt>
<trkpt lat="43.148766" lon="19.290609">
<ele>788.680176</ele>
<time>2012-05-03T00:46:25Z</time>
<desc>lat.=43.148766, lon.=19.290609, Alt.=788.680176m. Speed=41.832001m/h.</desc>
<speed>11.620000</speed>
</trkpt>
<trkpt lat="43.148640" lon="19.291296">
<ele>785.430176</ele>
<time>2012-05-03T00:46:30Z</time>
<desc>lat.=43.148640, lon.=19.291296, Alt.=785.430176m. Speed=38.916000m/h.</desc>
<speed>10.810000</speed>
</trkpt>
<trkpt lat="43.148548" lon="19.291862">
<ele>782.398926</ele>
<time>2012-05-03T00:46:35Z</time>
<desc>lat.=43.148548, lon.=19.291862, Alt.=782.398926m. Speed=29.664000m/h.</desc>
<speed>8.240000</speed>
</trkpt>
<trkpt lat="43.148624" lon="19.292381">
<ele>779.383301</ele>
<time>2012-05-03T00:46:40Z</time>
<desc>lat.=43.148624, lon.=19.292381, Alt.=779.383301m. Speed=35.891998m/h.</desc>
<speed>9.970000</speed>
</trkpt>
<trkpt lat="43.148865" lon="19.293056">
<ele>776.727051</ele>
<time>2012-05-03T00:46:45Z</time>
<desc>lat.=43.148865, lon.=19.293056, Alt.=776.727051m. Speed=47.916000m/h.</desc>
<speed>13.310000</speed>
</trkpt>
<trkpt lat="43.149227" lon="19.293777">
<ele>775.977051</ele>
<time>2012-05-03T00:46:50Z</time>
<desc>lat.=43.149227, lon.=19.293777, Alt.=775.977051m. Speed=52.487999m/h.</desc>
<speed>14.580000</speed>
</trkpt>
<trkpt lat="43.149693" lon="19.294468">
<ele>775.102051</ele>
<time>2012-05-03T00:46:55Z</time>
<desc>lat.=43.149693, lon.=19.294468, Alt.=775.102051m. Speed=56.088001m/h.</desc>
<speed>15.580000</speed>
</trkpt>
<trkpt lat="43.150219" lon="19.295103">
<ele>774.852051</ele>
<time>2012-05-03T00:47:00Z</time>
<desc>lat.=43.150219, lon.=19.295103, Alt.=774.852051m. Speed=53.568001m/h.</desc>
<speed>14.880000</speed>
</trkpt>
<trkpt lat="43.150696" lon="19.295664">
<ele>774.852051</ele>
<time>2012-05-03T00:47:05Z</time>
<desc>lat.=43.150696, lon.=19.295664, Alt.=774.852051m. Speed=47.448002m/h.</desc>
<speed>13.180001</speed>
</trkpt>
<trkpt lat="43.151230" lon="19.296005">
<ele>777.289551</ele>
<time>2012-05-03T00:47:10Z</time>
<desc>lat.=43.151230, lon.=19.296005, Alt.=777.289551m. Speed=52.416000m/h.</desc>
<speed>14.560000</speed>
</trkpt>
<trkpt lat="43.151920" lon="19.296078">
<ele>779.117676</ele>
<time>2012-05-03T00:47:15Z</time>
<desc>lat.=43.151920, lon.=19.296078, Alt.=779.117676m. Speed=54.467999m/h.</desc>
<speed>15.130000</speed>
</trkpt>
<trkpt lat="43.152573" lon="19.296242">
<ele>781.836426</ele>
<time>2012-05-03T00:47:20Z</time>
<desc>lat.=43.152573, lon.=19.296242, Alt.=781.836426m. Speed=52.596001m/h.</desc>
<speed>14.610000</speed>
</trkpt>
<trkpt lat="43.153179" lon="19.296080">
<ele>784.852051</ele>
<time>2012-05-03T00:47:25Z</time>
<desc>lat.=43.153179, lon.=19.296080, Alt.=784.852051m. Speed=52.523998m/h.</desc>
<speed>14.590000</speed>
</trkpt>
<trkpt lat="43.153728" lon="19.295641">
<ele>792.117676</ele>
<time>2012-05-03T00:47:30Z</time>
<desc>lat.=43.153728, lon.=19.295641, Alt.=792.117676m. Speed=45.251999m/h.</desc>
<speed>12.570000</speed>
</trkpt>
<trkpt lat="43.154278" lon="19.295502">
<ele>797.227051</ele>
<time>2012-05-03T00:47:35Z</time>
<desc>lat.=43.154278, lon.=19.295502, Alt.=797.227051m. Speed=45.792000m/h.</desc>
<speed>12.720000</speed>
</trkpt>
<trkpt lat="43.154827" lon="19.295753">
<ele>801.602051</ele>
<time>2012-05-03T00:47:40Z</time>
<desc>lat.=43.154827, lon.=19.295753, Alt.=801.602051m. Speed=46.223999m/h.</desc>
<speed>12.840000</speed>
</trkpt>
<trkpt lat="43.155350" lon="19.296129">
<ele>806.945801</ele>
<time>2012-05-03T00:47:45Z</time>
<desc>lat.=43.155350, lon.=19.296129, Alt.=806.945801m. Speed=45.936001m/h.</desc>
<speed>12.760000</speed>
</trkpt>
<trkpt lat="43.155914" lon="19.296352">
<ele>810.602051</ele>
<time>2012-05-03T00:47:50Z</time>
<desc>lat.=43.155914, lon.=19.296352, Alt.=810.602051m. Speed=48.528000m/h.</desc>
<speed>13.480000</speed>
</trkpt>
<trkpt lat="43.156479" lon="19.296415">
<ele>813.320801</ele>
<time>2012-05-03T00:47:55Z</time>
<desc>lat.=43.156479, lon.=19.296415, Alt.=813.320801m. Speed=43.848000m/h.</desc>
<speed>12.180000</speed>
</trkpt>
<trkpt lat="43.157017" lon="19.296261">
<ele>816.930176</ele>
<time>2012-05-03T00:48:00Z</time>
<desc>lat.=43.157017, lon.=19.296261, Alt.=816.930176m. Speed=45.647999m/h.</desc>
<speed>12.680000</speed>
</trkpt>
<trkpt lat="43.157444" lon="19.295742">
<ele>821.836426</ele>
<time>2012-05-03T00:48:05Z</time>
<desc>lat.=43.157444, lon.=19.295742, Alt.=821.836426m. Speed=46.439999m/h.</desc>
<speed>12.900000</speed>
</trkpt>
<trkpt lat="43.157661" lon="19.295013">
<ele>825.539551</ele>
<time>2012-05-03T00:48:10Z</time>
<desc>lat.=43.157661, lon.=19.295013, Alt.=825.539551m. Speed=43.812000m/h.</desc>
<speed>12.170000</speed>
</trkpt>
<trkpt lat="43.157921" lon="19.294395">
<ele>829.852051</ele>
<time>2012-05-03T00:48:15Z</time>
<desc>lat.=43.157921, lon.=19.294395, Alt.=829.852051m. Speed=42.875999m/h.</desc>
<speed>11.910000</speed>
</trkpt>
<trkpt lat="43.158344" lon="19.293978">
<ele>835.758301</ele>
<time>2012-05-03T00:48:20Z</time>
<desc>lat.=43.158344, lon.=19.293978, Alt.=835.758301m. Speed=41.076000m/h.</desc>
<speed>11.410000</speed>
</trkpt>
<trkpt lat="43.158772" lon="19.293901">
<ele>839.492676</ele>
<time>2012-05-03T00:48:25Z</time>
<desc>lat.=43.158772, lon.=19.293901, Alt.=839.492676m. Speed=24.408001m/h.</desc>
<speed>6.780000</speed>
</trkpt>
<trkpt lat="43.158936" lon="19.293940">
<ele>841.289551</ele>
<time>2012-05-03T00:48:30Z</time>
<desc>lat.=43.158936, lon.=19.293940, Alt.=841.289551m. Speed=6.984000m/h.</desc>
<speed>1.940000</speed>
</trkpt>
<trkpt lat="43.158985" lon="19.293913">
<ele>842.195801</ele>
<time>2012-05-03T00:48:35Z</time>
<desc>lat.=43.158985, lon.=19.293913, Alt.=842.195801m. Speed=3.240000m/h.</desc>
<speed>0.900000</speed>
</trkpt>
<trkpt lat="43.158981" lon="19.293892">
<ele>842.508301</ele>
<time>2012-05-03T00:48:40Z</time>
<desc>lat.=43.158981, lon.=19.293892, Alt.=842.508301m. Speed=2.628000m/h.</desc>
<speed>0.730000</speed>
</trkpt>
<trkpt lat="43.158970" lon="19.293812">
<ele>841.789551</ele>
<time>2012-05-03T00:48:45Z</time>
<desc>lat.=43.158970, lon.=19.293812, Alt.=841.789551m. Speed=8.172000m/h.</desc>
<speed>2.270000</speed>
</trkpt>
<trkpt lat="43.158932" lon="19.293697">
<ele>841.430176</ele>
<time>2012-05-03T00:48:50Z</time>
<desc>lat.=43.158932, lon.=19.293697, Alt.=841.430176m. Speed=4.896000m/h.</desc>
<speed>1.360000</speed>
</trkpt>
<trkpt lat="43.158920" lon="19.293633">
<ele>841.898926</ele>
<time>2012-05-03T00:48:55Z</time>
<desc>lat.=43.158920, lon.=19.293633, Alt.=841.898926m. Speed=4.716000m/h.</desc>
<speed>1.310000</speed>
</trkpt>
<trkpt lat="43.158913" lon="19.293552">
<ele>841.492676</ele>
<time>2012-05-03T00:49:00Z</time>
<desc>lat.=43.158913, lon.=19.293552, Alt.=841.492676m. Speed=7.344000m/h.</desc>
<speed>2.040000</speed>
</trkpt>
<trkpt lat="43.158920" lon="19.293400">
<ele>838.977051</ele>
<time>2012-05-03T00:49:05Z</time>
<desc>lat.=43.158920, lon.=19.293400, Alt.=838.977051m. Speed=9.180000m/h.</desc>
<speed>2.550000</speed>
</trkpt>
<trkpt lat="43.158939" lon="19.293236">
<ele>836.711426</ele>
<time>2012-05-03T00:49:10Z</time>
<desc>lat.=43.158939, lon.=19.293236, Alt.=836.711426m. Speed=10.980000m/h.</desc>
<speed>3.050000</speed>
</trkpt>
<trkpt lat="43.158958" lon="19.293058">
<ele>834.492676</ele>
<time>2012-05-03T00:49:15Z</time>
<desc>lat.=43.158958, lon.=19.293058, Alt.=834.492676m. Speed=10.080000m/h.</desc>
<speed>2.800000</speed>
</trkpt>
<trkpt lat="43.158981" lon="19.292892">
<ele>832.648926</ele>
<time>2012-05-03T00:49:20Z</time>
<desc>lat.=43.158981, lon.=19.292892, Alt.=832.648926m. Speed=8.676000m/h.</desc>
<speed>2.410000</speed>
</trkpt>
<trkpt lat="43.158981" lon="19.292774">
<ele>832.695801</ele>
<time>2012-05-03T00:49:25Z</time>
<desc>lat.=43.158981, lon.=19.292774, Alt.=832.695801m. Speed=6.192000m/h.</desc>
<speed>1.720000</speed>
</trkpt>
<trkpt lat="43.158989" lon="19.292679">
<ele>831.820801</ele>
<time>2012-05-03T00:49:30Z</time>
<desc>lat.=43.158989, lon.=19.292679, Alt.=831.820801m. Speed=5.112000m/h.</desc>
<speed>1.420000</speed>
</trkpt>
<trkpt lat="43.158993" lon="19.292665">
<ele>831.727051</ele>
<time>2012-05-03T00:49:35Z</time>
<desc>lat.=43.158993, lon.=19.292665, Alt.=831.727051m. Speed=0.936000m/h.</desc>
<speed>0.260000</speed>
</trkpt>
<trkpt lat="43.158985" lon="19.292688">
<ele>831.695801</ele>
<time>2012-05-03T00:49:40Z</time>
<desc>lat.=43.158985, lon.=19.292688, Alt.=831.695801m. Speed=0.252000m/h.</desc>
<speed>0.070000</speed>
</trkpt>
<trkpt lat="43.158985" lon="19.292690">
<ele>831.398926</ele>
<time>2012-05-03T00:49:45Z</time>
<desc>lat.=43.158985, lon.=19.292690, Alt.=831.398926m. Speed=0.036000m/h.</desc>
<speed>0.010000</speed>
</trkpt>
<trkpt lat="43.158989" lon="19.292688">
<ele>831.273926</ele>
<time>2012-05-03T00:49:50Z</time>
<desc>lat.=43.158989, lon.=19.292688, Alt.=831.273926m. Speed=0.432000m/h.</desc>
<speed>0.120000</speed>
</trkpt>
<trkpt lat="43.158993" lon="19.292681">
<ele>831.164551</ele>
<time>2012-05-03T00:49:55Z</time>
<desc>lat.=43.158993, lon.=19.292681, Alt.=831.164551m. Speed=0.720000m/h.</desc>
<speed>0.200000</speed>
</trkpt>
<trkpt lat="43.159000" lon="19.292673">
<ele>831.055176</ele>
<time>2012-05-03T00:50:00Z</time>
<desc>lat.=43.159000, lon.=19.292673, Alt.=831.055176m. Speed=0.324000m/h.</desc>
<speed>0.090000</speed>
</trkpt>
<trkpt lat="43.159000" lon="19.292671">
<ele>831.023926</ele>
<time>2012-05-03T00:50:05Z</time>
<desc>lat.=43.159000, lon.=19.292671, Alt.=831.023926m. Speed=0.036000m/h.</desc>
<speed>0.010000</speed>
</trkpt>
<trkpt lat="43.159000" lon="19.292673">
<ele>831.055176</ele>
<time>2012-05-03T00:50:10Z</time>
<desc>lat.=43.159000, lon.=19.292673, Alt.=831.055176m. Speed=0.072000m/h.</desc>
<speed>0.020000</speed>
</trkpt>
<trkpt lat="43.159000" lon="19.292671">
<ele>831.117676</ele>
<time>2012-05-03T00:50:15Z</time>
<desc>lat.=43.159000, lon.=19.292671, Alt.=831.117676m. Speed=0.000000m/h.</desc>
<speed>0.000000</speed>
</trkpt>
<trkpt lat="43.159000" lon="19.292671">
<ele>831.148926</ele>
<time>2012-05-03T00:50:20Z</time>
<desc>lat.=43.159000, lon.=19.292671, Alt.=831.148926m. Speed=0.072000m/h.</desc>
<speed>0.020000</speed>
</trkpt>
<trkpt lat="43.159000" lon="19.292671">
<ele>831.195801</ele>
<time>2012-05-03T00:50:25Z</time>
<desc>lat.=43.159000, lon.=19.292671, Alt.=831.195801m. Speed=0.000000m/h.</desc>
<speed>0.000000</speed>
</trkpt>
<trkpt lat="43.159000" lon="19.292671">
<ele>831.195801</ele>
<time>2012-05-03T00:50:30Z</time>
<desc>lat.=43.159000, lon.=19.292671, Alt.=831.195801m. Speed=0.036000m/h.</desc>
<speed>0.010000</speed>
</trkpt>
<trkpt lat="43.159004" lon="19.292671">
<ele>831.227051</ele>
<time>2012-05-03T00:50:35Z</time>
<desc>lat.=43.159004, lon.=19.292671, Alt.=831.227051m. Speed=0.036000m/h.</desc>
<speed>0.010000</speed>
</trkpt>
<trkpt lat="43.159004" lon="19.292671">
<ele>831.273926</ele>
<time>2012-05-03T00:50:40Z</time>
<desc>lat.=43.159004, lon.=19.292671, Alt.=831.273926m. Speed=0.036000m/h.</desc>
<speed>0.010000</speed>
</trkpt>
<trkpt lat="43.159004" lon="19.292671">
<ele>831.305176</ele>
<time>2012-05-03T00:50:45Z</time>
<desc>lat.=43.159004, lon.=19.292671, Alt.=831.305176m. Speed=0.000000m/h.</desc>
<speed>0.000000</speed>
</trkpt>
<trkpt lat="43.159004" lon="19.292671">
<ele>831.305176</ele>
<time>2012-05-03T00:50:50Z</time>
<desc>lat.=43.159004, lon.=19.292671, Alt.=831.305176m. Speed=0.036000m/h.</desc>
<speed>0.010000</speed>
</trkpt>
</trkseg>
</trk>
</gpx>